<?xml version='1.0' encoding='UTF-8'?><gpx version="1.1" creator="JPX - https://github.com/jenetics/jpx" xmlns="http://www.topografix.com/GPX/1/1"><trk><trkseg><trkpt lat="45.44907106289866" lon="9.06985063585562"><ele>123.0</ele><time>2026-05-03T07:42:23.998Z</time></trkpt><trkpt lat="45.4490595231363" lon="9.06975924016612"><ele>123.0</ele><time>2026-05-03T07:42:35.017Z</time></trkpt><trkpt lat="45.44897566449599" lon="9.069753675695734"><ele>123.0</ele><time>2026-05-03T07:42:41.999Z</time></trkpt><trkpt lat="45.44902349107129" lon="9.069818948507985"><ele>123.0</ele><time>2026-05-03T07:42:56Z</time></trkpt><trkpt lat="45.448937788865855" lon="9.06980909594198"><ele>123.0</ele><time>2026-05-03T07:43:04Z</time></trkpt><trkpt lat="45.448955612607875" lon="9.069981316060147"><ele>123.0</ele><time>2026-05-03T07:43:05Z</time></trkpt><trkpt lat="45.44885226973196" lon="9.069908667982222"><ele>123.0</ele><time>2026-05-03T07:43:06Z</time></trkpt><trkpt lat="45.44879138003114" lon="9.069875432019995"><ele>123.00000000000001</ele><time>2026-05-03T07:43:09Z</time></trkpt><trkpt lat="45.44871107953409" lon="9.069732784598715"><ele>123.00000000000001</ele><time>2026-05-03T07:43:12Z</time></trkpt><trkpt lat="45.448693204067006" lon="9.069640805647246"><ele>123.0</ele><time>2026-05-03T07:43:13Z</time></trkpt><trkpt lat="45.44863975620786" lon="9.069475801264854"><ele>123.0</ele><time>2026-05-03T07:43:15Z</time></trkpt><trkpt lat="45.44862231829231" lon="9.069365828166017"><ele>123.0</ele><time>2026-05-03T07:43:16Z</time></trkpt><trkpt lat="45.44859020378974" lon="9.069254897714856"><ele>123.0</ele><time>2026-05-03T07:43:17Z</time></trkpt><trkpt lat="45.448541207486564" lon="9.069146494229333"><ele>123.0</ele><time>2026-05-03T07:43:18Z</time></trkpt><trkpt lat="45.44851173265229" lon="9.069042873734839"><ele>123.0</ele><time>2026-05-03T07:43:19Z</time></trkpt><trkpt lat="45.44848232033693" lon="9.068929117522938"><ele>123.0</ele><time>2026-05-03T07:43:20Z</time></trkpt><trkpt lat="45.44844590078229" lon="9.068813819210174"><ele>123.0</ele><time>2026-05-03T07:43:21Z</time></trkpt><trkpt lat="45.44840885891137" lon="9.068699636210003"><ele>123.0</ele><time>2026-05-03T07:43:22Z</time></trkpt><trkpt lat="45.448372474227526" lon="9.068577258949906"><ele>123.0</ele><time>2026-05-03T07:43:23Z</time></trkpt><trkpt lat="45.448335298132896" lon="9.068456640951773"><ele>123.0</ele><time>2026-05-03T07:43:24Z</time></trkpt><trkpt lat="45.44829697886033" lon="9.068332911396721"><ele>123.0</ele><time>2026-05-03T07:43:25Z</time></trkpt><trkpt lat="45.4482687506925" lon="9.068213832353262"><ele>123.0</ele><time>2026-05-03T07:43:26Z</time></trkpt><trkpt lat="45.44823713783596" lon="9.068119406986865"><ele>123.0</ele><time>2026-05-03T07:43:27Z</time></trkpt><trkpt lat="45.448226341900956" lon="9.067953193421276"><ele>122.83333333333333</ele><time>2026-05-03T07:43:29Z</time></trkpt><trkpt lat="45.44823807025378" lon="9.06785831566135"><ele>122.66666666666666</ele><time>2026-05-03T07:43:30Z</time></trkpt><trkpt lat="45.448279170697816" lon="9.067764185830093"><ele>122.5</ele><time>2026-05-03T07:43:31Z</time></trkpt><trkpt lat="45.448384733790725" lon="9.067720863117522"><ele>122.33333333333333</ele><time>2026-05-03T07:43:32Z</time></trkpt><trkpt lat="45.44846330071768" lon="9.067662990840518"><ele>122.16666666666666</ele><time>2026-05-03T07:43:33Z</time></trkpt><trkpt lat="45.44854466498515" lon="9.067620746972837"><ele>122.0</ele><time>2026-05-03T07:43:34Z</time></trkpt><trkpt lat="45.44863518917598" lon="9.067544429467583"><ele>122.0</ele><time>2026-05-03T07:43:35Z</time></trkpt><trkpt lat="45.44872651892835" lon="9.067475440141958"><ele>122.0</ele><time>2026-05-03T07:43:36Z</time></trkpt><trkpt lat="45.44880181435835" lon="9.067410266365119"><ele>122.0</ele><time>2026-05-03T07:43:37Z</time></trkpt><trkpt lat="45.448851071358284" lon="9.067333942624606"><ele>122.0</ele><time>2026-05-03T07:43:38Z</time></trkpt><trkpt lat="45.44881349843252" lon="9.067035705010532"><ele>121.6</ele><time>2026-05-03T07:43:41Z</time></trkpt><trkpt lat="45.44877415714029" lon="9.066922641472543"><ele>121.19999999999999</ele><time>2026-05-03T07:43:42Z</time></trkpt><trkpt lat="45.44872831642457" lon="9.066790899107758"><ele>120.8</ele><time>2026-05-03T07:43:43Z</time></trkpt><trkpt lat="45.44867666087782" lon="9.066667682745248"><ele>120.4</ele><time>2026-05-03T07:43:44Z</time></trkpt><trkpt lat="45.44862602223812" lon="9.066531836256859"><ele>120.0</ele><time>2026-05-03T07:43:45Z</time></trkpt><trkpt lat="45.44858042562951" lon="9.066401143700727"><ele>120.0</ele><time>2026-05-03T07:43:45.999Z</time></trkpt><trkpt lat="45.44853133565865" lon="9.066259592243908"><ele>120.0</ele><time>2026-05-03T07:43:46.999Z</time></trkpt><trkpt lat="45.44847540132859" lon="9.066113639466662"><ele>120.0</ele><time>2026-05-03T07:43:47.999Z</time></trkpt><trkpt lat="45.44842904877394" lon="9.065955158115825"><ele>120.0</ele><time>2026-05-03T07:43:48.999Z</time></trkpt><trkpt lat="45.44837138516104" lon="9.065799974614134"><ele>120.5</ele><time>2026-05-03T07:43:49.999Z</time></trkpt><trkpt lat="45.44831595083492" lon="9.065637300174181"><ele>121.0</ele><time>2026-05-03T07:43:50.999Z</time></trkpt><trkpt lat="45.44826010129455" lon="9.065477640632464"><ele>121.5</ele><time>2026-05-03T07:43:51.999Z</time></trkpt><trkpt lat="45.44821165956342" lon="9.065325705226027"><ele>122.0</ele><time>2026-05-03T07:43:52.999Z</time></trkpt><trkpt lat="45.44815845976969" lon="9.065180377167302"><ele>122.0</ele><time>2026-05-03T07:43:53.999Z</time></trkpt><trkpt lat="45.448113680971126" lon="9.06502491743822"><ele>121.99999999999999</ele><time>2026-05-03T07:43:54.999Z</time></trkpt><trkpt lat="45.448057507483114" lon="9.064883387509408"><ele>121.99999999999999</ele><time>2026-05-03T07:43:55.999Z</time></trkpt><trkpt lat="45.44801821031463" lon="9.06475520188726"><ele>122.0</ele><time>2026-05-03T07:43:56.999Z</time></trkpt><trkpt lat="45.44797454168735" lon="9.06464552547136"><ele>122.0</ele><time>2026-05-03T07:43:57.999Z</time></trkpt><trkpt lat="45.4479475234068" lon="9.064543479718457"><ele>122.16666666666666</ele><time>2026-05-03T07:43:58.999Z</time></trkpt><trkpt lat="45.44791529055006" lon="9.064445421385232"><ele>122.33333333333333</ele><time>2026-05-03T07:43:59.999Z</time></trkpt><trkpt lat="45.44789696445532" lon="9.064347676727186"><ele>122.5</ele><time>2026-05-03T07:44:00.999Z</time></trkpt><trkpt lat="45.44790619865496" lon="9.06425420034899"><ele>122.66666666666666</ele><time>2026-05-03T07:44:02Z</time></trkpt><trkpt lat="45.447949715762476" lon="9.064173539320006"><ele>122.83333333333333</ele><time>2026-05-03T07:44:03Z</time></trkpt><trkpt lat="45.448036148015" lon="9.064110215749546"><ele>123.0</ele><time>2026-05-03T07:44:04Z</time></trkpt><trkpt lat="45.448141329999046" lon="9.064088660285195"><ele>122.25</ele><time>2026-05-03T07:44:05Z</time></trkpt><trkpt lat="45.44825151074619" lon="9.064063933846066"><ele>121.5</ele><time>2026-05-03T07:44:06Z</time></trkpt><trkpt lat="45.44836396671579" lon="9.064034353091794"><ele>120.75</ele><time>2026-05-03T07:44:07Z</time></trkpt><trkpt lat="45.44847638259557" lon="9.064006254516626"><ele>120.0</ele><time>2026-05-03T07:44:08Z</time></trkpt><trkpt lat="45.448584112851364" lon="9.063968718522805"><ele>120.0</ele><time>2026-05-03T07:44:09Z</time></trkpt><trkpt lat="45.44868561852263" lon="9.063915852272046"><ele>120.0</ele><time>2026-05-03T07:44:10Z</time></trkpt><trkpt lat="45.4487862948355" lon="9.06383680164893"><ele>120.0</ele><time>2026-05-03T07:44:11Z</time></trkpt><trkpt lat="45.448866417619584" lon="9.063716673913609"><ele>120.0</ele><time>2026-05-03T07:44:12Z</time></trkpt><trkpt lat="45.44895528672471" lon="9.063596297065741"><ele>120.0</ele><time>2026-05-03T07:44:13Z</time></trkpt><trkpt lat="45.449044919926344" lon="9.063481462742287"><ele>120.0</ele><time>2026-05-03T07:44:14Z</time></trkpt><trkpt lat="45.449141305672704" lon="9.063362296692924"><ele>120.0</ele><time>2026-05-03T07:44:15Z</time></trkpt><trkpt lat="45.44923752932314" lon="9.063235598274604"><ele>120.0</ele><time>2026-05-03T07:44:16Z</time></trkpt><trkpt lat="45.44933088584706" lon="9.063117952267856"><ele>120.5</ele><time>2026-05-03T07:44:17Z</time></trkpt><trkpt lat="45.449426246685356" lon="9.063006511762811"><ele>121.0</ele><time>2026-05-03T07:44:18Z</time></trkpt><trkpt lat="45.4495334881272" lon="9.062900152422191"><ele>121.5</ele><time>2026-05-03T07:44:19Z</time></trkpt><trkpt lat="45.44962639236889" lon="9.062773404840096"><ele>122.0</ele><time>2026-05-03T07:44:20Z</time></trkpt><trkpt lat="45.449733523878045" lon="9.062660185625436"><ele>122.0</ele><time>2026-05-03T07:44:21Z</time></trkpt><trkpt lat="45.44983865713082" lon="9.062538004843693"><ele>122.0</ele><time>2026-05-03T07:44:22Z</time></trkpt><trkpt lat="45.449945227102866" lon="9.062410416155458"><ele>122.0</ele><time>2026-05-03T07:44:23Z</time></trkpt><trkpt lat="45.450052920116974" lon="9.062282617769998"><ele>122.0</ele><time>2026-05-03T07:44:24Z</time></trkpt><trkpt lat="45.4501672205319" lon="9.0621598552414"><ele>122.0</ele><time>2026-05-03T07:44:25Z</time></trkpt><trkpt lat="45.450278480818326" lon="9.06202699641339"><ele>122.0</ele><time>2026-05-03T07:44:26Z</time></trkpt><trkpt lat="45.45039689376866" lon="9.06191056221326"><ele>122.0</ele><time>2026-05-03T07:44:27Z</time></trkpt><trkpt lat="45.45052138092493" lon="9.06177805074418"><ele>122.0</ele><time>2026-05-03T07:44:28Z</time></trkpt><trkpt lat="45.450624619094995" lon="9.061639962275299"><ele>122.25</ele><time>2026-05-03T07:44:29Z</time></trkpt><trkpt lat="45.45074240723432" lon="9.06150233956954"><ele>122.5</ele><time>2026-05-03T07:44:30Z</time></trkpt><trkpt lat="45.450856649877835" lon="9.06137292986118"><ele>122.75</ele><time>2026-05-03T07:44:31Z</time></trkpt><trkpt lat="45.45096072128969" lon="9.061254806435318"><ele>123.0</ele><time>2026-05-03T07:44:32Z</time></trkpt><trkpt lat="45.45105183533203" lon="9.061148215714397"><ele>123.0</ele><time>2026-05-03T07:44:33Z</time></trkpt><trkpt lat="45.451137981270755" lon="9.061051547811202"><ele>123.00000000000001</ele><time>2026-05-03T07:44:34Z</time></trkpt><trkpt lat="45.45121381471665" lon="9.060964174571556"><ele>123.00000000000001</ele><time>2026-05-03T07:44:35Z</time></trkpt><trkpt lat="45.451284060179425" lon="9.060884115432971"><ele>123.0</ele><time>2026-05-03T07:44:36Z</time></trkpt><trkpt lat="45.45135510338487" lon="9.060814949395937"><ele>123.0</ele><time>2026-05-03T07:44:37Z</time></trkpt><trkpt lat="45.45142255440068" lon="9.060729039707647"><ele>123.0</ele><time>2026-05-03T07:44:38Z</time></trkpt><trkpt lat="45.451501624297386" lon="9.06063673828923"><ele>123.00000000000001</ele><time>2026-05-03T07:44:39Z</time></trkpt><trkpt lat="45.45158648498838" lon="9.06054108605533"><ele>123.00000000000001</ele><time>2026-05-03T07:44:40Z</time></trkpt><trkpt lat="45.451676553680024" lon="9.06044548088233"><ele>123.0</ele><time>2026-05-03T07:44:41Z</time></trkpt><trkpt lat="45.451770246866445" lon="9.06033278407472"><ele>123.0</ele><time>2026-05-03T07:44:42Z</time></trkpt><trkpt lat="45.45186718184319" lon="9.060224347363809"><ele>123.0</ele><time>2026-05-03T07:44:43Z</time></trkpt><trkpt lat="45.45196744709385" lon="9.06010519383475"><ele>123.0</ele><time>2026-05-03T07:44:44Z</time></trkpt><trkpt lat="45.452070684402145" lon="9.05998548318875"><ele>123.0</ele><time>2026-05-03T07:44:45Z</time></trkpt><trkpt lat="45.452179362902534" lon="9.059859551784237"><ele>123.0</ele><time>2026-05-03T07:44:46Z</time></trkpt><trkpt lat="45.45229550982957" lon="9.059731484376014"><ele>123.5</ele><time>2026-05-03T07:44:47Z</time></trkpt><trkpt lat="45.45240373513559" lon="9.05960452967495"><ele>124.0</ele><time>2026-05-03T07:44:48Z</time></trkpt><trkpt lat="45.45251833995508" lon="9.059474806601154"><ele>124.5</ele><time>2026-05-03T07:44:49Z</time></trkpt><trkpt lat="45.452619264373396" lon="9.059360527377363"><ele>125.0</ele><time>2026-05-03T07:44:50Z</time></trkpt><trkpt lat="45.452711447277046" lon="9.059257947292533"><ele>125.0</ele><time>2026-05-03T07:44:51Z</time></trkpt><trkpt lat="45.45279412539057" lon="9.059162253791593"><ele>125.0</ele><time>2026-05-03T07:44:52Z</time></trkpt><trkpt lat="45.4528710485737" lon="9.059078018659196"><ele>125.0</ele><time>2026-05-03T07:44:53Z</time></trkpt><trkpt lat="45.45294393987452" lon="9.058997955686607"><ele>125.0</ele><time>2026-05-03T07:44:54Z</time></trkpt><trkpt lat="45.453000133098726" lon="9.058928631273721"><ele>125.0</ele><time>2026-05-03T07:44:55Z</time></trkpt><trkpt lat="45.453066888975634" lon="9.058792456002807"><ele>124.8</ele><time>2026-05-03T07:44:57Z</time></trkpt><trkpt lat="45.453042092216606" lon="9.058643611567366"><ele>124.6</ele><time>2026-05-03T07:44:59Z</time></trkpt><trkpt lat="45.45296809194154" lon="9.058535638621475"><ele>124.4</ele><time>2026-05-03T07:45:00Z</time></trkpt><trkpt lat="45.45290640812841" lon="9.058431239907733"><ele>124.2</ele><time>2026-05-03T07:45:01Z</time></trkpt><trkpt lat="45.45283882024416" lon="9.058317156695008"><ele>124.0</ele><time>2026-05-03T07:45:02Z</time></trkpt><trkpt lat="45.45276491554174" lon="9.058211653456672"><ele>123.6</ele><time>2026-05-03T07:45:03Z</time></trkpt><trkpt lat="45.45271327793512" lon="9.058116836015788"><ele>123.2</ele><time>2026-05-03T07:45:04Z</time></trkpt><trkpt lat="45.452664186126164" lon="9.058040719488952"><ele>122.79999999999998</ele><time>2026-05-03T07:45:05Z</time></trkpt><trkpt lat="45.45265404994865" lon="9.057890433615949"><ele>122.39999999999999</ele><time>2026-05-03T07:45:07Z</time></trkpt><trkpt lat="45.45274785584605" lon="9.057767218585317"><ele>122.0</ele><time>2026-05-03T07:45:09Z</time></trkpt><trkpt lat="45.452828036901025" lon="9.057692930339147"><ele>122.0</ele><time>2026-05-03T07:45:10Z</time></trkpt><trkpt lat="45.4529136061111" lon="9.057615137223834"><ele>121.99999999999999</ele><time>2026-05-03T07:45:11Z</time></trkpt><trkpt lat="45.452996161882105" lon="9.057534077008238"><ele>121.99999999999999</ele><time>2026-05-03T07:45:12Z</time></trkpt><trkpt lat="45.45308366563939" lon="9.057439225239682"><ele>122.0</ele><time>2026-05-03T07:45:13Z</time></trkpt><trkpt lat="45.453176142117215" lon="9.057339299771607"><ele>122.0</ele><time>2026-05-03T07:45:14Z</time></trkpt><trkpt lat="45.453254456806036" lon="9.057259899586949"><ele>122.19999999999999</ele><time>2026-05-03T07:45:15Z</time></trkpt><trkpt lat="45.45332573995531" lon="9.057195821110094"><ele>122.39999999999999</ele><time>2026-05-03T07:45:16Z</time></trkpt><trkpt lat="45.45339813846102" lon="9.057125286647079"><ele>122.60000000000001</ele><time>2026-05-03T07:45:17Z</time></trkpt><trkpt lat="45.453476836394714" lon="9.057041354174345"><ele>122.80000000000001</ele><time>2026-05-03T07:45:18Z</time></trkpt><trkpt lat="45.45355362715926" lon="9.056946804234077"><ele>123.0</ele><time>2026-05-03T07:45:19Z</time></trkpt><trkpt lat="45.453639652448075" lon="9.056848330662344"><ele>123.0</ele><time>2026-05-03T07:45:20Z</time></trkpt><trkpt lat="45.45373157074876" lon="9.056758257763356"><ele>123.0</ele><time>2026-05-03T07:45:21Z</time></trkpt><trkpt lat="45.45381741674732" lon="9.056672485855561"><ele>123.0</ele><time>2026-05-03T07:45:22Z</time></trkpt><trkpt lat="45.453890470857246" lon="9.056596485744617"><ele>123.0</ele><time>2026-05-03T07:45:23Z</time></trkpt><trkpt lat="45.45395071624306" lon="9.056535504119012"><ele>123.0</ele><time>2026-05-03T07:45:24Z</time></trkpt><trkpt lat="45.45400641554693" lon="9.056478361930916"><ele>123.0</ele><time>2026-05-03T07:45:25Z</time></trkpt><trkpt lat="45.45410117691016" lon="9.056436519923947"><ele>122.80000000000001</ele><time>2026-05-03T07:45:27Z</time></trkpt><trkpt lat="45.454149470472814" lon="9.056594838009964"><ele>122.60000000000001</ele><time>2026-05-03T07:45:29Z</time></trkpt><trkpt lat="45.45416952150234" lon="9.056700006163114"><ele>122.39999999999999</ele><time>2026-05-03T07:45:30Z</time></trkpt><trkpt lat="45.454192690467394" lon="9.056807524566368"><ele>122.19999999999999</ele><time>2026-05-03T07:45:31Z</time></trkpt><trkpt lat="45.45423061895165" lon="9.056933807004052"><ele>122.0</ele><time>2026-05-03T07:45:32Z</time></trkpt><trkpt lat="45.45427218102737" lon="9.057062927582903"><ele>122.39999999999999</ele><time>2026-05-03T07:45:33Z</time></trkpt><trkpt lat="45.45430903053718" lon="9.05718685310685"><ele>122.79999999999998</ele><time>2026-05-03T07:45:34Z</time></trkpt><trkpt lat="45.4543464159445" lon="9.057312558394148"><ele>123.2</ele><time>2026-05-03T07:45:35Z</time></trkpt><trkpt lat="45.45438635916765" lon="9.057445133974001"><ele>123.6</ele><time>2026-05-03T07:45:36Z</time></trkpt><trkpt lat="45.454428328302996" lon="9.057587428343368"><ele>124.0</ele><time>2026-05-03T07:45:37Z</time></trkpt><trkpt lat="45.454471609614416" lon="9.057730953192907"><ele>124.0</ele><time>2026-05-03T07:45:38Z</time></trkpt><trkpt lat="45.454512031338126" lon="9.05788652681521"><ele>124.0</ele><time>2026-05-03T07:45:39Z</time></trkpt><trkpt lat="45.45455754377306" lon="9.058041730992016"><ele>124.0</ele><time>2026-05-03T07:45:40Z</time></trkpt><trkpt lat="45.454598162507786" lon="9.058191822951283"><ele>124.0</ele><time>2026-05-03T07:45:40.999Z</time></trkpt><trkpt lat="45.45464302587122" lon="9.058341499899356"><ele>124.0</ele><time>2026-05-03T07:45:41.999Z</time></trkpt><trkpt lat="45.45468630859471" lon="9.058492557669878"><ele>124.0</ele><time>2026-05-03T07:45:42.999Z</time></trkpt><trkpt lat="45.45472927609365" lon="9.058636554389238"><ele>124.0</ele><time>2026-05-03T07:45:43.999Z</time></trkpt><trkpt lat="45.45476362392949" lon="9.0587657983912"><ele>124.0</ele><time>2026-05-03T07:45:44.999Z</time></trkpt><trkpt lat="45.45479412878214" lon="9.058882279752236"><ele>124.0</ele><time>2026-05-03T07:45:45.999Z</time></trkpt><trkpt lat="45.454828444419334" lon="9.058972369397043"><ele>124.0</ele><time>2026-05-03T07:45:46.999Z</time></trkpt><trkpt lat="45.45486058154987" lon="9.059049877136733"><ele>124.0</ele><time>2026-05-03T07:45:47.999Z</time></trkpt><trkpt lat="45.45497806812861" lon="9.059075538116007"><ele>124.0</ele><time>2026-05-03T07:45:49.999Z</time></trkpt><trkpt lat="45.455062529040525" lon="9.059027546997315"><ele>124.0</ele><time>2026-05-03T07:45:51.999Z</time></trkpt><trkpt lat="45.455158251095526" lon="9.059050139846251"><ele>124.0</ele><time>2026-05-03T07:46:10Z</time></trkpt><trkpt lat="45.45527695750218" lon="9.059071927684744"><ele>124.00000000000001</ele><time>2026-05-03T07:46:12Z</time></trkpt><trkpt lat="45.45533843601193" lon="9.059037409477568"><ele>124.0</ele><time>2026-05-03T07:46:13Z</time></trkpt><trkpt lat="45.45540097257936" lon="9.058957809829572"><ele>124.0</ele><time>2026-05-03T07:46:14Z</time></trkpt><trkpt lat="45.45542559381669" lon="9.05884013945534"><ele>124.0</ele><time>2026-05-03T07:46:15Z</time></trkpt><trkpt lat="45.455400181660956" lon="9.058703499786937"><ele>124.00000000000001</ele><time>2026-05-03T07:46:16Z</time></trkpt><trkpt lat="45.45531998099243" lon="9.058603047950832"><ele>124.0</ele><time>2026-05-03T07:46:17Z</time></trkpt><trkpt lat="45.455230394143776" lon="9.058511265073582"><ele>124.0</ele><time>2026-05-03T07:46:18Z</time></trkpt><trkpt lat="45.455162212763916" lon="9.058390740067953"><ele>124.0</ele><time>2026-05-03T07:46:19Z</time></trkpt><trkpt lat="45.45512676797651" lon="9.058226193401032"><ele>124.0</ele><time>2026-05-03T07:46:20Z</time></trkpt><trkpt lat="45.455068883852796" lon="9.058072298612744"><ele>124.0</ele><time>2026-05-03T07:46:21Z</time></trkpt><trkpt lat="45.455031413353574" lon="9.057883188564997"><ele>124.0</ele><time>2026-05-03T07:46:22Z</time></trkpt><trkpt lat="45.45497948745634" lon="9.057715603138588"><ele>124.0</ele><time>2026-05-03T07:46:23Z</time></trkpt><trkpt lat="45.45492960220586" lon="9.057540018153523"><ele>124.0</ele><time>2026-05-03T07:46:24Z</time></trkpt><trkpt lat="45.454876535836505" lon="9.057355297724909"><ele>124.0</ele><time>2026-05-03T07:46:25Z</time></trkpt><trkpt lat="45.45481961195498" lon="9.057165312316378"><ele>124.0</ele><time>2026-05-03T07:46:26Z</time></trkpt><trkpt lat="45.45476284750945" lon="9.056969151982349"><ele>124.0</ele><time>2026-05-03T07:46:27Z</time></trkpt><trkpt lat="45.4547072685135" lon="9.056762891234934"><ele>124.0</ele><time>2026-05-03T07:46:28Z</time></trkpt><trkpt lat="45.45465765824897" lon="9.056562415184654"><ele>123.33333333333334</ele><time>2026-05-03T07:46:29Z</time></trkpt><trkpt lat="45.454607406280545" lon="9.05635772786612"><ele>122.66666666666666</ele><time>2026-05-03T07:46:30Z</time></trkpt><trkpt lat="45.454550479782" lon="9.056142245431554"><ele>122.0</ele><time>2026-05-03T07:46:31Z</time></trkpt><trkpt lat="45.454492796789665" lon="9.055933719179901"><ele>122.33333333333333</ele><time>2026-05-03T07:46:32Z</time></trkpt><trkpt lat="45.45443327361936" lon="9.055718972507563"><ele>122.66666666666666</ele><time>2026-05-03T07:46:33Z</time></trkpt><trkpt lat="45.45437322987983" lon="9.055509190845395"><ele>123.0</ele><time>2026-05-03T07:46:34Z</time></trkpt><trkpt lat="45.454316102748834" lon="9.055295703012636"><ele>123.0</ele><time>2026-05-03T07:46:35Z</time></trkpt><trkpt lat="45.45425864466719" lon="9.055084793557162"><ele>123.0</ele><time>2026-05-03T07:46:36Z</time></trkpt><trkpt lat="45.45419867414049" lon="9.05487650636958"><ele>123.0</ele><time>2026-05-03T07:46:37Z</time></trkpt><trkpt lat="45.45413604199598" lon="9.054665538633998"><ele>124.0</ele><time>2026-05-03T07:46:38Z</time></trkpt><trkpt lat="45.45407420292511" lon="9.054453509819327"><ele>125.0</ele><time>2026-05-03T07:46:39Z</time></trkpt><trkpt lat="45.45401287715217" lon="9.05423946732979"><ele>126.0</ele><time>2026-05-03T07:46:40Z</time></trkpt><trkpt lat="45.45395273884958" lon="9.054027646090297"><ele>125.75</ele><time>2026-05-03T07:46:41Z</time></trkpt><trkpt lat="45.453894309179326" lon="9.053816938609769"><ele>125.5</ele><time>2026-05-03T07:46:42Z</time></trkpt><trkpt lat="45.45384125860994" lon="9.0536315054871"><ele>125.25</ele><time>2026-05-03T07:46:43Z</time></trkpt><trkpt lat="45.45379407209396" lon="9.053457710559945"><ele>125.0</ele><time>2026-05-03T07:46:44Z</time></trkpt><trkpt lat="45.45375173750911" lon="9.053292930538007"><ele>125.0</ele><time>2026-05-03T07:46:45Z</time></trkpt><trkpt lat="45.453722767857464" lon="9.053134257699607"><ele>125.0</ele><time>2026-05-03T07:46:46Z</time></trkpt><trkpt lat="45.45371413123354" lon="9.052989762352436"><ele>125.0</ele><time>2026-05-03T07:46:47Z</time></trkpt><trkpt lat="45.4537230823293" lon="9.052853064791037"><ele>125.0</ele><time>2026-05-03T07:46:48Z</time></trkpt><trkpt lat="45.453731658553764" lon="9.052736420733417"><ele>125.0</ele><time>2026-05-03T07:46:49Z</time></trkpt><trkpt lat="45.45369934374985" lon="9.052636207907803"><ele>125.0</ele><time>2026-05-03T07:46:50Z</time></trkpt><trkpt lat="45.45362570184902" lon="9.052540970691592"><ele>125.0</ele><time>2026-05-03T07:46:51Z</time></trkpt><trkpt lat="45.4535245080461" lon="9.052457626788541"><ele>125.0</ele><time>2026-05-03T07:46:52Z</time></trkpt><trkpt lat="45.45346620823345" lon="9.052275663665354"><ele>125.0</ele><time>2026-05-03T07:46:53Z</time></trkpt><trkpt lat="45.45341580151167" lon="9.052103859765586"><ele>125.0</ele><time>2026-05-03T07:46:54Z</time></trkpt><trkpt lat="45.45337459592364" lon="9.051928173233488"><ele>125.0</ele><time>2026-05-03T07:46:55Z</time></trkpt><trkpt lat="45.45333078973866" lon="9.051749435364327"><ele>125.0</ele><time>2026-05-03T07:46:56Z</time></trkpt><trkpt lat="45.45328268631085" lon="9.051564160883407"><ele>125.0</ele><time>2026-05-03T07:46:57Z</time></trkpt><trkpt lat="45.45323303739925" lon="9.051374846688052"><ele>125.0</ele><time>2026-05-03T07:46:58Z</time></trkpt><trkpt lat="45.453179692849446" lon="9.051179404224438"><ele>125.0</ele><time>2026-05-03T07:46:59Z</time></trkpt><trkpt lat="45.45312125521413" lon="9.050989920457843"><ele>125.0</ele><time>2026-05-03T07:47:00Z</time></trkpt><trkpt lat="45.45306132014986" lon="9.05080035376951"><ele>125.0</ele><time>2026-05-03T07:47:01Z</time></trkpt><trkpt lat="45.45300431995426" lon="9.050600765098125"><ele>124.66666666666666</ele><time>2026-05-03T07:47:02Z</time></trkpt><trkpt lat="45.45294681725427" lon="9.05039539501037"><ele>124.33333333333334</ele><time>2026-05-03T07:47:03Z</time></trkpt><trkpt lat="45.452890637546616" lon="9.05018829977532"><ele>124.0</ele><time>2026-05-03T07:47:04Z</time></trkpt><trkpt lat="45.452834021054954" lon="9.04997837649137"><ele>124.0</ele><time>2026-05-03T07:47:05Z</time></trkpt><trkpt lat="45.45277462953156" lon="9.049762627999044"><ele>124.0</ele><time>2026-05-03T07:47:06Z</time></trkpt><trkpt lat="45.45271689318896" lon="9.04956011642705"><ele>124.0</ele><time>2026-05-03T07:47:07Z</time></trkpt><trkpt lat="45.452660248440374" lon="9.049358169864142"><ele>124.0</ele><time>2026-05-03T07:47:08Z</time></trkpt><trkpt lat="45.452597091062025" lon="9.049164281463316"><ele>124.0</ele><time>2026-05-03T07:47:09Z</time></trkpt><trkpt lat="45.4525208686614" lon="9.04896810343216"><ele>124.0</ele><time>2026-05-03T07:47:10Z</time></trkpt><trkpt lat="45.45243627763807" lon="9.048785910930754"><ele>124.0</ele><time>2026-05-03T07:47:11Z</time></trkpt><trkpt lat="45.45233801333067" lon="9.048604729495663"><ele>124.0</ele><time>2026-05-03T07:47:12Z</time></trkpt><trkpt lat="45.45223363678745" lon="9.048433300842829"><ele>124.0</ele><time>2026-05-03T07:47:13Z</time></trkpt><trkpt lat="45.45212449286395" lon="9.048274694053838"><ele>124.25</ele><time>2026-05-03T07:47:14Z</time></trkpt><trkpt lat="45.45202132201648" lon="9.048142060585732"><ele>124.5</ele><time>2026-05-03T07:47:15Z</time></trkpt><trkpt lat="45.451919136936915" lon="9.048019583371103"><ele>124.75</ele><time>2026-05-03T07:47:16Z</time></trkpt><trkpt lat="45.451828606619536" lon="9.047907375943447"><ele>125.0</ele><time>2026-05-03T07:47:17Z</time></trkpt><trkpt lat="45.45175162695323" lon="9.047799310110848"><ele>125.0</ele><time>2026-05-03T07:47:18Z</time></trkpt><trkpt lat="45.45169126474769" lon="9.047681799886316"><ele>125.0</ele><time>2026-05-03T07:47:19Z</time></trkpt><trkpt lat="45.451655320035314" lon="9.047537057350743"><ele>125.0</ele><time>2026-05-03T07:47:20Z</time></trkpt><trkpt lat="45.451575884647475" lon="9.04740602586191"><ele>125.0</ele><time>2026-05-03T07:47:21Z</time></trkpt><trkpt lat="45.45145901549485" lon="9.047336986500232"><ele>125.25</ele><time>2026-05-03T07:47:22Z</time></trkpt><trkpt lat="45.451340220336526" lon="9.047288668063644"><ele>125.5</ele><time>2026-05-03T07:47:23Z</time></trkpt><trkpt lat="45.451220302882234" lon="9.047260138699322"><ele>125.75</ele><time>2026-05-03T07:47:24Z</time></trkpt><trkpt lat="45.45109927996813" lon="9.047252713778489"><ele>126.0</ele><time>2026-05-03T07:47:25Z</time></trkpt><trkpt lat="45.45097529407045" lon="9.047256423992657"><ele>126.0</ele><time>2026-05-03T07:47:26Z</time></trkpt><trkpt lat="45.45085373684431" lon="9.047254299255995"><ele>126.0</ele><time>2026-05-03T07:47:27Z</time></trkpt><trkpt lat="45.450731486546694" lon="9.047222361285094"><ele>126.0</ele><time>2026-05-03T07:47:28Z</time></trkpt><trkpt lat="45.45060646097113" lon="9.047168026793237"><ele>126.0</ele><time>2026-05-03T07:47:29Z</time></trkpt><trkpt lat="45.45048712186031" lon="9.047060279242919"><ele>126.0</ele><time>2026-05-03T07:47:30Z</time></trkpt><trkpt lat="45.45035895174456" lon="9.046993187608235"><ele>126.0</ele><time>2026-05-03T07:47:31Z</time></trkpt><trkpt lat="45.45023124841122" lon="9.046930643346903"><ele>126.0</ele><time>2026-05-03T07:47:32Z</time></trkpt><trkpt lat="45.450101514171436" lon="9.046869432545288"><ele>126.0</ele><time>2026-05-03T07:47:33Z</time></trkpt><trkpt lat="45.44996648760214" lon="9.046821666897925"><ele>126.0</ele><time>2026-05-03T07:47:34Z</time></trkpt><trkpt lat="45.44982702898188" lon="9.04676151104785"><ele>126.0</ele><time>2026-05-03T07:47:35Z</time></trkpt><trkpt lat="45.44968891537315" lon="9.04668960452633"><ele>126.0</ele><time>2026-05-03T07:47:36Z</time></trkpt><trkpt lat="45.44955036766297" lon="9.046614960499229"><ele>126.0</ele><time>2026-05-03T07:47:37Z</time></trkpt><trkpt lat="45.44940978024998" lon="9.04654652060501"><ele>125.5</ele><time>2026-05-03T07:47:38Z</time></trkpt><trkpt lat="45.44927053566069" lon="9.046467777418952"><ele>125.0</ele><time>2026-05-03T07:47:39Z</time></trkpt><trkpt lat="45.449135542824926" lon="9.046377171993267"><ele>124.5</ele><time>2026-05-03T07:47:40Z</time></trkpt><trkpt lat="45.4490023511554" lon="9.046279657988244"><ele>124.0</ele><time>2026-05-03T07:47:41Z</time></trkpt><trkpt lat="45.44887114117838" lon="9.046180915940019"><ele>124.0</ele><time>2026-05-03T07:47:42Z</time></trkpt><trkpt lat="45.44874002034207" lon="9.046075860952675"><ele>124.0</ele><time>2026-05-03T07:47:43Z</time></trkpt><trkpt lat="45.448618158076876" lon="9.045963305418907"><ele>124.0</ele><time>2026-05-03T07:47:44Z</time></trkpt><trkpt lat="45.44848559569589" lon="9.045849608603437"><ele>123.66666666666667</ele><time>2026-05-03T07:47:45Z</time></trkpt><trkpt lat="45.448358100548184" lon="9.045728867759115"><ele>123.33333333333334</ele><time>2026-05-03T07:47:46Z</time></trkpt><trkpt lat="45.44823465792897" lon="9.045593279636204"><ele>123.0</ele><time>2026-05-03T07:47:47Z</time></trkpt><trkpt lat="45.44811546897429" lon="9.045451927675371"><ele>123.0</ele><time>2026-05-03T07:47:48Z</time></trkpt><trkpt lat="45.44799895376537" lon="9.045307850282066"><ele>123.0</ele><time>2026-05-03T07:47:49Z</time></trkpt><trkpt lat="45.44788179330963" lon="9.045160002843154"><ele>123.0</ele><time>2026-05-03T07:47:50Z</time></trkpt><trkpt lat="45.44776067351419" lon="9.045014232392186"><ele>122.66666666666666</ele><time>2026-05-03T07:47:51Z</time></trkpt><trkpt lat="45.447640688163226" lon="9.044866003321667"><ele>122.33333333333333</ele><time>2026-05-03T07:47:52Z</time></trkpt><trkpt lat="45.447519709351035" lon="9.044720227122431"><ele>122.0</ele><time>2026-05-03T07:47:53Z</time></trkpt><trkpt lat="45.447399006242094" lon="9.044570192944215"><ele>122.0</ele><time>2026-05-03T07:47:54Z</time></trkpt><trkpt lat="45.44728093525761" lon="9.044419293886442"><ele>122.0</ele><time>2026-05-03T07:47:55Z</time></trkpt><trkpt lat="45.44715779978447" lon="9.04427243311308"><ele>122.0</ele><time>2026-05-03T07:47:56Z</time></trkpt><trkpt lat="45.44703884218105" lon="9.04412096441088"><ele>121.66666666666666</ele><time>2026-05-03T07:47:57Z</time></trkpt><trkpt lat="45.44692145783784" lon="9.04397166138602"><ele>121.33333333333334</ele><time>2026-05-03T07:47:58Z</time></trkpt><trkpt lat="45.44680229382708" lon="9.043822777817027"><ele>121.0</ele><time>2026-05-03T07:47:59Z</time></trkpt><trkpt lat="45.446684329704574" lon="9.043679077080368"><ele>121.0</ele><time>2026-05-03T07:48:00Z</time></trkpt><trkpt lat="45.44656681526393" lon="9.043534611623691"><ele>121.0</ele><time>2026-05-03T07:48:01Z</time></trkpt><trkpt lat="45.446448675495475" lon="9.043389805142297"><ele>121.0</ele><time>2026-05-03T07:48:02Z</time></trkpt><trkpt lat="45.446331419832234" lon="9.043240379675638"><ele>121.66666666666667</ele><time>2026-05-03T07:48:03Z</time></trkpt><trkpt lat="45.44621663589867" lon="9.043092604456364"><ele>122.33333333333334</ele><time>2026-05-03T07:48:04Z</time></trkpt><trkpt lat="45.44610291170474" lon="9.0429450487562"><ele>123.0</ele><time>2026-05-03T07:48:05Z</time></trkpt><trkpt lat="45.44598625677487" lon="9.042796474517147"><ele>123.0</ele><time>2026-05-03T07:48:06Z</time></trkpt><trkpt lat="45.445873901285196" lon="9.042651934863459"><ele>123.0</ele><time>2026-05-03T07:48:07Z</time></trkpt><trkpt lat="45.44576544950738" lon="9.042490460468873"><ele>123.0</ele><time>2026-05-03T07:48:08Z</time></trkpt><trkpt lat="45.44564213130976" lon="9.04235243105289"><ele>123.0</ele><time>2026-05-03T07:48:09Z</time></trkpt><trkpt lat="45.44552830842783" lon="9.042203966926717"><ele>123.0</ele><time>2026-05-03T07:48:10Z</time></trkpt><trkpt lat="45.445415661047605" lon="9.042047297305954"><ele>123.0</ele><time>2026-05-03T07:48:11Z</time></trkpt><trkpt lat="45.445311367204745" lon="9.041882479276092"><ele>123.0</ele><time>2026-05-03T07:48:12Z</time></trkpt><trkpt lat="45.445209064718426" lon="9.041717426972765"><ele>123.0</ele><time>2026-05-03T07:48:13Z</time></trkpt><trkpt lat="45.44511599069983" lon="9.041554117459524"><ele>123.0</ele><time>2026-05-03T07:48:14Z</time></trkpt><trkpt lat="45.44503706499056" lon="9.041402071459194"><ele>123.0</ele><time>2026-05-03T07:48:15Z</time></trkpt><trkpt lat="45.444968008324665" lon="9.041256911107933"><ele>123.0</ele><time>2026-05-03T07:48:16Z</time></trkpt><trkpt lat="45.44490304325478" lon="9.041110114617728"><ele>123.0</ele><time>2026-05-03T07:48:17Z</time></trkpt><trkpt lat="45.44485020076354" lon="9.04095150563156"><ele>123.0</ele><time>2026-05-03T07:48:18Z</time></trkpt><trkpt lat="45.44481423743115" lon="9.040775711023342"><ele>123.0</ele><time>2026-05-03T07:48:19Z</time></trkpt><trkpt lat="45.44479083050031" lon="9.040614991315877"><ele>123.0</ele><time>2026-05-03T07:48:20Z</time></trkpt><trkpt lat="45.444770165633074" lon="9.0404176948766"><ele>123.0</ele><time>2026-05-03T07:48:21Z</time></trkpt><trkpt lat="45.444770931387254" lon="9.040234472114433"><ele>123.0</ele><time>2026-05-03T07:48:22Z</time></trkpt><trkpt lat="45.4447445473755" lon="9.040068299487155"><ele>123.0</ele><time>2026-05-03T07:48:23Z</time></trkpt><trkpt lat="45.444672021046934" lon="9.03993370581291"><ele>122.5</ele><time>2026-05-03T07:48:24Z</time></trkpt><trkpt lat="45.44457084457882" lon="9.039819832802188"><ele>122.0</ele><time>2026-05-03T07:48:25Z</time></trkpt><trkpt lat="45.4444423224549" lon="9.039707638806995"><ele>121.5</ele><time>2026-05-03T07:48:26Z</time></trkpt><trkpt lat="45.44433049118152" lon="9.03958174188065"><ele>121.0</ele><time>2026-05-03T07:48:27Z</time></trkpt><trkpt lat="45.44424961436397" lon="9.039439557465794"><ele>121.0</ele><time>2026-05-03T07:48:28Z</time></trkpt><trkpt lat="45.44418224119964" lon="9.039282757292476"><ele>121.0</ele><time>2026-05-03T07:48:29Z</time></trkpt><trkpt lat="45.44413914299008" lon="9.0390964378009"><ele>121.0</ele><time>2026-05-03T07:48:30Z</time></trkpt><trkpt lat="45.44407085970479" lon="9.03891724221804"><ele>121.0</ele><time>2026-05-03T07:48:31Z</time></trkpt><trkpt lat="45.44403378081045" lon="9.038721342720985"><ele>121.25</ele><time>2026-05-03T07:48:32Z</time></trkpt><trkpt lat="45.44398983908236" lon="9.038524389083344"><ele>121.5</ele><time>2026-05-03T07:48:33Z</time></trkpt><trkpt lat="45.44394751433013" lon="9.038319036093325"><ele>121.75</ele><time>2026-05-03T07:48:34Z</time></trkpt><trkpt lat="45.443901902938585" lon="9.038115372402174"><ele>122.0</ele><time>2026-05-03T07:48:35Z</time></trkpt><trkpt lat="45.4438694710501" lon="9.03789917920728"><ele>122.0</ele><time>2026-05-03T07:48:36Z</time></trkpt><trkpt lat="45.44384023375411" lon="9.03768939025854"><ele>122.0</ele><time>2026-05-03T07:48:37Z</time></trkpt><trkpt lat="45.44380882919076" lon="9.037472670363515"><ele>122.0</ele><time>2026-05-03T07:48:38Z</time></trkpt><trkpt lat="45.44377603227016" lon="9.037253130668791"><ele>122.0</ele><time>2026-05-03T07:48:39Z</time></trkpt><trkpt lat="45.4437422409424" lon="9.037032425490532"><ele>122.0</ele><time>2026-05-03T07:48:40Z</time></trkpt><trkpt lat="45.443709670251216" lon="9.036807627031713"><ele>122.0</ele><time>2026-05-03T07:48:41Z</time></trkpt><trkpt lat="45.44367766932483" lon="9.036581766638598"><ele>122.66666666666666</ele><time>2026-05-03T07:48:42Z</time></trkpt><trkpt lat="45.44364268889006" lon="9.036360233446368"><ele>123.33333333333334</ele><time>2026-05-03T07:48:43Z</time></trkpt><trkpt lat="45.443608424767255" lon="9.036132517055242"><ele>124.0</ele><time>2026-05-03T07:48:44Z</time></trkpt><trkpt lat="45.44359112062229" lon="9.03590099368157"><ele>123.0</ele><time>2026-05-03T07:48:45Z</time></trkpt><trkpt lat="45.443547640330486" lon="9.035678677523046"><ele>122.0</ele><time>2026-05-03T07:48:46Z</time></trkpt><trkpt lat="45.443509654756355" lon="9.035450102384825"><ele>121.0</ele><time>2026-05-03T07:48:47Z</time></trkpt><trkpt lat="45.443492657947644" lon="9.035215955843315"><ele>121.0</ele><time>2026-05-03T07:48:48Z</time></trkpt><trkpt lat="45.44345918548957" lon="9.034983026375402"><ele>121.0</ele><time>2026-05-03T07:48:49Z</time></trkpt><trkpt lat="45.4434254368279" lon="9.034748071377662"><ele>121.0</ele><time>2026-05-03T07:48:50Z</time></trkpt><trkpt lat="45.443391927589296" lon="9.034515230393614"><ele>121.33333333333334</ele><time>2026-05-03T07:48:51Z</time></trkpt><trkpt lat="45.44335813481869" lon="9.03428095721169"><ele>121.66666666666666</ele><time>2026-05-03T07:48:52Z</time></trkpt><trkpt lat="45.4433083693483" lon="9.03405321808175"><ele>122.0</ele><time>2026-05-03T07:48:53Z</time></trkpt><trkpt lat="45.44329081986353" lon="9.033814015605776"><ele>122.0</ele><time>2026-05-03T07:48:54Z</time></trkpt><trkpt lat="45.44325741655454" lon="9.033582211302933"><ele>122.0</ele><time>2026-05-03T07:48:55Z</time></trkpt><trkpt lat="45.443224458281556" lon="9.033353495375453"><ele>122.0</ele><time>2026-05-03T07:48:56Z</time></trkpt><trkpt lat="45.44319214285202" lon="9.033127067746669"><ele>121.33333333333333</ele><time>2026-05-03T07:48:57Z</time></trkpt><trkpt lat="45.44315971756865" lon="9.032899593033259"><ele>120.66666666666666</ele><time>2026-05-03T07:48:58Z</time></trkpt><trkpt lat="45.44312748274273" lon="9.032673454869732"><ele>120.0</ele><time>2026-05-03T07:48:59Z</time></trkpt><trkpt lat="45.443097207488535" lon="9.032444440584495"><ele>120.0</ele><time>2026-05-03T07:49:00Z</time></trkpt><trkpt lat="45.44306998363514" lon="9.032221609263168"><ele>120.0</ele><time>2026-05-03T07:49:01Z</time></trkpt><trkpt lat="45.44304740481922" lon="9.03200143771169"><ele>120.0</ele><time>2026-05-03T07:49:02Z</time></trkpt><trkpt lat="45.4430307776574" lon="9.031782356719464"><ele>120.33333333333334</ele><time>2026-05-03T07:49:03Z</time></trkpt><trkpt lat="45.44301922190599" lon="9.031561897919225"><ele>120.66666666666667</ele><time>2026-05-03T07:49:04Z</time></trkpt><trkpt lat="45.44301430883052" lon="9.031343510786177"><ele>121.0</ele><time>2026-05-03T07:49:05Z</time></trkpt><trkpt lat="45.44301365855758" lon="9.03112641577222"><ele>121.0</ele><time>2026-05-03T07:49:06Z</time></trkpt><trkpt lat="45.4430183139537" lon="9.030905142362784"><ele>121.0</ele><time>2026-05-03T07:49:07Z</time></trkpt><trkpt lat="45.443026188385346" lon="9.030689351992688"><ele>121.0</ele><time>2026-05-03T07:49:08Z</time></trkpt><trkpt lat="45.443043110897456" lon="9.030474429645052"><ele>121.0</ele><time>2026-05-03T07:49:09Z</time></trkpt><trkpt lat="45.44306126469232" lon="9.030256041444769"><ele>121.0</ele><time>2026-05-03T07:49:10Z</time></trkpt><trkpt lat="45.44306640109234" lon="9.03003543607471"><ele>121.0</ele><time>2026-05-03T07:49:11Z</time></trkpt><trkpt lat="45.443099186826075" lon="9.0298152442984"><ele>121.0</ele><time>2026-05-03T07:49:12Z</time></trkpt><trkpt lat="45.44311896636843" lon="9.029584149332797"><ele>121.0</ele><time>2026-05-03T07:49:13Z</time></trkpt><trkpt lat="45.44313022846874" lon="9.029322772626873"><ele>121.0</ele><time>2026-05-03T07:49:14Z</time></trkpt><trkpt lat="45.443156968686395" lon="9.029065258008455"><ele>121.33333333333334</ele><time>2026-05-03T07:49:15Z</time></trkpt><trkpt lat="45.44317088917447" lon="9.02883613816245"><ele>121.66666666666666</ele><time>2026-05-03T07:49:16Z</time></trkpt><trkpt lat="45.443188796438946" lon="9.028597204167621"><ele>122.0</ele><time>2026-05-03T07:49:17Z</time></trkpt><trkpt lat="45.4432246452941" lon="9.028362588706633"><ele>121.66666666666666</ele><time>2026-05-03T07:49:18Z</time></trkpt><trkpt lat="45.44324536522578" lon="9.028122323531157"><ele>121.33333333333334</ele><time>2026-05-03T07:49:19Z</time></trkpt><trkpt lat="45.44326727556186" lon="9.02787153789796"><ele>121.0</ele><time>2026-05-03T07:49:20Z</time></trkpt><trkpt lat="45.44328963249371" lon="9.02761930966016"><ele>121.33333333333334</ele><time>2026-05-03T07:49:21Z</time></trkpt><trkpt lat="45.44329631185799" lon="9.027376298381174"><ele>121.66666666666666</ele><time>2026-05-03T07:49:22Z</time></trkpt><trkpt lat="45.4433199520398" lon="9.027124737630842"><ele>122.0</ele><time>2026-05-03T07:49:23Z</time></trkpt><trkpt lat="45.4433415252681" lon="9.026876343230073"><ele>122.0</ele><time>2026-05-03T07:49:24Z</time></trkpt><trkpt lat="45.4433630701238" lon="9.026630631630733"><ele>122.0</ele><time>2026-05-03T07:49:25Z</time></trkpt><trkpt lat="45.443385399795076" lon="9.026391957570688"><ele>122.0</ele><time>2026-05-03T07:49:26Z</time></trkpt><trkpt lat="45.44340682494664" lon="9.026143740596368"><ele>122.0</ele><time>2026-05-03T07:49:27Z</time></trkpt><trkpt lat="45.443428155233214" lon="9.025901313634552"><ele>122.0</ele><time>2026-05-03T07:49:28Z</time></trkpt><trkpt lat="45.44344831131394" lon="9.025662476508819"><ele>122.0</ele><time>2026-05-03T07:49:29Z</time></trkpt><trkpt lat="45.44346806288026" lon="9.025418201210716"><ele>122.0</ele><time>2026-05-03T07:49:30Z</time></trkpt><trkpt lat="45.44348950927905" lon="9.025187098121513"><ele>122.0</ele><time>2026-05-03T07:49:31Z</time></trkpt><trkpt lat="45.44351284994548" lon="9.024943097838138"><ele>122.0</ele><time>2026-05-03T07:49:32Z</time></trkpt><trkpt lat="45.44353167629101" lon="9.024706343448168"><ele>122.0</ele><time>2026-05-03T07:49:33Z</time></trkpt><trkpt lat="45.443568046110485" lon="9.024471931796564"><ele>122.0</ele><time>2026-05-03T07:49:34Z</time></trkpt><trkpt lat="45.443574290009145" lon="9.024233442430603"><ele>122.0</ele><time>2026-05-03T07:49:35Z</time></trkpt><trkpt lat="45.443610046466134" lon="9.023996075307805"><ele>122.0</ele><time>2026-05-03T07:49:36Z</time></trkpt><trkpt lat="45.44363062502048" lon="9.023762923979358"><ele>122.0</ele><time>2026-05-03T07:49:37Z</time></trkpt><trkpt lat="45.44363626784326" lon="9.023520947552603"><ele>122.0</ele><time>2026-05-03T07:49:38Z</time></trkpt><trkpt lat="45.44365881242475" lon="9.02328474312187"><ele>121.66666666666666</ele><time>2026-05-03T07:49:39Z</time></trkpt><trkpt lat="45.443680283422154" lon="9.023050519905958"><ele>121.33333333333334</ele><time>2026-05-03T07:49:40Z</time></trkpt><trkpt lat="45.44369876842999" lon="9.022806940008445"><ele>121.0</ele><time>2026-05-03T07:49:41Z</time></trkpt><trkpt lat="45.443718418938886" lon="9.02257308069878"><ele>120.66666666666667</ele><time>2026-05-03T07:49:42Z</time></trkpt><trkpt lat="45.4437413983746" lon="9.022338058648533"><ele>120.33333333333334</ele><time>2026-05-03T07:49:43Z</time></trkpt><trkpt lat="45.44376499317634" lon="9.022105109837836"><ele>120.0</ele><time>2026-05-03T07:49:44Z</time></trkpt><trkpt lat="45.44378619151878" lon="9.021867012001636"><ele>120.66666666666666</ele><time>2026-05-03T07:49:45Z</time></trkpt><trkpt lat="45.44380591439301" lon="9.021634081833518"><ele>121.33333333333333</ele><time>2026-05-03T07:49:46Z</time></trkpt><trkpt lat="45.44382600655267" lon="9.021402977649176"><ele>122.0</ele><time>2026-05-03T07:49:47Z</time></trkpt><trkpt lat="45.44384394080635" lon="9.021177584331255"><ele>122.0</ele><time>2026-05-03T07:49:48Z</time></trkpt><trkpt lat="45.44386433539487" lon="9.020942433205606"><ele>122.0</ele><time>2026-05-03T07:49:49Z</time></trkpt><trkpt lat="45.44388327898428" lon="9.02071057469733"><ele>122.0</ele><time>2026-05-03T07:49:50Z</time></trkpt><trkpt lat="45.443905712159264" lon="9.020470748159259"><ele>122.0</ele><time>2026-05-03T07:49:51Z</time></trkpt><trkpt lat="45.44392581760121" lon="9.020235381759841"><ele>122.0</ele><time>2026-05-03T07:49:52Z</time></trkpt><trkpt lat="45.44394508677985" lon="9.019999474799565"><ele>122.0</ele><time>2026-05-03T07:49:53Z</time></trkpt><trkpt lat="45.443963935423504" lon="9.019757493891897"><ele>122.0</ele><time>2026-05-03T07:49:54Z</time></trkpt><trkpt lat="45.443985689527054" lon="9.019520381336681"><ele>122.0</ele><time>2026-05-03T07:49:55Z</time></trkpt><trkpt lat="45.44400714754429" lon="9.019276567938014"><ele>122.0</ele><time>2026-05-03T07:49:56Z</time></trkpt><trkpt lat="45.444028667077404" lon="9.019037814211218"><ele>122.0</ele><time>2026-05-03T07:49:57Z</time></trkpt><trkpt lat="45.444049867557844" lon="9.01879324247539"><ele>122.0</ele><time>2026-05-03T07:49:58Z</time></trkpt><trkpt lat="45.44407121312929" lon="9.018549028698212"><ele>122.0</ele><time>2026-05-03T07:49:59Z</time></trkpt><trkpt lat="45.44409228581592" lon="9.018306521689688"><ele>121.66666666666666</ele><time>2026-05-03T07:50:00Z</time></trkpt><trkpt lat="45.44411715360349" lon="9.018059843144282"><ele>121.33333333333334</ele><time>2026-05-03T07:50:01Z</time></trkpt><trkpt lat="45.44413681926887" lon="9.017809544909019"><ele>121.0</ele><time>2026-05-03T07:50:02Z</time></trkpt><trkpt lat="45.44416113134934" lon="9.017556783419158"><ele>121.0</ele><time>2026-05-03T07:50:03Z</time></trkpt><trkpt lat="45.44418352293324" lon="9.017310671649648"><ele>121.0</ele><time>2026-05-03T07:50:04Z</time></trkpt><trkpt lat="45.444206957345955" lon="9.017062742953316"><ele>121.0</ele><time>2026-05-03T07:50:05Z</time></trkpt><trkpt lat="45.44422581418274" lon="9.016811697425902"><ele>121.66666666666667</ele><time>2026-05-03T07:50:06Z</time></trkpt><trkpt lat="45.4442475127088" lon="9.016557108593052"><ele>122.33333333333334</ele><time>2026-05-03T07:50:07Z</time></trkpt><trkpt lat="45.44426783452395" lon="9.016310698585187"><ele>123.0</ele><time>2026-05-03T07:50:08Z</time></trkpt><trkpt lat="45.44428626093181" lon="9.016057621365746"><ele>123.0</ele><time>2026-05-03T07:50:09Z</time></trkpt><trkpt lat="45.444315152213115" lon="9.015823964578741"><ele>123.0</ele><time>2026-05-03T07:50:10Z</time></trkpt><trkpt lat="45.44433415586955" lon="9.015575298551525"><ele>123.0</ele><time>2026-05-03T07:50:11Z</time></trkpt><trkpt lat="45.44435394107161" lon="9.015322381790545"><ele>123.33333333333334</ele><time>2026-05-03T07:50:12Z</time></trkpt><trkpt lat="45.444375677385196" lon="9.015076070668476"><ele>123.66666666666667</ele><time>2026-05-03T07:50:13Z</time></trkpt><trkpt lat="45.44439510707846" lon="9.014833172502406"><ele>124.0</ele><time>2026-05-03T07:50:14Z</time></trkpt><trkpt lat="45.44441337414041" lon="9.014604807051764"><ele>124.66666666666667</ele><time>2026-05-03T07:50:15Z</time></trkpt><trkpt lat="45.44443419896592" lon="9.014364262128609"><ele>125.33333333333334</ele><time>2026-05-03T07:50:16Z</time></trkpt><trkpt lat="45.44445707043629" lon="9.014120107577636"><ele>126.0</ele><time>2026-05-03T07:50:17Z</time></trkpt><trkpt lat="45.444476878798866" lon="9.013871533626906"><ele>126.33333333333334</ele><time>2026-05-03T07:50:18Z</time></trkpt><trkpt lat="45.4444960033425" lon="9.013614504857921"><ele>126.66666666666667</ele><time>2026-05-03T07:50:19Z</time></trkpt><trkpt lat="45.444520262742564" lon="9.013361979444722"><ele>127.0</ele><time>2026-05-03T07:50:20Z</time></trkpt><trkpt lat="45.44455375520886" lon="9.013124307896051"><ele>126.0</ele><time>2026-05-03T07:50:21Z</time></trkpt><trkpt lat="45.444574479558" lon="9.012857603167342"><ele>125.0</ele><time>2026-05-03T07:50:22Z</time></trkpt><trkpt lat="45.44459309806136" lon="9.012603221502127"><ele>124.0</ele><time>2026-05-03T07:50:23Z</time></trkpt><trkpt lat="45.44461466268059" lon="9.012344289558955"><ele>124.0</ele><time>2026-05-03T07:50:24Z</time></trkpt><trkpt lat="45.4446399275426" lon="9.01208700242109"><ele>124.0</ele><time>2026-05-03T07:50:25Z</time></trkpt><trkpt lat="45.4446618171" lon="9.011824765198185"><ele>124.0</ele><time>2026-05-03T07:50:26Z</time></trkpt><trkpt lat="45.444685308037585" lon="9.011570669296997"><ele>124.0</ele><time>2026-05-03T07:50:27Z</time></trkpt><trkpt lat="45.44471062435907" lon="9.011311740996025"><ele>124.0</ele><time>2026-05-03T07:50:28Z</time></trkpt><trkpt lat="45.44473385362364" lon="9.011054053158254"><ele>124.0</ele><time>2026-05-03T07:50:29Z</time></trkpt><trkpt lat="45.44475816511834" lon="9.010806770393858"><ele>123.33333333333334</ele><time>2026-05-03T07:50:30Z</time></trkpt><trkpt lat="45.444777319601705" lon="9.010563232515228"><ele>122.66666666666666</ele><time>2026-05-03T07:50:31Z</time></trkpt><trkpt lat="45.44479414877578" lon="9.01031446250546"><ele>122.0</ele><time>2026-05-03T07:50:32Z</time></trkpt><trkpt lat="45.444815558727356" lon="9.010068609738"><ele>122.33333333333333</ele><time>2026-05-03T07:50:33Z</time></trkpt><trkpt lat="45.444837432172235" lon="9.009825470359178"><ele>122.66666666666666</ele><time>2026-05-03T07:50:34Z</time></trkpt><trkpt lat="45.444856801940894" lon="9.00958229153725"><ele>123.0</ele><time>2026-05-03T07:50:35Z</time></trkpt><trkpt lat="45.44487720792452" lon="9.009340971853646"><ele>123.33333333333334</ele><time>2026-05-03T07:50:36Z</time></trkpt><trkpt lat="45.444896484701474" lon="9.009098577055836"><ele>123.66666666666667</ele><time>2026-05-03T07:50:37Z</time></trkpt><trkpt lat="45.44491565258737" lon="9.008859554015993"><ele>124.0</ele><time>2026-05-03T07:50:38Z</time></trkpt><trkpt lat="45.44493651390296" lon="9.008623185352675"><ele>124.0</ele><time>2026-05-03T07:50:39Z</time></trkpt><trkpt lat="45.444958007203034" lon="9.008388918683647"><ele>124.0</ele><time>2026-05-03T07:50:40Z</time></trkpt><trkpt lat="45.44497234234828" lon="9.008145798902378"><ele>124.0</ele><time>2026-05-03T07:50:41Z</time></trkpt><trkpt lat="45.444986711714066" lon="9.007910187567056"><ele>124.0</ele><time>2026-05-03T07:50:42Z</time></trkpt><trkpt lat="45.44499504657023" lon="9.007664487882428"><ele>124.0</ele><time>2026-05-03T07:50:43Z</time></trkpt><trkpt lat="45.44499319114756" lon="9.007422639302453"><ele>124.0</ele><time>2026-05-03T07:50:44Z</time></trkpt><trkpt lat="45.444985650964476" lon="9.007181811736322"><ele>124.33333333333334</ele><time>2026-05-03T07:50:45Z</time></trkpt><trkpt lat="45.44496625900182" lon="9.006936842371232"><ele>124.66666666666666</ele><time>2026-05-03T07:50:46Z</time></trkpt><trkpt lat="45.444943498148525" lon="9.00669472575702"><ele>125.0</ele><time>2026-05-03T07:50:47Z</time></trkpt><trkpt lat="45.444916697344865" lon="9.006451509976525"><ele>125.0</ele><time>2026-05-03T07:50:48Z</time></trkpt><trkpt lat="45.444880657352805" lon="9.006209337081929"><ele>125.0</ele><time>2026-05-03T07:50:49Z</time></trkpt><trkpt lat="45.444839052879885" lon="9.005968759801343"><ele>125.0</ele><time>2026-05-03T07:50:50Z</time></trkpt><trkpt lat="45.444789463648085" lon="9.005729207702048"><ele>125.33333333333333</ele><time>2026-05-03T07:50:51Z</time></trkpt><trkpt lat="45.44473391441774" lon="9.005489204930294"><ele>125.66666666666666</ele><time>2026-05-03T07:50:52Z</time></trkpt><trkpt lat="45.444672910347826" lon="9.00525667617752"><ele>126.0</ele><time>2026-05-03T07:50:53Z</time></trkpt><trkpt lat="45.4446106791063" lon="9.005021903543383"><ele>125.66666666666666</ele><time>2026-05-03T07:50:54Z</time></trkpt><trkpt lat="45.44454685885052" lon="9.00478717890106"><ele>125.33333333333333</ele><time>2026-05-03T07:50:55Z</time></trkpt><trkpt lat="45.444491130224044" lon="9.004583903097261"><ele>125.0</ele><time>2026-05-03T07:50:56Z</time></trkpt><trkpt lat="45.44442727337258" lon="9.004321476991137"><ele>124.33333333333333</ele><time>2026-05-03T07:50:57Z</time></trkpt><trkpt lat="45.44436393568113" lon="9.004086461669521"><ele>123.66666666666666</ele><time>2026-05-03T07:50:58Z</time></trkpt><trkpt lat="45.44430115309463" lon="9.003854310724"><ele>123.0</ele><time>2026-05-03T07:50:59Z</time></trkpt><trkpt lat="45.44423727400102" lon="9.00361379439774"><ele>123.0</ele><time>2026-05-03T07:51:00Z</time></trkpt><trkpt lat="45.444175273522305" lon="9.003376934656968"><ele>123.0</ele><time>2026-05-03T07:51:01Z</time></trkpt><trkpt lat="45.44411208581195" lon="9.003140510203147"><ele>123.0</ele><time>2026-05-03T07:51:02Z</time></trkpt><trkpt lat="45.444046476614574" lon="9.002905454040194"><ele>122.66666666666666</ele><time>2026-05-03T07:51:03Z</time></trkpt><trkpt lat="45.44397996932863" lon="9.00267132683669"><ele>122.33333333333333</ele><time>2026-05-03T07:51:04Z</time></trkpt><trkpt lat="45.44391127855662" lon="9.002433176550936"><ele>122.0</ele><time>2026-05-03T07:51:05Z</time></trkpt><trkpt lat="45.44384882332309" lon="9.002198965304618"><ele>122.33333333333333</ele><time>2026-05-03T07:51:06Z</time></trkpt><trkpt lat="45.44380133949334" lon="9.001955445018877"><ele>122.66666666666666</ele><time>2026-05-03T07:51:07Z</time></trkpt><trkpt lat="45.443739272026754" lon="9.001720281507872"><ele>123.0</ele><time>2026-05-03T07:51:08Z</time></trkpt><trkpt lat="45.44367892085739" lon="9.001492140688624"><ele>123.0</ele><time>2026-05-03T07:51:09Z</time></trkpt><trkpt lat="45.44359665691197" lon="9.001273400279045"><ele>123.0</ele><time>2026-05-03T07:51:10Z</time></trkpt><trkpt lat="45.443537825047784" lon="9.001045838839175"><ele>123.0</ele><time>2026-05-03T07:51:11Z</time></trkpt><trkpt lat="45.443480759300144" lon="9.000814154705681"><ele>123.33333333333334</ele><time>2026-05-03T07:51:12Z</time></trkpt><trkpt lat="45.4434201814782" lon="9.000584865518752"><ele>123.66666666666667</ele><time>2026-05-03T07:51:13Z</time></trkpt><trkpt lat="45.44335657951911" lon="9.000355550127988"><ele>124.0</ele><time>2026-05-03T07:51:14Z</time></trkpt><trkpt lat="45.443298199737136" lon="9.000132964842397"><ele>124.0</ele><time>2026-05-03T07:51:15Z</time></trkpt><trkpt lat="45.443236498351155" lon="8.999904669511153"><ele>124.0</ele><time>2026-05-03T07:51:16Z</time></trkpt><trkpt lat="45.44317726178982" lon="8.999676408604346"><ele>124.0</ele><time>2026-05-03T07:51:17Z</time></trkpt><trkpt lat="45.44311887830359" lon="8.999450651089377"><ele>124.0</ele><time>2026-05-03T07:51:18Z</time></trkpt><trkpt lat="45.44306417652835" lon="8.999223246459549"><ele>124.0</ele><time>2026-05-03T07:51:19Z</time></trkpt><trkpt lat="45.442997608726245" lon="8.998990712797394"><ele>124.0</ele><time>2026-05-03T07:51:20Z</time></trkpt><trkpt lat="45.442941881916056" lon="8.998763149774616"><ele>124.0</ele><time>2026-05-03T07:51:21Z</time></trkpt><trkpt lat="45.442883962868684" lon="8.998531866762852"><ele>124.0</ele><time>2026-05-03T07:51:22Z</time></trkpt><trkpt lat="45.44282395539958" lon="8.99830052685028"><ele>124.0</ele><time>2026-05-03T07:51:23Z</time></trkpt><trkpt lat="45.44276592560037" lon="8.998069865605709"><ele>124.0</ele><time>2026-05-03T07:51:24Z</time></trkpt><trkpt lat="45.44270633904845" lon="8.997840538388262"><ele>124.0</ele><time>2026-05-03T07:51:25Z</time></trkpt><trkpt lat="45.44264007966333" lon="8.997613466000823"><ele>124.0</ele><time>2026-05-03T07:51:26Z</time></trkpt><trkpt lat="45.44257978826663" lon="8.997386536413572"><ele>124.33333333333334</ele><time>2026-05-03T07:51:27Z</time></trkpt><trkpt lat="45.442517064588486" lon="8.997160133919907"><ele>124.66666666666666</ele><time>2026-05-03T07:51:28Z</time></trkpt><trkpt lat="45.44245964060113" lon="8.996935895292808"><ele>125.0</ele><time>2026-05-03T07:51:29Z</time></trkpt><trkpt lat="45.442396630300124" lon="8.99671615015882"><ele>125.0</ele><time>2026-05-03T07:51:30Z</time></trkpt><trkpt lat="45.44234697595815" lon="8.996495793591173"><ele>125.0</ele><time>2026-05-03T07:51:31Z</time></trkpt><trkpt lat="45.442277426268824" lon="8.996273535571367"><ele>125.0</ele><time>2026-05-03T07:51:32Z</time></trkpt><trkpt lat="45.44221652900062" lon="8.996051131957847"><ele>125.33333333333333</ele><time>2026-05-03T07:51:33Z</time></trkpt><trkpt lat="45.44215707084538" lon="8.9958253082658"><ele>125.66666666666666</ele><time>2026-05-03T07:51:34Z</time></trkpt><trkpt lat="45.442096518432145" lon="8.99559698959352"><ele>126.0</ele><time>2026-05-03T07:51:35Z</time></trkpt><trkpt lat="45.442041552010046" lon="8.995372620811738"><ele>125.33333333333334</ele><time>2026-05-03T07:51:36Z</time></trkpt><trkpt lat="45.44198002064841" lon="8.995150920692105"><ele>124.66666666666667</ele><time>2026-05-03T07:51:37Z</time></trkpt><trkpt lat="45.441919602203576" lon="8.994927374094376"><ele>124.0</ele><time>2026-05-03T07:51:38Z</time></trkpt><trkpt lat="45.44186096259244" lon="8.994706363012844"><ele>123.33333333333334</ele><time>2026-05-03T07:51:39Z</time></trkpt><trkpt lat="45.44180049827599" lon="8.994482795510114"><ele>122.66666666666666</ele><time>2026-05-03T07:51:40Z</time></trkpt><trkpt lat="45.44174238017855" lon="8.994257865150285"><ele>122.0</ele><time>2026-05-03T07:51:41Z</time></trkpt><trkpt lat="45.441685736337355" lon="8.99404168402367"><ele>122.0</ele><time>2026-05-03T07:51:42Z</time></trkpt><trkpt lat="45.441625403953836" lon="8.993828643353115"><ele>122.0</ele><time>2026-05-03T07:51:43Z</time></trkpt><trkpt lat="45.441567073925405" lon="8.9936119409628"><ele>122.0</ele><time>2026-05-03T07:51:44Z</time></trkpt><trkpt lat="45.44150931380056" lon="8.993405222021297"><ele>122.66666666666666</ele><time>2026-05-03T07:51:45Z</time></trkpt><trkpt lat="45.441453613625555" lon="8.993198553953938"><ele>123.33333333333334</ele><time>2026-05-03T07:51:46Z</time></trkpt><trkpt lat="45.441400912477654" lon="8.9929905862776"><ele>124.0</ele><time>2026-05-03T07:51:47Z</time></trkpt><trkpt lat="45.44134494643173" lon="8.99278101528966"><ele>123.66666666666667</ele><time>2026-05-03T07:51:48Z</time></trkpt><trkpt lat="45.441284613239304" lon="8.992568470941464"><ele>123.33333333333334</ele><time>2026-05-03T07:51:49Z</time></trkpt><trkpt lat="45.441227736213555" lon="8.992358616229469"><ele>123.0</ele><time>2026-05-03T07:51:50Z</time></trkpt><trkpt lat="45.44117221037553" lon="8.992140612465496"><ele>123.0</ele><time>2026-05-03T07:51:51Z</time></trkpt><trkpt lat="45.44111425176951" lon="8.99192305577213"><ele>123.0</ele><time>2026-05-03T07:51:52Z</time></trkpt><trkpt lat="45.441062487106315" lon="8.991699362641748"><ele>123.0</ele><time>2026-05-03T07:51:53Z</time></trkpt><trkpt lat="45.441013749554365" lon="8.991481324297226"><ele>123.33333333333334</ele><time>2026-05-03T07:51:54Z</time></trkpt><trkpt lat="45.44096364482401" lon="8.991255760158841"><ele>123.66666666666667</ele><time>2026-05-03T07:51:55Z</time></trkpt><trkpt lat="45.44092282451175" lon="8.991034217737162"><ele>124.0</ele><time>2026-05-03T07:51:56Z</time></trkpt><trkpt lat="45.44088148389855" lon="8.990802434122019"><ele>124.0</ele><time>2026-05-03T07:51:57Z</time></trkpt><trkpt lat="45.440841810463866" lon="8.990575847596705"><ele>124.0</ele><time>2026-05-03T07:51:58Z</time></trkpt><trkpt lat="45.44080432886667" lon="8.990347787133267"><ele>124.0</ele><time>2026-05-03T07:51:59Z</time></trkpt><trkpt lat="45.44076772666288" lon="8.990125370818076"><ele>123.66666666666667</ele><time>2026-05-03T07:52:00Z</time></trkpt><trkpt lat="45.44072801417038" lon="8.989896719949432"><ele>123.33333333333334</ele><time>2026-05-03T07:52:01Z</time></trkpt><trkpt lat="45.44068837045605" lon="8.989673167193255"><ele>123.0</ele><time>2026-05-03T07:52:02Z</time></trkpt><trkpt lat="45.440653128483774" lon="8.989441738363913"><ele>123.0</ele><time>2026-05-03T07:52:03Z</time></trkpt><trkpt lat="45.440618699407594" lon="8.98921506510015"><ele>123.0</ele><time>2026-05-03T07:52:04Z</time></trkpt><trkpt lat="45.440577012512506" lon="8.9889834533226"><ele>123.0</ele><time>2026-05-03T07:52:05Z</time></trkpt><trkpt lat="45.44053828057181" lon="8.988753924059019"><ele>123.33333333333334</ele><time>2026-05-03T07:52:06Z</time></trkpt><trkpt lat="45.44050426222591" lon="8.988525990506943"><ele>123.66666666666667</ele><time>2026-05-03T07:52:07Z</time></trkpt><trkpt lat="45.44046971877278" lon="8.988295820052551"><ele>124.0</ele><time>2026-05-03T07:52:08Z</time></trkpt><trkpt lat="45.44042888485757" lon="8.988064696792936"><ele>124.0</ele><time>2026-05-03T07:52:09Z</time></trkpt><trkpt lat="45.440387598933455" lon="8.9878330606733"><ele>124.0</ele><time>2026-05-03T07:52:10Z</time></trkpt><trkpt lat="45.440350451178894" lon="8.987604494183703"><ele>124.0</ele><time>2026-05-03T07:52:11Z</time></trkpt><trkpt lat="45.44031255074486" lon="8.987377423332006"><ele>124.0</ele><time>2026-05-03T07:52:12Z</time></trkpt><trkpt lat="45.44027315801095" lon="8.987145165373969"><ele>124.0</ele><time>2026-05-03T07:52:13Z</time></trkpt><trkpt lat="45.44023131731431" lon="8.986913364533683"><ele>124.0</ele><time>2026-05-03T07:52:14Z</time></trkpt><trkpt lat="45.44019184732757" lon="8.986690662761701"><ele>124.0</ele><time>2026-05-03T07:52:15Z</time></trkpt><trkpt lat="45.44015836828433" lon="8.986468855637881"><ele>124.0</ele><time>2026-05-03T07:52:16Z</time></trkpt><trkpt lat="45.440126860322565" lon="8.98627193573618"><ele>124.0</ele><time>2026-05-03T07:52:17Z</time></trkpt><trkpt lat="45.4401031139263" lon="8.98608698960226"><ele>124.0</ele><time>2026-05-03T07:52:18Z</time></trkpt><trkpt lat="45.44008815880101" lon="8.985901935561772"><ele>123.75</ele><time>2026-05-03T07:52:19Z</time></trkpt><trkpt lat="45.44008369152047" lon="8.985718894616749"><ele>123.5</ele><time>2026-05-03T07:52:20Z</time></trkpt><trkpt lat="45.440096181788675" lon="8.985533878131822"><ele>123.25</ele><time>2026-05-03T07:52:21Z</time></trkpt><trkpt lat="45.44012481255272" lon="8.985363329013241"><ele>123.0</ele><time>2026-05-03T07:52:22Z</time></trkpt><trkpt lat="45.44016200338771" lon="8.985204999214828"><ele>123.0</ele><time>2026-05-03T07:52:23Z</time></trkpt><trkpt lat="45.44019482721512" lon="8.985041828235763"><ele>123.0</ele><time>2026-05-03T07:52:24Z</time></trkpt><trkpt lat="45.44020135846442" lon="8.984893631205836"><ele>123.0</ele><time>2026-05-03T07:52:25Z</time></trkpt><trkpt lat="45.44017525625132" lon="8.98474369562972"><ele>123.0</ele><time>2026-05-03T07:52:26Z</time></trkpt><trkpt lat="45.44008075700273" lon="8.984602776473855"><ele>122.75</ele><time>2026-05-03T07:52:27Z</time></trkpt><trkpt lat="45.43998604812394" lon="8.984458897351761"><ele>122.5</ele><time>2026-05-03T07:52:28Z</time></trkpt><trkpt lat="45.43988749443335" lon="8.98430127812495"><ele>122.25</ele><time>2026-05-03T07:52:29Z</time></trkpt><trkpt lat="45.43981497734343" lon="8.984118761107327"><ele>122.0</ele><time>2026-05-03T07:52:30Z</time></trkpt><trkpt lat="45.43975723097322" lon="8.983924433026127"><ele>123.0</ele><time>2026-05-03T07:52:31Z</time></trkpt><trkpt lat="45.43970867793346" lon="8.983722652003612"><ele>124.0</ele><time>2026-05-03T07:52:32Z</time></trkpt><trkpt lat="45.43966320998836" lon="8.983515172613675"><ele>125.0</ele><time>2026-05-03T07:52:33Z</time></trkpt><trkpt lat="45.439639290856064" lon="8.983296243389384"><ele>124.33333333333333</ele><time>2026-05-03T07:52:34Z</time></trkpt><trkpt lat="45.4396035985519" lon="8.983072608904143"><ele>123.66666666666666</ele><time>2026-05-03T07:52:35Z</time></trkpt><trkpt lat="45.4395519361441" lon="8.982855423851905"><ele>123.0</ele><time>2026-05-03T07:52:36Z</time></trkpt><trkpt lat="45.43951510257777" lon="8.982628025045225"><ele>123.33333333333334</ele><time>2026-05-03T07:52:37Z</time></trkpt><trkpt lat="45.43948221711297" lon="8.982396606324267"><ele>123.66666666666667</ele><time>2026-05-03T07:52:38Z</time></trkpt><trkpt lat="45.43944378558974" lon="8.982163563629232"><ele>124.0</ele><time>2026-05-03T07:52:39Z</time></trkpt><trkpt lat="45.43940811846901" lon="8.981937895001302"><ele>124.0</ele><time>2026-05-03T07:52:40Z</time></trkpt><trkpt lat="45.439371331810946" lon="8.981710012909737"><ele>124.0</ele><time>2026-05-03T07:52:41Z</time></trkpt><trkpt lat="45.43933087012559" lon="8.981475743049899"><ele>124.0</ele><time>2026-05-03T07:52:42Z</time></trkpt><trkpt lat="45.43929879698616" lon="8.981254808619331"><ele>124.0</ele><time>2026-05-03T07:52:43Z</time></trkpt><trkpt lat="45.439260971134075" lon="8.98102576681619"><ele>124.0</ele><time>2026-05-03T07:52:44Z</time></trkpt><trkpt lat="45.439220550732564" lon="8.980788692778283"><ele>124.0</ele><time>2026-05-03T07:52:45Z</time></trkpt><trkpt lat="45.439183913343825" lon="8.980557478454456"><ele>124.0</ele><time>2026-05-03T07:52:46Z</time></trkpt><trkpt lat="45.439145621515635" lon="8.98032234500173"><ele>124.0</ele><time>2026-05-03T07:52:47Z</time></trkpt><trkpt lat="45.43911116909325" lon="8.980096629564713"><ele>124.0</ele><time>2026-05-03T07:52:48Z</time></trkpt><trkpt lat="45.43907208507693" lon="8.979851861986116"><ele>124.33333333333334</ele><time>2026-05-03T07:52:49Z</time></trkpt><trkpt lat="45.43903081683384" lon="8.979620135770158"><ele>124.66666666666666</ele><time>2026-05-03T07:52:50Z</time></trkpt><trkpt lat="45.43898948603336" lon="8.979388564499967"><ele>125.0</ele><time>2026-05-03T07:52:51Z</time></trkpt><trkpt lat="45.43895434826328" lon="8.979170801962633"><ele>125.25</ele><time>2026-05-03T07:52:52Z</time></trkpt><trkpt lat="45.43892009552526" lon="8.978971519211887"><ele>125.5</ele><time>2026-05-03T07:52:53Z</time></trkpt><trkpt lat="45.43888753132785" lon="8.9787779494643"><ele>125.75</ele><time>2026-05-03T07:52:54Z</time></trkpt><trkpt lat="45.43885605086077" lon="8.97858867247706"><ele>126.0</ele><time>2026-05-03T07:52:55Z</time></trkpt><trkpt lat="45.438826600157796" lon="8.978394250143559"><ele>126.0</ele><time>2026-05-03T07:52:56Z</time></trkpt><trkpt lat="45.43879107429777" lon="8.9781881444913"><ele>126.0</ele><time>2026-05-03T07:52:57Z</time></trkpt><trkpt lat="45.438753425366386" lon="8.977977786973852"><ele>126.0</ele><time>2026-05-03T07:52:58Z</time></trkpt><trkpt lat="45.43871240232402" lon="8.977775216182728"><ele>126.0</ele><time>2026-05-03T07:52:59Z</time></trkpt><trkpt lat="45.438669005284495" lon="8.977573126501435"><ele>126.0</ele><time>2026-05-03T07:53:00Z</time></trkpt><trkpt lat="45.43862806959782" lon="8.977389489181077"><ele>126.0</ele><time>2026-05-03T07:53:01Z</time></trkpt><trkpt lat="45.43860055453047" lon="8.97720122101682"><ele>126.0</ele><time>2026-05-03T07:53:02Z</time></trkpt><trkpt lat="45.43855056600062" lon="8.977023014473927"><ele>126.0</ele><time>2026-05-03T07:53:03Z</time></trkpt><trkpt lat="45.43851244547871" lon="8.976815695011"><ele>126.0</ele><time>2026-05-03T07:53:04Z</time></trkpt><trkpt lat="45.43848425415653" lon="8.976629084497871"><ele>126.0</ele><time>2026-05-03T07:53:05Z</time></trkpt><trkpt lat="45.43842493422409" lon="8.976423994755283"><ele>126.0</ele><time>2026-05-03T07:53:06Z</time></trkpt><trkpt lat="45.438371680701856" lon="8.976188431278871"><ele>126.0</ele><time>2026-05-03T07:53:07Z</time></trkpt><trkpt lat="45.43830975362797" lon="8.975968078331832"><ele>126.0</ele><time>2026-05-03T07:53:08Z</time></trkpt><trkpt lat="45.43824990309361" lon="8.975747387180977"><ele>126.0</ele><time>2026-05-03T07:53:09Z</time></trkpt><trkpt lat="45.43819324098332" lon="8.975528315818167"><ele>126.33333333333334</ele><time>2026-05-03T07:53:10Z</time></trkpt><trkpt lat="45.438147526953394" lon="8.9753079697674"><ele>126.66666666666667</ele><time>2026-05-03T07:53:11Z</time></trkpt><trkpt lat="45.43811685680671" lon="8.975081331999498"><ele>127.0</ele><time>2026-05-03T07:53:12Z</time></trkpt><trkpt lat="45.438108206885936" lon="8.974873319920556"><ele>127.0</ele><time>2026-05-03T07:53:13Z</time></trkpt><trkpt lat="45.43811538162292" lon="8.9746937012781"><ele>127.0</ele><time>2026-05-03T07:53:14Z</time></trkpt><trkpt lat="45.43811906892188" lon="8.974498125695359"><ele>127.0</ele><time>2026-05-03T07:53:15Z</time></trkpt><trkpt lat="45.438093244518534" lon="8.974316660606052"><ele>127.0</ele><time>2026-05-03T07:53:16Z</time></trkpt><trkpt lat="45.438045745390035" lon="8.974167393733312"><ele>126.0</ele><time>2026-05-03T07:53:17Z</time></trkpt><trkpt lat="45.43795261931071" lon="8.974023778944929"><ele>125.0</ele><time>2026-05-03T07:53:18Z</time></trkpt><trkpt lat="45.437843832572405" lon="8.973892100644802"><ele>124.0</ele><time>2026-05-03T07:53:19Z</time></trkpt><trkpt lat="45.4377186977392" lon="8.973785098751378"><ele>123.0</ele><time>2026-05-03T07:53:20Z</time></trkpt><trkpt lat="45.43759544947311" lon="8.973671861705276"><ele>123.0</ele><time>2026-05-03T07:53:21Z</time></trkpt><trkpt lat="45.43746787661977" lon="8.97357736897917"><ele>123.0</ele><time>2026-05-03T07:53:22Z</time></trkpt><trkpt lat="45.43734892763449" lon="8.973481265428305"><ele>123.0</ele><time>2026-05-03T07:53:23Z</time></trkpt><trkpt lat="45.43722988466331" lon="8.973371652234155"><ele>123.0</ele><time>2026-05-03T07:53:24Z</time></trkpt><trkpt lat="45.437110205525805" lon="8.973243781802893"><ele>122.66666666666666</ele><time>2026-05-03T07:53:25Z</time></trkpt><trkpt lat="45.43697761510111" lon="8.973107047960283"><ele>122.33333333333333</ele><time>2026-05-03T07:53:26Z</time></trkpt><trkpt lat="45.43683502296986" lon="8.972981975244817"><ele>122.0</ele><time>2026-05-03T07:53:27Z</time></trkpt><trkpt lat="45.436725082676894" lon="8.97279759151634"><ele>122.0</ele><time>2026-05-03T07:53:28Z</time></trkpt><trkpt lat="45.43660585447107" lon="8.972628819613885"><ele>122.0</ele><time>2026-05-03T07:53:29Z</time></trkpt><trkpt lat="45.436483542101094" lon="8.972454716445679"><ele>122.0</ele><time>2026-05-03T07:53:30Z</time></trkpt><trkpt lat="45.436359024663446" lon="8.972277275625826"><ele>122.0</ele><time>2026-05-03T07:53:31Z</time></trkpt><trkpt lat="45.43623665839078" lon="8.972102905184348"><ele>122.0</ele><time>2026-05-03T07:53:32Z</time></trkpt><trkpt lat="45.436127650541145" lon="8.971947577581394"><ele>122.0</ele><time>2026-05-03T07:53:33Z</time></trkpt><trkpt lat="45.43603074729627" lon="8.971809498007579"><ele>122.0</ele><time>2026-05-03T07:53:34Z</time></trkpt><trkpt lat="45.435943106604235" lon="8.971684616786446"><ele>122.0</ele><time>2026-05-03T07:53:35Z</time></trkpt><trkpt lat="45.43585478463915" lon="8.971558459435014"><ele>122.0</ele><time>2026-05-03T07:53:36Z</time></trkpt><trkpt lat="45.43576630208273" lon="8.971431957170697"><ele>122.0</ele><time>2026-05-03T07:53:37Z</time></trkpt><trkpt lat="45.435679778123045" lon="8.971308255068088"><ele>122.0</ele><time>2026-05-03T07:53:38Z</time></trkpt><trkpt lat="45.43559083910896" lon="8.971181100182879"><ele>122.0</ele><time>2026-05-03T07:53:39Z</time></trkpt><trkpt lat="45.43549626349241" lon="8.97104588673463"><ele>122.0</ele><time>2026-05-03T07:53:40Z</time></trkpt><trkpt lat="45.43539747727283" lon="8.970904653480018"><ele>122.0</ele><time>2026-05-03T07:53:41Z</time></trkpt><trkpt lat="45.43529540078383" lon="8.97075891278562"><ele>122.33333333333333</ele><time>2026-05-03T07:53:42Z</time></trkpt><trkpt lat="45.435190530514895" lon="8.970609954847115"><ele>122.66666666666666</ele><time>2026-05-03T07:53:43Z</time></trkpt><trkpt lat="45.435082171269215" lon="8.97045604104836"><ele>123.0</ele><time>2026-05-03T07:53:44Z</time></trkpt><trkpt lat="45.434974802952674" lon="8.970303266792543"><ele>123.0</ele><time>2026-05-03T07:53:45Z</time></trkpt><trkpt lat="45.43486441940109" lon="8.970145971726426"><ele>123.0</ele><time>2026-05-03T07:53:46Z</time></trkpt><trkpt lat="45.43475443349748" lon="8.969987663021335"><ele>123.0</ele><time>2026-05-03T07:53:47Z</time></trkpt><trkpt lat="45.43464570287572" lon="8.969830847350815"><ele>122.75</ele><time>2026-05-03T07:53:48Z</time></trkpt><trkpt lat="45.43453781176824" lon="8.969675242474025"><ele>122.5</ele><time>2026-05-03T07:53:49Z</time></trkpt><trkpt lat="45.43443485276629" lon="8.96952848505331"><ele>122.25</ele><time>2026-05-03T07:53:50Z</time></trkpt><trkpt lat="45.434336153263345" lon="8.96938787135741"><ele>122.0</ele><time>2026-05-03T07:53:51Z</time></trkpt><trkpt lat="45.43424598668903" lon="8.969259414187734"><ele>122.33333333333333</ele><time>2026-05-03T07:53:52Z</time></trkpt><trkpt lat="45.43413406425811" lon="8.969099712867381"><ele>122.66666666666666</ele><time>2026-05-03T07:53:53Z</time></trkpt><trkpt lat="45.43402870023802" lon="8.968948388460564"><ele>123.0</ele><time>2026-05-03T07:53:54Z</time></trkpt><trkpt lat="45.433921913450305" lon="8.968795020678495"><ele>123.0</ele><time>2026-05-03T07:53:55Z</time></trkpt><trkpt lat="45.433820101671884" lon="8.968648798062507"><ele>123.0</ele><time>2026-05-03T07:53:56Z</time></trkpt><trkpt lat="45.433721986605214" lon="8.96850788485577"><ele>123.0</ele><time>2026-05-03T07:53:57Z</time></trkpt><trkpt lat="45.43361912280233" lon="8.968361183236157"><ele>123.0</ele><time>2026-05-03T07:53:58Z</time></trkpt><trkpt lat="45.43351186243323" lon="8.9682096652179"><ele>123.0</ele><time>2026-05-03T07:53:59Z</time></trkpt><trkpt lat="45.43340606514558" lon="8.968059751012488"><ele>123.0</ele><time>2026-05-03T07:54:00Z</time></trkpt><trkpt lat="45.43331050907953" lon="8.967923588714738"><ele>123.0</ele><time>2026-05-03T07:54:01Z</time></trkpt><trkpt lat="45.433220162186345" lon="8.967794844803699"><ele>123.0</ele><time>2026-05-03T07:54:02Z</time></trkpt><trkpt lat="45.43311002380112" lon="8.967699052956094"><ele>123.0</ele><time>2026-05-03T07:54:03Z</time></trkpt><trkpt lat="45.43302976476203" lon="8.967588173360776"><ele>123.0</ele><time>2026-05-03T07:54:04Z</time></trkpt><trkpt lat="45.43295387557242" lon="8.967483549979544"><ele>123.0</ele><time>2026-05-03T07:54:05Z</time></trkpt><trkpt lat="45.43287016062096" lon="8.967360071996223"><ele>123.0</ele><time>2026-05-03T07:54:06Z</time></trkpt><trkpt lat="45.43278200305022" lon="8.967231174535115"><ele>123.0</ele><time>2026-05-03T07:54:07Z</time></trkpt><trkpt lat="45.432690031313534" lon="8.967112654411572"><ele>123.0</ele><time>2026-05-03T07:54:08Z</time></trkpt><trkpt lat="45.43260288394092" lon="8.96691450948581"><ele>123.0</ele><time>2026-05-03T07:54:09Z</time></trkpt><trkpt lat="45.43249095678653" lon="8.966754759832346"><ele>123.0</ele><time>2026-05-03T07:54:10Z</time></trkpt><trkpt lat="45.43238427979204" lon="8.966602503477727"><ele>122.66666666666666</ele><time>2026-05-03T07:54:11Z</time></trkpt><trkpt lat="45.43226870471095" lon="8.966437466664692"><ele>122.33333333333333</ele><time>2026-05-03T07:54:12Z</time></trkpt><trkpt lat="45.43215809868495" lon="8.966279333949142"><ele>122.0</ele><time>2026-05-03T07:54:13Z</time></trkpt><trkpt lat="45.43205937672835" lon="8.966138191852991"><ele>122.0</ele><time>2026-05-03T07:54:14Z</time></trkpt><trkpt lat="45.43195855181771" lon="8.96599404316079"><ele>122.0</ele><time>2026-05-03T07:54:15Z</time></trkpt><trkpt lat="45.43185920277473" lon="8.965852004521556"><ele>122.0</ele><time>2026-05-03T07:54:16Z</time></trkpt><trkpt lat="45.43175941914023" lon="8.96570934455955"><ele>122.0</ele><time>2026-05-03T07:54:17Z</time></trkpt><trkpt lat="45.43165545923872" lon="8.96556071383172"><ele>122.0</ele><time>2026-05-03T07:54:18Z</time></trkpt><trkpt lat="45.43153843760112" lon="8.965393408764958"><ele>122.0</ele><time>2026-05-03T07:54:19Z</time></trkpt><trkpt lat="45.43140621847193" lon="8.965204165616944"><ele>122.0</ele><time>2026-05-03T07:54:20Z</time></trkpt><trkpt lat="45.43126926269179" lon="8.965007837936293"><ele>122.0</ele><time>2026-05-03T07:54:21Z</time></trkpt><trkpt lat="45.43113212218721" lon="8.96481125087859"><ele>122.0</ele><time>2026-05-03T07:54:22Z</time></trkpt><trkpt lat="45.430987563199835" lon="8.96463288623562"><ele>122.0</ele><time>2026-05-03T07:54:23Z</time></trkpt><trkpt lat="45.43085280019971" lon="8.964432403798849"><ele>122.0</ele><time>2026-05-03T07:54:24Z</time></trkpt><trkpt lat="45.430725776449655" lon="8.964245929992343"><ele>122.0</ele><time>2026-05-03T07:54:25Z</time></trkpt><trkpt lat="45.430596529326074" lon="8.964060531359165"><ele>122.0</ele><time>2026-05-03T07:54:26Z</time></trkpt><trkpt lat="45.430472883415135" lon="8.96388047894304"><ele>122.0</ele><time>2026-05-03T07:54:27Z</time></trkpt><trkpt lat="45.43035294596334" lon="8.963707724015194"><ele>122.0</ele><time>2026-05-03T07:54:28Z</time></trkpt><trkpt lat="45.43022871191393" lon="8.963528633199882"><ele>122.0</ele><time>2026-05-03T07:54:29Z</time></trkpt><trkpt lat="45.43010429087207" lon="8.963347828284277"><ele>122.0</ele><time>2026-05-03T07:54:30Z</time></trkpt><trkpt lat="45.42998303609355" lon="8.963175410153033"><ele>122.0</ele><time>2026-05-03T07:54:31Z</time></trkpt><trkpt lat="45.42985761789869" lon="8.962999809683412"><ele>122.0</ele><time>2026-05-03T07:54:32Z</time></trkpt><trkpt lat="45.4297342923524" lon="8.962822108977475"><ele>122.0</ele><time>2026-05-03T07:54:33Z</time></trkpt><trkpt lat="45.42960748825228" lon="8.962638731743743"><ele>122.0</ele><time>2026-05-03T07:54:34Z</time></trkpt><trkpt lat="45.42948503648255" lon="8.962460594736369"><ele>122.0</ele><time>2026-05-03T07:54:35Z</time></trkpt><trkpt lat="45.429354088972104" lon="8.962278476559023"><ele>122.0</ele><time>2026-05-03T07:54:36Z</time></trkpt><trkpt lat="45.42922384513171" lon="8.962094506060666"><ele>122.0</ele><time>2026-05-03T07:54:37Z</time></trkpt><trkpt lat="45.42910054702102" lon="8.961912986351187"><ele>122.0</ele><time>2026-05-03T07:54:38Z</time></trkpt><trkpt lat="45.42897177011786" lon="8.961730360692078"><ele>122.0</ele><time>2026-05-03T07:54:39Z</time></trkpt><trkpt lat="45.428841955411876" lon="8.961549296788826"><ele>122.0</ele><time>2026-05-03T07:54:40Z</time></trkpt><trkpt lat="45.42871504569249" lon="8.961366706810557"><ele>122.0</ele><time>2026-05-03T07:54:41Z</time></trkpt><trkpt lat="45.428585428794854" lon="8.961183254162199"><ele>122.0</ele><time>2026-05-03T07:54:42Z</time></trkpt><trkpt lat="45.42845609699196" lon="8.960994476652779"><ele>122.0</ele><time>2026-05-03T07:54:43Z</time></trkpt><trkpt lat="45.42832921010997" lon="8.960806208967254"><ele>122.0</ele><time>2026-05-03T07:54:44Z</time></trkpt><trkpt lat="45.428205026342894" lon="8.960628164635144"><ele>122.33333333333333</ele><time>2026-05-03T07:54:45Z</time></trkpt><trkpt lat="45.428074936070296" lon="8.960445455003164"><ele>122.66666666666666</ele><time>2026-05-03T07:54:46Z</time></trkpt><trkpt lat="45.42795091959703" lon="8.960269649748534"><ele>123.0</ele><time>2026-05-03T07:54:47Z</time></trkpt><trkpt lat="45.42782472114639" lon="8.960090881926547"><ele>123.66666666666666</ele><time>2026-05-03T07:54:48Z</time></trkpt><trkpt lat="45.427698405878786" lon="8.959910434614898"><ele>124.33333333333333</ele><time>2026-05-03T07:54:49Z</time></trkpt><trkpt lat="45.42757101749649" lon="8.959727698399357"><ele>125.0</ele><time>2026-05-03T07:54:50Z</time></trkpt><trkpt lat="45.42744446018309" lon="8.959546363979397"><ele>125.0</ele><time>2026-05-03T07:54:51Z</time></trkpt><trkpt lat="45.42731874512609" lon="8.959362448623404"><ele>125.0</ele><time>2026-05-03T07:54:52Z</time></trkpt><trkpt lat="45.42719143219613" lon="8.959179869049997"><ele>125.0</ele><time>2026-05-03T07:54:53Z</time></trkpt><trkpt lat="45.42706056079991" lon="8.958998343374988"><ele>124.33333333333333</ele><time>2026-05-03T07:54:54Z</time></trkpt><trkpt lat="45.42693467847723" lon="8.958820978888548"><ele>123.66666666666666</ele><time>2026-05-03T07:54:55Z</time></trkpt><trkpt lat="45.42680771127768" lon="8.958633035382128"><ele>123.0</ele><time>2026-05-03T07:54:56Z</time></trkpt><trkpt lat="45.42667609554268" lon="8.958450647528593"><ele>123.0</ele><time>2026-05-03T07:54:57Z</time></trkpt><trkpt lat="45.42654942752075" lon="8.958269276673446"><ele>123.0</ele><time>2026-05-03T07:54:58Z</time></trkpt><trkpt lat="45.426420160329776" lon="8.958087754271226"><ele>123.0</ele><time>2026-05-03T07:54:59Z</time></trkpt><trkpt lat="45.42629209825694" lon="8.957905285417844"><ele>122.66666666666666</ele><time>2026-05-03T07:55:00Z</time></trkpt><trkpt lat="45.42616465372805" lon="8.957723262833609"><ele>122.33333333333333</ele><time>2026-05-03T07:55:01Z</time></trkpt><trkpt lat="45.426039072064526" lon="8.957539487205798"><ele>122.0</ele><time>2026-05-03T07:55:02Z</time></trkpt><trkpt lat="45.42591109830855" lon="8.95736245942401"><ele>122.0</ele><time>2026-05-03T07:55:03Z</time></trkpt><trkpt lat="45.425789455199066" lon="8.957183452356787"><ele>122.0</ele><time>2026-05-03T07:55:04Z</time></trkpt><trkpt lat="45.42566524267256" lon="8.957003997624035"><ele>122.0</ele><time>2026-05-03T07:55:05Z</time></trkpt><trkpt lat="45.42554266908066" lon="8.956822520497486"><ele>121.66666666666666</ele><time>2026-05-03T07:55:06Z</time></trkpt><trkpt lat="45.42542024311001" lon="8.956646274670158"><ele>121.33333333333334</ele><time>2026-05-03T07:55:07Z</time></trkpt><trkpt lat="45.42529780432438" lon="8.956468545075337"><ele>121.0</ele><time>2026-05-03T07:55:08Z</time></trkpt><trkpt lat="45.42517253860316" lon="8.95629380352346"><ele>121.0</ele><time>2026-05-03T07:55:09Z</time></trkpt><trkpt lat="45.42504469912606" lon="8.956117096889164"><ele>121.0</ele><time>2026-05-03T07:55:10Z</time></trkpt><trkpt lat="45.42491964793956" lon="8.955940646469319"><ele>121.0</ele><time>2026-05-03T07:55:11Z</time></trkpt><trkpt lat="45.42479861460002" lon="8.955761467592259"><ele>121.0</ele><time>2026-05-03T07:55:12Z</time></trkpt><trkpt lat="45.42467518520167" lon="8.955581794228461"><ele>121.0</ele><time>2026-05-03T07:55:13Z</time></trkpt><trkpt lat="45.424547599880164" lon="8.955402713086968"><ele>121.0</ele><time>2026-05-03T07:55:14Z</time></trkpt><trkpt lat="45.4244218587616" lon="8.955223519708516"><ele>121.33333333333334</ele><time>2026-05-03T07:55:15Z</time></trkpt><trkpt lat="45.424294296800475" lon="8.955044077831742"><ele>121.66666666666666</ele><time>2026-05-03T07:55:16Z</time></trkpt><trkpt lat="45.424169737612694" lon="8.954864610442149"><ele>122.0</ele><time>2026-05-03T07:55:17Z</time></trkpt><trkpt lat="45.424044018756256" lon="8.954683158366466"><ele>122.0</ele><time>2026-05-03T07:55:18Z</time></trkpt><trkpt lat="45.423919028642814" lon="8.954498069102987"><ele>122.0</ele><time>2026-05-03T07:55:19Z</time></trkpt><trkpt lat="45.423799231075236" lon="8.95430490962944"><ele>122.0</ele><time>2026-05-03T07:55:20Z</time></trkpt><trkpt lat="45.42366661807223" lon="8.954128265900797"><ele>121.33333333333333</ele><time>2026-05-03T07:55:21Z</time></trkpt><trkpt lat="45.423538388437706" lon="8.95394309123049"><ele>120.66666666666666</ele><time>2026-05-03T07:55:22Z</time></trkpt><trkpt lat="45.42340924998728" lon="8.953759355229806"><ele>120.0</ele><time>2026-05-03T07:55:23Z</time></trkpt><trkpt lat="45.42328290541272" lon="8.953577056599448"><ele>120.0</ele><time>2026-05-03T07:55:24Z</time></trkpt><trkpt lat="45.423148781402375" lon="8.95339349798761"><ele>120.0</ele><time>2026-05-03T07:55:25Z</time></trkpt><trkpt lat="45.423017917011016" lon="8.95320551613201"><ele>120.0</ele><time>2026-05-03T07:55:26Z</time></trkpt><trkpt lat="45.42288645989619" lon="8.95301598358464"><ele>120.0</ele><time>2026-05-03T07:55:27Z</time></trkpt><trkpt lat="45.42275290067728" lon="8.952824828269526"><ele>120.0</ele><time>2026-05-03T07:55:28Z</time></trkpt><trkpt lat="45.42262002455426" lon="8.952634801387184"><ele>120.0</ele><time>2026-05-03T07:55:29Z</time></trkpt><trkpt lat="45.42248646315844" lon="8.952444559521204"><ele>120.0</ele><time>2026-05-03T07:55:30Z</time></trkpt><trkpt lat="45.4223518505898" lon="8.952253836112696"><ele>120.0</ele><time>2026-05-03T07:55:31Z</time></trkpt><trkpt lat="45.4222154118706" lon="8.952061754813286"><ele>120.0</ele><time>2026-05-03T07:55:32Z</time></trkpt><trkpt lat="45.42207948137359" lon="8.951869384491262"><ele>120.66666666666666</ele><time>2026-05-03T07:55:33Z</time></trkpt><trkpt lat="45.421946663355214" lon="8.95168046075938"><ele>121.33333333333333</ele><time>2026-05-03T07:55:34Z</time></trkpt><trkpt lat="45.42181516253089" lon="8.951492340393369"><ele>122.0</ele><time>2026-05-03T07:55:35Z</time></trkpt><trkpt lat="45.42168471991517" lon="8.951305437132637"><ele>122.0</ele><time>2026-05-03T07:55:36Z</time></trkpt><trkpt lat="45.42155416077546" lon="8.951119650060697"><ele>122.0</ele><time>2026-05-03T07:55:37Z</time></trkpt><trkpt lat="45.421427884282146" lon="8.950934938619543"><ele>122.0</ele><time>2026-05-03T07:55:38Z</time></trkpt><trkpt lat="45.42129883303297" lon="8.950751647920516"><ele>121.66666666666666</ele><time>2026-05-03T07:55:39Z</time></trkpt><trkpt lat="45.421171700119885" lon="8.950567342019784"><ele>121.33333333333334</ele><time>2026-05-03T07:55:40Z</time></trkpt><trkpt lat="45.42104472057276" lon="8.950385549049942"><ele>121.0</ele><time>2026-05-03T07:55:41Z</time></trkpt><trkpt lat="45.420916295669144" lon="8.950204855320752"><ele>121.0</ele><time>2026-05-03T07:55:42Z</time></trkpt><trkpt lat="45.42078713839043" lon="8.950022176207282"><ele>121.0</ele><time>2026-05-03T07:55:43Z</time></trkpt><trkpt lat="45.420660714595954" lon="8.94983779291806"><ele>121.0</ele><time>2026-05-03T07:55:44Z</time></trkpt><trkpt lat="45.42053230594569" lon="8.949654729584076"><ele>121.33333333333334</ele><time>2026-05-03T07:55:45Z</time></trkpt><trkpt lat="45.42039865253301" lon="8.949471719860318"><ele>121.66666666666666</ele><time>2026-05-03T07:55:46Z</time></trkpt><trkpt lat="45.42027646027366" lon="8.949272985899016"><ele>122.0</ele><time>2026-05-03T07:55:47Z</time></trkpt><trkpt lat="45.42014540562221" lon="8.949085248571539"><ele>122.66666666666666</ele><time>2026-05-03T07:55:48Z</time></trkpt><trkpt lat="45.42001435398051" lon="8.948897338079584"><ele>123.33333333333334</ele><time>2026-05-03T07:55:49Z</time></trkpt><trkpt lat="45.41988134718088" lon="8.948706315300573"><ele>124.0</ele><time>2026-05-03T07:55:50Z</time></trkpt><trkpt lat="45.41974862295801" lon="8.9485166355027"><ele>123.0</ele><time>2026-05-03T07:55:51Z</time></trkpt><trkpt lat="45.41961429759123" lon="8.948325854257142"><ele>122.0</ele><time>2026-05-03T07:55:52Z</time></trkpt><trkpt lat="45.41948067634034" lon="8.948136223925614"><ele>121.0</ele><time>2026-05-03T07:55:53Z</time></trkpt><trkpt lat="45.41934634136123" lon="8.947945580701335"><ele>121.0</ele><time>2026-05-03T07:55:54Z</time></trkpt><trkpt lat="45.41920321992074" lon="8.94777194586532"><ele>121.0</ele><time>2026-05-03T07:55:55Z</time></trkpt><trkpt lat="45.41907556597742" lon="8.947573663099751"><ele>121.0</ele><time>2026-05-03T07:55:56Z</time></trkpt><trkpt lat="45.41894406809788" lon="8.947376737801182"><ele>120.66666666666667</ele><time>2026-05-03T07:55:57Z</time></trkpt><trkpt lat="45.41880820814013" lon="8.947186851050477"><ele>120.33333333333334</ele><time>2026-05-03T07:55:58Z</time></trkpt><trkpt lat="45.41868007154319" lon="8.94698915430407"><ele>120.0</ele><time>2026-05-03T07:55:59Z</time></trkpt><trkpt lat="45.41855652681131" lon="8.946786622268785"><ele>120.33333333333334</ele><time>2026-05-03T07:56:00Z</time></trkpt><trkpt lat="45.41844071615242" lon="8.946575913258677"><ele>120.66666666666667</ele><time>2026-05-03T07:56:01Z</time></trkpt><trkpt lat="45.4183325001248" lon="8.946361668178877"><ele>121.0</ele><time>2026-05-03T07:56:02Z</time></trkpt><trkpt lat="45.418232068892685" lon="8.94613949150898"><ele>121.0</ele><time>2026-05-03T07:56:03Z</time></trkpt><trkpt lat="45.41813409496616" lon="8.94591181459111"><ele>121.0</ele><time>2026-05-03T07:56:04Z</time></trkpt><trkpt lat="45.418045744211184" lon="8.945682476203865"><ele>121.0</ele><time>2026-05-03T07:56:05Z</time></trkpt><trkpt lat="45.41795998245497" lon="8.945451723144162"><ele>121.0</ele><time>2026-05-03T07:56:06Z</time></trkpt><trkpt lat="45.417878807732585" lon="8.945217028194932"><ele>121.0</ele><time>2026-05-03T07:56:07Z</time></trkpt><trkpt lat="45.417799516945166" lon="8.944980917447433"><ele>121.0</ele><time>2026-05-03T07:56:08Z</time></trkpt><trkpt lat="45.417724336561264" lon="8.944745751689574"><ele>121.0</ele><time>2026-05-03T07:56:09Z</time></trkpt><trkpt lat="45.41764875025688" lon="8.944511391491174"><ele>121.0</ele><time>2026-05-03T07:56:10Z</time></trkpt><trkpt lat="45.417567388579805" lon="8.944281381946624"><ele>121.0</ele><time>2026-05-03T07:56:11Z</time></trkpt><trkpt lat="45.41749034146697" lon="8.944052580628842"><ele>121.33333333333334</ele><time>2026-05-03T07:56:12Z</time></trkpt><trkpt lat="45.417416717584956" lon="8.943821948488235"><ele>121.66666666666666</ele><time>2026-05-03T07:56:13Z</time></trkpt><trkpt lat="45.417339550224455" lon="8.943593038105874"><ele>122.0</ele><time>2026-05-03T07:56:14Z</time></trkpt><trkpt lat="45.417263965630084" lon="8.943362342796377"><ele>121.66666666666666</ele><time>2026-05-03T07:56:15Z</time></trkpt><trkpt lat="45.41718526823425" lon="8.943133045407496"><ele>121.33333333333334</ele><time>2026-05-03T07:56:16Z</time></trkpt><trkpt lat="45.41710752878959" lon="8.942901038826575"><ele>121.0</ele><time>2026-05-03T07:56:17Z</time></trkpt><trkpt lat="45.41703257038675" lon="8.942667870798251"><ele>121.0</ele><time>2026-05-03T07:56:18Z</time></trkpt><trkpt lat="45.416964322495886" lon="8.942432557300942"><ele>121.0</ele><time>2026-05-03T07:56:19Z</time></trkpt><trkpt lat="45.4169028440526" lon="8.942225226080009"><ele>121.0</ele><time>2026-05-03T07:56:20Z</time></trkpt><trkpt lat="45.416846494531" lon="8.942032380796327"><ele>121.0</ele><time>2026-05-03T07:56:21Z</time></trkpt><trkpt lat="45.41679756912722" lon="8.941846652677093"><ele>121.0</ele><time>2026-05-03T07:56:22Z</time></trkpt><trkpt lat="45.41676314059944" lon="8.94166578522599"><ele>121.0</ele><time>2026-05-03T07:56:23Z</time></trkpt><trkpt lat="45.41672751301947" lon="8.94151129784328"><ele>121.0</ele><time>2026-05-03T07:56:24Z</time></trkpt><trkpt lat="45.41678157652698" lon="8.94133580181982"><ele>121.0</ele><time>2026-05-03T07:56:25Z</time></trkpt><trkpt lat="45.41675166461509" lon="8.941185896462143"><ele>121.0</ele><time>2026-05-03T07:56:26Z</time></trkpt><trkpt lat="45.41671214043906" lon="8.9410272946507"><ele>121.0</ele><time>2026-05-03T07:56:27Z</time></trkpt><trkpt lat="45.4165834288317" lon="8.940924747799533"><ele>121.0</ele><time>2026-05-03T07:56:28Z</time></trkpt><trkpt lat="45.41646375979156" lon="8.940800505801857"><ele>121.0</ele><time>2026-05-03T07:56:29Z</time></trkpt><trkpt lat="45.416367079699256" lon="8.940640529091171"><ele>121.0</ele><time>2026-05-03T07:56:30Z</time></trkpt><trkpt lat="45.41630737479623" lon="8.940436653849467"><ele>121.0</ele><time>2026-05-03T07:56:31Z</time></trkpt><trkpt lat="45.41622475611899" lon="8.940242154555813"><ele>121.33333333333334</ele><time>2026-05-03T07:56:32Z</time></trkpt><trkpt lat="45.41616090333875" lon="8.940033445980692"><ele>121.66666666666666</ele><time>2026-05-03T07:56:33Z</time></trkpt><trkpt lat="45.416091752005144" lon="8.939820772657884"><ele>122.0</ele><time>2026-05-03T07:56:34Z</time></trkpt><trkpt lat="45.4160177753836" lon="8.93960060247515"><ele>122.0</ele><time>2026-05-03T07:56:35Z</time></trkpt><trkpt lat="45.41594141914449" lon="8.939381340480095"><ele>122.0</ele><time>2026-05-03T07:56:36Z</time></trkpt><trkpt lat="45.415881008491546" lon="8.939142084913268"><ele>122.0</ele><time>2026-05-03T07:56:37Z</time></trkpt><trkpt lat="45.415793595029264" lon="8.938928731946485"><ele>122.0</ele><time>2026-05-03T07:56:38Z</time></trkpt><trkpt lat="45.41572358939779" lon="8.938700302622788"><ele>122.0</ele><time>2026-05-03T07:56:39Z</time></trkpt><trkpt lat="45.4156510765828" lon="8.938481552568762"><ele>122.0</ele><time>2026-05-03T07:56:40Z</time></trkpt><trkpt lat="45.41557885657496" lon="8.938260963680968"><ele>122.0</ele><time>2026-05-03T07:56:41Z</time></trkpt><trkpt lat="45.415513080595815" lon="8.938062081967418"><ele>122.0</ele><time>2026-05-03T07:56:42Z</time></trkpt><trkpt lat="45.41545260081441" lon="8.937874981525608"><ele>122.0</ele><time>2026-05-03T07:56:43Z</time></trkpt><trkpt lat="45.41539534776798" lon="8.937692066770463"><ele>122.0</ele><time>2026-05-03T07:56:44Z</time></trkpt><trkpt lat="45.41533850444328" lon="8.937512174489088"><ele>121.5</ele><time>2026-05-03T07:56:45Z</time></trkpt><trkpt lat="45.41528157036669" lon="8.937336844869733"><ele>121.0</ele><time>2026-05-03T07:56:46Z</time></trkpt><trkpt lat="45.415221983669646" lon="8.937167033230146"><ele>120.5</ele><time>2026-05-03T07:56:47Z</time></trkpt><trkpt lat="45.41516775930699" lon="8.937002777759256"><ele>120.0</ele><time>2026-05-03T07:56:48Z</time></trkpt><trkpt lat="45.415120658877996" lon="8.936845512438955"><ele>120.2</ele><time>2026-05-03T07:56:49Z</time></trkpt><trkpt lat="45.4150721888789" lon="8.936703029395145"><ele>120.4</ele><time>2026-05-03T07:56:50Z</time></trkpt><trkpt lat="45.41502794647546" lon="8.936566309932084"><ele>120.6</ele><time>2026-05-03T07:56:51Z</time></trkpt><trkpt lat="45.41498387131808" lon="8.936437260340897"><ele>120.8</ele><time>2026-05-03T07:56:52Z</time></trkpt><trkpt lat="45.41494166922293" lon="8.936309412307015"><ele>121.0</ele><time>2026-05-03T07:56:53Z</time></trkpt><trkpt lat="45.414907316535476" lon="8.936196397729299"><ele>121.00000000000001</ele><time>2026-05-03T07:56:54Z</time></trkpt><trkpt lat="45.41487478316656" lon="8.936079089261785"><ele>121.0</ele><time>2026-05-03T07:56:55Z</time></trkpt><trkpt lat="45.41484731211286" lon="8.935978044979285"><ele>121.0</ele><time>2026-05-03T07:56:56Z</time></trkpt><trkpt lat="45.41482226118812" lon="8.935892590561913"><ele>121.0</ele><time>2026-05-03T07:56:57Z</time></trkpt><trkpt lat="45.41479682643175" lon="8.93581008859526"><ele>121.00000000000001</ele><time>2026-05-03T07:56:59Z</time></trkpt><trkpt lat="45.41476505040885" lon="8.935722144486057"><ele>121.0</ele><time>2026-05-03T07:57:06Z</time></trkpt><trkpt lat="45.414705551780195" lon="8.935544928859285"><ele>121.0</ele><time>2026-05-03T07:57:08Z</time></trkpt><trkpt lat="45.41466900886169" lon="8.935446519684367"><ele>121.0</ele><time>2026-05-03T07:57:09Z</time></trkpt><trkpt lat="45.414625803114916" lon="8.935321051166724"><ele>121.0</ele><time>2026-05-03T07:57:10Z</time></trkpt><trkpt lat="45.41457935506436" lon="8.935191410431823"><ele>121.0</ele><time>2026-05-03T07:57:11Z</time></trkpt><trkpt lat="45.41452558626437" lon="8.93505482501806"><ele>121.0</ele><time>2026-05-03T07:57:12Z</time></trkpt><trkpt lat="45.41446692331838" lon="8.934908894319191"><ele>121.0</ele><time>2026-05-03T07:57:13Z</time></trkpt><trkpt lat="45.4144010715599" lon="8.934748874761846"><ele>121.0</ele><time>2026-05-03T07:57:14Z</time></trkpt><trkpt lat="45.41433373456505" lon="8.9345909578063"><ele>121.0</ele><time>2026-05-03T07:57:15Z</time></trkpt><trkpt lat="45.4142546735615" lon="8.934423899019743"><ele>121.0</ele><time>2026-05-03T07:57:16Z</time></trkpt><trkpt lat="45.4141728601603" lon="8.934252783632258"><ele>121.0</ele><time>2026-05-03T07:57:17Z</time></trkpt><trkpt lat="45.41407908471428" lon="8.934086127860784"><ele>121.0</ele><time>2026-05-03T07:57:18Z</time></trkpt><trkpt lat="45.41398123644381" lon="8.933920556504376"><ele>121.0</ele><time>2026-05-03T07:57:19Z</time></trkpt><trkpt lat="45.41387280069487" lon="8.933746493019722"><ele>120.66666666666667</ele><time>2026-05-03T07:57:20Z</time></trkpt><trkpt lat="45.413764921788314" lon="8.933567915178074"><ele>120.33333333333334</ele><time>2026-05-03T07:57:21Z</time></trkpt><trkpt lat="45.413650984776574" lon="8.933391544708577"><ele>120.0</ele><time>2026-05-03T07:57:22Z</time></trkpt><trkpt lat="45.413538237964055" lon="8.93322917735182"><ele>119.33333333333334</ele><time>2026-05-03T07:57:23Z</time></trkpt><trkpt lat="45.41341135137109" lon="8.93306014724148"><ele>118.66666666666667</ele><time>2026-05-03T07:57:24Z</time></trkpt><trkpt lat="45.41328167270836" lon="8.932900106410559"><ele>118.0</ele><time>2026-05-03T07:57:25Z</time></trkpt><trkpt lat="45.413144248065734" lon="8.9327397567715"><ele>118.0</ele><time>2026-05-03T07:57:26Z</time></trkpt><trkpt lat="45.413004528632676" lon="8.932586584829602"><ele>118.0</ele><time>2026-05-03T07:57:27Z</time></trkpt><trkpt lat="45.412858790418845" lon="8.932434000777707"><ele>118.0</ele><time>2026-05-03T07:57:28Z</time></trkpt><trkpt lat="45.412716089989665" lon="8.93228161069931"><ele>118.0</ele><time>2026-05-03T07:57:29Z</time></trkpt><trkpt lat="45.41256958434326" lon="8.932125274573755"><ele>118.0</ele><time>2026-05-03T07:57:30Z</time></trkpt><trkpt lat="45.41242730565828" lon="8.931968569381672"><ele>118.0</ele><time>2026-05-03T07:57:31Z</time></trkpt><trkpt lat="45.412284568627435" lon="8.931809899231665"><ele>119.0</ele><time>2026-05-03T07:57:32Z</time></trkpt><trkpt lat="45.41213967429027" lon="8.93165403843056"><ele>120.0</ele><time>2026-05-03T07:57:33Z</time></trkpt><trkpt lat="45.41200059541145" lon="8.931506777019427"><ele>121.0</ele><time>2026-05-03T07:57:34Z</time></trkpt><trkpt lat="45.41185634554823" lon="8.931348543088355"><ele>121.0</ele><time>2026-05-03T07:57:35Z</time></trkpt><trkpt lat="45.411716248901634" lon="8.931195359129038"><ele>121.0</ele><time>2026-05-03T07:57:36Z</time></trkpt><trkpt lat="45.41158052742285" lon="8.931049245195258"><ele>121.0</ele><time>2026-05-03T07:57:37Z</time></trkpt><trkpt lat="45.411445472245546" lon="8.930904169369127"><ele>120.33333333333334</ele><time>2026-05-03T07:57:38Z</time></trkpt><trkpt lat="45.41131303192595" lon="8.930757743303962"><ele>119.66666666666666</ele><time>2026-05-03T07:57:39Z</time></trkpt><trkpt lat="45.411180511117436" lon="8.930613804032575"><ele>119.0</ele><time>2026-05-03T07:57:40Z</time></trkpt><trkpt lat="45.41104416694328" lon="8.93046311755463"><ele>119.0</ele><time>2026-05-03T07:57:41Z</time></trkpt><trkpt lat="45.41090697176749" lon="8.930315259692142"><ele>119.0</ele><time>2026-05-03T07:57:42Z</time></trkpt><trkpt lat="45.41076939601347" lon="8.930169036265546"><ele>119.0</ele><time>2026-05-03T07:57:43Z</time></trkpt><trkpt lat="45.41064057263244" lon="8.930022989434377"><ele>119.33333333333333</ele><time>2026-05-03T07:57:44Z</time></trkpt><trkpt lat="45.41049738903961" lon="8.929871366302427"><ele>119.66666666666666</ele><time>2026-05-03T07:57:45Z</time></trkpt><trkpt lat="45.4103578564017" lon="8.929722628506223"><ele>120.0</ele><time>2026-05-03T07:57:46Z</time></trkpt><trkpt lat="45.410225287832326" lon="8.929574197388247"><ele>120.33333333333334</ele><time>2026-05-03T07:57:47Z</time></trkpt><trkpt lat="45.410081729774575" lon="8.929422498462978"><ele>120.66666666666667</ele><time>2026-05-03T07:57:48Z</time></trkpt><trkpt lat="45.40994240008577" lon="8.929271404885206"><ele>121.0</ele><time>2026-05-03T07:57:49Z</time></trkpt><trkpt lat="45.4098082452373" lon="8.929122191184602"><ele>121.0</ele><time>2026-05-03T07:57:50Z</time></trkpt><trkpt lat="45.40966861063468" lon="8.92897455985973"><ele>121.0</ele><time>2026-05-03T07:57:51Z</time></trkpt><trkpt lat="45.40953382570423" lon="8.928826194876384"><ele>121.0</ele><time>2026-05-03T07:57:52Z</time></trkpt><trkpt lat="45.40940013980886" lon="8.928677589703376"><ele>120.33333333333334</ele><time>2026-05-03T07:57:53Z</time></trkpt><trkpt lat="45.409262361023394" lon="8.928527872075051"><ele>119.66666666666666</ele><time>2026-05-03T07:57:54Z</time></trkpt><trkpt lat="45.40913468670921" lon="8.928388633876574"><ele>119.0</ele><time>2026-05-03T07:57:55Z</time></trkpt><trkpt lat="45.409016255599376" lon="8.928262829901325"><ele>119.0</ele><time>2026-05-03T07:57:56Z</time></trkpt><trkpt lat="45.40890211707594" lon="8.928143960298513"><ele>119.0</ele><time>2026-05-03T07:57:57Z</time></trkpt><trkpt lat="45.408796177314166" lon="8.92803375680049"><ele>119.0</ele><time>2026-05-03T07:57:58Z</time></trkpt><trkpt lat="45.408691445342946" lon="8.927920967741274"><ele>119.0</ele><time>2026-05-03T07:57:59Z</time></trkpt><trkpt lat="45.40860020384524" lon="8.927807528077546"><ele>119.0</ele><time>2026-05-03T07:58:00Z</time></trkpt><trkpt lat="45.4085113173143" lon="8.927697357821948"><ele>119.0</ele><time>2026-05-03T07:58:01Z</time></trkpt><trkpt lat="45.40843059583594" lon="8.927566585733189"><ele>119.0</ele><time>2026-05-03T07:58:02Z</time></trkpt><trkpt lat="45.408356759386365" lon="8.92742495750802"><ele>119.0</ele><time>2026-05-03T07:58:03Z</time></trkpt><trkpt lat="45.40831560875152" lon="8.927275075978411"><ele>118.83333333333333</ele><time>2026-05-03T07:58:04Z</time></trkpt><trkpt lat="45.4082840266042" lon="8.927161471923592"><ele>118.66666666666666</ele><time>2026-05-03T07:58:05Z</time></trkpt><trkpt lat="45.40824410001287" lon="8.927075564137812"><ele>118.5</ele><time>2026-05-03T07:58:06Z</time></trkpt><trkpt lat="45.40822092970723" lon="8.926974935400551"><ele>118.33333333333334</ele><time>2026-05-03T07:58:08Z</time></trkpt><trkpt lat="45.4081862180789" lon="8.926864419037203"><ele>118.16666666666667</ele><time>2026-05-03T07:58:14Z</time></trkpt><trkpt lat="45.408130809460324" lon="8.9268017877562"><ele>118.0</ele><time>2026-05-03T07:58:15Z</time></trkpt><trkpt lat="45.4080780823235" lon="8.926741039427874"><ele>118.0</ele><time>2026-05-03T07:58:16Z</time></trkpt><trkpt lat="45.40799911763394" lon="8.926729507618784"><ele>118.00000000000001</ele><time>2026-05-03T07:58:17Z</time></trkpt><trkpt lat="45.407906343825275" lon="8.926731048488316"><ele>118.00000000000001</ele><time>2026-05-03T07:58:18Z</time></trkpt><trkpt lat="45.40781761709933" lon="8.926776711067228"><ele>118.0</ele><time>2026-05-03T07:58:19Z</time></trkpt><trkpt lat="45.40773263474986" lon="8.926859845123927"><ele>118.0</ele><time>2026-05-03T07:58:20Z</time></trkpt><trkpt lat="45.40765008026429" lon="8.92696945075269"><ele>117.75</ele><time>2026-05-03T07:58:21Z</time></trkpt><trkpt lat="45.40756842316525" lon="8.927088557755305"><ele>117.5</ele><time>2026-05-03T07:58:22Z</time></trkpt><trkpt lat="45.40749330207018" lon="8.927229277135906"><ele>117.25</ele><time>2026-05-03T07:58:23Z</time></trkpt><trkpt lat="45.40741963808652" lon="8.927359579927808"><ele>117.0</ele><time>2026-05-03T07:58:24Z</time></trkpt><trkpt lat="45.407338657735856" lon="8.927503053382038"><ele>117.0</ele><time>2026-05-03T07:58:25Z</time></trkpt><trkpt lat="45.40725304058894" lon="8.927649838454396"><ele>117.0</ele><time>2026-05-03T07:58:26Z</time></trkpt><trkpt lat="45.40716907443131" lon="8.92779321948706"><ele>117.0</ele><time>2026-05-03T07:58:27Z</time></trkpt><trkpt lat="45.40708321100446" lon="8.927929950638816"><ele>117.0</ele><time>2026-05-03T07:58:28Z</time></trkpt><trkpt lat="45.40699885005823" lon="8.928058786534194"><ele>117.0</ele><time>2026-05-03T07:58:29Z</time></trkpt><trkpt lat="45.406917120976246" lon="8.928181627117796"><ele>117.0</ele><time>2026-05-03T07:58:30Z</time></trkpt><trkpt lat="45.40683251634232" lon="8.928303391605485"><ele>117.0</ele><time>2026-05-03T07:58:31Z</time></trkpt><trkpt lat="45.406746689134636" lon="8.928423662544546"><ele>117.0</ele><time>2026-05-03T07:58:32Z</time></trkpt><trkpt lat="45.406661079379056" lon="8.92853545708433"><ele>117.25</ele><time>2026-05-03T07:58:33Z</time></trkpt><trkpt lat="45.40657973370285" lon="8.928649657191942"><ele>117.5</ele><time>2026-05-03T07:58:34Z</time></trkpt><trkpt lat="45.406499647574904" lon="8.928762821338818"><ele>117.75</ele><time>2026-05-03T07:58:35Z</time></trkpt><trkpt lat="45.40641852443567" lon="8.928875015645545"><ele>118.0</ele><time>2026-05-03T07:58:36Z</time></trkpt><trkpt lat="45.4063377908877" lon="8.928983597125562"><ele>118.0</ele><time>2026-05-03T07:58:37Z</time></trkpt><trkpt lat="45.40624350095086" lon="8.92908373070087"><ele>118.00000000000001</ele><time>2026-05-03T07:58:38Z</time></trkpt><trkpt lat="45.40615314689289" lon="8.929167734477067"><ele>118.00000000000001</ele><time>2026-05-03T07:58:39Z</time></trkpt><trkpt lat="45.40605227267247" lon="8.929232186366631"><ele>118.0</ele><time>2026-05-03T07:58:40Z</time></trkpt><trkpt lat="45.40594674110617" lon="8.929265152456148"><ele>118.0</ele><time>2026-05-03T07:58:41Z</time></trkpt><trkpt lat="45.40583528112008" lon="8.929258838895658"><ele>118.0</ele><time>2026-05-03T07:58:42Z</time></trkpt><trkpt lat="45.40573282189144" lon="8.929265174830734"><ele>118.0</ele><time>2026-05-03T07:58:42.999Z</time></trkpt><trkpt lat="45.405629510443866" lon="8.929141621895791"><ele>118.0</ele><time>2026-05-03T07:58:44Z</time></trkpt><trkpt lat="45.40555171914287" lon="8.929017620811464"><ele>118.0</ele><time>2026-05-03T07:58:45Z</time></trkpt><trkpt lat="45.405488853335314" lon="8.92886359453355"><ele>117.75</ele><time>2026-05-03T07:58:46Z</time></trkpt><trkpt lat="45.40543303281372" lon="8.92869684814362"><ele>117.5</ele><time>2026-05-03T07:58:47Z</time></trkpt><trkpt lat="45.4053813454866" lon="8.928526271370842"><ele>117.25</ele><time>2026-05-03T07:58:48Z</time></trkpt><trkpt lat="45.40532365218303" lon="8.928348787920449"><ele>117.0</ele><time>2026-05-03T07:58:49Z</time></trkpt><trkpt lat="45.40527310140435" lon="8.928180227910461"><ele>117.0</ele><time>2026-05-03T07:58:50Z</time></trkpt><trkpt lat="45.405210528027794" lon="8.928010509180654"><ele>117.0</ele><time>2026-05-03T07:58:51Z</time></trkpt><trkpt lat="45.405146765105535" lon="8.927828370676853"><ele>117.0</ele><time>2026-05-03T07:58:52Z</time></trkpt><trkpt lat="45.40508380471528" lon="8.927645676668423"><ele>117.0</ele><time>2026-05-03T07:58:53Z</time></trkpt><trkpt lat="45.405021399675" lon="8.927463827946545"><ele>117.0</ele><time>2026-05-03T07:58:54Z</time></trkpt><trkpt lat="45.40495839054993" lon="8.927282695897587"><ele>117.0</ele><time>2026-05-03T07:58:55Z</time></trkpt><trkpt lat="45.40489546505394" lon="8.92709949681615"><ele>117.0</ele><time>2026-05-03T07:58:56Z</time></trkpt><trkpt lat="45.40483210803868" lon="8.926915056437707"><ele>117.0</ele><time>2026-05-03T07:58:57Z</time></trkpt><trkpt lat="45.40478519426914" lon="8.92672483627031"><ele>116.75</ele><time>2026-05-03T07:58:58Z</time></trkpt><trkpt lat="45.40470694682665" lon="8.926551700490698"><ele>116.5</ele><time>2026-05-03T07:58:59Z</time></trkpt><trkpt lat="45.40464409911651" lon="8.926367233691803"><ele>116.25</ele><time>2026-05-03T07:59:00Z</time></trkpt><trkpt lat="45.404582224490554" lon="8.92618497671049"><ele>116.0</ele><time>2026-05-03T07:59:01Z</time></trkpt><trkpt lat="45.404521247947756" lon="8.926009128245349"><ele>116.25</ele><time>2026-05-03T07:59:02Z</time></trkpt><trkpt lat="45.4044592628319" lon="8.925832253048886"><ele>116.5</ele><time>2026-05-03T07:59:03Z</time></trkpt><trkpt lat="45.404401963083544" lon="8.925664627745174"><ele>116.75</ele><time>2026-05-03T07:59:04Z</time></trkpt><trkpt lat="45.40434015827028" lon="8.925480291553601"><ele>117.0</ele><time>2026-05-03T07:59:05Z</time></trkpt><trkpt lat="45.40428013150975" lon="8.925313290062782"><ele>117.0</ele><time>2026-05-03T07:59:06Z</time></trkpt><trkpt lat="45.40422457461844" lon="8.925163544296938"><ele>116.99999999999999</ele><time>2026-05-03T07:59:07Z</time></trkpt><trkpt lat="45.40417883504566" lon="8.925030799377458"><ele>116.99999999999999</ele><time>2026-05-03T07:59:08Z</time></trkpt><trkpt lat="45.404141958744006" lon="8.924906744335367"><ele>117.0</ele><time>2026-05-03T07:59:09Z</time></trkpt><trkpt lat="45.40410430879915" lon="8.924793305137541"><ele>117.0</ele><time>2026-05-03T07:59:10Z</time></trkpt><trkpt lat="45.40406362111587" lon="8.924663947688469"><ele>117.0</ele><time>2026-05-03T07:59:11Z</time></trkpt><trkpt lat="45.404011674909924" lon="8.92452566153671"><ele>117.0</ele><time>2026-05-03T07:59:12Z</time></trkpt><trkpt lat="45.40396129660582" lon="8.924373887470741"><ele>117.0</ele><time>2026-05-03T07:59:13Z</time></trkpt><trkpt lat="45.40390275804039" lon="8.924214525202355"><ele>117.0</ele><time>2026-05-03T07:59:14Z</time></trkpt><trkpt lat="45.40384320722453" lon="8.924053545443154"><ele>117.0</ele><time>2026-05-03T07:59:15Z</time></trkpt><trkpt lat="45.403783929163744" lon="8.923888778958199"><ele>117.0</ele><time>2026-05-03T07:59:16Z</time></trkpt><trkpt lat="45.40372006284942" lon="8.92372122660949"><ele>117.0</ele><time>2026-05-03T07:59:17Z</time></trkpt><trkpt lat="45.40364938970826" lon="8.92354592173143"><ele>117.0</ele><time>2026-05-03T07:59:18Z</time></trkpt><trkpt lat="45.403569603715965" lon="8.92337188144568"><ele>117.0</ele><time>2026-05-03T07:59:19Z</time></trkpt><trkpt lat="45.403488522772285" lon="8.923202890060512"><ele>117.0</ele><time>2026-05-03T07:59:20Z</time></trkpt><trkpt lat="45.40340719974946" lon="8.923060558387213"><ele>117.0</ele><time>2026-05-03T07:59:21Z</time></trkpt><trkpt lat="45.40330399976657" lon="8.92294040492668"><ele>117.0</ele><time>2026-05-03T07:59:22Z</time></trkpt><trkpt lat="45.40319407615634" lon="8.922830618125584"><ele>117.0</ele><time>2026-05-03T07:59:23Z</time></trkpt><trkpt lat="45.4030784936659" lon="8.922731634629859"><ele>117.0</ele><time>2026-05-03T07:59:24Z</time></trkpt><trkpt lat="45.402957259958676" lon="8.922636153011041"><ele>117.0</ele><time>2026-05-03T07:59:25Z</time></trkpt><trkpt lat="45.40283399860318" lon="8.922530620562382"><ele>117.0</ele><time>2026-05-03T07:59:26Z</time></trkpt><trkpt lat="45.40271692370072" lon="8.922430168497735"><ele>117.25</ele><time>2026-05-03T07:59:27Z</time></trkpt><trkpt lat="45.4025990801276" lon="8.922329610990413"><ele>117.5</ele><time>2026-05-03T07:59:28Z</time></trkpt><trkpt lat="45.402486579837614" lon="8.922204297156936"><ele>117.75</ele><time>2026-05-03T07:59:29Z</time></trkpt><trkpt lat="45.402384818551134" lon="8.922115481273385"><ele>118.0</ele><time>2026-05-03T07:59:30Z</time></trkpt><trkpt lat="45.4022485337596" lon="8.921997246142535"><ele>118.0</ele><time>2026-05-03T07:59:31Z</time></trkpt><trkpt lat="45.402122701687276" lon="8.921901061058952"><ele>118.0</ele><time>2026-05-03T07:59:32Z</time></trkpt><trkpt lat="45.40200270000216" lon="8.921800489962774"><ele>118.0</ele><time>2026-05-03T07:59:33Z</time></trkpt><trkpt lat="45.401891705950874" lon="8.92170916079238"><ele>118.0</ele><time>2026-05-03T07:59:34Z</time></trkpt><trkpt lat="45.40179187727066" lon="8.921623729124091"><ele>118.25</ele><time>2026-05-03T07:59:35Z</time></trkpt><trkpt lat="45.40169110672537" lon="8.921531076111528"><ele>118.5</ele><time>2026-05-03T07:59:36Z</time></trkpt><trkpt lat="45.40159208571334" lon="8.921434922672056"><ele>118.75</ele><time>2026-05-03T07:59:37Z</time></trkpt><trkpt lat="45.40148821672449" lon="8.921347788549856"><ele>119.0</ele><time>2026-05-03T07:59:38Z</time></trkpt><trkpt lat="45.40140122444558" lon="8.921236526949174"><ele>119.0</ele><time>2026-05-03T07:59:39Z</time></trkpt><trkpt lat="45.401351443337596" lon="8.921081162428388"><ele>119.0</ele><time>2026-05-03T07:59:40Z</time></trkpt><trkpt lat="45.40130799251437" lon="8.920926086427922"><ele>119.0</ele><time>2026-05-03T07:59:41Z</time></trkpt><trkpt lat="45.401280667269546" lon="8.920754345244623"><ele>119.0</ele><time>2026-05-03T07:59:42Z</time></trkpt><trkpt lat="45.40124270768949" lon="8.920591179527856"><ele>119.2</ele><time>2026-05-03T07:59:43Z</time></trkpt><trkpt lat="45.401238922136606" lon="8.920435887663608"><ele>119.4</ele><time>2026-05-03T07:59:44Z</time></trkpt><trkpt lat="45.401244902084926" lon="8.920272567054708"><ele>119.6</ele><time>2026-05-03T07:59:45Z</time></trkpt><trkpt lat="45.401240540913996" lon="8.920127898170351"><ele>119.8</ele><time>2026-05-03T07:59:46Z</time></trkpt><trkpt lat="45.401240542309345" lon="8.920024163569789"><ele>120.0</ele><time>2026-05-03T07:59:47Z</time></trkpt><trkpt lat="45.4012380023546" lon="8.919874350433274"><ele>120.2</ele><time>2026-05-03T07:59:54Z</time></trkpt><trkpt lat="45.4012394262765" lon="8.919764680744255"><ele>120.4</ele><time>2026-05-03T07:59:56Z</time></trkpt><trkpt lat="45.4012525941966" lon="8.919672192643006"><ele>120.6</ele><time>2026-05-03T07:59:58Z</time></trkpt><trkpt lat="45.401213448408555" lon="8.919528080549396"><ele>120.8</ele><time>2026-05-03T08:00:00Z</time></trkpt><trkpt lat="45.401057235519716" lon="8.919584339488638"><ele>121.0</ele><time>2026-05-03T08:00:02Z</time></trkpt><trkpt lat="45.40096415747145" lon="8.919629981155772"><ele>121.0</ele><time>2026-05-03T08:00:03Z</time></trkpt><trkpt lat="45.40087484107356" lon="8.919648105714785"><ele>121.0</ele><time>2026-05-03T08:00:04Z</time></trkpt><trkpt lat="45.4007768956147" lon="8.919649945332445"><ele>121.0</ele><time>2026-05-03T08:00:05Z</time></trkpt><trkpt lat="45.40066243008416" lon="8.919658960132871"><ele>121.0</ele><time>2026-05-03T08:00:06Z</time></trkpt><trkpt lat="45.40056200422147" lon="8.919656647031637"><ele>121.0</ele><time>2026-05-03T08:00:07Z</time></trkpt><trkpt lat="45.40044479431309" lon="8.919669897364873"><ele>121.25</ele><time>2026-05-03T08:00:08Z</time></trkpt><trkpt lat="45.400321543695874" lon="8.919683957194062"><ele>121.5</ele><time>2026-05-03T08:00:09Z</time></trkpt><trkpt lat="45.40019595892189" lon="8.919690779370054"><ele>121.75</ele><time>2026-05-03T08:00:10Z</time></trkpt><trkpt lat="45.400082343446144" lon="8.919694127679074"><ele>122.0</ele><time>2026-05-03T08:00:11Z</time></trkpt><trkpt lat="45.399966207446624" lon="8.919710516551769"><ele>122.0</ele><time>2026-05-03T08:00:12Z</time></trkpt><trkpt lat="45.399845848172184" lon="8.919709421831367"><ele>122.0</ele><time>2026-05-03T08:00:13Z</time></trkpt><trkpt lat="45.39972628922454" lon="8.91974592282033"><ele>122.0</ele><time>2026-05-03T08:00:14Z</time></trkpt><trkpt lat="45.399607565145615" lon="8.919781952368467"><ele>122.0</ele><time>2026-05-03T08:00:15Z</time></trkpt><trkpt lat="45.39948458858695" lon="8.919829130190271"><ele>121.75</ele><time>2026-05-03T08:00:16Z</time></trkpt><trkpt lat="45.399362263103654" lon="8.91987730363294"><ele>121.5</ele><time>2026-05-03T08:00:17Z</time></trkpt><trkpt lat="45.39923182563046" lon="8.919919307755325"><ele>121.25</ele><time>2026-05-03T08:00:18Z</time></trkpt><trkpt lat="45.39913098492151" lon="8.919950555402012"><ele>121.0</ele><time>2026-05-03T08:00:19Z</time></trkpt><trkpt lat="45.39902353710228" lon="8.919974441384715"><ele>121.0</ele><time>2026-05-03T08:00:20Z</time></trkpt><trkpt lat="45.39891114189655" lon="8.919997155631714"><ele>121.0</ele><time>2026-05-03T08:00:21Z</time></trkpt><trkpt lat="45.3988189492722" lon="8.92000286685381"><ele>121.0</ele><time>2026-05-03T08:00:22Z</time></trkpt><trkpt lat="45.3987327632617" lon="8.919992567690588"><ele>121.0</ele><time>2026-05-03T08:00:23Z</time></trkpt><trkpt lat="45.39864937370526" lon="8.919986690442139"><ele>121.0</ele><time>2026-05-03T08:00:24Z</time></trkpt><trkpt lat="45.39857356616851" lon="8.91997201820462"><ele>121.0</ele><time>2026-05-03T08:00:25Z</time></trkpt><trkpt lat="45.39848944639621" lon="8.919980031851814"><ele>121.0</ele><time>2026-05-03T08:00:26Z</time></trkpt><trkpt lat="45.39840675055149" lon="8.920006820937603"><ele>121.0</ele><time>2026-05-03T08:00:27Z</time></trkpt><trkpt lat="45.398309590235776" lon="8.92003257383992"><ele>121.0</ele><time>2026-05-03T08:00:28Z</time></trkpt><trkpt lat="45.39820932643337" lon="8.920052109647413"><ele>121.0</ele><time>2026-05-03T08:00:29Z</time></trkpt><trkpt lat="45.39808545497929" lon="8.920056484677268"><ele>121.00000000000001</ele><time>2026-05-03T08:00:31Z</time></trkpt><trkpt lat="45.398011232452085" lon="8.92006400807802"><ele>121.0</ele><time>2026-05-03T08:00:35Z</time></trkpt><trkpt lat="45.39791618542037" lon="8.920074169031144"><ele>121.0</ele><time>2026-05-03T08:00:36.999Z</time></trkpt><trkpt lat="45.39779721019849" lon="8.920095448964782"><ele>121.0</ele><time>2026-05-03T08:00:38.999Z</time></trkpt><trkpt lat="45.397719085569356" lon="8.920103109675836"><ele>121.00000000000001</ele><time>2026-05-03T08:00:39.999Z</time></trkpt><trkpt lat="45.39764052638076" lon="8.920112315846806"><ele>121.0</ele><time>2026-05-03T08:00:40.999Z</time></trkpt><trkpt lat="45.39756028693143" lon="8.920118624389717"><ele>120.6</ele><time>2026-05-03T08:00:41.999Z</time></trkpt><trkpt lat="45.397464721549916" lon="8.92013433157634"><ele>120.19999999999999</ele><time>2026-05-03T08:00:42.999Z</time></trkpt><trkpt lat="45.397363231862066" lon="8.920116290716576"><ele>119.80000000000001</ele><time>2026-05-03T08:00:43.999Z</time></trkpt><trkpt lat="45.397255506972385" lon="8.920119018155939"><ele>119.4</ele><time>2026-05-03T08:00:44.999Z</time></trkpt><trkpt lat="45.39715206689014" lon="8.920125483303325"><ele>119.0</ele><time>2026-05-03T08:00:45.999Z</time></trkpt><trkpt lat="45.3970490724908" lon="8.92015818517982"><ele>118.75</ele><time>2026-05-03T08:00:46.999Z</time></trkpt><trkpt lat="45.39694145852783" lon="8.920167825260211"><ele>118.5</ele><time>2026-05-03T08:00:47.999Z</time></trkpt><trkpt lat="45.39682784234934" lon="8.920180699406632"><ele>118.25</ele><time>2026-05-03T08:00:48.999Z</time></trkpt><trkpt lat="45.39671154405362" lon="8.920191601986279"><ele>118.0</ele><time>2026-05-03T08:00:50Z</time></trkpt><trkpt lat="45.39659074636321" lon="8.920199351424476"><ele>118.0</ele><time>2026-05-03T08:00:51Z</time></trkpt><trkpt lat="45.396468846179005" lon="8.920210513342003"><ele>118.00000000000001</ele><time>2026-05-03T08:00:52Z</time></trkpt><trkpt lat="45.39635532811959" lon="8.920215886228291"><ele>118.00000000000001</ele><time>2026-05-03T08:00:53Z</time></trkpt><trkpt lat="45.396255267190355" lon="8.920223295736601"><ele>118.0</ele><time>2026-05-03T08:00:54Z</time></trkpt><trkpt lat="45.39616217005216" lon="8.92021010139082"><ele>118.0</ele><time>2026-05-03T08:00:55Z</time></trkpt><trkpt lat="45.396075280845594" lon="8.920218151733314"><ele>118.0</ele><time>2026-05-03T08:00:56Z</time></trkpt><trkpt lat="45.39599564109483" lon="8.920223633329757"><ele>118.00000000000001</ele><time>2026-05-03T08:00:57Z</time></trkpt><trkpt lat="45.39591112009465" lon="8.920124839263185"><ele>118.00000000000001</ele><time>2026-05-03T08:00:59Z</time></trkpt><trkpt lat="45.39590702762522" lon="8.920025771871467"><ele>118.0</ele><time>2026-05-03T08:01:00Z</time></trkpt><trkpt lat="45.39589950672222" lon="8.91987879126004"><ele>118.0</ele><time>2026-05-03T08:01:01Z</time></trkpt><trkpt lat="45.39590477585127" lon="8.919725897023067"><ele>117.80000000000001</ele><time>2026-05-03T08:01:02Z</time></trkpt><trkpt lat="45.395891989326415" lon="8.91956543189683"><ele>117.60000000000001</ele><time>2026-05-03T08:01:03Z</time></trkpt><trkpt lat="45.3958988480647" lon="8.919442601522045"><ele>117.39999999999999</ele><time>2026-05-03T08:01:04Z</time></trkpt><trkpt lat="45.39588281258432" lon="8.91929313436375"><ele>117.19999999999999</ele><time>2026-05-03T08:01:05Z</time></trkpt><trkpt lat="45.395867707185104" lon="8.919142576237485"><ele>117.0</ele><time>2026-05-03T08:01:06Z</time></trkpt><trkpt lat="45.395850882050254" lon="8.918981490250784"><ele>117.0</ele><time>2026-05-03T08:01:07Z</time></trkpt><trkpt lat="45.39583546307085" lon="8.918817986701935"><ele>117.0</ele><time>2026-05-03T08:01:08Z</time></trkpt><trkpt lat="45.3958145136327" lon="8.918648821867102"><ele>117.0</ele><time>2026-05-03T08:01:09Z</time></trkpt><trkpt lat="45.395805720312914" lon="8.918490039868876"><ele>117.0</ele><time>2026-05-03T08:01:10Z</time></trkpt><trkpt lat="45.39578192371507" lon="8.918315846843026"><ele>117.5</ele><time>2026-05-03T08:01:11Z</time></trkpt><trkpt lat="45.39576010977523" lon="8.918146073118141"><ele>118.0</ele><time>2026-05-03T08:01:12Z</time></trkpt><trkpt lat="45.395736569417245" lon="8.917983984497917"><ele>118.5</ele><time>2026-05-03T08:01:13Z</time></trkpt><trkpt lat="45.39571505045758" lon="8.917823537822901"><ele>119.0</ele><time>2026-05-03T08:01:14Z</time></trkpt><trkpt lat="45.39569533365286" lon="8.917684201883995"><ele>118.99999999999999</ele><time>2026-05-03T08:01:15Z</time></trkpt><trkpt lat="45.39567474219105" lon="8.91755451152301"><ele>119.0</ele><time>2026-05-03T08:01:16Z</time></trkpt><trkpt lat="45.395658009634865" lon="8.91744009933425"><ele>119.0</ele><time>2026-05-03T08:01:17Z</time></trkpt><trkpt lat="45.39563808447637" lon="8.917326295770321"><ele>119.0</ele><time>2026-05-03T08:01:18Z</time></trkpt><trkpt lat="45.395612988670244" lon="8.91721969601125"><ele>118.99999999999999</ele><time>2026-05-03T08:01:19Z</time></trkpt><trkpt lat="45.395602104610795" lon="8.917106330958088"><ele>119.0</ele><time>2026-05-03T08:01:20Z</time></trkpt><trkpt lat="45.39537998120977" lon="8.917017793595742"><ele>118.80000000000001</ele><time>2026-05-03T08:01:22Z</time></trkpt><trkpt lat="45.39526521530913" lon="8.917000852901634"><ele>118.60000000000001</ele><time>2026-05-03T08:01:23Z</time></trkpt><trkpt lat="45.39515556884387" lon="8.91698032180503"><ele>118.4</ele><time>2026-05-03T08:01:24Z</time></trkpt><trkpt lat="45.3950515510268" lon="8.916950895818523"><ele>118.2</ele><time>2026-05-03T08:01:25Z</time></trkpt><trkpt lat="45.394973704571385" lon="8.916920332521261"><ele>118.0</ele><time>2026-05-03T08:01:26Z</time></trkpt><trkpt lat="45.394878942388075" lon="8.91689419068179"><ele>118.0</ele><time>2026-05-03T08:01:28Z</time></trkpt><trkpt lat="45.39477183714392" lon="8.916839948907445"><ele>118.00000000000001</ele><time>2026-05-03T08:01:30Z</time></trkpt><trkpt lat="45.39468814266363" lon="8.916704681760725"><ele>118.00000000000001</ele><time>2026-05-03T08:01:32Z</time></trkpt><trkpt lat="45.3946058219376" lon="8.916570458069458"><ele>118.0</ele><time>2026-05-03T08:01:34Z</time></trkpt><trkpt lat="45.3945585103469" lon="8.916505031630663"><ele>118.0</ele><time>2026-05-03T08:01:35Z</time></trkpt><trkpt lat="45.39452955193426" lon="8.916420086293863"><ele>118.0</ele><time>2026-05-03T08:01:36Z</time></trkpt><trkpt lat="45.394496070069806" lon="8.916334493153887"><ele>118.0</ele><time>2026-05-03T08:01:37Z</time></trkpt><trkpt lat="45.394460939826075" lon="8.916252073532457"><ele>118.0</ele><time>2026-05-03T08:01:38Z</time></trkpt><trkpt lat="45.3944191893707" lon="8.916166090028"><ele>118.0</ele><time>2026-05-03T08:01:39Z</time></trkpt><trkpt lat="45.39437014133427" lon="8.916079061581453"><ele>118.0</ele><time>2026-05-03T08:01:40Z</time></trkpt><trkpt lat="45.39433408907552" lon="8.91598410915463"><ele>118.0</ele><time>2026-05-03T08:01:41Z</time></trkpt><trkpt lat="45.394306684042434" lon="8.915886515751609"><ele>118.0</ele><time>2026-05-03T08:01:42Z</time></trkpt><trkpt lat="45.394266206299335" lon="8.915791131024871"><ele>118.2</ele><time>2026-05-03T08:01:43Z</time></trkpt><trkpt lat="45.394222542630004" lon="8.915695037973876"><ele>118.4</ele><time>2026-05-03T08:01:44Z</time></trkpt><trkpt lat="45.39419583808578" lon="8.915575953397122"><ele>118.60000000000001</ele><time>2026-05-03T08:01:45Z</time></trkpt><trkpt lat="45.39415511983698" lon="8.915461795453547"><ele>118.80000000000001</ele><time>2026-05-03T08:01:46Z</time></trkpt><trkpt lat="45.39409845347688" lon="8.915346492823351"><ele>119.0</ele><time>2026-05-03T08:01:47Z</time></trkpt><trkpt lat="45.3940600766199" lon="8.915221649059161"><ele>118.99999999999999</ele><time>2026-05-03T08:01:48Z</time></trkpt><trkpt lat="45.394024609683925" lon="8.915110499734393"><ele>119.0</ele><time>2026-05-03T08:01:49Z</time></trkpt><trkpt lat="45.39398831731025" lon="8.915002396131202"><ele>119.0</ele><time>2026-05-03T08:01:50Z</time></trkpt><trkpt lat="45.39394472088118" lon="8.914900343063524"><ele>119.0</ele><time>2026-05-03T08:01:51Z</time></trkpt><trkpt lat="45.3939079772404" lon="8.914806840790384"><ele>118.99999999999999</ele><time>2026-05-03T08:01:52Z</time></trkpt><trkpt lat="45.39388647061444" lon="8.914709817629603"><ele>119.0</ele><time>2026-05-03T08:01:53Z</time></trkpt><trkpt lat="45.39385585040083" lon="8.914626666147067"><ele>119.2</ele><time>2026-05-03T08:01:54Z</time></trkpt><trkpt lat="45.39383453816317" lon="8.914494378429287"><ele>119.4</ele><time>2026-05-03T08:01:56Z</time></trkpt><trkpt lat="45.39380461921694" lon="8.914409107965966"><ele>119.6</ele><time>2026-05-03T08:01:58Z</time></trkpt><trkpt lat="45.393682117518" lon="8.914368993527876"><ele>119.8</ele><time>2026-05-03T08:02:00Z</time></trkpt><trkpt lat="45.39360238545515" lon="8.914380298534274"><ele>120.0</ele><time>2026-05-03T08:02:01Z</time></trkpt><trkpt lat="45.39351929169471" lon="8.914377816238906"><ele>120.0</ele><time>2026-05-03T08:02:02Z</time></trkpt><trkpt lat="45.393429982675784" lon="8.914365485485122"><ele>120.0</ele><time>2026-05-03T08:02:03Z</time></trkpt><trkpt lat="45.393346924455344" lon="8.914342689498332"><ele>120.0</ele><time>2026-05-03T08:02:04Z</time></trkpt><trkpt lat="45.393250262916176" lon="8.914324992412245"><ele>120.0</ele><time>2026-05-03T08:02:05Z</time></trkpt><trkpt lat="45.39316210051414" lon="8.914311555999946"><ele>120.0</ele><time>2026-05-03T08:02:06Z</time></trkpt><trkpt lat="45.393035601459545" lon="8.91429259580336"><ele>119.6</ele><time>2026-05-03T08:02:08Z</time></trkpt><trkpt lat="45.39292437718187" lon="8.91428082328841"><ele>119.2</ele><time>2026-05-03T08:02:10Z</time></trkpt><trkpt lat="45.39284041393687" lon="8.914271506903845"><ele>118.80000000000001</ele><time>2026-05-03T08:02:12Z</time></trkpt><trkpt lat="45.39277414004197" lon="8.91425618270863"><ele>118.4</ele><time>2026-05-03T08:02:14Z</time></trkpt><trkpt lat="45.39265465980344" lon="8.914226923825936"><ele>118.0</ele><time>2026-05-03T08:03:08Z</time></trkpt><trkpt lat="45.39258935813495" lon="8.914219489398802"><ele>118.00000000000001</ele><time>2026-05-03T08:03:09Z</time></trkpt><trkpt lat="45.392517292548" lon="8.914214091691052"><ele>118.0</ele><time>2026-05-03T08:03:10Z</time></trkpt><trkpt lat="45.392435136789196" lon="8.9142070267483"><ele>118.0</ele><time>2026-05-03T08:03:11Z</time></trkpt><trkpt lat="45.392344998204315" lon="8.914195223456806"><ele>118.0</ele><time>2026-05-03T08:03:12Z</time></trkpt><trkpt lat="45.39226202257909" lon="8.914183237764615"><ele>118.00000000000001</ele><time>2026-05-03T08:03:13Z</time></trkpt><trkpt lat="45.3921745444645" lon="8.914170601690653"><ele>118.0</ele><time>2026-05-03T08:03:14Z</time></trkpt><trkpt lat="45.392077935230894" lon="8.914156542763319"><ele>118.0</ele><time>2026-05-03T08:03:15Z</time></trkpt><trkpt lat="45.3919778304532" lon="8.914140890024367"><ele>118.00000000000001</ele><time>2026-05-03T08:03:16Z</time></trkpt><trkpt lat="45.39187200171672" lon="8.914124342248085"><ele>118.00000000000001</ele><time>2026-05-03T08:03:17Z</time></trkpt><trkpt lat="45.391773616375175" lon="8.914108156006334"><ele>118.0</ele><time>2026-05-03T08:03:18Z</time></trkpt><trkpt lat="45.391684554769505" lon="8.914092360666265"><ele>118.0</ele><time>2026-05-03T08:03:19Z</time></trkpt><trkpt lat="45.39161366712051" lon="8.91407978853542"><ele>118.0</ele><time>2026-05-03T08:03:20Z</time></trkpt><trkpt lat="45.391545132577335" lon="8.914067633720633"><ele>118.00000000000001</ele><time>2026-05-03T08:03:21Z</time></trkpt><trkpt lat="45.391480397961146" lon="8.91405615285232"><ele>118.00000000000001</ele><time>2026-05-03T08:03:22Z</time></trkpt><trkpt lat="45.39136500320909" lon="8.914034927468242"><ele>118.0</ele><time>2026-05-03T08:03:24Z</time></trkpt><trkpt lat="45.39123589716753" lon="8.914012871967197"><ele>118.0</ele><time>2026-05-03T08:03:26Z</time></trkpt><trkpt lat="45.39115780502165" lon="8.913999837936652"><ele>117.83333333333334</ele><time>2026-05-03T08:03:27Z</time></trkpt><trkpt lat="45.39107852448739" lon="8.913986605322167"><ele>117.66666666666667</ele><time>2026-05-03T08:03:28Z</time></trkpt><trkpt lat="45.39099756234511" lon="8.91397361356252"><ele>117.5</ele><time>2026-05-03T08:03:29Z</time></trkpt><trkpt lat="45.39092334252469" lon="8.913961077176056"><ele>117.33333333333334</ele><time>2026-05-03T08:03:30Z</time></trkpt><trkpt lat="45.39085473372448" lon="8.913949602718649"><ele>117.16666666666667</ele><time>2026-05-03T08:03:31Z</time></trkpt><trkpt lat="45.39078114699706" lon="8.913937295689406"><ele>117.0</ele><time>2026-05-03T08:03:32Z</time></trkpt><trkpt lat="45.390670607464926" lon="8.913918578299702"><ele>117.0</ele><time>2026-05-03T08:03:34Z</time></trkpt><trkpt lat="45.390544214125555" lon="8.913914250551949"><ele>116.99999999999999</ele><time>2026-05-03T08:03:36Z</time></trkpt><trkpt lat="45.39045096935221" lon="8.913897454968136"><ele>116.99999999999999</ele><time>2026-05-03T08:03:37Z</time></trkpt><trkpt lat="45.39034918847518" lon="8.913882638170302"><ele>117.0</ele><time>2026-05-03T08:03:38Z</time></trkpt><trkpt lat="45.39024248457429" lon="8.913857430519831"><ele>117.0</ele><time>2026-05-03T08:03:39Z</time></trkpt><trkpt lat="45.39013301349762" lon="8.913839426238413"><ele>116.75</ele><time>2026-05-03T08:03:40Z</time></trkpt><trkpt lat="45.390022913307064" lon="8.913819890458697"><ele>116.5</ele><time>2026-05-03T08:03:41Z</time></trkpt><trkpt lat="45.389908601981325" lon="8.913800965473271"><ele>116.25</ele><time>2026-05-03T08:03:42Z</time></trkpt><trkpt lat="45.389787024703196" lon="8.91378287639815"><ele>116.0</ele><time>2026-05-03T08:03:43Z</time></trkpt><trkpt lat="45.38966560726596" lon="8.913762374612887"><ele>116.0</ele><time>2026-05-03T08:03:44Z</time></trkpt><trkpt lat="45.38954416064221" lon="8.913740688709881"><ele>116.0</ele><time>2026-05-03T08:03:45Z</time></trkpt><trkpt lat="45.389424424113585" lon="8.913723399218947"><ele>116.0</ele><time>2026-05-03T08:03:46Z</time></trkpt><trkpt lat="45.38931134193581" lon="8.9137010493829"><ele>116.0</ele><time>2026-05-03T08:03:47Z</time></trkpt><trkpt lat="45.38920334908774" lon="8.913687159009564"><ele>116.0</ele><time>2026-05-03T08:03:48Z</time></trkpt><trkpt lat="45.3890913164512" lon="8.913665212278811"><ele>116.0</ele><time>2026-05-03T08:03:49Z</time></trkpt><trkpt lat="45.38896975553982" lon="8.913646395628945"><ele>116.0</ele><time>2026-05-03T08:03:50Z</time></trkpt><trkpt lat="45.38884978053954" lon="8.913623594343703"><ele>116.0</ele><time>2026-05-03T08:03:51Z</time></trkpt><trkpt lat="45.38874290245098" lon="8.91360670068404"><ele>116.16666666666666</ele><time>2026-05-03T08:03:52Z</time></trkpt><trkpt lat="45.388652213599336" lon="8.913591985766978"><ele>116.33333333333333</ele><time>2026-05-03T08:03:53Z</time></trkpt><trkpt lat="45.388556014658775" lon="8.913570205303962"><ele>116.5</ele><time>2026-05-03T08:03:54Z</time></trkpt><trkpt lat="45.38846721998168" lon="8.91355604485169"><ele>116.66666666666666</ele><time>2026-05-03T08:03:55Z</time></trkpt><trkpt lat="45.38838981460472" lon="8.9135424337321"><ele>116.83333333333333</ele><time>2026-05-03T08:03:56Z</time></trkpt><trkpt lat="45.38832200517319" lon="8.913532057717514"><ele>117.0</ele><time>2026-05-03T08:03:57Z</time></trkpt><trkpt lat="45.388256774184086" lon="8.913521711007592"><ele>117.0</ele><time>2026-05-03T08:03:58Z</time></trkpt><trkpt lat="45.38819218881575" lon="8.913514883988093"><ele>116.99999999999999</ele><time>2026-05-03T08:03:59Z</time></trkpt><trkpt lat="45.388077700157325" lon="8.913491915908502"><ele>116.99999999999999</ele><time>2026-05-03T08:04:01Z</time></trkpt><trkpt lat="45.38797526951047" lon="8.913472160447665"><ele>117.0</ele><time>2026-05-03T08:04:03Z</time></trkpt><trkpt lat="45.3878996790997" lon="8.91346264542001"><ele>117.0</ele><time>2026-05-03T08:04:06Z</time></trkpt><trkpt lat="45.38779197398355" lon="8.913447205772268"><ele>116.83333333333333</ele><time>2026-05-03T08:04:26Z</time></trkpt><trkpt lat="45.387727870283385" lon="8.91344137531326"><ele>116.66666666666666</ele><time>2026-05-03T08:04:27Z</time></trkpt><trkpt lat="45.38764771305729" lon="8.91340555900086"><ele>116.5</ele><time>2026-05-03T08:04:28Z</time></trkpt><trkpt lat="45.38756219613253" lon="8.913392139767296"><ele>116.33333333333333</ele><time>2026-05-03T08:04:29Z</time></trkpt><trkpt lat="45.38746903452126" lon="8.91340006813858"><ele>116.16666666666666</ele><time>2026-05-03T08:04:30Z</time></trkpt><trkpt lat="45.38736604885234" lon="8.913383241612529"><ele>116.0</ele><time>2026-05-03T08:04:31Z</time></trkpt><trkpt lat="45.38725138172832" lon="8.913343367041469"><ele>114.5</ele><time>2026-05-03T08:04:32Z</time></trkpt><trkpt lat="45.387143578184734" lon="8.913326246717245"><ele>113.0</ele><time>2026-05-03T08:04:33Z</time></trkpt><trkpt lat="45.38703095365324" lon="8.913308365099414"><ele>111.5</ele><time>2026-05-03T08:04:34Z</time></trkpt><trkpt lat="45.386912265675164" lon="8.913290222854192"><ele>110.0</ele><time>2026-05-03T08:04:35Z</time></trkpt><trkpt lat="45.38678288301907" lon="8.913290343752788"><ele>110.0</ele><time>2026-05-03T08:04:36Z</time></trkpt><trkpt lat="45.38665101719491" lon="8.913268192770719"><ele>110.0</ele><time>2026-05-03T08:04:37Z</time></trkpt><trkpt lat="45.386531993414174" lon="8.9132438161238"><ele>110.0</ele><time>2026-05-03T08:04:38Z</time></trkpt><trkpt lat="45.386411216452856" lon="8.91322498573226"><ele>110.0</ele><time>2026-05-03T08:04:39Z</time></trkpt><trkpt lat="45.386281305542305" lon="8.913206497627549"><ele>109.75</ele><time>2026-05-03T08:04:40Z</time></trkpt><trkpt lat="45.3861549374801" lon="8.913186934282296"><ele>109.5</ele><time>2026-05-03T08:04:41Z</time></trkpt><trkpt lat="45.386028661063335" lon="8.91316860482342"><ele>109.25</ele><time>2026-05-03T08:04:42Z</time></trkpt><trkpt lat="45.38590811684564" lon="8.913146202260116"><ele>109.0</ele><time>2026-05-03T08:04:43Z</time></trkpt><trkpt lat="45.38578971331298" lon="8.913132041472398"><ele>109.0</ele><time>2026-05-03T08:04:44Z</time></trkpt><trkpt lat="45.38567176554195" lon="8.913091430531606"><ele>109.0</ele><time>2026-05-03T08:04:45Z</time></trkpt><trkpt lat="45.385555109690785" lon="8.913093921701417"><ele>109.0</ele><time>2026-05-03T08:04:46Z</time></trkpt><trkpt lat="45.385441673207545" lon="8.913068827997883"><ele>109.0</ele><time>2026-05-03T08:04:47Z</time></trkpt><trkpt lat="45.38532403514336" lon="8.913049877888614"><ele>108.80000000000001</ele><time>2026-05-03T08:04:48Z</time></trkpt><trkpt lat="45.38521017447743" lon="8.913033226826554"><ele>108.60000000000001</ele><time>2026-05-03T08:04:49Z</time></trkpt><trkpt lat="45.385100949582636" lon="8.913010139448202"><ele>108.4</ele><time>2026-05-03T08:04:49.999Z</time></trkpt><trkpt lat="45.38499364664401" lon="8.91299565726555"><ele>108.2</ele><time>2026-05-03T08:04:50.999Z</time></trkpt><trkpt lat="45.384887688284216" lon="8.912978499391945"><ele>108.0</ele><time>2026-05-03T08:04:51.999Z</time></trkpt><trkpt lat="45.38478693370065" lon="8.91295932275947"><ele>108.0</ele><time>2026-05-03T08:04:52.999Z</time></trkpt><trkpt lat="45.38469088213059" lon="8.912947471203472"><ele>108.00000000000001</ele><time>2026-05-03T08:04:53.999Z</time></trkpt><trkpt lat="45.384599786870396" lon="8.912935122010675"><ele>108.00000000000001</ele><time>2026-05-03T08:04:54.999Z</time></trkpt><trkpt lat="45.38450429495404" lon="8.912920145367883"><ele>108.0</ele><time>2026-05-03T08:04:55.999Z</time></trkpt><trkpt lat="45.38440646381863" lon="8.912899133631818"><ele>108.0</ele><time>2026-05-03T08:04:56.999Z</time></trkpt><trkpt lat="45.38430420043277" lon="8.912868989967503"><ele>108.16666666666667</ele><time>2026-05-03T08:04:57.999Z</time></trkpt><trkpt lat="45.38420731683035" lon="8.91285369215059"><ele>108.33333333333334</ele><time>2026-05-03T08:04:58.999Z</time></trkpt><trkpt lat="45.38412133233907" lon="8.912840158655953"><ele>108.5</ele><time>2026-05-03T08:04:59.999Z</time></trkpt><trkpt lat="45.38405408448037" lon="8.912829130879947"><ele>108.66666666666667</ele><time>2026-05-03T08:05:00.999Z</time></trkpt><trkpt lat="45.38397337528012" lon="8.912815895730473"><ele>108.83333333333334</ele><time>2026-05-03T08:05:02Z</time></trkpt><trkpt lat="45.3838810084635" lon="8.912831957720842"><ele>109.0</ele><time>2026-05-03T08:05:03Z</time></trkpt><trkpt lat="45.383779276187624" lon="8.91281375264028"><ele>109.0</ele><time>2026-05-03T08:05:04Z</time></trkpt><trkpt lat="45.38367109875197" lon="8.91279449043178"><ele>109.0</ele><time>2026-05-03T08:05:05Z</time></trkpt><trkpt lat="45.38355524462555" lon="8.912779828906869"><ele>109.0</ele><time>2026-05-03T08:05:06Z</time></trkpt><trkpt lat="45.38344329599144" lon="8.912759890700306"><ele>109.0</ele><time>2026-05-03T08:05:07Z</time></trkpt><trkpt lat="45.38332166642096" lon="8.912742856506954"><ele>109.0</ele><time>2026-05-03T08:05:08Z</time></trkpt><trkpt lat="45.3831990298734" lon="8.912721265491937"><ele>109.0</ele><time>2026-05-03T08:05:09Z</time></trkpt><trkpt lat="45.38308704417043" lon="8.912699031788739"><ele>109.0</ele><time>2026-05-03T08:05:10Z</time></trkpt><trkpt lat="45.38298113897832" lon="8.912683294754837"><ele>109.0</ele><time>2026-05-03T08:05:11Z</time></trkpt><trkpt lat="45.38287914030043" lon="8.912625885583651"><ele>108.25</ele><time>2026-05-03T08:05:12Z</time></trkpt><trkpt lat="45.38276099652241" lon="8.912644299563295"><ele>107.5</ele><time>2026-05-03T08:05:13Z</time></trkpt><trkpt lat="45.38264334994233" lon="8.912623362918039"><ele>106.75</ele><time>2026-05-03T08:05:14Z</time></trkpt><trkpt lat="45.382525827295055" lon="8.912602307422278"><ele>106.0</ele><time>2026-05-03T08:05:15Z</time></trkpt><trkpt lat="45.3824083200135" lon="8.912580745553463"><ele>105.75</ele><time>2026-05-03T08:05:16Z</time></trkpt><trkpt lat="45.38229525160222" lon="8.912528448016294"><ele>105.5</ele><time>2026-05-03T08:05:17Z</time></trkpt><trkpt lat="45.38217262311848" lon="8.912508590803293"><ele>105.25</ele><time>2026-05-03T08:05:18Z</time></trkpt><trkpt lat="45.38205753099714" lon="8.91248994977882"><ele>105.0</ele><time>2026-05-03T08:05:19Z</time></trkpt><trkpt lat="45.38193975811965" lon="8.91247105817449"><ele>105.0</ele><time>2026-05-03T08:05:20Z</time></trkpt><trkpt lat="45.38182778683714" lon="8.912453022658251"><ele>105.0</ele><time>2026-05-03T08:05:21Z</time></trkpt><trkpt lat="45.381711674032054" lon="8.912434320055972"><ele>105.0</ele><time>2026-05-03T08:05:22Z</time></trkpt><trkpt lat="45.38161141083246" lon="8.912418170346681"><ele>105.0</ele><time>2026-05-03T08:05:23Z</time></trkpt><trkpt lat="45.38152613572167" lon="8.912404434482712"><ele>105.0</ele><time>2026-05-03T08:05:24Z</time></trkpt><trkpt lat="45.381455243111844" lon="8.91239339959912"><ele>105.0</ele><time>2026-05-03T08:05:25Z</time></trkpt><trkpt lat="45.38138550431239" lon="8.91238201514438"><ele>105.0</ele><time>2026-05-03T08:05:26Z</time></trkpt><trkpt lat="45.381282748346536" lon="8.912365240866656"><ele>105.0</ele><time>2026-05-03T08:05:27Z</time></trkpt><trkpt lat="45.381185752172115" lon="8.91234940682039"><ele>105.0</ele><time>2026-05-03T08:05:28Z</time></trkpt><trkpt lat="45.38106827055679" lon="8.912330912040346"><ele>105.0</ele><time>2026-05-03T08:05:29Z</time></trkpt><trkpt lat="45.380942398406646" lon="8.912311131531881"><ele>105.5</ele><time>2026-05-03T08:05:30Z</time></trkpt><trkpt lat="45.38080938481551" lon="8.912290228773273"><ele>106.0</ele><time>2026-05-03T08:05:31Z</time></trkpt><trkpt lat="45.3806679213766" lon="8.912287148646989"><ele>106.5</ele><time>2026-05-03T08:05:32Z</time></trkpt><trkpt lat="45.38052410374319" lon="8.912258527915661"><ele>107.0</ele><time>2026-05-03T08:05:33Z</time></trkpt><trkpt lat="45.38037976871859" lon="8.912239929802164"><ele>107.0</ele><time>2026-05-03T08:05:34Z</time></trkpt><trkpt lat="45.38023165414592" lon="8.912216729023031"><ele>107.0</ele><time>2026-05-03T08:05:35Z</time></trkpt><trkpt lat="45.380079044971254" lon="8.912194319464996"><ele>107.0</ele><time>2026-05-03T08:05:36Z</time></trkpt><trkpt lat="45.379928215238756" lon="8.912173759717092"><ele>107.0</ele><time>2026-05-03T08:05:37Z</time></trkpt><trkpt lat="45.37977851889622" lon="8.912151102598116"><ele>107.0</ele><time>2026-05-03T08:05:38Z</time></trkpt><trkpt lat="45.379623880453636" lon="8.912128971162442"><ele>107.0</ele><time>2026-05-03T08:05:39Z</time></trkpt><trkpt lat="45.37947229960869" lon="8.912103000661485"><ele>105.66666666666666</ele><time>2026-05-03T08:05:40Z</time></trkpt><trkpt lat="45.379319568088086" lon="8.912076185293193"><ele>104.33333333333334</ele><time>2026-05-03T08:05:41Z</time></trkpt><trkpt lat="45.37916197748347" lon="8.912050589342384"><ele>103.0</ele><time>2026-05-03T08:05:42Z</time></trkpt><trkpt lat="45.37900785663237" lon="8.912026964341138"><ele>103.0</ele><time>2026-05-03T08:05:43Z</time></trkpt><trkpt lat="45.37885666601848" lon="8.912010143006734"><ele>103.0</ele><time>2026-05-03T08:05:44Z</time></trkpt><trkpt lat="45.378700065048264" lon="8.91199140095765"><ele>103.0</ele><time>2026-05-03T08:05:45Z</time></trkpt><trkpt lat="45.37855036674691" lon="8.911946899258941"><ele>103.0</ele><time>2026-05-03T08:05:46Z</time></trkpt><trkpt lat="45.37839494614048" lon="8.911944859320482"><ele>103.0</ele><time>2026-05-03T08:05:47Z</time></trkpt><trkpt lat="45.37824729060878" lon="8.9119138339947"><ele>103.0</ele><time>2026-05-03T08:05:48Z</time></trkpt><trkpt lat="45.37809366137765" lon="8.91188752008091"><ele>103.33333333333334</ele><time>2026-05-03T08:05:49Z</time></trkpt><trkpt lat="45.37794386017977" lon="8.9118635508499"><ele>103.66666666666666</ele><time>2026-05-03T08:05:50Z</time></trkpt><trkpt lat="45.37779015074817" lon="8.911838830166124"><ele>104.0</ele><time>2026-05-03T08:05:51Z</time></trkpt><trkpt lat="45.37764118432952" lon="8.911809895794306"><ele>104.0</ele><time>2026-05-03T08:05:52Z</time></trkpt><trkpt lat="45.37748495426808" lon="8.911787287419319"><ele>104.0</ele><time>2026-05-03T08:05:53Z</time></trkpt><trkpt lat="45.37733359268068" lon="8.911760120890687"><ele>104.0</ele><time>2026-05-03T08:05:54Z</time></trkpt><trkpt lat="45.37717911934173" lon="8.911728091581015"><ele>103.25</ele><time>2026-05-03T08:05:55Z</time></trkpt><trkpt lat="45.3770259592419" lon="8.911700134560835"><ele>102.5</ele><time>2026-05-03T08:05:56Z</time></trkpt><trkpt lat="45.376877645863814" lon="8.911668471209136"><ele>101.75</ele><time>2026-05-03T08:05:57Z</time></trkpt><trkpt lat="45.37673407913646" lon="8.911644285394269"><ele>101.0</ele><time>2026-05-03T08:05:58Z</time></trkpt><trkpt lat="45.37660338405167" lon="8.911624419179184"><ele>101.0</ele><time>2026-05-03T08:05:59Z</time></trkpt><trkpt lat="45.37647833850146" lon="8.911594610971155"><ele>101.0</ele><time>2026-05-03T08:06:00Z</time></trkpt><trkpt lat="45.37636862765321" lon="8.91156065168143"><ele>101.0</ele><time>2026-05-03T08:06:01Z</time></trkpt><trkpt lat="45.376275493753575" lon="8.911548416981821"><ele>101.0</ele><time>2026-05-03T08:06:02Z</time></trkpt><trkpt lat="45.37620179633855" lon="8.911570956353808"><ele>101.0</ele><time>2026-05-03T08:06:03Z</time></trkpt><trkpt lat="45.37614204490638" lon="8.911614445609377"><ele>101.25</ele><time>2026-05-03T08:06:04Z</time></trkpt><trkpt lat="45.37604681097948" lon="8.911735804052322"><ele>101.5</ele><time>2026-05-03T08:06:06Z</time></trkpt><trkpt lat="45.37597155581973" lon="8.911735803021708"><ele>101.75</ele><time>2026-05-03T08:06:07Z</time></trkpt><trkpt lat="45.37588121957458" lon="8.911738046190399"><ele>102.0</ele><time>2026-05-03T08:06:08Z</time></trkpt><trkpt lat="45.375665978486865" lon="8.911609927630169"><ele>102.0</ele><time>2026-05-03T08:06:10Z</time></trkpt><trkpt lat="45.375557085060414" lon="8.911546613124012"><ele>102.0</ele><time>2026-05-03T08:06:11Z</time></trkpt><trkpt lat="45.37543926784593" lon="8.911493365219217"><ele>102.0</ele><time>2026-05-03T08:06:12Z</time></trkpt><trkpt lat="45.37532351904827" lon="8.911447459581963"><ele>102.0</ele><time>2026-05-03T08:06:13Z</time></trkpt><trkpt lat="45.37519715664837" lon="8.911405727191871"><ele>101.0</ele><time>2026-05-03T08:06:14Z</time></trkpt><trkpt lat="45.375084872899315" lon="8.911381935745839"><ele>100.0</ele><time>2026-05-03T08:06:15Z</time></trkpt><trkpt lat="45.3749784093181" lon="8.911367078268462"><ele>99.0</ele><time>2026-05-03T08:06:16Z</time></trkpt><trkpt lat="45.374863559888546" lon="8.91135448242371"><ele>98.0</ele><time>2026-05-03T08:06:17Z</time></trkpt><trkpt lat="45.37473568574189" lon="8.91133295564577"><ele>97.75</ele><time>2026-05-03T08:06:18Z</time></trkpt><trkpt lat="45.37461107927962" lon="8.911299489620049"><ele>97.5</ele><time>2026-05-03T08:06:19Z</time></trkpt><trkpt lat="45.37446745010195" lon="8.911255809854747"><ele>97.25</ele><time>2026-05-03T08:06:20Z</time></trkpt><trkpt lat="45.37432819858231" lon="8.91122442165416"><ele>97.0</ele><time>2026-05-03T08:06:21Z</time></trkpt><trkpt lat="45.374197555724315" lon="8.911199728602517"><ele>97.0</ele><time>2026-05-03T08:06:22Z</time></trkpt><trkpt lat="45.374072087467304" lon="8.911181504304023"><ele>97.0</ele><time>2026-05-03T08:06:23Z</time></trkpt><trkpt lat="45.37392342127276" lon="8.911162635364054"><ele>97.0</ele><time>2026-05-03T08:06:24Z</time></trkpt><trkpt lat="45.3737735628751" lon="8.911143140117096"><ele>97.0</ele><time>2026-05-03T08:06:25Z</time></trkpt><trkpt lat="45.373622227759654" lon="8.911116146463591"><ele>97.0</ele><time>2026-05-03T08:06:26Z</time></trkpt><trkpt lat="45.37346216172423" lon="8.91109473743821"><ele>97.0</ele><time>2026-05-03T08:06:27Z</time></trkpt><trkpt lat="45.37330170256917" lon="8.911071560917367"><ele>97.0</ele><time>2026-05-03T08:06:28Z</time></trkpt><trkpt lat="45.373135425994654" lon="8.911045742474863"><ele>96.33333333333334</ele><time>2026-05-03T08:06:29Z</time></trkpt><trkpt lat="45.37296647677046" lon="8.911021658894127"><ele>95.66666666666667</ele><time>2026-05-03T08:06:30Z</time></trkpt><trkpt lat="45.372801508701535" lon="8.91099994777232"><ele>95.0</ele><time>2026-05-03T08:06:31Z</time></trkpt><trkpt lat="45.37263673117091" lon="8.910977163515502"><ele>95.0</ele><time>2026-05-03T08:06:32Z</time></trkpt><trkpt lat="45.372479543019956" lon="8.910955232393054"><ele>95.0</ele><time>2026-05-03T08:06:33Z</time></trkpt><trkpt lat="45.37232851090269" lon="8.910933857195744"><ele>95.0</ele><time>2026-05-03T08:06:34Z</time></trkpt><trkpt lat="45.372175292784156" lon="8.910908649244936"><ele>95.66666666666667</ele><time>2026-05-03T08:06:35Z</time></trkpt><trkpt lat="45.37201514449757" lon="8.910887126642185"><ele>96.33333333333334</ele><time>2026-05-03T08:06:36Z</time></trkpt><trkpt lat="45.371861112817534" lon="8.910864708437064"><ele>97.0</ele><time>2026-05-03T08:06:37Z</time></trkpt><trkpt lat="45.37170274155938" lon="8.910844900624003"><ele>97.0</ele><time>2026-05-03T08:06:38Z</time></trkpt><trkpt lat="45.37154750921812" lon="8.910820345308672"><ele>97.0</ele><time>2026-05-03T08:06:39Z</time></trkpt><trkpt lat="45.37138635602004" lon="8.91079783234069"><ele>97.0</ele><time>2026-05-03T08:06:40Z</time></trkpt><trkpt lat="45.371219944204135" lon="8.910774395793034"><ele>96.66666666666667</ele><time>2026-05-03T08:06:41Z</time></trkpt><trkpt lat="45.371053891721864" lon="8.91075012122206"><ele>96.33333333333334</ele><time>2026-05-03T08:06:42Z</time></trkpt><trkpt lat="45.370898442043824" lon="8.910729358003541"><ele>96.0</ele><time>2026-05-03T08:06:43Z</time></trkpt><trkpt lat="45.37073579659621" lon="8.91070808629992"><ele>96.0</ele><time>2026-05-03T08:06:44Z</time></trkpt><trkpt lat="45.37057229748023" lon="8.910681313288755"><ele>96.0</ele><time>2026-05-03T08:06:45Z</time></trkpt><trkpt lat="45.37040122584834" lon="8.910649603237237"><ele>96.0</ele><time>2026-05-03T08:06:46Z</time></trkpt><trkpt lat="45.37024147263766" lon="8.910625547904067"><ele>96.33333333333334</ele><time>2026-05-03T08:06:47Z</time></trkpt><trkpt lat="45.37007423675751" lon="8.910600180531553"><ele>96.66666666666667</ele><time>2026-05-03T08:06:48Z</time></trkpt><trkpt lat="45.3699091647329" lon="8.910567023204198"><ele>97.0</ele><time>2026-05-03T08:06:49Z</time></trkpt><trkpt lat="45.36974225390797" lon="8.910541905720432"><ele>96.5</ele><time>2026-05-03T08:06:50Z</time></trkpt><trkpt lat="45.369571402381126" lon="8.910516619577972"><ele>96.0</ele><time>2026-05-03T08:06:51Z</time></trkpt><trkpt lat="45.36924527377282" lon="8.910471838463483"><ele>96.0</ele><time>2026-05-03T08:06:53Z</time></trkpt><trkpt lat="45.36907920891954" lon="8.91045522526233"><ele>96.0</ele><time>2026-05-03T08:06:54Z</time></trkpt><trkpt lat="45.36891378366493" lon="8.910435436208608"><ele>96.0</ele><time>2026-05-03T08:06:55Z</time></trkpt><trkpt lat="45.36874636353558" lon="8.910422160170757"><ele>96.0</ele><time>2026-05-03T08:06:56Z</time></trkpt><trkpt lat="45.3685813196322" lon="8.910396811612598"><ele>96.0</ele><time>2026-05-03T08:06:57Z</time></trkpt><trkpt lat="45.368413535215296" lon="8.91038357684392"><ele>96.0</ele><time>2026-05-03T08:06:58Z</time></trkpt><trkpt lat="45.368248556636196" lon="8.910361156973218"><ele>96.0</ele><time>2026-05-03T08:06:59Z</time></trkpt><trkpt lat="45.36807213562087" lon="8.91033584845242"><ele>96.0</ele><time>2026-05-03T08:07:00Z</time></trkpt><trkpt lat="45.36789579151207" lon="8.910311045981997"><ele>96.0</ele><time>2026-05-03T08:07:01Z</time></trkpt><trkpt lat="45.367735496146885" lon="8.910292714264171"><ele>96.33333333333334</ele><time>2026-05-03T08:07:02Z</time></trkpt><trkpt lat="45.367564914744385" lon="8.910269637154538"><ele>96.66666666666667</ele><time>2026-05-03T08:07:02.999Z</time></trkpt><trkpt lat="45.36739919789159" lon="8.91023962739223"><ele>97.0</ele><time>2026-05-03T08:07:03.999Z</time></trkpt><trkpt lat="45.36723000204614" lon="8.910206845522707"><ele>96.66666666666667</ele><time>2026-05-03T08:07:04.999Z</time></trkpt><trkpt lat="45.36706311729119" lon="8.910181215381895"><ele>96.33333333333334</ele><time>2026-05-03T08:07:05.999Z</time></trkpt><trkpt lat="45.36689369264978" lon="8.910157936673713"><ele>96.0</ele><time>2026-05-03T08:07:07Z</time></trkpt><trkpt lat="45.366730960222405" lon="8.910131366324418"><ele>95.33333333333333</ele><time>2026-05-03T08:07:08Z</time></trkpt><trkpt lat="45.36656813197367" lon="8.910065067039966"><ele>94.66666666666666</ele><time>2026-05-03T08:07:09Z</time></trkpt><trkpt lat="45.36639943002239" lon="8.910070819665084"><ele>94.0</ele><time>2026-05-03T08:07:10Z</time></trkpt><trkpt lat="45.3662353412477" lon="8.910047106144258"><ele>94.0</ele><time>2026-05-03T08:07:11Z</time></trkpt><trkpt lat="45.366074019455965" lon="8.910019023821574"><ele>94.0</ele><time>2026-05-03T08:07:12Z</time></trkpt><trkpt lat="45.365913278174496" lon="8.909998122043392"><ele>94.0</ele><time>2026-05-03T08:07:13Z</time></trkpt><trkpt lat="45.36574968930017" lon="8.909971260086255"><ele>94.0</ele><time>2026-05-03T08:07:14Z</time></trkpt><trkpt lat="45.36559423761723" lon="8.909946250328982"><ele>94.0</ele><time>2026-05-03T08:07:15Z</time></trkpt><trkpt lat="45.365438984491945" lon="8.909923353653843"><ele>94.0</ele><time>2026-05-03T08:07:16Z</time></trkpt><trkpt lat="45.365275537360134" lon="8.909899262691896"><ele>93.33333333333333</ele><time>2026-05-03T08:07:17Z</time></trkpt><trkpt lat="45.36511737925007" lon="8.909878661987621"><ele>92.66666666666667</ele><time>2026-05-03T08:07:18Z</time></trkpt><trkpt lat="45.364960329673416" lon="8.909850212863423"><ele>92.0</ele><time>2026-05-03T08:07:19Z</time></trkpt><trkpt lat="45.364803443848096" lon="8.909827129961304"><ele>92.0</ele><time>2026-05-03T08:07:20Z</time></trkpt><trkpt lat="45.364647703086135" lon="8.909801544762523"><ele>92.0</ele><time>2026-05-03T08:07:21Z</time></trkpt><trkpt lat="45.364489008386336" lon="8.909769788974332"><ele>92.0</ele><time>2026-05-03T08:07:22Z</time></trkpt><trkpt lat="45.36433342502626" lon="8.909738092443616"><ele>92.0</ele><time>2026-05-03T08:07:23Z</time></trkpt><trkpt lat="45.36417179637741" lon="8.909688953246455"><ele>92.0</ele><time>2026-05-03T08:07:24Z</time></trkpt><trkpt lat="45.36401876896786" lon="8.909675160506316"><ele>92.0</ele><time>2026-05-03T08:07:25Z</time></trkpt><trkpt lat="45.36386679034439" lon="8.909647306340881"><ele>92.0</ele><time>2026-05-03T08:07:26Z</time></trkpt><trkpt lat="45.36370564931934" lon="8.909638164823187"><ele>92.0</ele><time>2026-05-03T08:07:27Z</time></trkpt><trkpt lat="45.3635473054217" lon="8.909620555101833"><ele>92.0</ele><time>2026-05-03T08:07:28Z</time></trkpt><trkpt lat="45.363393346396144" lon="8.909580901094094"><ele>92.0</ele><time>2026-05-03T08:07:29Z</time></trkpt><trkpt lat="45.36323902229529" lon="8.90955640607558"><ele>92.0</ele><time>2026-05-03T08:07:30Z</time></trkpt><trkpt lat="45.36307822847211" lon="8.90953554541596"><ele>92.0</ele><time>2026-05-03T08:07:31Z</time></trkpt><trkpt lat="45.36291803808177" lon="8.909518095171606"><ele>91.33333333333334</ele><time>2026-05-03T08:07:32Z</time></trkpt><trkpt lat="45.362761274940155" lon="8.909500961435164"><ele>90.66666666666667</ele><time>2026-05-03T08:07:33Z</time></trkpt><trkpt lat="45.362600425725844" lon="8.909487560569186"><ele>90.0</ele><time>2026-05-03T08:07:34Z</time></trkpt><trkpt lat="45.36244434621588" lon="8.909465044231444"><ele>90.0</ele><time>2026-05-03T08:07:35Z</time></trkpt><trkpt lat="45.36229032564178" lon="8.90944016755709"><ele>90.0</ele><time>2026-05-03T08:07:36Z</time></trkpt><trkpt lat="45.36213598833737" lon="8.909410888746006"><ele>90.0</ele><time>2026-05-03T08:07:37Z</time></trkpt><trkpt lat="45.36197685170265" lon="8.90938730707405"><ele>90.33333333333333</ele><time>2026-05-03T08:07:38Z</time></trkpt><trkpt lat="45.361816585997985" lon="8.90936672318273"><ele>90.66666666666666</ele><time>2026-05-03T08:07:39Z</time></trkpt><trkpt lat="45.36165748041597" lon="8.909340275552967"><ele>91.0</ele><time>2026-05-03T08:07:40Z</time></trkpt><trkpt lat="45.36150520989989" lon="8.909318912888635"><ele>92.0</ele><time>2026-05-03T08:07:41Z</time></trkpt><trkpt lat="45.36134415064198" lon="8.909287093128757"><ele>93.0</ele><time>2026-05-03T08:07:42Z</time></trkpt><trkpt lat="45.361178409239" lon="8.909266281883587"><ele>94.0</ele><time>2026-05-03T08:07:43Z</time></trkpt><trkpt lat="45.360991250526396" lon="8.909239026650964"><ele>94.0</ele><time>2026-05-03T08:07:44Z</time></trkpt><trkpt lat="45.36084796837177" lon="8.909222977494789"><ele>94.0</ele><time>2026-05-03T08:07:45Z</time></trkpt><trkpt lat="45.36068754200061" lon="8.90919939409069"><ele>94.0</ele><time>2026-05-03T08:07:46Z</time></trkpt><trkpt lat="45.360523719727" lon="8.909172420886557"><ele>93.66666666666666</ele><time>2026-05-03T08:07:47Z</time></trkpt><trkpt lat="45.36036185989829" lon="8.909147363868032"><ele>93.33333333333333</ele><time>2026-05-03T08:07:48Z</time></trkpt><trkpt lat="45.360206997212124" lon="8.909119897229074"><ele>93.0</ele><time>2026-05-03T08:07:49Z</time></trkpt><trkpt lat="45.360065637929935" lon="8.90910099432186"><ele>93.0</ele><time>2026-05-03T08:07:50Z</time></trkpt><trkpt lat="45.35993197312907" lon="8.909079714505197"><ele>93.0</ele><time>2026-05-03T08:07:51Z</time></trkpt><trkpt lat="45.359798785210295" lon="8.90906088060948"><ele>93.0</ele><time>2026-05-03T08:07:52Z</time></trkpt><trkpt lat="45.359663105296605" lon="8.909041173937132"><ele>93.0</ele><time>2026-05-03T08:07:53Z</time></trkpt><trkpt lat="45.35952714969251" lon="8.909019446749769"><ele>92.5</ele><time>2026-05-03T08:07:54Z</time></trkpt><trkpt lat="45.35938943191324" lon="8.908996252456063"><ele>92.0</ele><time>2026-05-03T08:07:55Z</time></trkpt><trkpt lat="45.35924659788026" lon="8.908971034651143"><ele>91.5</ele><time>2026-05-03T08:07:56Z</time></trkpt><trkpt lat="45.35910524886136" lon="8.908951138913746"><ele>91.0</ele><time>2026-05-03T08:07:57Z</time></trkpt><trkpt lat="45.35896206507825" lon="8.908929651872908"><ele>91.25</ele><time>2026-05-03T08:07:58Z</time></trkpt><trkpt lat="45.35884500737625" lon="8.90891339217355"><ele>91.5</ele><time>2026-05-03T08:07:59Z</time></trkpt><trkpt lat="45.358698524741065" lon="8.908890498984494"><ele>91.75</ele><time>2026-05-03T08:08:00Z</time></trkpt><trkpt lat="45.35857960711572" lon="8.908879454630611"><ele>92.0</ele><time>2026-05-03T08:08:01Z</time></trkpt><trkpt lat="45.3584756463597" lon="8.908861023971571"><ele>92.0</ele><time>2026-05-03T08:08:02Z</time></trkpt><trkpt lat="45.35836467828424" lon="8.908857954529362"><ele>92.0</ele><time>2026-05-03T08:08:03Z</time></trkpt><trkpt lat="45.35828982544943" lon="8.90885098346876"><ele>92.0</ele><time>2026-05-03T08:08:04Z</time></trkpt><trkpt lat="45.358215014547724" lon="8.908843078753177"><ele>92.0</ele><time>2026-05-03T08:08:05Z</time></trkpt><trkpt lat="45.35815139084611" lon="8.908836467912566"><ele>92.0</ele><time>2026-05-03T08:08:06Z</time></trkpt><trkpt lat="45.35803470946099" lon="8.908814565561455"><ele>92.0</ele><time>2026-05-03T08:08:08Z</time></trkpt><trkpt lat="45.3579155147342" lon="8.908798118697637"><ele>91.8</ele><time>2026-05-03T08:08:10Z</time></trkpt><trkpt lat="45.357845899261704" lon="8.908789769850161"><ele>91.6</ele><time>2026-05-03T08:08:11Z</time></trkpt><trkpt lat="45.3577617371348" lon="8.908778813503236"><ele>91.39999999999999</ele><time>2026-05-03T08:08:12Z</time></trkpt><trkpt lat="45.35767786115823" lon="8.908726720392952"><ele>91.19999999999999</ele><time>2026-05-03T08:08:13Z</time></trkpt><trkpt lat="45.35758268206958" lon="8.908713292243416"><ele>91.0</ele><time>2026-05-03T08:08:14Z</time></trkpt><trkpt lat="45.357464729768495" lon="8.908696627594509"><ele>91.0</ele><time>2026-05-03T08:08:15Z</time></trkpt><trkpt lat="45.35732733854941" lon="8.908674200250317"><ele>91.0</ele><time>2026-05-03T08:08:16Z</time></trkpt><trkpt lat="45.35719965541216" lon="8.908649386499716"><ele>91.0</ele><time>2026-05-03T08:08:17Z</time></trkpt><trkpt lat="45.35706801382704" lon="8.908623634145581"><ele>91.0</ele><time>2026-05-03T08:08:18Z</time></trkpt><trkpt lat="45.35694057270638" lon="8.908598599279104"><ele>89.66666666666666</ele><time>2026-05-03T08:08:19Z</time></trkpt><trkpt lat="45.35679764296615" lon="8.908572791029853"><ele>88.33333333333333</ele><time>2026-05-03T08:08:20Z</time></trkpt><trkpt lat="45.35663717811305" lon="8.908547848548412"><ele>87.0</ele><time>2026-05-03T08:08:21Z</time></trkpt><trkpt lat="45.356466304669105" lon="8.908523702982981"><ele>87.0</ele><time>2026-05-03T08:08:22Z</time></trkpt><trkpt lat="45.35629261645296" lon="8.90849950812605"><ele>87.0</ele><time>2026-05-03T08:08:23Z</time></trkpt><trkpt lat="45.356105356783054" lon="8.90847397177743"><ele>87.0</ele><time>2026-05-03T08:08:24Z</time></trkpt><trkpt lat="45.35595428808814" lon="8.908473628831842"><ele>87.0</ele><time>2026-05-03T08:08:25Z</time></trkpt><trkpt lat="45.35579320996376" lon="8.90844775341036"><ele>87.0</ele><time>2026-05-03T08:08:26Z</time></trkpt><trkpt lat="45.35564228334362" lon="8.908421396968626"><ele>87.0</ele><time>2026-05-03T08:08:27Z</time></trkpt><trkpt lat="45.355470504484245" lon="8.908394537885243"><ele>87.0</ele><time>2026-05-03T08:08:28Z</time></trkpt><trkpt lat="45.35530668999026" lon="8.908375113544722"><ele>87.0</ele><time>2026-05-03T08:08:29Z</time></trkpt><trkpt lat="45.35514374363275" lon="8.908358555641136"><ele>87.0</ele><time>2026-05-03T08:08:30Z</time></trkpt><trkpt lat="45.3549837861198" lon="8.908335063632014"><ele>87.0</ele><time>2026-05-03T08:08:31Z</time></trkpt><trkpt lat="45.3548405081275" lon="8.908309048255779"><ele>87.0</ele><time>2026-05-03T08:08:32Z</time></trkpt><trkpt lat="45.3546961012555" lon="8.908284161680662"><ele>87.0</ele><time>2026-05-03T08:08:33Z</time></trkpt><trkpt lat="45.35454776373266" lon="8.908262038829914"><ele>87.0</ele><time>2026-05-03T08:08:34Z</time></trkpt><trkpt lat="45.354396367838696" lon="8.908243368146177"><ele>87.0</ele><time>2026-05-03T08:08:35Z</time></trkpt><trkpt lat="45.354243367348715" lon="8.9082260627996"><ele>87.0</ele><time>2026-05-03T08:08:36Z</time></trkpt><trkpt lat="45.35408905011653" lon="8.908194708519193"><ele>87.0</ele><time>2026-05-03T08:08:37Z</time></trkpt><trkpt lat="45.3539292061989" lon="8.908163530581069"><ele>87.33333333333333</ele><time>2026-05-03T08:08:38Z</time></trkpt><trkpt lat="45.35377475355998" lon="8.90812660055171"><ele>87.66666666666666</ele><time>2026-05-03T08:08:39Z</time></trkpt><trkpt lat="45.35362369529723" lon="8.908077218971803"><ele>88.0</ele><time>2026-05-03T08:08:40Z</time></trkpt><trkpt lat="45.35347044355907" lon="8.908022813226793"><ele>88.0</ele><time>2026-05-03T08:08:41Z</time></trkpt><trkpt lat="45.35331616036484" lon="8.907945205212592"><ele>88.0</ele><time>2026-05-03T08:08:42Z</time></trkpt><trkpt lat="45.353164661065776" lon="8.907854571843615"><ele>88.0</ele><time>2026-05-03T08:08:43Z</time></trkpt><trkpt lat="45.35302559198164" lon="8.907748292528508"><ele>87.66666666666666</ele><time>2026-05-03T08:08:44Z</time></trkpt><trkpt lat="45.35288154941822" lon="8.907635363905172"><ele>87.33333333333333</ele><time>2026-05-03T08:08:45Z</time></trkpt><trkpt lat="45.3527453611068" lon="8.907508908626017"><ele>87.0</ele><time>2026-05-03T08:08:46Z</time></trkpt><trkpt lat="45.35261633964035" lon="8.907377449807004"><ele>87.0</ele><time>2026-05-03T08:08:47Z</time></trkpt><trkpt lat="45.352491766955865" lon="8.90723384346591"><ele>87.0</ele><time>2026-05-03T08:08:48Z</time></trkpt><trkpt lat="45.352376570227975" lon="8.907079059241264"><ele>87.0</ele><time>2026-05-03T08:08:49Z</time></trkpt><trkpt lat="45.352272595548364" lon="8.906914238010724"><ele>86.66666666666667</ele><time>2026-05-03T08:08:50Z</time></trkpt><trkpt lat="45.35217072250785" lon="8.9067458982838"><ele>86.33333333333334</ele><time>2026-05-03T08:08:50.999Z</time></trkpt><trkpt lat="45.35207469238123" lon="8.906568839622942"><ele>86.0</ele><time>2026-05-03T08:08:51.999Z</time></trkpt><trkpt lat="45.3519890595107" lon="8.906389349529155"><ele>86.0</ele><time>2026-05-03T08:08:52.999Z</time></trkpt><trkpt lat="45.35192500356476" lon="8.906187225187493"><ele>86.0</ele><time>2026-05-03T08:08:53.999Z</time></trkpt><trkpt lat="45.35186000022929" lon="8.90598541050546"><ele>86.0</ele><time>2026-05-03T08:08:54.999Z</time></trkpt><trkpt lat="45.35179802785464" lon="8.905785402940358"><ele>86.0</ele><time>2026-05-03T08:08:55.999Z</time></trkpt><trkpt lat="45.351739715598264" lon="8.905581977736617"><ele>86.0</ele><time>2026-05-03T08:08:56.999Z</time></trkpt><trkpt lat="45.35167735737788" lon="8.905383598807726"><ele>86.0</ele><time>2026-05-03T08:08:57.999Z</time></trkpt><trkpt lat="45.35162053208234" lon="8.905175038345387"><ele>86.0</ele><time>2026-05-03T08:08:58.999Z</time></trkpt><trkpt lat="45.35156704027661" lon="8.904968201298507"><ele>86.0</ele><time>2026-05-03T08:08:59.999Z</time></trkpt><trkpt lat="45.35151303353506" lon="8.904768213896556"><ele>86.0</ele><time>2026-05-03T08:09:00.999Z</time></trkpt><trkpt lat="45.351454313208954" lon="8.90455644468773"><ele>86.0</ele><time>2026-05-03T08:09:01.999Z</time></trkpt><trkpt lat="45.35139995907081" lon="8.90435190673641"><ele>86.0</ele><time>2026-05-03T08:09:02.999Z</time></trkpt><trkpt lat="45.351345014268865" lon="8.904146372903897"><ele>86.0</ele><time>2026-05-03T08:09:03.999Z</time></trkpt><trkpt lat="45.351290260057105" lon="8.903938787954711"><ele>86.0</ele><time>2026-05-03T08:09:04.999Z</time></trkpt><trkpt lat="45.35123369385147" lon="8.90372734755237"><ele>86.0</ele><time>2026-05-03T08:09:05.999Z</time></trkpt><trkpt lat="45.351177833361206" lon="8.903514938993965"><ele>86.0</ele><time>2026-05-03T08:09:06.999Z</time></trkpt><trkpt lat="45.351121366753304" lon="8.90330588240675"><ele>86.0</ele><time>2026-05-03T08:09:07.999Z</time></trkpt><trkpt lat="45.35106304102705" lon="8.903094766202846"><ele>86.0</ele><time>2026-05-03T08:09:08.999Z</time></trkpt><trkpt lat="45.35100243231362" lon="8.902879416100586"><ele>86.0</ele><time>2026-05-03T08:09:09.999Z</time></trkpt><trkpt lat="45.35094085399054" lon="8.902661192616335"><ele>85.66666666666667</ele><time>2026-05-03T08:09:10.999Z</time></trkpt><trkpt lat="45.35088200064505" lon="8.902439454025076"><ele>85.33333333333333</ele><time>2026-05-03T08:09:11.999Z</time></trkpt><trkpt lat="45.350819110763595" lon="8.902215689498995"><ele>85.0</ele><time>2026-05-03T08:09:13Z</time></trkpt><trkpt lat="45.35075526742388" lon="8.901990717994895"><ele>85.0</ele><time>2026-05-03T08:09:14Z</time></trkpt><trkpt lat="45.35070851446976" lon="8.901751495198088"><ele>85.0</ele><time>2026-05-03T08:09:15Z</time></trkpt><trkpt lat="45.35064623661334" lon="8.901517853505487"><ele>85.0</ele><time>2026-05-03T08:09:16Z</time></trkpt><trkpt lat="45.35058458608155" lon="8.901286564903048"><ele>85.0</ele><time>2026-05-03T08:09:17Z</time></trkpt><trkpt lat="45.35052233821869" lon="8.90105673627973"><ele>85.0</ele><time>2026-05-03T08:09:18Z</time></trkpt><trkpt lat="45.35044717931407" lon="8.900830669995141"><ele>85.0</ele><time>2026-05-03T08:09:19Z</time></trkpt><trkpt lat="45.35038824032383" lon="8.900592500934392"><ele>84.66666666666666</ele><time>2026-05-03T08:09:20Z</time></trkpt><trkpt lat="45.35032724281189" lon="8.900357536188583"><ele>84.33333333333333</ele><time>2026-05-03T08:09:21Z</time></trkpt><trkpt lat="45.35025912332691" lon="8.900123711659479"><ele>84.0</ele><time>2026-05-03T08:09:22Z</time></trkpt><trkpt lat="45.35019848405121" lon="8.899891446945269"><ele>84.0</ele><time>2026-05-03T08:09:23Z</time></trkpt><trkpt lat="45.35013852137136" lon="8.899668434007706"><ele>84.0</ele><time>2026-05-03T08:09:24Z</time></trkpt><trkpt lat="45.35007599692879" lon="8.899423250431326"><ele>84.0</ele><time>2026-05-03T08:09:25Z</time></trkpt><trkpt lat="45.350012320577925" lon="8.899186289315884"><ele>84.33333333333333</ele><time>2026-05-03T08:09:26Z</time></trkpt><trkpt lat="45.34995143753187" lon="8.898956196841912"><ele>84.66666666666666</ele><time>2026-05-03T08:09:27Z</time></trkpt><trkpt lat="45.349888929423805" lon="8.898720199249507"><ele>85.0</ele><time>2026-05-03T08:09:28Z</time></trkpt><trkpt lat="45.34982482862066" lon="8.898483114292821"><ele>84.33333333333333</ele><time>2026-05-03T08:09:29Z</time></trkpt><trkpt lat="45.34975913138845" lon="8.898250068371624"><ele>83.66666666666667</ele><time>2026-05-03T08:09:30Z</time></trkpt><trkpt lat="45.34969522075145" lon="8.898011261480887"><ele>83.0</ele><time>2026-05-03T08:09:31Z</time></trkpt><trkpt lat="45.34963634509038" lon="8.897776974244783"><ele>84.0</ele><time>2026-05-03T08:09:32Z</time></trkpt><trkpt lat="45.3495720035314" lon="8.897540049446961"><ele>85.0</ele><time>2026-05-03T08:09:33Z</time></trkpt><trkpt lat="45.349509945130265" lon="8.897304273621172"><ele>86.0</ele><time>2026-05-03T08:09:34Z</time></trkpt><trkpt lat="45.34945154620921" lon="8.897070957233389"><ele>86.0</ele><time>2026-05-03T08:09:35Z</time></trkpt><trkpt lat="45.349382833646985" lon="8.89683498648286"><ele>86.0</ele><time>2026-05-03T08:09:36Z</time></trkpt><trkpt lat="45.349321061276605" lon="8.896598800301621"><ele>86.0</ele><time>2026-05-03T08:09:37Z</time></trkpt><trkpt lat="45.34925964875282" lon="8.896359944256995"><ele>86.0</ele><time>2026-05-03T08:09:38Z</time></trkpt><trkpt lat="45.34919369477082" lon="8.896125313071003"><ele>86.0</ele><time>2026-05-03T08:09:39Z</time></trkpt><trkpt lat="45.34913235973423" lon="8.895887978319433"><ele>86.0</ele><time>2026-05-03T08:09:40Z</time></trkpt><trkpt lat="45.34907539913264" lon="8.895655295598116"><ele>86.33333333333334</ele><time>2026-05-03T08:09:41Z</time></trkpt><trkpt lat="45.34901117609508" lon="8.895415353470922"><ele>86.66666666666667</ele><time>2026-05-03T08:09:42Z</time></trkpt><trkpt lat="45.34895493921639" lon="8.895181806510971"><ele>87.0</ele><time>2026-05-03T08:09:43Z</time></trkpt><trkpt lat="45.34889078094048" lon="8.894945785966977"><ele>86.33333333333333</ele><time>2026-05-03T08:09:44Z</time></trkpt><trkpt lat="45.34882615568283" lon="8.89471215311699"><ele>85.66666666666666</ele><time>2026-05-03T08:09:45Z</time></trkpt><trkpt lat="45.34876229590748" lon="8.894478821613259"><ele>85.0</ele><time>2026-05-03T08:09:46Z</time></trkpt><trkpt lat="45.34870102110935" lon="8.894247273800685"><ele>85.0</ele><time>2026-05-03T08:09:47Z</time></trkpt><trkpt lat="45.34864390916397" lon="8.894019708683947"><ele>85.0</ele><time>2026-05-03T08:09:48Z</time></trkpt><trkpt lat="45.34857800294471" lon="8.893784892451439"><ele>85.0</ele><time>2026-05-03T08:09:49Z</time></trkpt><trkpt lat="45.348513937441844" lon="8.893553153881939"><ele>85.66666666666666</ele><time>2026-05-03T08:09:50Z</time></trkpt><trkpt lat="45.34845261189174" lon="8.893325085614025"><ele>86.33333333333333</ele><time>2026-05-03T08:09:51Z</time></trkpt><trkpt lat="45.34839220241006" lon="8.893099382524806"><ele>87.0</ele><time>2026-05-03T08:09:52Z</time></trkpt><trkpt lat="45.348335129072616" lon="8.89287692954644"><ele>87.0</ele><time>2026-05-03T08:09:53Z</time></trkpt><trkpt lat="45.34827856489751" lon="8.892652950849186"><ele>87.0</ele><time>2026-05-03T08:09:54Z</time></trkpt><trkpt lat="45.34821503887485" lon="8.892440650623705"><ele>87.0</ele><time>2026-05-03T08:09:55Z</time></trkpt><trkpt lat="45.34814471569221" lon="8.892240542013196"><ele>87.0</ele><time>2026-05-03T08:09:56Z</time></trkpt><trkpt lat="45.348056691054566" lon="8.892049279492644"><ele>87.0</ele><time>2026-05-03T08:09:57Z</time></trkpt><trkpt lat="45.347960699769416" lon="8.8918763185193"><ele>87.0</ele><time>2026-05-03T08:09:58Z</time></trkpt><trkpt lat="45.34785487942057" lon="8.891724880981458"><ele>87.0</ele><time>2026-05-03T08:09:59Z</time></trkpt><trkpt lat="45.34772790355247" lon="8.891576209063475"><ele>87.0</ele><time>2026-05-03T08:10:00Z</time></trkpt><trkpt lat="45.347599070493395" lon="8.891428786041619"><ele>87.0</ele><time>2026-05-03T08:10:01Z</time></trkpt><trkpt lat="45.3474790860959" lon="8.891283319668025"><ele>87.0</ele><time>2026-05-03T08:10:02Z</time></trkpt><trkpt lat="45.347358948934314" lon="8.89112902132907"><ele>87.0</ele><time>2026-05-03T08:10:03Z</time></trkpt><trkpt lat="45.34723697187587" lon="8.890972683869878"><ele>87.0</ele><time>2026-05-03T08:10:04Z</time></trkpt><trkpt lat="45.34710920966014" lon="8.89081870037274"><ele>88.0</ele><time>2026-05-03T08:10:05Z</time></trkpt><trkpt lat="45.3469816287265" lon="8.890659792731341"><ele>89.0</ele><time>2026-05-03T08:10:06Z</time></trkpt><trkpt lat="45.346857030809765" lon="8.890498375502089"><ele>90.0</ele><time>2026-05-03T08:10:07Z</time></trkpt><trkpt lat="45.346735060635936" lon="8.890341255762081"><ele>90.0</ele><time>2026-05-03T08:10:08Z</time></trkpt><trkpt lat="45.346608233813605" lon="8.8901886234913"><ele>90.0</ele><time>2026-05-03T08:10:09Z</time></trkpt><trkpt lat="45.34648089081485" lon="8.890033064363177"><ele>90.0</ele><time>2026-05-03T08:10:10Z</time></trkpt><trkpt lat="45.346356737790025" lon="8.889871586549788"><ele>89.66666666666667</ele><time>2026-05-03T08:10:11Z</time></trkpt><trkpt lat="45.34623769133693" lon="8.889710518779976"><ele>89.33333333333334</ele><time>2026-05-03T08:10:12Z</time></trkpt><trkpt lat="45.346096703267456" lon="8.88952378046911"><ele>89.0</ele><time>2026-05-03T08:10:13Z</time></trkpt><trkpt lat="45.345981057549864" lon="8.88938783451588"><ele>89.33333333333334</ele><time>2026-05-03T08:10:14Z</time></trkpt><trkpt lat="45.34586252547026" lon="8.889223620634805"><ele>89.66666666666667</ele><time>2026-05-03T08:10:15Z</time></trkpt><trkpt lat="45.345743315067246" lon="8.889061701414178"><ele>90.0</ele><time>2026-05-03T08:10:16Z</time></trkpt><trkpt lat="45.34562010047468" lon="8.88890884181897"><ele>90.0</ele><time>2026-05-03T08:10:17Z</time></trkpt><trkpt lat="45.34549768745671" lon="8.888754161807592"><ele>90.0</ele><time>2026-05-03T08:10:18Z</time></trkpt><trkpt lat="45.34537269705254" lon="8.888591836161558"><ele>90.0</ele><time>2026-05-03T08:10:19Z</time></trkpt><trkpt lat="45.345251546187995" lon="8.888435767559432"><ele>89.66666666666667</ele><time>2026-05-03T08:10:20Z</time></trkpt><trkpt lat="45.345137771275574" lon="8.888259778229932"><ele>89.33333333333334</ele><time>2026-05-03T08:10:21Z</time></trkpt><trkpt lat="45.34501972706938" lon="8.888107184405834"><ele>89.0</ele><time>2026-05-03T08:10:22Z</time></trkpt><trkpt lat="45.34488727558174" lon="8.887963695984443"><ele>89.0</ele><time>2026-05-03T08:10:23Z</time></trkpt><trkpt lat="45.344761221896874" lon="8.88780397030801"><ele>89.0</ele><time>2026-05-03T08:10:24Z</time></trkpt><trkpt lat="45.3446393075191" lon="8.887645167679624"><ele>89.0</ele><time>2026-05-03T08:10:25Z</time></trkpt><trkpt lat="45.344519403447805" lon="8.887488092234568"><ele>89.33333333333334</ele><time>2026-05-03T08:10:26Z</time></trkpt><trkpt lat="45.34439562769636" lon="8.88732850076627"><ele>89.66666666666667</ele><time>2026-05-03T08:10:27Z</time></trkpt><trkpt lat="45.34427290406501" lon="8.887167098990455"><ele>90.0</ele><time>2026-05-03T08:10:28Z</time></trkpt><trkpt lat="45.34415380183944" lon="8.88699874748044"><ele>90.0</ele><time>2026-05-03T08:10:29Z</time></trkpt><trkpt lat="45.34404940228148" lon="8.886818649095531"><ele>90.0</ele><time>2026-05-03T08:10:30Z</time></trkpt><trkpt lat="45.34396169976544" lon="8.886633227542"><ele>90.0</ele><time>2026-05-03T08:10:31Z</time></trkpt><trkpt lat="45.34388716953063" lon="8.886422389163837"><ele>88.66666666666667</ele><time>2026-05-03T08:10:32Z</time></trkpt><trkpt lat="45.34382856578807" lon="8.886215892289776"><ele>87.33333333333334</ele><time>2026-05-03T08:10:33Z</time></trkpt><trkpt lat="45.34377845951525" lon="8.88599130630828"><ele>86.0</ele><time>2026-05-03T08:10:34Z</time></trkpt><trkpt lat="45.343741315271224" lon="8.885771297356605"><ele>85.66666666666667</ele><time>2026-05-03T08:10:35Z</time></trkpt><trkpt lat="45.343704051736495" lon="8.885544513558065"><ele>85.33333333333333</ele><time>2026-05-03T08:10:36Z</time></trkpt><trkpt lat="45.34367299755956" lon="8.885321339845524"><ele>85.0</ele><time>2026-05-03T08:10:37Z</time></trkpt><trkpt lat="45.343647484337" lon="8.885097955326216"><ele>85.0</ele><time>2026-05-03T08:10:38Z</time></trkpt><trkpt lat="45.34362298417599" lon="8.884870826737393"><ele>85.0</ele><time>2026-05-03T08:10:39Z</time></trkpt><trkpt lat="45.343598252872425" lon="8.884641148419375"><ele>85.0</ele><time>2026-05-03T08:10:40Z</time></trkpt><trkpt lat="45.34357472429381" lon="8.884419604150406"><ele>85.33333333333333</ele><time>2026-05-03T08:10:41Z</time></trkpt><trkpt lat="45.343546330547056" lon="8.884189767696782"><ele>85.66666666666667</ele><time>2026-05-03T08:10:42Z</time></trkpt><trkpt lat="45.34352075354768" lon="8.883961980329884"><ele>86.0</ele><time>2026-05-03T08:10:43Z</time></trkpt><trkpt lat="45.343495927656164" lon="8.88373570822015"><ele>86.0</ele><time>2026-05-03T08:10:44Z</time></trkpt><trkpt lat="45.3434696021124" lon="8.883506461186125"><ele>86.0</ele><time>2026-05-03T08:10:45Z</time></trkpt><trkpt lat="45.343448298323125" lon="8.883282635033133"><ele>86.0</ele><time>2026-05-03T08:10:46Z</time></trkpt><trkpt lat="45.343422310839536" lon="8.88306237348606"><ele>86.0</ele><time>2026-05-03T08:10:47Z</time></trkpt><trkpt lat="45.34339633849303" lon="8.882832557578768"><ele>86.0</ele><time>2026-05-03T08:10:48Z</time></trkpt><trkpt lat="45.343372466318826" lon="8.882610007555805"><ele>86.0</ele><time>2026-05-03T08:10:48.999Z</time></trkpt><trkpt lat="45.34334410425657" lon="8.882379539051236"><ele>85.66666666666667</ele><time>2026-05-03T08:10:49.999Z</time></trkpt><trkpt lat="45.34330880250776" lon="8.882160751774512"><ele>85.33333333333333</ele><time>2026-05-03T08:10:50.999Z</time></trkpt><trkpt lat="45.34326256536449" lon="8.88194557673953"><ele>85.0</ele><time>2026-05-03T08:10:51.999Z</time></trkpt><trkpt lat="45.34320728057017" lon="8.8817347591039"><ele>85.33333333333333</ele><time>2026-05-03T08:10:52.999Z</time></trkpt><trkpt lat="45.34313757571855" lon="8.88152108602336"><ele>85.66666666666667</ele><time>2026-05-03T08:10:53.999Z</time></trkpt><trkpt lat="45.34305571131566" lon="8.881335947383159"><ele>86.0</ele><time>2026-05-03T08:10:54.999Z</time></trkpt><trkpt lat="45.34296107790088" lon="8.881160027975433"><ele>86.0</ele><time>2026-05-03T08:10:55.999Z</time></trkpt><trkpt lat="45.342856167380475" lon="8.880996500050406"><ele>86.0</ele><time>2026-05-03T08:10:56.999Z</time></trkpt><trkpt lat="45.342741723804494" lon="8.880853028828717"><ele>86.0</ele><time>2026-05-03T08:10:57.999Z</time></trkpt><trkpt lat="45.34262026947495" lon="8.88072006485652"><ele>85.66666666666667</ele><time>2026-05-03T08:10:58.999Z</time></trkpt><trkpt lat="45.34248592072411" lon="8.880601610091961"><ele>85.33333333333333</ele><time>2026-05-03T08:10:59.999Z</time></trkpt><trkpt lat="45.34235602866525" lon="8.8804840150135"><ele>85.0</ele><time>2026-05-03T08:11:00.999Z</time></trkpt><trkpt lat="45.34223865547855" lon="8.880350658974145"><ele>83.66666666666666</ele><time>2026-05-03T08:11:01.999Z</time></trkpt><trkpt lat="45.34210973519307" lon="8.8802300078999"><ele>82.33333333333333</ele><time>2026-05-03T08:11:02.999Z</time></trkpt><trkpt lat="45.341986416839816" lon="8.880114599834982"><ele>81.0</ele><time>2026-05-03T08:11:03.999Z</time></trkpt><trkpt lat="45.34186220376182" lon="8.879998353707055"><ele>80.75</ele><time>2026-05-03T08:11:04.999Z</time></trkpt><trkpt lat="45.34173503025275" lon="8.879879452658285"><ele>80.5</ele><time>2026-05-03T08:11:05.999Z</time></trkpt><trkpt lat="45.34160998805014" lon="8.879763377775369"><ele>80.25</ele><time>2026-05-03T08:11:06.999Z</time></trkpt><trkpt lat="45.341487204204" lon="8.879649399516087"><ele>80.0</ele><time>2026-05-03T08:11:07.999Z</time></trkpt><trkpt lat="45.34136609802488" lon="8.879536978342637"><ele>80.75</ele><time>2026-05-03T08:11:08.999Z</time></trkpt><trkpt lat="45.34124367793641" lon="8.879422529635363"><ele>81.5</ele><time>2026-05-03T08:11:09.999Z</time></trkpt><trkpt lat="45.34112139155147" lon="8.87930809413347"><ele>82.25</ele><time>2026-05-03T08:11:10.999Z</time></trkpt><trkpt lat="45.34099857090273" lon="8.879190966753603"><ele>83.0</ele><time>2026-05-03T08:11:11.999Z</time></trkpt><trkpt lat="45.34087101034817" lon="8.879072669125147"><ele>83.0</ele><time>2026-05-03T08:11:12.999Z</time></trkpt><trkpt lat="45.3407498643633" lon="8.878963140772791"><ele>83.0</ele><time>2026-05-03T08:11:13.999Z</time></trkpt><trkpt lat="45.34062132261273" lon="8.878846925854681"><ele>83.0</ele><time>2026-05-03T08:11:14.999Z</time></trkpt><trkpt lat="45.34050494246506" lon="8.878744718155804"><ele>83.0</ele><time>2026-05-03T08:11:15.999Z</time></trkpt><trkpt lat="45.34037974245244" lon="8.87866326084551"><ele>83.75</ele><time>2026-05-03T08:11:16.999Z</time></trkpt><trkpt lat="45.34027884024955" lon="8.878555207135932"><ele>84.5</ele><time>2026-05-03T08:11:17.999Z</time></trkpt><trkpt lat="45.34016283103201" lon="8.878459736035293"><ele>85.25</ele><time>2026-05-03T08:11:19Z</time></trkpt><trkpt lat="45.340036348840165" lon="8.87835571338657"><ele>86.0</ele><time>2026-05-03T08:11:20Z</time></trkpt><trkpt lat="45.33989973873851" lon="8.878262848303201"><ele>86.0</ele><time>2026-05-03T08:11:21Z</time></trkpt><trkpt lat="45.3397790817626" lon="8.878156182841945"><ele>86.0</ele><time>2026-05-03T08:11:22Z</time></trkpt><trkpt lat="45.33966018294174" lon="8.878062421691062"><ele>86.0</ele><time>2026-05-03T08:11:23Z</time></trkpt><trkpt lat="45.339548057626054" lon="8.87796265344179"><ele>86.0</ele><time>2026-05-03T08:11:24Z</time></trkpt><trkpt lat="45.33941952433303" lon="8.87785481510147"><ele>85.66666666666667</ele><time>2026-05-03T08:11:25Z</time></trkpt><trkpt lat="45.33928928307329" lon="8.877743136593024"><ele>85.33333333333333</ele><time>2026-05-03T08:11:26Z</time></trkpt><trkpt lat="45.33915356707399" lon="8.87763399174363"><ele>85.0</ele><time>2026-05-03T08:11:27Z</time></trkpt><trkpt lat="45.339026720709256" lon="8.877530844337914"><ele>85.0</ele><time>2026-05-03T08:11:28Z</time></trkpt><trkpt lat="45.338896936477305" lon="8.877420755150188"><ele>85.0</ele><time>2026-05-03T08:11:29Z</time></trkpt><trkpt lat="45.338767600133615" lon="8.877309271151477"><ele>85.0</ele><time>2026-05-03T08:11:30Z</time></trkpt><trkpt lat="45.338631790139736" lon="8.877196817886611"><ele>85.5</ele><time>2026-05-03T08:11:31Z</time></trkpt><trkpt lat="45.33850903304868" lon="8.87709564454736"><ele>86.0</ele><time>2026-05-03T08:11:32Z</time></trkpt><trkpt lat="45.33838319499976" lon="8.87700943805142"><ele>86.5</ele><time>2026-05-03T08:11:33Z</time></trkpt><trkpt lat="45.33825670780403" lon="8.87693213171067"><ele>87.0</ele><time>2026-05-03T08:11:34Z</time></trkpt><trkpt lat="45.33812023802858" lon="8.876878299878772"><ele>87.0</ele><time>2026-05-03T08:11:35Z</time></trkpt><trkpt lat="45.33796966770983" lon="8.87686250232329"><ele>87.0</ele><time>2026-05-03T08:11:36Z</time></trkpt><trkpt lat="45.33782719475801" lon="8.876858615143222"><ele>87.0</ele><time>2026-05-03T08:11:37Z</time></trkpt><trkpt lat="45.337679645811356" lon="8.87687471346646"><ele>87.0</ele><time>2026-05-03T08:11:38Z</time></trkpt><trkpt lat="45.337533532635234" lon="8.876897321405863"><ele>87.0</ele><time>2026-05-03T08:11:39Z</time></trkpt><trkpt lat="45.337383058402466" lon="8.87693508457938"><ele>87.0</ele><time>2026-05-03T08:11:40Z</time></trkpt><trkpt lat="45.33723960532951" lon="8.876994963107503"><ele>87.0</ele><time>2026-05-03T08:11:41Z</time></trkpt><trkpt lat="45.3370947590888" lon="8.87706293512301"><ele>87.33333333333333</ele><time>2026-05-03T08:11:42Z</time></trkpt><trkpt lat="45.33694377725541" lon="8.877123456144295"><ele>87.66666666666666</ele><time>2026-05-03T08:11:43Z</time></trkpt><trkpt lat="45.33678837302645" lon="8.877176374977081"><ele>88.0</ele><time>2026-05-03T08:11:44Z</time></trkpt><trkpt lat="45.336654874197684" lon="8.87720996566553"><ele>88.0</ele><time>2026-05-03T08:11:45Z</time></trkpt><trkpt lat="45.33653368976788" lon="8.877252942444688"><ele>88.0</ele><time>2026-05-03T08:11:46Z</time></trkpt><trkpt lat="45.336416345640366" lon="8.877283122214141"><ele>88.0</ele><time>2026-05-03T08:11:47Z</time></trkpt><trkpt lat="45.33631721584095" lon="8.877290528826384"><ele>88.0</ele><time>2026-05-03T08:11:48Z</time></trkpt><trkpt lat="45.33622408551415" lon="8.877272024050397"><ele>88.0</ele><time>2026-05-03T08:11:49Z</time></trkpt><trkpt lat="45.33613268591254" lon="8.877212530075637"><ele>87.80000000000001</ele><time>2026-05-03T08:11:50Z</time></trkpt><trkpt lat="45.33605162100433" lon="8.877166918436108"><ele>87.6</ele><time>2026-05-03T08:11:51Z</time></trkpt><trkpt lat="45.335968915035146" lon="8.87718142917251"><ele>87.4</ele><time>2026-05-03T08:11:52Z</time></trkpt><trkpt lat="45.33587891966273" lon="8.87725048476133"><ele>87.19999999999999</ele><time>2026-05-03T08:11:53Z</time></trkpt><trkpt lat="45.33580210262743" lon="8.87734820891839"><ele>87.0</ele><time>2026-05-03T08:11:54Z</time></trkpt><trkpt lat="45.3357208898863" lon="8.877461194278148"><ele>87.0</ele><time>2026-05-03T08:11:55Z</time></trkpt><trkpt lat="45.335621947326445" lon="8.877553050216857"><ele>87.0</ele><time>2026-05-03T08:11:56Z</time></trkpt><trkpt lat="45.33551001181419" lon="8.87762129054807"><ele>87.0</ele><time>2026-05-03T08:11:57Z</time></trkpt><trkpt lat="45.335392143632525" lon="8.87768138558642"><ele>87.0</ele><time>2026-05-03T08:11:58Z</time></trkpt><trkpt lat="45.33527427153373" lon="8.877744149892289"><ele>86.75</ele><time>2026-05-03T08:11:59Z</time></trkpt><trkpt lat="45.33514898832177" lon="8.877808282516861"><ele>86.5</ele><time>2026-05-03T08:12:00Z</time></trkpt><trkpt lat="45.33502816293314" lon="8.877892106310519"><ele>86.25</ele><time>2026-05-03T08:12:01Z</time></trkpt><trkpt lat="45.33490616046154" lon="8.87796506764041"><ele>86.0</ele><time>2026-05-03T08:12:02Z</time></trkpt><trkpt lat="45.33477009648102" lon="8.878063991804309"><ele>86.0</ele><time>2026-05-03T08:12:03Z</time></trkpt><trkpt lat="45.334634258797244" lon="8.87815738029927"><ele>86.0</ele><time>2026-05-03T08:12:04Z</time></trkpt><trkpt lat="45.334499977141284" lon="8.878247974815308"><ele>86.0</ele><time>2026-05-03T08:12:05Z</time></trkpt><trkpt lat="45.334366137014605" lon="8.878334783556591"><ele>86.0</ele><time>2026-05-03T08:12:06Z</time></trkpt><trkpt lat="45.33423900326976" lon="8.878419187191405"><ele>86.0</ele><time>2026-05-03T08:12:07Z</time></trkpt><trkpt lat="45.33412161413712" lon="8.878497577852423"><ele>86.0</ele><time>2026-05-03T08:12:08Z</time></trkpt><trkpt lat="45.33400080215089" lon="8.878581422014626"><ele>86.0</ele><time>2026-05-03T08:12:09Z</time></trkpt><trkpt lat="45.333876329563225" lon="8.878674710523125"><ele>86.0</ele><time>2026-05-03T08:12:10Z</time></trkpt><trkpt lat="45.33375306364189" lon="8.878772345177646"><ele>86.25</ele><time>2026-05-03T08:12:11Z</time></trkpt><trkpt lat="45.33362909432128" lon="8.878865800082826"><ele>86.5</ele><time>2026-05-03T08:12:12Z</time></trkpt><trkpt lat="45.33350614403833" lon="8.878955608201883"><ele>86.75</ele><time>2026-05-03T08:12:13Z</time></trkpt><trkpt lat="45.33338553023738" lon="8.879043269749381"><ele>87.0</ele><time>2026-05-03T08:12:14Z</time></trkpt><trkpt lat="45.33326284912875" lon="8.879131886139382"><ele>87.0</ele><time>2026-05-03T08:12:15Z</time></trkpt><trkpt lat="45.333143201203505" lon="8.879226709590856"><ele>87.0</ele><time>2026-05-03T08:12:16Z</time></trkpt><trkpt lat="45.33302924999786" lon="8.87932366527618"><ele>87.0</ele><time>2026-05-03T08:12:17Z</time></trkpt><trkpt lat="45.33291552329989" lon="8.879421012062352"><ele>87.0</ele><time>2026-05-03T08:12:18Z</time></trkpt><trkpt lat="45.33279964828955" lon="8.879522087580805"><ele>87.0</ele><time>2026-05-03T08:12:19Z</time></trkpt><trkpt lat="45.33268390269233" lon="8.879618950533747"><ele>87.0</ele><time>2026-05-03T08:12:20Z</time></trkpt><trkpt lat="45.33255908871804" lon="8.879720490493337"><ele>87.0</ele><time>2026-05-03T08:12:21Z</time></trkpt><trkpt lat="45.332443551992355" lon="8.879809914863486"><ele>87.0</ele><time>2026-05-03T08:12:22Z</time></trkpt><trkpt lat="45.332321154093194" lon="8.879900633906288"><ele>87.25</ele><time>2026-05-03T08:12:23Z</time></trkpt><trkpt lat="45.3321965328306" lon="8.879991140822376"><ele>87.5</ele><time>2026-05-03T08:12:24Z</time></trkpt><trkpt lat="45.3320719265038" lon="8.880078573337203"><ele>87.75</ele><time>2026-05-03T08:12:25Z</time></trkpt><trkpt lat="45.331944229428885" lon="8.880161676248942"><ele>88.0</ele><time>2026-05-03T08:12:26Z</time></trkpt><trkpt lat="45.33181130875243" lon="8.880238188164938"><ele>88.0</ele><time>2026-05-03T08:12:27Z</time></trkpt><trkpt lat="45.33167615499724" lon="8.880298151597392"><ele>88.0</ele><time>2026-05-03T08:12:28Z</time></trkpt><trkpt lat="45.331543605730054" lon="8.880315487039137"><ele>88.0</ele><time>2026-05-03T08:12:29Z</time></trkpt><trkpt lat="45.33140847532563" lon="8.880369338708809"><ele>88.0</ele><time>2026-05-03T08:12:30Z</time></trkpt><trkpt lat="45.33126550644085" lon="8.880371662119629"><ele>88.0</ele><time>2026-05-03T08:12:31Z</time></trkpt><trkpt lat="45.33114191287469" lon="8.880370373953072"><ele>88.0</ele><time>2026-05-03T08:12:32Z</time></trkpt><trkpt lat="45.33100097462971" lon="8.880351488386847"><ele>88.0</ele><time>2026-05-03T08:12:33Z</time></trkpt><trkpt lat="45.3308637375145" lon="8.880332429976967"><ele>88.0</ele><time>2026-05-03T08:12:34Z</time></trkpt><trkpt lat="45.33072897234761" lon="8.880310188430457"><ele>88.0</ele><time>2026-05-03T08:12:35Z</time></trkpt><trkpt lat="45.33059434650861" lon="8.880290302016153"><ele>88.0</ele><time>2026-05-03T08:12:36Z</time></trkpt><trkpt lat="45.330459499273225" lon="8.880267494828773"><ele>88.0</ele><time>2026-05-03T08:12:37Z</time></trkpt><trkpt lat="45.33033063430736" lon="8.880242703817773"><ele>88.0</ele><time>2026-05-03T08:12:38Z</time></trkpt><trkpt lat="45.33021836711071" lon="8.88022965777288"><ele>88.0</ele><time>2026-05-03T08:12:39Z</time></trkpt><trkpt lat="45.33011664936695" lon="8.880209430121148"><ele>88.0</ele><time>2026-05-03T08:12:40Z</time></trkpt><trkpt lat="45.330022551674716" lon="8.880184503822594"><ele>88.0</ele><time>2026-05-03T08:12:41Z</time></trkpt><trkpt lat="45.32993519310202" lon="8.880156745174386"><ele>88.0</ele><time>2026-05-03T08:12:42Z</time></trkpt><trkpt lat="45.3298656671468" lon="8.880114007334996"><ele>88.0</ele><time>2026-05-03T08:12:43Z</time></trkpt><trkpt lat="45.32979294133012" lon="8.88006670014106"><ele>88.0</ele><time>2026-05-03T08:12:44Z</time></trkpt><trkpt lat="45.329722370182004" lon="8.880003603150206"><ele>88.66666666666666</ele><time>2026-05-03T08:12:45Z</time></trkpt><trkpt lat="45.329649045575536" lon="8.879956673813309"><ele>89.33333333333333</ele><time>2026-05-03T08:12:45.999Z</time></trkpt><trkpt lat="45.329579425655005" lon="8.879957655222457"><ele>90.0</ele><time>2026-05-03T08:12:46.999Z</time></trkpt><trkpt lat="45.32951817246079" lon="8.880006702563861"><ele>90.66666666666667</ele><time>2026-05-03T08:12:47.999Z</time></trkpt><trkpt lat="45.329462742826585" lon="8.880092678495581"><ele>91.33333333333334</ele><time>2026-05-03T08:12:48.999Z</time></trkpt><trkpt lat="45.3294077825568" lon="8.880172566817407"><ele>92.0</ele><time>2026-05-03T08:12:49.999Z</time></trkpt><trkpt lat="45.3293143628503" lon="8.880217422790244"><ele>92.0</ele><time>2026-05-03T08:12:50.999Z</time></trkpt><trkpt lat="45.32922602587891" lon="8.880244163958594"><ele>92.0</ele><time>2026-05-03T08:12:51.999Z</time></trkpt><trkpt lat="45.32912553024176" lon="8.880265665338957"><ele>92.0</ele><time>2026-05-03T08:12:52.999Z</time></trkpt><trkpt lat="45.32902198658017" lon="8.88028717398046"><ele>92.0</ele><time>2026-05-03T08:12:53.999Z</time></trkpt><trkpt lat="45.32891413352521" lon="8.880306870525708"><ele>92.0</ele><time>2026-05-03T08:12:54.999Z</time></trkpt><trkpt lat="45.32879893901628" lon="8.880326310736251"><ele>93.5</ele><time>2026-05-03T08:12:55.999Z</time></trkpt><trkpt lat="45.32868007938338" lon="8.880352577299313"><ele>95.0</ele><time>2026-05-03T08:12:56.999Z</time></trkpt><trkpt lat="45.32855425657873" lon="8.880380481307466"><ele>96.5</ele><time>2026-05-03T08:12:57.999Z</time></trkpt><trkpt lat="45.328432279875805" lon="8.880406716809402"><ele>98.0</ele><time>2026-05-03T08:12:58.999Z</time></trkpt><trkpt lat="45.3283077793407" lon="8.880431938654338"><ele>98.0</ele><time>2026-05-03T08:12:59.999Z</time></trkpt><trkpt lat="45.32816985357633" lon="8.880450882325983"><ele>98.0</ele><time>2026-05-03T08:13:00.999Z</time></trkpt><trkpt lat="45.328040289864546" lon="8.880484882449926"><ele>98.0</ele><time>2026-05-03T08:13:01.999Z</time></trkpt><trkpt lat="45.32789501338583" lon="8.880506141785899"><ele>98.0</ele><time>2026-05-03T08:13:02.999Z</time></trkpt><trkpt lat="45.327751026495065" lon="8.88053007737507"><ele>98.5</ele><time>2026-05-03T08:13:03.999Z</time></trkpt><trkpt lat="45.32760706097247" lon="8.880561417994581"><ele>99.0</ele><time>2026-05-03T08:13:04.999Z</time></trkpt><trkpt lat="45.32747304633152" lon="8.88059091860092"><ele>99.5</ele><time>2026-05-03T08:13:05.999Z</time></trkpt><trkpt lat="45.32733760266506" lon="8.880623639061914"><ele>100.0</ele><time>2026-05-03T08:13:06.999Z</time></trkpt><trkpt lat="45.327200401041104" lon="8.880652070458469"><ele>100.25</ele><time>2026-05-03T08:13:07.999Z</time></trkpt><trkpt lat="45.32705682229381" lon="8.880682163381556"><ele>100.5</ele><time>2026-05-03T08:13:08.999Z</time></trkpt><trkpt lat="45.32691220460908" lon="8.880704456227631"><ele>100.75</ele><time>2026-05-03T08:13:09.999Z</time></trkpt><trkpt lat="45.32676783844803" lon="8.880734395077264"><ele>101.0</ele><time>2026-05-03T08:13:10.999Z</time></trkpt><trkpt lat="45.32661997398277" lon="8.880760464880886"><ele>101.0</ele><time>2026-05-03T08:13:11.999Z</time></trkpt><trkpt lat="45.32646982298126" lon="8.880785131850343"><ele>101.0</ele><time>2026-05-03T08:13:12.999Z</time></trkpt><trkpt lat="45.32632061376201" lon="8.88081575298409"><ele>101.0</ele><time>2026-05-03T08:13:13.999Z</time></trkpt><trkpt lat="45.32617558947314" lon="8.880854807707673"><ele>101.0</ele><time>2026-05-03T08:13:14.999Z</time></trkpt><trkpt lat="45.32603107565794" lon="8.880883676483617"><ele>101.0</ele><time>2026-05-03T08:13:15.999Z</time></trkpt><trkpt lat="45.32588674302855" lon="8.880909851881313"><ele>101.0</ele><time>2026-05-03T08:13:16.999Z</time></trkpt><trkpt lat="45.325743750893764" lon="8.880923570896915"><ele>101.0</ele><time>2026-05-03T08:13:17.999Z</time></trkpt><trkpt lat="45.32560443785485" lon="8.880938570130821"><ele>101.0</ele><time>2026-05-03T08:13:18.999Z</time></trkpt><trkpt lat="45.32545941397793" lon="8.880943340375847"><ele>101.25</ele><time>2026-05-03T08:13:19.999Z</time></trkpt><trkpt lat="45.32532499510937" lon="8.880954047219829"><ele>101.5</ele><time>2026-05-03T08:13:20.999Z</time></trkpt><trkpt lat="45.32519874439105" lon="8.880956544373799"><ele>101.75</ele><time>2026-05-03T08:13:21.999Z</time></trkpt><trkpt lat="45.325085491659806" lon="8.880958504893327"><ele>102.0</ele><time>2026-05-03T08:13:22.999Z</time></trkpt><trkpt lat="45.32497962552746" lon="8.880956596563117"><ele>102.0</ele><time>2026-05-03T08:13:23.999Z</time></trkpt><trkpt lat="45.32485425281583" lon="8.880943405149445"><ele>102.0</ele><time>2026-05-03T08:13:25Z</time></trkpt><trkpt lat="45.324760155935266" lon="8.880952854135211"><ele>102.0</ele><time>2026-05-03T08:13:26Z</time></trkpt><trkpt lat="45.32467772891928" lon="8.880950876922254"><ele>102.0</ele><time>2026-05-03T08:13:27Z</time></trkpt><trkpt lat="45.32457442440735" lon="8.88094056829598"><ele>102.0</ele><time>2026-05-03T08:13:29Z</time></trkpt><trkpt lat="45.32450955172042" lon="8.880905391430456"><ele>102.33333333333333</ele><time>2026-05-03T08:13:33Z</time></trkpt><trkpt lat="45.32444416223172" lon="8.880854095464175"><ele>102.66666666666666</ele><time>2026-05-03T08:13:35Z</time></trkpt><trkpt lat="45.32438204374785" lon="8.88078808442244"><ele>103.0</ele><time>2026-05-03T08:13:36Z</time></trkpt><trkpt lat="45.324314053881814" lon="8.88073300516082"><ele>103.33333333333333</ele><time>2026-05-03T08:13:37Z</time></trkpt><trkpt lat="45.324235617157726" lon="8.880704092495217"><ele>103.66666666666666</ele><time>2026-05-03T08:13:38Z</time></trkpt><trkpt lat="45.324136677458746" lon="8.880701594016006"><ele>104.0</ele><time>2026-05-03T08:13:39Z</time></trkpt><trkpt lat="45.32407101890471" lon="8.880725504955379"><ele>104.0</ele><time>2026-05-03T08:13:40Z</time></trkpt><trkpt lat="45.323996289450385" lon="8.880799592166051"><ele>104.0</ele><time>2026-05-03T08:13:41Z</time></trkpt><trkpt lat="45.323945165995795" lon="8.880925589593208"><ele>104.0</ele><time>2026-05-03T08:13:42Z</time></trkpt><trkpt lat="45.323811365357386" lon="8.880955528170622"><ele>104.0</ele><time>2026-05-03T08:13:43Z</time></trkpt><trkpt lat="45.32370338133514" lon="8.880970227868518"><ele>104.0</ele><time>2026-05-03T08:13:44Z</time></trkpt><trkpt lat="45.32359095741751" lon="8.880964252214325"><ele>103.75</ele><time>2026-05-03T08:13:45Z</time></trkpt><trkpt lat="45.32347124870107" lon="8.880958169406071"><ele>103.5</ele><time>2026-05-03T08:13:46Z</time></trkpt><trkpt lat="45.32334612185164" lon="8.880960097163632"><ele>103.25</ele><time>2026-05-03T08:13:47Z</time></trkpt><trkpt lat="45.32322157173258" lon="8.88095861285462"><ele>103.0</ele><time>2026-05-03T08:13:48Z</time></trkpt><trkpt lat="45.323104852522164" lon="8.880957889633484"><ele>103.0</ele><time>2026-05-03T08:13:49Z</time></trkpt><trkpt lat="45.322906089210825" lon="8.880948216656225"><ele>103.0</ele><time>2026-05-03T08:13:51Z</time></trkpt><trkpt lat="45.32280184904897" lon="8.880948899921265"><ele>103.0</ele><time>2026-05-03T08:13:52Z</time></trkpt><trkpt lat="45.322698073715785" lon="8.880952701047466"><ele>103.0</ele><time>2026-05-03T08:13:53Z</time></trkpt><trkpt lat="45.32260018143891" lon="8.880949838231345"><ele>103.0</ele><time>2026-05-03T08:13:54Z</time></trkpt><trkpt lat="45.322504931402406" lon="8.880951348004507"><ele>103.0</ele><time>2026-05-03T08:13:55Z</time></trkpt><trkpt lat="45.322410678123255" lon="8.880951549815562"><ele>103.0</ele><time>2026-05-03T08:13:56Z</time></trkpt><trkpt lat="45.32231605309709" lon="8.880952509651891"><ele>103.0</ele><time>2026-05-03T08:13:57Z</time></trkpt><trkpt lat="45.3222197085782" lon="8.880953655033895"><ele>103.0</ele><time>2026-05-03T08:13:58Z</time></trkpt><trkpt lat="45.322123897576255" lon="8.880950826308833"><ele>103.25</ele><time>2026-05-03T08:13:59Z</time></trkpt><trkpt lat="45.322023328816265" lon="8.880951402466808"><ele>103.5</ele><time>2026-05-03T08:14:00Z</time></trkpt><trkpt lat="45.32191745472162" lon="8.880954011997197"><ele>103.75</ele><time>2026-05-03T08:14:01Z</time></trkpt><trkpt lat="45.32179969841793" lon="8.88094986544433"><ele>104.0</ele><time>2026-05-03T08:14:02Z</time></trkpt><trkpt lat="45.32167161532485" lon="8.88094025039071"><ele>104.0</ele><time>2026-05-03T08:14:03Z</time></trkpt><trkpt lat="45.32154231447924" lon="8.880946100842088"><ele>104.0</ele><time>2026-05-03T08:14:04Z</time></trkpt><trkpt lat="45.32140906606634" lon="8.880940539812096"><ele>104.0</ele><time>2026-05-03T08:14:05Z</time></trkpt><trkpt lat="45.32127646827987" lon="8.880936172755566"><ele>104.0</ele><time>2026-05-03T08:14:06Z</time></trkpt><trkpt lat="45.32114808783664" lon="8.880929253362922"><ele>104.0</ele><time>2026-05-03T08:14:07Z</time></trkpt><trkpt lat="45.321006992449874" lon="8.880925387795175"><ele>104.0</ele><time>2026-05-03T08:14:08Z</time></trkpt><trkpt lat="45.320859275394305" lon="8.880932444980122"><ele>104.0</ele><time>2026-05-03T08:14:09Z</time></trkpt><trkpt lat="45.32071248701077" lon="8.880935615871895"><ele>104.0</ele><time>2026-05-03T08:14:10Z</time></trkpt><trkpt lat="45.32056634963383" lon="8.880935590894406"><ele>103.75</ele><time>2026-05-03T08:14:11Z</time></trkpt><trkpt lat="45.32043720819004" lon="8.880938151369477"><ele>103.5</ele><time>2026-05-03T08:14:12Z</time></trkpt><trkpt lat="45.32030161863076" lon="8.880930228778027"><ele>103.25</ele><time>2026-05-03T08:14:13Z</time></trkpt><trkpt lat="45.32016188822599" lon="8.880922537696028"><ele>103.0</ele><time>2026-05-03T08:14:14Z</time></trkpt><trkpt lat="45.32002021642514" lon="8.880922784848057"><ele>103.0</ele><time>2026-05-03T08:14:15Z</time></trkpt><trkpt lat="45.319876197064524" lon="8.880922995452872"><ele>103.0</ele><time>2026-05-03T08:14:16Z</time></trkpt><trkpt lat="45.319736528051806" lon="8.880914766886995"><ele>103.0</ele><time>2026-05-03T08:14:17Z</time></trkpt><trkpt lat="45.319594939988086" lon="8.880909466137949"><ele>103.0</ele><time>2026-05-03T08:14:18Z</time></trkpt><trkpt lat="45.31944947062941" lon="8.880900434038232"><ele>103.0</ele><time>2026-05-03T08:14:19Z</time></trkpt><trkpt lat="45.31930310434034" lon="8.88089204725369"><ele>103.0</ele><time>2026-05-03T08:14:20Z</time></trkpt><trkpt lat="45.319153648105" lon="8.88089318918276"><ele>103.0</ele><time>2026-05-03T08:14:21Z</time></trkpt><trkpt lat="45.319001683873196" lon="8.880890706340121"><ele>103.0</ele><time>2026-05-03T08:14:22Z</time></trkpt><trkpt lat="45.318846867382916" lon="8.880885471049577"><ele>103.0</ele><time>2026-05-03T08:14:23Z</time></trkpt><trkpt lat="45.31869396955307" lon="8.880875043466528"><ele>103.0</ele><time>2026-05-03T08:14:24Z</time></trkpt><trkpt lat="45.31853922237572" lon="8.880870707366858"><ele>103.0</ele><time>2026-05-03T08:14:25Z</time></trkpt><trkpt lat="45.31838772774585" lon="8.88086876016755"><ele>103.0</ele><time>2026-05-03T08:14:26Z</time></trkpt><trkpt lat="45.31825708685617" lon="8.880873622763946"><ele>103.0</ele><time>2026-05-03T08:14:27Z</time></trkpt><trkpt lat="45.31813632741268" lon="8.880866142422539"><ele>103.0</ele><time>2026-05-03T08:14:28Z</time></trkpt><trkpt lat="45.31804241243163" lon="8.880848650380278"><ele>103.0</ele><time>2026-05-03T08:14:29Z</time></trkpt><trkpt lat="45.31790146274308" lon="8.880852917618395"><ele>102.5</ele><time>2026-05-03T08:14:30Z</time></trkpt><trkpt lat="45.317763608294335" lon="8.880859287506993"><ele>102.0</ele><time>2026-05-03T08:14:31Z</time></trkpt><trkpt lat="45.31763479598058" lon="8.880864812427756"><ele>101.5</ele><time>2026-05-03T08:14:32Z</time></trkpt><trkpt lat="45.31751096680848" lon="8.880863948544878"><ele>101.0</ele><time>2026-05-03T08:14:33Z</time></trkpt><trkpt lat="45.31738637961534" lon="8.880856666102096"><ele>101.0</ele><time>2026-05-03T08:14:34Z</time></trkpt><trkpt lat="45.31727745850188" lon="8.880853636473546"><ele>101.0</ele><time>2026-05-03T08:14:35Z</time></trkpt><trkpt lat="45.31717670811277" lon="8.880851313090036"><ele>101.0</ele><time>2026-05-03T08:14:36Z</time></trkpt><trkpt lat="45.31707308886986" lon="8.880833397165086"><ele>101.0</ele><time>2026-05-03T08:14:37Z</time></trkpt><trkpt lat="45.31693911249185" lon="8.880832823227745"><ele>101.0</ele><time>2026-05-03T08:14:39Z</time></trkpt><trkpt lat="45.31685653503487" lon="8.880843292036362"><ele>101.19999999999999</ele><time>2026-05-03T08:14:40Z</time></trkpt><trkpt lat="45.31677057951237" lon="8.880848249848663"><ele>101.39999999999999</ele><time>2026-05-03T08:14:41Z</time></trkpt><trkpt lat="45.316677272508265" lon="8.880853859596588"><ele>101.6</ele><time>2026-05-03T08:14:42Z</time></trkpt><trkpt lat="45.31658100141646" lon="8.880859741821686"><ele>101.8</ele><time>2026-05-03T08:14:43Z</time></trkpt><trkpt lat="45.31670144501613" lon="8.880846870735816"><ele>102.0</ele><time>2026-05-03T08:14:44Z</time></trkpt><trkpt lat="45.31663463169081" lon="8.880835578563126"><ele>102.0</ele><time>2026-05-03T08:14:46.999Z</time></trkpt><trkpt lat="45.31658720907803" lon="8.880729699278431"><ele>102.0</ele><time>2026-05-03T08:15:00.999Z</time></trkpt><trkpt lat="45.316523975996915" lon="8.880707694393475"><ele>102.0</ele><time>2026-05-03T08:15:06.999Z</time></trkpt><trkpt lat="45.31643155693062" lon="8.88068967919008"><ele>102.0</ele><time>2026-05-03T08:18:43Z</time></trkpt><trkpt lat="45.31636696963948" lon="8.880725444225664"><ele>102.0</ele><time>2026-05-03T08:19:00Z</time></trkpt><trkpt lat="45.31632124918192" lon="8.880801500911103"><ele>102.0</ele><time>2026-05-03T08:19:03Z</time></trkpt><trkpt lat="45.316240547241826" lon="8.880850622950739"><ele>102.0</ele><time>2026-05-03T08:19:12.999Z</time></trkpt><trkpt lat="45.31617197053785" lon="8.880834046021674"><ele>102.0</ele><time>2026-05-03T08:19:13.999Z</time></trkpt><trkpt lat="45.316110094495166" lon="8.880802600315658"><ele>102.0</ele><time>2026-05-03T08:19:14.999Z</time></trkpt><trkpt lat="45.31600385262277" lon="8.88073011563871"><ele>102.0</ele><time>2026-05-03T08:19:16.999Z</time></trkpt><trkpt lat="45.31593404815321" lon="8.880681007467185"><ele>102.0</ele><time>2026-05-03T08:19:17.999Z</time></trkpt><trkpt lat="45.31585263039722" lon="8.880644952711394"><ele>102.0</ele><time>2026-05-03T08:19:18.999Z</time></trkpt><trkpt lat="45.31576144857014" lon="8.880616695636943"><ele>102.0</ele><time>2026-05-03T08:19:19.999Z</time></trkpt><trkpt lat="45.3156977879848" lon="8.880646687824527"><ele>102.0</ele><time>2026-05-03T08:19:20.999Z</time></trkpt><trkpt lat="45.31562403114596" lon="8.880702426057976"><ele>102.0</ele><time>2026-05-03T08:19:21.999Z</time></trkpt><trkpt lat="45.315542298531504" lon="8.88075479902941"><ele>102.0</ele><time>2026-05-03T08:19:22.999Z</time></trkpt><trkpt lat="45.31545302036693" lon="8.880805920493275"><ele>102.0</ele><time>2026-05-03T08:19:23.999Z</time></trkpt><trkpt lat="45.31535620245355" lon="8.880830421500967"><ele>102.0</ele><time>2026-05-03T08:19:24.999Z</time></trkpt><trkpt lat="45.315260330095356" lon="8.880820518585102"><ele>101.8</ele><time>2026-05-03T08:19:25.999Z</time></trkpt><trkpt lat="45.31516113709704" lon="8.880827403641808"><ele>101.6</ele><time>2026-05-03T08:19:26.999Z</time></trkpt><trkpt lat="45.31506133972168" lon="8.880826754700905"><ele>101.39999999999999</ele><time>2026-05-03T08:19:27.999Z</time></trkpt><trkpt lat="45.31496103914818" lon="8.880823229051705"><ele>101.19999999999999</ele><time>2026-05-03T08:19:28.999Z</time></trkpt><trkpt lat="45.31483226888255" lon="8.880791972869051"><ele>101.0</ele><time>2026-05-03T08:19:29.999Z</time></trkpt><trkpt lat="45.31473226261848" lon="8.880822829015521"><ele>101.4</ele><time>2026-05-03T08:19:30.999Z</time></trkpt><trkpt lat="45.31462066443247" lon="8.880824809464537"><ele>101.8</ele><time>2026-05-03T08:19:31.999Z</time></trkpt><trkpt lat="45.31451200764755" lon="8.880827523107243"><ele>102.2</ele><time>2026-05-03T08:19:32.999Z</time></trkpt><trkpt lat="45.31440456561504" lon="8.88081851777508"><ele>102.60000000000001</ele><time>2026-05-03T08:19:33.999Z</time></trkpt><trkpt lat="45.31429732497593" lon="8.880822991643853"><ele>103.0</ele><time>2026-05-03T08:19:34.999Z</time></trkpt><trkpt lat="45.314181271923445" lon="8.8808225543834"><ele>103.0</ele><time>2026-05-03T08:19:35.999Z</time></trkpt><trkpt lat="45.31406753712069" lon="8.880826161910155"><ele>103.0</ele><time>2026-05-03T08:19:36.999Z</time></trkpt><trkpt lat="45.313950968385186" lon="8.880826387884264"><ele>103.0</ele><time>2026-05-03T08:19:37.999Z</time></trkpt><trkpt lat="45.31382820750382" lon="8.880820568828232"><ele>103.0</ele><time>2026-05-03T08:19:38.999Z</time></trkpt><trkpt lat="45.31370532538725" lon="8.880820360258918"><ele>102.25</ele><time>2026-05-03T08:19:39.999Z</time></trkpt><trkpt lat="45.31358366325289" lon="8.880831562230508"><ele>101.5</ele><time>2026-05-03T08:19:40.999Z</time></trkpt><trkpt lat="45.31345100751128" lon="8.88082721919248"><ele>100.75</ele><time>2026-05-03T08:19:41.999Z</time></trkpt><trkpt lat="45.31331343651779" lon="8.880811305909138"><ele>100.0</ele><time>2026-05-03T08:19:43Z</time></trkpt><trkpt lat="45.31318282696587" lon="8.880789279946145"><ele>100.0</ele><time>2026-05-03T08:19:44Z</time></trkpt><trkpt lat="45.31305153156809" lon="8.880760615542346"><ele>100.0</ele><time>2026-05-03T08:19:45Z</time></trkpt><trkpt lat="45.31292411457418" lon="8.880720241215759"><ele>100.0</ele><time>2026-05-03T08:19:46Z</time></trkpt><trkpt lat="45.31279632160342" lon="8.880667867162726"><ele>100.0</ele><time>2026-05-03T08:19:47Z</time></trkpt><trkpt lat="45.312671035296226" lon="8.880609283120753"><ele>100.0</ele><time>2026-05-03T08:19:48Z</time></trkpt><trkpt lat="45.31255064690392" lon="8.880546424240062"><ele>100.0</ele><time>2026-05-03T08:19:49Z</time></trkpt><trkpt lat="45.31242982663986" lon="8.88048278316076"><ele>100.0</ele><time>2026-05-03T08:19:50Z</time></trkpt><trkpt lat="45.31231007694414" lon="8.88041411676227"><ele>100.0</ele><time>2026-05-03T08:19:51Z</time></trkpt><trkpt lat="45.31218736097572" lon="8.880335702534738"><ele>100.25</ele><time>2026-05-03T08:19:52Z</time></trkpt><trkpt lat="45.312068073046255" lon="8.880251319996038"><ele>100.5</ele><time>2026-05-03T08:19:53Z</time></trkpt><trkpt lat="45.31195092174004" lon="8.880160512469104"><ele>100.75</ele><time>2026-05-03T08:19:54Z</time></trkpt><trkpt lat="45.31185848181477" lon="8.880056936582596"><ele>101.0</ele><time>2026-05-03T08:19:55Z</time></trkpt><trkpt lat="45.31173036431468" lon="8.879946241295144"><ele>101.5</ele><time>2026-05-03T08:19:56Z</time></trkpt><trkpt lat="45.31161993492072" lon="8.879835695056512"><ele>102.0</ele><time>2026-05-03T08:19:57Z</time></trkpt><trkpt lat="45.31150384520765" lon="8.879725282924396"><ele>102.5</ele><time>2026-05-03T08:19:58Z</time></trkpt><trkpt lat="45.31139075919782" lon="8.879613620118525"><ele>103.0</ele><time>2026-05-03T08:19:59Z</time></trkpt><trkpt lat="45.31127886637965" lon="8.879501365864803"><ele>103.0</ele><time>2026-05-03T08:20:00Z</time></trkpt><trkpt lat="45.3111692001689" lon="8.879394948649765"><ele>103.0</ele><time>2026-05-03T08:20:01Z</time></trkpt><trkpt lat="45.3110586608987" lon="8.879285194708348"><ele>103.0</ele><time>2026-05-03T08:20:02Z</time></trkpt><trkpt lat="45.310953836703256" lon="8.879182954799992"><ele>103.0</ele><time>2026-05-03T08:20:03Z</time></trkpt><trkpt lat="45.31085714925377" lon="8.87908923618984"><ele>103.0</ele><time>2026-05-03T08:20:04Z</time></trkpt><trkpt lat="45.310767104371195" lon="8.878997626244555"><ele>103.0</ele><time>2026-05-03T08:20:05Z</time></trkpt><trkpt lat="45.310698841332105" lon="8.878909890799676"><ele>103.0</ele><time>2026-05-03T08:20:06Z</time></trkpt><trkpt lat="45.310608224040095" lon="8.878824173697"><ele>103.0</ele><time>2026-05-03T08:20:07Z</time></trkpt><trkpt lat="45.31054362074656" lon="8.878745503585973"><ele>103.0</ele><time>2026-05-03T08:20:08Z</time></trkpt><trkpt lat="45.31049559134776" lon="8.878662087911719"><ele>102.66666666666667</ele><time>2026-05-03T08:20:09Z</time></trkpt><trkpt lat="45.310460869966725" lon="8.878561670505006"><ele>102.33333333333334</ele><time>2026-05-03T08:20:10Z</time></trkpt><trkpt lat="45.310432451223505" lon="8.87844974010805"><ele>102.0</ele><time>2026-05-03T08:20:11Z</time></trkpt><trkpt lat="45.310414419742614" lon="8.878325003678277"><ele>101.66666666666666</ele><time>2026-05-03T08:20:12Z</time></trkpt><trkpt lat="45.31039051864139" lon="8.878210141414286"><ele>101.33333333333333</ele><time>2026-05-03T08:20:13Z</time></trkpt><trkpt lat="45.31033586559413" lon="8.87810640875572"><ele>101.0</ele><time>2026-05-03T08:20:14Z</time></trkpt><trkpt lat="45.31026119956918" lon="8.878053424967653"><ele>100.8</ele><time>2026-05-03T08:20:15Z</time></trkpt><trkpt lat="45.31016107498379" lon="8.878022249390257"><ele>100.6</ele><time>2026-05-03T08:20:16Z</time></trkpt><trkpt lat="45.31007169030847" lon="8.878048603405924"><ele>100.4</ele><time>2026-05-03T08:20:17Z</time></trkpt><trkpt lat="45.30999738564769" lon="8.878121139413674"><ele>100.2</ele><time>2026-05-03T08:20:18Z</time></trkpt><trkpt lat="45.30995069061248" lon="8.878237571456113"><ele>100.0</ele><time>2026-05-03T08:20:19Z</time></trkpt><trkpt lat="45.30992320688902" lon="8.878373188265334"><ele>100.2</ele><time>2026-05-03T08:20:20Z</time></trkpt><trkpt lat="45.30992302748096" lon="8.878512993035299"><ele>100.4</ele><time>2026-05-03T08:20:21Z</time></trkpt><trkpt lat="45.3099314208617" lon="8.878657067319606"><ele>100.6</ele><time>2026-05-03T08:20:22Z</time></trkpt><trkpt lat="45.30991413465549" lon="8.878805194523311"><ele>100.8</ele><time>2026-05-03T08:20:23Z</time></trkpt><trkpt lat="45.30987649547443" lon="8.878944697284789"><ele>101.0</ele><time>2026-05-03T08:20:24Z</time></trkpt><trkpt lat="45.309828808728945" lon="8.879070029910768"><ele>101.0</ele><time>2026-05-03T08:20:25Z</time></trkpt><trkpt lat="45.30977565489656" lon="8.879194626894604"><ele>101.0</ele><time>2026-05-03T08:20:26Z</time></trkpt><trkpt lat="45.30971672751764" lon="8.879325748823819"><ele>101.0</ele><time>2026-05-03T08:20:27Z</time></trkpt><trkpt lat="45.309653772349286" lon="8.879455330821706"><ele>101.0</ele><time>2026-05-03T08:20:28Z</time></trkpt><trkpt lat="45.30959133835017" lon="8.879590137126455"><ele>101.0</ele><time>2026-05-03T08:20:29Z</time></trkpt><trkpt lat="45.30952650884254" lon="8.879732907081658"><ele>100.8</ele><time>2026-05-03T08:20:30Z</time></trkpt><trkpt lat="45.309458829262" lon="8.879873157212627"><ele>100.6</ele><time>2026-05-03T08:20:31Z</time></trkpt><trkpt lat="45.3093903624866" lon="8.880006771675287"><ele>100.4</ele><time>2026-05-03T08:20:32Z</time></trkpt><trkpt lat="45.30932497377855" lon="8.880132222665555"><ele>100.2</ele><time>2026-05-03T08:20:33Z</time></trkpt><trkpt lat="45.30926663929159" lon="8.88024509901681"><ele>100.0</ele><time>2026-05-03T08:20:34Z</time></trkpt><trkpt lat="45.30921258633282" lon="8.88035668456007"><ele>100.00000000000001</ele><time>2026-05-03T08:20:35Z</time></trkpt><trkpt lat="45.30916516044958" lon="8.88046027019398"><ele>100.0</ele><time>2026-05-03T08:20:36Z</time></trkpt><trkpt lat="45.309114492734004" lon="8.880556469441691"><ele>100.0</ele><time>2026-05-03T08:20:37Z</time></trkpt><trkpt lat="45.30906545411513" lon="8.880649233147977"><ele>100.0</ele><time>2026-05-03T08:20:38Z</time></trkpt><trkpt lat="45.3090091778324" lon="8.880718418825996"><ele>100.00000000000001</ele><time>2026-05-03T08:20:39Z</time></trkpt><trkpt lat="45.30893876698" lon="8.880753268221614"><ele>100.0</ele><time>2026-05-03T08:20:40Z</time></trkpt><trkpt lat="45.308857235908384" lon="8.880751342744526"><ele>99.50000000000001</ele><time>2026-05-03T08:20:41Z</time></trkpt><trkpt lat="45.308768424243425" lon="8.880730166291075"><ele>99.0</ele><time>2026-05-03T08:20:42Z</time></trkpt><trkpt lat="45.308697106023565" lon="8.880728320024243"><ele>98.5</ele><time>2026-05-03T08:20:43Z</time></trkpt><trkpt lat="45.30864074644332" lon="8.880780282036971"><ele>98.0</ele><time>2026-05-03T08:20:44Z</time></trkpt><trkpt lat="45.30859390409583" lon="8.88087661278352"><ele>97.50000000000001</ele><time>2026-05-03T08:20:45Z</time></trkpt><trkpt lat="45.308577659888996" lon="8.880994548943674"><ele>97.0</ele><time>2026-05-03T08:20:46Z</time></trkpt><trkpt lat="45.308624068770314" lon="8.881104332048347"><ele>96.8</ele><time>2026-05-03T08:20:47Z</time></trkpt><trkpt lat="45.30866626109693" lon="8.881225600796792"><ele>96.6</ele><time>2026-05-03T08:20:48Z</time></trkpt><trkpt lat="45.308687422377126" lon="8.881356521366374"><ele>96.39999999999999</ele><time>2026-05-03T08:20:49Z</time></trkpt><trkpt lat="45.30871702018074" lon="8.881483992131473"><ele>96.19999999999999</ele><time>2026-05-03T08:20:50Z</time></trkpt><trkpt lat="45.308665329666724" lon="8.881655895178696"><ele>96.0</ele><time>2026-05-03T08:20:51Z</time></trkpt><trkpt lat="45.308663344275224" lon="8.881814310298859"><ele>96.0</ele><time>2026-05-03T08:20:52Z</time></trkpt><trkpt lat="45.30866736641297" lon="8.881968910096823"><ele>96.0</ele><time>2026-05-03T08:20:53Z</time></trkpt><trkpt lat="45.30869940023176" lon="8.88211422272164"><ele>96.0</ele><time>2026-05-03T08:20:54Z</time></trkpt><trkpt lat="45.30872877097375" lon="8.88225014605147"><ele>96.0</ele><time>2026-05-03T08:20:55Z</time></trkpt><trkpt lat="45.30876225846296" lon="8.882377825836345"><ele>96.0</ele><time>2026-05-03T08:20:56Z</time></trkpt><trkpt lat="45.308809643624144" lon="8.882498778679551"><ele>96.19999999999999</ele><time>2026-05-03T08:20:57Z</time></trkpt><trkpt lat="45.30885238139942" lon="8.882622322372828"><ele>96.39999999999999</ele><time>2026-05-03T08:20:58Z</time></trkpt><trkpt lat="45.30891640327586" lon="8.88272102295771"><ele>96.6</ele><time>2026-05-03T08:20:59Z</time></trkpt><trkpt lat="45.308973438330675" lon="8.882799769932758"><ele>96.8</ele><time>2026-05-03T08:21:00Z</time></trkpt><trkpt lat="45.30906298722975" lon="8.882879206633055"><ele>97.0</ele><time>2026-05-03T08:21:02Z</time></trkpt><trkpt lat="45.30897899451716" lon="8.883026622843174"><ele>97.0</ele><time>2026-05-03T08:21:04Z</time></trkpt><trkpt lat="45.30903449885387" lon="8.882978657245141"><ele>97.0</ele><time>2026-05-03T08:21:19.999Z</time></trkpt><trkpt lat="45.30908306867339" lon="8.882920110399132"><ele>97.0</ele><time>2026-05-03T08:21:23.999Z</time></trkpt><trkpt lat="45.309014788450206" lon="8.88295912661434"><ele>97.0</ele><time>2026-05-03T08:21:25.999Z</time></trkpt><trkpt lat="45.30869992389839" lon="8.882635293650148"><ele>96.83333333333334</ele><time>2026-05-03T08:21:28.999Z</time></trkpt><trkpt lat="45.308674040044984" lon="8.882543108204768"><ele>96.66666666666667</ele><time>2026-05-03T08:21:29.999Z</time></trkpt><trkpt lat="45.308643266872544" lon="8.882433509291653"><ele>96.5</ele><time>2026-05-03T08:21:30.999Z</time></trkpt><trkpt lat="45.30860967289851" lon="8.882312527661458"><ele>96.33333333333334</ele><time>2026-05-03T08:21:31.999Z</time></trkpt><trkpt lat="45.30857483765745" lon="8.882179989390105"><ele>96.16666666666667</ele><time>2026-05-03T08:21:32.999Z</time></trkpt><trkpt lat="45.30854088733938" lon="8.882042152314115"><ele>96.0</ele><time>2026-05-03T08:21:33.999Z</time></trkpt><trkpt lat="45.30851693268353" lon="8.881905264825134"><ele>96.0</ele><time>2026-05-03T08:21:34.999Z</time></trkpt><trkpt lat="45.30850344741573" lon="8.881739035954276"><ele>96.0</ele><time>2026-05-03T08:21:35.999Z</time></trkpt><trkpt lat="45.30850863581505" lon="8.88157102881626"><ele>96.0</ele><time>2026-05-03T08:21:36.999Z</time></trkpt><trkpt lat="45.308515695169504" lon="8.881429859807879"><ele>96.0</ele><time>2026-05-03T08:21:37.999Z</time></trkpt><trkpt lat="45.308524833905174" lon="8.881290845635235"><ele>96.0</ele><time>2026-05-03T08:21:38.999Z</time></trkpt><trkpt lat="45.30852760691954" lon="8.88117836385097"><ele>96.0</ele><time>2026-05-03T08:21:39.999Z</time></trkpt><trkpt lat="45.30853420777042" lon="8.8810607174775"><ele>96.0</ele><time>2026-05-03T08:21:40.999Z</time></trkpt><trkpt lat="45.308545402544425" lon="8.880941490448764"><ele>96.0</ele><time>2026-05-03T08:21:41.999Z</time></trkpt><trkpt lat="45.30856030068059" lon="8.880825391903912"><ele>96.0</ele><time>2026-05-03T08:21:42.999Z</time></trkpt><trkpt lat="45.30905029429984" lon="8.880710848944402"><ele>97.0</ele><time>2026-05-03T08:21:43.999Z</time></trkpt><trkpt lat="45.30912059009211" lon="8.880591237679413"><ele>98.0</ele><time>2026-05-03T08:21:44.999Z</time></trkpt><trkpt lat="45.30918981714409" lon="8.880465226597904"><ele>99.0</ele><time>2026-05-03T08:21:45.999Z</time></trkpt><trkpt lat="45.30925624582046" lon="8.880322618418997"><ele>100.0</ele><time>2026-05-03T08:21:46.999Z</time></trkpt><trkpt lat="45.3093218001973" lon="8.880181443306546"><ele>100.0</ele><time>2026-05-03T08:21:47.999Z</time></trkpt><trkpt lat="45.30939501359191" lon="8.880037318589348"><ele>100.0</ele><time>2026-05-03T08:21:49Z</time></trkpt><trkpt lat="45.309470069705476" lon="8.879901920713714"><ele>100.0</ele><time>2026-05-03T08:21:50Z</time></trkpt><trkpt lat="45.30954315240717" lon="8.87975087789705"><ele>100.0</ele><time>2026-05-03T08:21:51Z</time></trkpt><trkpt lat="45.30961026760851" lon="8.879600683339081"><ele>100.0</ele><time>2026-05-03T08:21:52Z</time></trkpt><trkpt lat="45.30967742869754" lon="8.879461628875225"><ele>100.0</ele><time>2026-05-03T08:21:53Z</time></trkpt><trkpt lat="45.309740150270414" lon="8.879334699375786"><ele>100.0</ele><time>2026-05-03T08:21:54Z</time></trkpt><trkpt lat="45.30980906378586" lon="8.879203815302338"><ele>100.0</ele><time>2026-05-03T08:21:55Z</time></trkpt><trkpt lat="45.309877443543996" lon="8.87907284825732"><ele>100.2</ele><time>2026-05-03T08:21:56Z</time></trkpt><trkpt lat="45.30994268844095" lon="8.878958794084996"><ele>100.4</ele><time>2026-05-03T08:21:57Z</time></trkpt><trkpt lat="45.31001179710811" lon="8.878864418634116"><ele>100.6</ele><time>2026-05-03T08:21:58Z</time></trkpt><trkpt lat="45.310091174900954" lon="8.878792418091122"><ele>100.8</ele><time>2026-05-03T08:21:59Z</time></trkpt><trkpt lat="45.31018256768725" lon="8.878744957427324"><ele>101.0</ele><time>2026-05-03T08:22:00Z</time></trkpt><trkpt lat="45.31027542755513" lon="8.878702137570054"><ele>101.0</ele><time>2026-05-03T08:22:01Z</time></trkpt><trkpt lat="45.31034297659778" lon="8.878640043481312"><ele>101.0</ele><time>2026-05-03T08:22:02Z</time></trkpt><trkpt lat="45.310388222491824" lon="8.87853364556127"><ele>101.0</ele><time>2026-05-03T08:22:03Z</time></trkpt><trkpt lat="45.31042835465892" lon="8.878410680219794"><ele>101.0</ele><time>2026-05-03T08:22:04Z</time></trkpt><trkpt lat="45.310401828105526" lon="8.878267760995605"><ele>101.0</ele><time>2026-05-03T08:22:05Z</time></trkpt><trkpt lat="45.31035929290926" lon="8.87812420360786"><ele>100.75</ele><time>2026-05-03T08:22:06Z</time></trkpt><trkpt lat="45.31026243920934" lon="8.878024545940674"><ele>100.5</ele><time>2026-05-03T08:22:07Z</time></trkpt><trkpt lat="45.310141518004144" lon="8.878004724574964"><ele>100.25</ele><time>2026-05-03T08:22:08Z</time></trkpt><trkpt lat="45.31002287162019" lon="8.87801625959882"><ele>100.0</ele><time>2026-05-03T08:22:09Z</time></trkpt><trkpt lat="45.30990213577747" lon="8.878035039189477"><ele>100.0</ele><time>2026-05-03T08:22:10Z</time></trkpt><trkpt lat="45.30978408478535" lon="8.878011711996098"><ele>100.0</ele><time>2026-05-03T08:22:11Z</time></trkpt><trkpt lat="45.30967508089359" lon="8.877912150597885"><ele>100.0</ele><time>2026-05-03T08:22:12Z</time></trkpt><trkpt lat="45.30956376215698" lon="8.877808824021626"><ele>100.0</ele><time>2026-05-03T08:22:13Z</time></trkpt><trkpt lat="45.3094488193098" lon="8.877723363551741"><ele>100.0</ele><time>2026-05-03T08:22:14Z</time></trkpt><trkpt lat="45.30935320595594" lon="8.877611993699148"><ele>100.0</ele><time>2026-05-03T08:22:15Z</time></trkpt><trkpt lat="45.30925028181768" lon="8.87750460449521"><ele>100.0</ele><time>2026-05-03T08:22:16Z</time></trkpt><trkpt lat="45.30914387410855" lon="8.87739868924803"><ele>100.0</ele><time>2026-05-03T08:22:17Z</time></trkpt><trkpt lat="45.3090306030754" lon="8.877285942869719"><ele>100.25</ele><time>2026-05-03T08:22:18Z</time></trkpt><trkpt lat="45.30891966288567" lon="8.877175003615301"><ele>100.5</ele><time>2026-05-03T08:22:19Z</time></trkpt><trkpt lat="45.30880028720425" lon="8.877064457111375"><ele>100.75</ele><time>2026-05-03T08:22:20Z</time></trkpt><trkpt lat="45.30868915497054" lon="8.876949234222163"><ele>101.0</ele><time>2026-05-03T08:22:21Z</time></trkpt><trkpt lat="45.308573247131434" lon="8.876837434044024"><ele>101.0</ele><time>2026-05-03T08:22:22Z</time></trkpt><trkpt lat="45.30845824013043" lon="8.876722592718794"><ele>101.0</ele><time>2026-05-03T08:22:23Z</time></trkpt><trkpt lat="45.308341647688984" lon="8.876605884901426"><ele>101.0</ele><time>2026-05-03T08:22:24Z</time></trkpt><trkpt lat="45.30822415115066" lon="8.876491039636157"><ele>101.0</ele><time>2026-05-03T08:22:25Z</time></trkpt><trkpt lat="45.308105365368355" lon="8.87637541409104"><ele>101.0</ele><time>2026-05-03T08:22:26Z</time></trkpt><trkpt lat="45.3079775540008" lon="8.876250558220953"><ele>101.0</ele><time>2026-05-03T08:22:27Z</time></trkpt><trkpt lat="45.30785540819034" lon="8.876130665427679"><ele>101.0</ele><time>2026-05-03T08:22:28Z</time></trkpt><trkpt lat="45.307728264416895" lon="8.876007080397576"><ele>100.66666666666666</ele><time>2026-05-03T08:22:29Z</time></trkpt><trkpt lat="45.30760223050136" lon="8.875881548041917"><ele>100.33333333333334</ele><time>2026-05-03T08:22:30Z</time></trkpt><trkpt lat="45.30749688127406" lon="8.875762728413381"><ele>100.0</ele><time>2026-05-03T08:22:31Z</time></trkpt><trkpt lat="45.30734964599994" lon="8.875634348430896"><ele>100.66666666666667</ele><time>2026-05-03T08:22:32Z</time></trkpt><trkpt lat="45.307218158718236" lon="8.875508702815896"><ele>101.33333333333334</ele><time>2026-05-03T08:22:33Z</time></trkpt><trkpt lat="45.307090550132976" lon="8.875384134803229"><ele>102.0</ele><time>2026-05-03T08:22:34Z</time></trkpt><trkpt lat="45.30695828933187" lon="8.87525564053896"><ele>102.0</ele><time>2026-05-03T08:22:35Z</time></trkpt><trkpt lat="45.306827295142696" lon="8.875127699198016"><ele>102.0</ele><time>2026-05-03T08:22:36Z</time></trkpt><trkpt lat="45.30669795035296" lon="8.87500110140449"><ele>102.0</ele><time>2026-05-03T08:22:37Z</time></trkpt><trkpt lat="45.30658191375203" lon="8.874878387319402"><ele>101.33333333333334</ele><time>2026-05-03T08:22:38Z</time></trkpt><trkpt lat="45.30644442881429" lon="8.874750334111678"><ele>100.66666666666667</ele><time>2026-05-03T08:22:39Z</time></trkpt><trkpt lat="45.30631481275007" lon="8.874623145414766"><ele>100.0</ele><time>2026-05-03T08:22:40Z</time></trkpt><trkpt lat="45.306185023079244" lon="8.874496630332162"><ele>100.0</ele><time>2026-05-03T08:22:41Z</time></trkpt><trkpt lat="45.30605697953215" lon="8.874368503676605"><ele>100.0</ele><time>2026-05-03T08:22:42Z</time></trkpt><trkpt lat="45.30593395319112" lon="8.874243611151485"><ele>100.0</ele><time>2026-05-03T08:22:43Z</time></trkpt><trkpt lat="45.30580112059541" lon="8.874120206985086"><ele>100.66666666666667</ele><time>2026-05-03T08:22:44Z</time></trkpt><trkpt lat="45.305673551303194" lon="8.873998051240884"><ele>101.33333333333334</ele><time>2026-05-03T08:22:45Z</time></trkpt><trkpt lat="45.305545049422236" lon="8.873876237290744"><ele>102.0</ele><time>2026-05-03T08:22:46Z</time></trkpt><trkpt lat="45.30528081973954" lon="8.873631631683581"><ele>102.0</ele><time>2026-05-03T08:22:48Z</time></trkpt><trkpt lat="45.30516064427519" lon="8.87351201775805"><ele>102.0</ele><time>2026-05-03T08:22:49Z</time></trkpt><trkpt lat="45.30503356362666" lon="8.873392559304085"><ele>102.0</ele><time>2026-05-03T08:22:50Z</time></trkpt><trkpt lat="45.30490239820923" lon="8.87327403702409"><ele>101.66666666666666</ele><time>2026-05-03T08:22:51Z</time></trkpt><trkpt lat="45.30477480160072" lon="8.873157946927376"><ele>101.33333333333333</ele><time>2026-05-03T08:22:52Z</time></trkpt><trkpt lat="45.304640970420515" lon="8.873042328399855"><ele>101.0</ele><time>2026-05-03T08:22:53Z</time></trkpt><trkpt lat="45.30451148446497" lon="8.872922131772508"><ele>101.0</ele><time>2026-05-03T08:22:54Z</time></trkpt><trkpt lat="45.30438925796458" lon="8.872802483385987"><ele>101.0</ele><time>2026-05-03T08:22:55Z</time></trkpt><trkpt lat="45.30427693345841" lon="8.872698076551663"><ele>101.0</ele><time>2026-05-03T08:22:56Z</time></trkpt><trkpt lat="45.304188728346645" lon="8.872578907051928"><ele>101.0</ele><time>2026-05-03T08:22:57Z</time></trkpt><trkpt lat="45.3040927594303" lon="8.8725046467921"><ele>101.0</ele><time>2026-05-03T08:22:58Z</time></trkpt><trkpt lat="45.304024330399976" lon="8.87239881683427"><ele>101.0</ele><time>2026-05-03T08:22:59Z</time></trkpt><trkpt lat="45.303978095489825" lon="8.872280079402243"><ele>101.0</ele><time>2026-05-03T08:23:00Z</time></trkpt><trkpt lat="45.30394454767816" lon="8.872137528737682"><ele>101.0</ele><time>2026-05-03T08:23:01Z</time></trkpt><trkpt lat="45.30392771157027" lon="8.871998437147447"><ele>101.0</ele><time>2026-05-03T08:23:02Z</time></trkpt><trkpt lat="45.30389826318385" lon="8.871916971771087"><ele>100.8</ele><time>2026-05-03T08:23:03Z</time></trkpt><trkpt lat="45.30383268213409" lon="8.871831419941874"><ele>100.6</ele><time>2026-05-03T08:23:03.999Z</time></trkpt><trkpt lat="45.30376295244556" lon="8.871782805681214"><ele>100.4</ele><time>2026-05-03T08:23:04.999Z</time></trkpt><trkpt lat="45.303674455280465" lon="8.871786389028669"><ele>100.2</ele><time>2026-05-03T08:23:05.999Z</time></trkpt><trkpt lat="45.30358799790185" lon="8.871856077749033"><ele>100.0</ele><time>2026-05-03T08:23:06.999Z</time></trkpt><trkpt lat="45.30352820323247" lon="8.87196460897067"><ele>100.0</ele><time>2026-05-03T08:23:07.999Z</time></trkpt><trkpt lat="45.30347854161804" lon="8.872101732442214"><ele>100.0</ele><time>2026-05-03T08:23:08.999Z</time></trkpt><trkpt lat="45.30342881017471" lon="8.872241200017047"><ele>100.0</ele><time>2026-05-03T08:23:09.999Z</time></trkpt><trkpt lat="45.30336973857866" lon="8.872378771820777"><ele>100.0</ele><time>2026-05-03T08:23:10.999Z</time></trkpt><trkpt lat="45.30325260368819" lon="8.872446349559768"><ele>100.0</ele><time>2026-05-03T08:23:11.999Z</time></trkpt><trkpt lat="45.30316238642434" lon="8.872543764964574"><ele>100.0</ele><time>2026-05-03T08:23:12.999Z</time></trkpt><trkpt lat="45.303058506955495" lon="8.872632750207368"><ele>100.0</ele><time>2026-05-03T08:23:13.999Z</time></trkpt><trkpt lat="45.30295154500198" lon="8.872720613469024"><ele>100.0</ele><time>2026-05-03T08:23:14.999Z</time></trkpt><trkpt lat="45.302837545885275" lon="8.872813877730461"><ele>100.0</ele><time>2026-05-03T08:23:15.999Z</time></trkpt><trkpt lat="45.30272610068397" lon="8.872921426270548"><ele>100.0</ele><time>2026-05-03T08:23:16.999Z</time></trkpt><trkpt lat="45.30261932479901" lon="8.873025048887746"><ele>100.0</ele><time>2026-05-03T08:23:17.999Z</time></trkpt><trkpt lat="45.30251374089273" lon="8.873116295840488"><ele>100.0</ele><time>2026-05-03T08:23:18.999Z</time></trkpt><trkpt lat="45.302403467388665" lon="8.873209458098929"><ele>100.0</ele><time>2026-05-03T08:23:19.999Z</time></trkpt><trkpt lat="45.30229153140926" lon="8.873304191896663"><ele>100.0</ele><time>2026-05-03T08:23:20.999Z</time></trkpt><trkpt lat="45.302178263768866" lon="8.873407082349278"><ele>100.0</ele><time>2026-05-03T08:23:21.999Z</time></trkpt><trkpt lat="45.30206275107859" lon="8.873514804277468"><ele>100.0</ele><time>2026-05-03T08:23:22.999Z</time></trkpt><trkpt lat="45.3019471820684" lon="8.87361769047664"><ele>99.75</ele><time>2026-05-03T08:23:23.999Z</time></trkpt><trkpt lat="45.301833780260054" lon="8.873721531034642"><ele>99.5</ele><time>2026-05-03T08:23:24.999Z</time></trkpt><trkpt lat="45.301715548965745" lon="8.873819656385711"><ele>99.25</ele><time>2026-05-03T08:23:25.999Z</time></trkpt><trkpt lat="45.30160622739261" lon="8.873911994816808"><ele>99.0</ele><time>2026-05-03T08:23:26.999Z</time></trkpt><trkpt lat="45.30148279918669" lon="8.874007925857034"><ele>98.75</ele><time>2026-05-03T08:23:27.999Z</time></trkpt><trkpt lat="45.30140377258423" lon="8.874096655736516"><ele>98.5</ele><time>2026-05-03T08:23:28.999Z</time></trkpt><trkpt lat="45.30130682691722" lon="8.874187726565356"><ele>98.25</ele><time>2026-05-03T08:23:29.999Z</time></trkpt><trkpt lat="45.301204494027374" lon="8.874277314061924"><ele>98.0</ele><time>2026-05-03T08:23:30.999Z</time></trkpt><trkpt lat="45.30109749820693" lon="8.874369296719632"><ele>97.75</ele><time>2026-05-03T08:23:31.999Z</time></trkpt><trkpt lat="45.300991578120325" lon="8.874464465777253"><ele>97.5</ele><time>2026-05-03T08:23:32.999Z</time></trkpt><trkpt lat="45.300886134212945" lon="8.874561638400419"><ele>97.25</ele><time>2026-05-03T08:23:33.999Z</time></trkpt><trkpt lat="45.30078106366755" lon="8.874658499837224"><ele>97.0</ele><time>2026-05-03T08:23:34.999Z</time></trkpt><trkpt lat="45.300670761747334" lon="8.874752778315498"><ele>97.25</ele><time>2026-05-03T08:23:35.999Z</time></trkpt><trkpt lat="45.300560907459875" lon="8.874850415125477"><ele>97.5</ele><time>2026-05-03T08:23:36.999Z</time></trkpt><trkpt lat="45.300450264485846" lon="8.874948935832004"><ele>97.75</ele><time>2026-05-03T08:23:37.999Z</time></trkpt><trkpt lat="45.30033929537441" lon="8.875044299100153"><ele>98.0</ele><time>2026-05-03T08:23:38.999Z</time></trkpt><trkpt lat="45.30022789225324" lon="8.875143693289404"><ele>98.25</ele><time>2026-05-03T08:23:39.999Z</time></trkpt><trkpt lat="45.300113040607265" lon="8.8752495260207"><ele>98.5</ele><time>2026-05-03T08:23:40.999Z</time></trkpt><trkpt lat="45.299996230611804" lon="8.875354654399716"><ele>98.75</ele><time>2026-05-03T08:23:41.999Z</time></trkpt><trkpt lat="45.299884828743906" lon="8.875458702198591"><ele>99.0</ele><time>2026-05-03T08:23:42.999Z</time></trkpt><trkpt lat="45.29976616643034" lon="8.875565999520783"><ele>99.0</ele><time>2026-05-03T08:23:43.999Z</time></trkpt><trkpt lat="45.299645404759794" lon="8.87567365800373"><ele>99.0</ele><time>2026-05-03T08:23:44.999Z</time></trkpt><trkpt lat="45.29952817115012" lon="8.875780156339657"><ele>99.0</ele><time>2026-05-03T08:23:45.999Z</time></trkpt><trkpt lat="45.29940817856941" lon="8.875888996646808"><ele>99.0</ele><time>2026-05-03T08:23:46.999Z</time></trkpt><trkpt lat="45.29928459681506" lon="8.876002107913237"><ele>99.0</ele><time>2026-05-03T08:23:47.999Z</time></trkpt><trkpt lat="45.29916265815046" lon="8.876110943380622"><ele>99.0</ele><time>2026-05-03T08:23:48.999Z</time></trkpt><trkpt lat="45.29903961103729" lon="8.87621753147665"><ele>99.0</ele><time>2026-05-03T08:23:49.999Z</time></trkpt><trkpt lat="45.29891666838677" lon="8.876324414198356"><ele>99.0</ele><time>2026-05-03T08:23:50.999Z</time></trkpt><trkpt lat="45.29879051607815" lon="8.876434577843419"><ele>99.0</ele><time>2026-05-03T08:23:51.999Z</time></trkpt><trkpt lat="45.298666142911785" lon="8.876542176260106"><ele>99.0</ele><time>2026-05-03T08:23:52.999Z</time></trkpt><trkpt lat="45.29854235128996" lon="8.876654000453136"><ele>99.0</ele><time>2026-05-03T08:23:53.999Z</time></trkpt><trkpt lat="45.29841787154635" lon="8.876763725685533"><ele>99.0</ele><time>2026-05-03T08:23:55Z</time></trkpt><trkpt lat="45.29829301510093" lon="8.876876777723442"><ele>98.75</ele><time>2026-05-03T08:23:56Z</time></trkpt><trkpt lat="45.29816606381823" lon="8.87698731506769"><ele>98.5</ele><time>2026-05-03T08:23:57Z</time></trkpt><trkpt lat="45.29804030786513" lon="8.877096593550416"><ele>98.25</ele><time>2026-05-03T08:23:58Z</time></trkpt><trkpt lat="45.29790967446019" lon="8.877206742278826"><ele>98.0</ele><time>2026-05-03T08:23:59Z</time></trkpt><trkpt lat="45.29778641846778" lon="8.877322164250774"><ele>98.0</ele><time>2026-05-03T08:24:00Z</time></trkpt><trkpt lat="45.29766063731664" lon="8.877431452102568"><ele>98.0</ele><time>2026-05-03T08:24:01Z</time></trkpt><trkpt lat="45.29753127217906" lon="8.877543693393179"><ele>98.0</ele><time>2026-05-03T08:24:02Z</time></trkpt><trkpt lat="45.29740586737574" lon="8.877621800706795"><ele>98.0</ele><time>2026-05-03T08:24:03Z</time></trkpt><trkpt lat="45.297280540514414" lon="8.87775753266495"><ele>98.25</ele><time>2026-05-03T08:24:04Z</time></trkpt><trkpt lat="45.29715509893104" lon="8.877871121854353"><ele>98.5</ele><time>2026-05-03T08:24:05Z</time></trkpt><trkpt lat="45.29702664061051" lon="8.877986860437385"><ele>98.75</ele><time>2026-05-03T08:24:06Z</time></trkpt><trkpt lat="45.296898805782284" lon="8.878094516475082"><ele>99.0</ele><time>2026-05-03T08:24:07Z</time></trkpt><trkpt lat="45.29679052204788" lon="8.878201355357193"><ele>99.0</ele><time>2026-05-03T08:24:08Z</time></trkpt><trkpt lat="45.29664410434512" lon="8.878317715046276"><ele>99.0</ele><time>2026-05-03T08:24:09Z</time></trkpt><trkpt lat="45.29651418819003" lon="8.878432192395564"><ele>99.0</ele><time>2026-05-03T08:24:10Z</time></trkpt><trkpt lat="45.29638613287425" lon="8.87854604085051"><ele>98.66666666666666</ele><time>2026-05-03T08:24:11Z</time></trkpt><trkpt lat="45.296256596995896" lon="8.878656555336777"><ele>98.33333333333333</ele><time>2026-05-03T08:24:12Z</time></trkpt><trkpt lat="45.29612255517554" lon="8.87877851177646"><ele>98.0</ele><time>2026-05-03T08:24:13Z</time></trkpt><trkpt lat="45.295991941079976" lon="8.878894706715098"><ele>98.0</ele><time>2026-05-03T08:24:14Z</time></trkpt><trkpt lat="45.29585467787835" lon="8.879008226971482"><ele>98.0</ele><time>2026-05-03T08:24:15Z</time></trkpt><trkpt lat="45.29572137216376" lon="8.879126150576585"><ele>98.0</ele><time>2026-05-03T08:24:16Z</time></trkpt><trkpt lat="45.29558698802153" lon="8.879245668870748"><ele>98.0</ele><time>2026-05-03T08:24:17Z</time></trkpt><trkpt lat="45.29544681173445" lon="8.879358795455198"><ele>98.0</ele><time>2026-05-03T08:24:18Z</time></trkpt><trkpt lat="45.29531226391973" lon="8.879485427348776"><ele>98.0</ele><time>2026-05-03T08:24:19Z</time></trkpt><trkpt lat="45.2951743389249" lon="8.879606265003824"><ele>98.0</ele><time>2026-05-03T08:24:20Z</time></trkpt><trkpt lat="45.29503594597806" lon="8.879726624471852"><ele>98.0</ele><time>2026-05-03T08:24:21Z</time></trkpt><trkpt lat="45.294893579111886" lon="8.87984845825853"><ele>98.0</ele><time>2026-05-03T08:24:22Z</time></trkpt><trkpt lat="45.29475597540572" lon="8.879969298235048"><ele>97.66666666666666</ele><time>2026-05-03T08:24:23Z</time></trkpt><trkpt lat="45.29461670795187" lon="8.880088313004416"><ele>97.33333333333334</ele><time>2026-05-03T08:24:24Z</time></trkpt><trkpt lat="45.29447595286842" lon="8.880209382915451"><ele>97.0</ele><time>2026-05-03T08:24:25Z</time></trkpt><trkpt lat="45.29433474410859" lon="8.880337342099173"><ele>97.0</ele><time>2026-05-03T08:24:26Z</time></trkpt><trkpt lat="45.29419764664704" lon="8.880461506492999"><ele>97.0</ele><time>2026-05-03T08:24:27Z</time></trkpt><trkpt lat="45.294057390468936" lon="8.880586022821385"><ele>97.0</ele><time>2026-05-03T08:24:28Z</time></trkpt><trkpt lat="45.29392177561859" lon="8.880707829339318"><ele>98.0</ele><time>2026-05-03T08:24:29Z</time></trkpt><trkpt lat="45.29377742891998" lon="8.880831797185138"><ele>99.0</ele><time>2026-05-03T08:24:30Z</time></trkpt><trkpt lat="45.2936391673267" lon="8.88095486229062"><ele>100.0</ele><time>2026-05-03T08:24:31Z</time></trkpt><trkpt lat="45.29349747990951" lon="8.88108059411859"><ele>100.0</ele><time>2026-05-03T08:24:32Z</time></trkpt><trkpt lat="45.293358776467116" lon="8.88120256263887"><ele>100.0</ele><time>2026-05-03T08:24:33Z</time></trkpt><trkpt lat="45.29321767672466" lon="8.881328778223445"><ele>100.0</ele><time>2026-05-03T08:24:34Z</time></trkpt><trkpt lat="45.29308236901191" lon="8.881447519194507"><ele>100.0</ele><time>2026-05-03T08:24:35Z</time></trkpt><trkpt lat="45.2929466437755" lon="8.881565421400403"><ele>100.0</ele><time>2026-05-03T08:24:36Z</time></trkpt><trkpt lat="45.292809979875265" lon="8.881689790394873"><ele>100.0</ele><time>2026-05-03T08:24:37Z</time></trkpt><trkpt lat="45.29267862867645" lon="8.88180304650493"><ele>99.75</ele><time>2026-05-03T08:24:38Z</time></trkpt><trkpt lat="45.29255695244705" lon="8.881912507144396"><ele>99.5</ele><time>2026-05-03T08:24:39Z</time></trkpt><trkpt lat="45.292432160398796" lon="8.882023580635385"><ele>99.25</ele><time>2026-05-03T08:24:40Z</time></trkpt><trkpt lat="45.292307413019486" lon="8.882127033624792"><ele>99.0</ele><time>2026-05-03T08:24:41Z</time></trkpt><trkpt lat="45.2921804150923" lon="8.882217868681014"><ele>99.0</ele><time>2026-05-03T08:24:42Z</time></trkpt><trkpt lat="45.29204947544193" lon="8.882347136528457"><ele>99.0</ele><time>2026-05-03T08:24:43Z</time></trkpt><trkpt lat="45.29191842104496" lon="8.882462756573192"><ele>99.0</ele><time>2026-05-03T08:24:44Z</time></trkpt><trkpt lat="45.291786840126164" lon="8.882577604445235"><ele>99.33333333333334</ele><time>2026-05-03T08:24:45Z</time></trkpt><trkpt lat="45.2916507530753" lon="8.882694209346013"><ele>99.66666666666667</ele><time>2026-05-03T08:24:46Z</time></trkpt><trkpt lat="45.2915203858888" lon="8.882814036992686"><ele>100.0</ele><time>2026-05-03T08:24:47Z</time></trkpt><trkpt lat="45.29139236051909" lon="8.882926546686496"><ele>100.0</ele><time>2026-05-03T08:24:48Z</time></trkpt><trkpt lat="45.29126127941474" lon="8.883040573450813"><ele>100.0</ele><time>2026-05-03T08:24:49Z</time></trkpt><trkpt lat="45.291128628024005" lon="8.883159950937266"><ele>100.0</ele><time>2026-05-03T08:24:50Z</time></trkpt><trkpt lat="45.29100218933807" lon="8.883270506367431"><ele>100.0</ele><time>2026-05-03T08:24:51Z</time></trkpt><trkpt lat="45.29088608898259" lon="8.883374861928294"><ele>100.0</ele><time>2026-05-03T08:24:52Z</time></trkpt><trkpt lat="45.290777632904984" lon="8.883472761702564"><ele>100.0</ele><time>2026-05-03T08:24:53Z</time></trkpt><trkpt lat="45.290664163063035" lon="8.883575818382871"><ele>100.0</ele><time>2026-05-03T08:24:54Z</time></trkpt><trkpt lat="45.29054973301742" lon="8.883675482015173"><ele>100.0</ele><time>2026-05-03T08:24:55Z</time></trkpt><trkpt lat="45.29043683854042" lon="8.883749241728525"><ele>100.0</ele><time>2026-05-03T08:24:56Z</time></trkpt><trkpt lat="45.29033178845769" lon="8.883822922144063"><ele>100.0</ele><time>2026-05-03T08:24:57Z</time></trkpt><trkpt lat="45.29023238194287" lon="8.883929041396895"><ele>100.0</ele><time>2026-05-03T08:24:58Z</time></trkpt><trkpt lat="45.29013673512948" lon="8.884015594791235"><ele>100.00000000000001</ele><time>2026-05-03T08:24:59Z</time></trkpt><trkpt lat="45.290050521581946" lon="8.884091801649058"><ele>100.0</ele><time>2026-05-03T08:25:00Z</time></trkpt><trkpt lat="45.28997131431224" lon="8.884161877566223"><ele>100.0</ele><time>2026-05-03T08:25:00.999Z</time></trkpt><trkpt lat="45.28989881951314" lon="8.884224354334334"><ele>100.0</ele><time>2026-05-03T08:25:01.999Z</time></trkpt><trkpt lat="45.28983776088283" lon="8.884284665916068"><ele>100.00000000000001</ele><time>2026-05-03T08:25:02.999Z</time></trkpt><trkpt lat="45.28978413508236" lon="8.884338010349722"><ele>100.0</ele><time>2026-05-03T08:25:03.999Z</time></trkpt><trkpt lat="45.28972203968852" lon="8.884378085593381"><ele>100.16666666666667</ele><time>2026-05-03T08:25:05.999Z</time></trkpt><trkpt lat="45.289813383520126" lon="8.884606716466896"><ele>100.33333333333334</ele><time>2026-05-03T08:25:07.999Z</time></trkpt><trkpt lat="45.28985611686534" lon="8.8846751799116"><ele>100.5</ele><time>2026-05-03T08:25:08.999Z</time></trkpt><trkpt lat="45.28988495033364" lon="8.884764012314728"><ele>100.66666666666666</ele><time>2026-05-03T08:25:09.999Z</time></trkpt><trkpt lat="45.289911894830546" lon="8.884847656018916"><ele>100.83333333333333</ele><time>2026-05-03T08:25:10.999Z</time></trkpt><trkpt lat="45.28994706001793" lon="8.884923631801518"><ele>101.0</ele><time>2026-05-03T08:25:11.999Z</time></trkpt><trkpt lat="45.289982702525876" lon="8.885004150036522"><ele>100.99999999999999</ele><time>2026-05-03T08:25:12.999Z</time></trkpt><trkpt lat="45.290017863200404" lon="8.8850855213247"><ele>101.0</ele><time>2026-05-03T08:25:13.999Z</time></trkpt><trkpt lat="45.290076457872324" lon="8.88523093216199"><ele>101.0</ele><time>2026-05-03T08:25:15.999Z</time></trkpt><trkpt lat="45.29013410917065" lon="8.885365766483725"><ele>101.0</ele><time>2026-05-03T08:25:17.999Z</time></trkpt><trkpt lat="45.29016732131799" lon="8.885442696532518"><ele>100.99999999999999</ele><time>2026-05-03T08:25:18.999Z</time></trkpt><trkpt lat="45.2902023656962" lon="8.885524964876026"><ele>101.0</ele><time>2026-05-03T08:25:19.999Z</time></trkpt><trkpt lat="45.29023640146203" lon="8.88560472055955"><ele>100.99999999999999</ele><time>2026-05-03T08:25:20.999Z</time></trkpt><trkpt lat="45.29029479947428" lon="8.885733865847397"><ele>101.0</ele><time>2026-05-03T08:25:22.999Z</time></trkpt><trkpt lat="45.29033519338461" lon="8.885847438313494"><ele>101.0</ele><time>2026-05-03T08:25:24.999Z</time></trkpt><trkpt lat="45.29028077908348" lon="8.885927149566362"><ele>101.0</ele><time>2026-05-03T08:25:26.999Z</time></trkpt><trkpt lat="45.29018511450524" lon="8.88600010469688"><ele>100.99999999999999</ele><time>2026-05-03T08:25:28.999Z</time></trkpt><trkpt lat="45.2901297133261" lon="8.886046846789014"><ele>101.0</ele><time>2026-05-03T08:25:29.999Z</time></trkpt><trkpt lat="45.29001758476651" lon="8.886119644965559"><ele>100.6</ele><time>2026-05-03T08:25:31.999Z</time></trkpt><trkpt lat="45.28996037057586" lon="8.88616555214716"><ele>100.19999999999999</ele><time>2026-05-03T08:25:32.999Z</time></trkpt><trkpt lat="45.28988619864127" lon="8.886261426370675"><ele>99.80000000000001</ele><time>2026-05-03T08:25:34.999Z</time></trkpt><trkpt lat="45.28990063830688" lon="8.88643593128975"><ele>99.4</ele><time>2026-05-03T08:25:37.999Z</time></trkpt><trkpt lat="45.2899322852334" lon="8.886545847366756"><ele>99.0</ele><time>2026-05-03T08:25:39.999Z</time></trkpt><trkpt lat="45.28994722712434" lon="8.886682177087126"><ele>98.5</ele><time>2026-05-03T08:25:41.999Z</time></trkpt><trkpt lat="45.28997233675052" lon="8.88682107898511"><ele>98.0</ele><time>2026-05-03T08:25:43.999Z</time></trkpt><trkpt lat="45.29000410755676" lon="8.88692325518777"><ele>97.5</ele><time>2026-05-03T08:25:45.999Z</time></trkpt><trkpt lat="45.29001313217347" lon="8.887022893858012"><ele>97.0</ele><time>2026-05-03T08:25:47.999Z</time></trkpt><trkpt lat="45.29004043108253" lon="8.887120271534211"><ele>96.5</ele><time>2026-05-03T08:25:49.999Z</time></trkpt><trkpt lat="45.290063652727135" lon="8.887203991680112"><ele>96.0</ele><time>2026-05-03T08:25:51.999Z</time></trkpt><trkpt lat="45.29009933004425" lon="8.887323461901222"><ele>96.0</ele><time>2026-05-03T08:25:54.999Z</time></trkpt><trkpt lat="45.29011333966413" lon="8.887414930635078"><ele>96.0</ele><time>2026-05-03T08:25:56.999Z</time></trkpt><trkpt lat="45.29014527692391" lon="8.887538411452015"><ele>96.0</ele><time>2026-05-03T08:25:59.999Z</time></trkpt><trkpt lat="45.29017154533345" lon="8.887650504116978"><ele>96.0</ele><time>2026-05-03T08:26:03Z</time></trkpt><trkpt lat="45.29019400032198" lon="8.887751394224873"><ele>96.0</ele><time>2026-05-03T08:26:06Z</time></trkpt><trkpt lat="45.29021870636169" lon="8.887856409058468"><ele>96.0</ele><time>2026-05-03T08:26:10Z</time></trkpt><trkpt lat="45.290220672601805" lon="8.88772849945018"><ele>96.0</ele><time>2026-05-03T08:26:17Z</time></trkpt><trkpt lat="45.290195410552435" lon="8.887645492963577"><ele>96.0</ele><time>2026-05-03T08:26:18Z</time></trkpt><trkpt lat="45.29013087191157" lon="8.88740869827349"><ele>96.0</ele><time>2026-05-03T08:26:21Z</time></trkpt><trkpt lat="45.290108363914406" lon="8.88731224609894"><ele>96.0</ele><time>2026-05-03T08:26:22Z</time></trkpt><trkpt lat="45.290084459077804" lon="8.887215736002053"><ele>96.0</ele><time>2026-05-03T08:26:23Z</time></trkpt><trkpt lat="45.29005905441871" lon="8.88711343365987"><ele>96.0</ele><time>2026-05-03T08:26:24Z</time></trkpt><trkpt lat="45.290035245654444" lon="8.887006060008613"><ele>96.0</ele><time>2026-05-03T08:26:25Z</time></trkpt><trkpt lat="45.290016390738984" lon="8.88689205554575"><ele>96.0</ele><time>2026-05-03T08:26:26Z</time></trkpt><trkpt lat="45.29000114936198" lon="8.886782225452425"><ele>96.0</ele><time>2026-05-03T08:26:27Z</time></trkpt><trkpt lat="45.28998091420594" lon="8.88667256961944"><ele>96.0</ele><time>2026-05-03T08:26:28Z</time></trkpt><trkpt lat="45.28996338340796" lon="8.886568254628736"><ele>96.0</ele><time>2026-05-03T08:26:29Z</time></trkpt><trkpt lat="45.28995008086136" lon="8.886478340607441"><ele>96.6</ele><time>2026-05-03T08:26:30Z</time></trkpt><trkpt lat="45.2899430573623" lon="8.886327888842825"><ele>97.19999999999999</ele><time>2026-05-03T08:26:32Z</time></trkpt><trkpt lat="45.28994831071704" lon="8.88622560543615"><ele>97.80000000000001</ele><time>2026-05-03T08:26:34Z</time></trkpt><trkpt lat="45.290076556452846" lon="8.886148766224572"><ele>98.4</ele><time>2026-05-03T08:26:36Z</time></trkpt><trkpt lat="45.290127476319235" lon="8.886085752955394"><ele>99.0</ele><time>2026-05-03T08:26:37Z</time></trkpt><trkpt lat="45.2901905471764" lon="8.886037615045598"><ele>99.0</ele><time>2026-05-03T08:26:38Z</time></trkpt><trkpt lat="45.2902495210327" lon="8.885984995889812"><ele>99.0</ele><time>2026-05-03T08:26:39Z</time></trkpt><trkpt lat="45.29032688415535" lon="8.885906560913595"><ele>99.0</ele><time>2026-05-03T08:26:41Z</time></trkpt><trkpt lat="45.290353901451375" lon="8.8857378548427"><ele>99.0</ele><time>2026-05-03T08:26:44Z</time></trkpt><trkpt lat="45.29031734355349" lon="8.885650755543308"><ele>99.0</ele><time>2026-05-03T08:26:45Z</time></trkpt><trkpt lat="45.29027628017253" lon="8.885555831712816"><ele>99.0</ele><time>2026-05-03T08:26:46Z</time></trkpt><trkpt lat="45.29022584816125" lon="8.885445687614673"><ele>99.4</ele><time>2026-05-03T08:26:47Z</time></trkpt><trkpt lat="45.290174680771855" lon="8.885332581805883"><ele>99.80000000000001</ele><time>2026-05-03T08:26:48Z</time></trkpt><trkpt lat="45.2901271912199" lon="8.885223664819208"><ele>100.19999999999999</ele><time>2026-05-03T08:26:49Z</time></trkpt><trkpt lat="45.29007842575991" lon="8.885107721681068"><ele>100.6</ele><time>2026-05-03T08:26:50Z</time></trkpt><trkpt lat="45.29002956707415" lon="8.884990975227536"><ele>101.0</ele><time>2026-05-03T08:26:51Z</time></trkpt><trkpt lat="45.289979776121555" lon="8.884871610938015"><ele>100.99999999999999</ele><time>2026-05-03T08:26:52Z</time></trkpt><trkpt lat="45.2899333155413" lon="8.884758456852733"><ele>101.0</ele><time>2026-05-03T08:26:53Z</time></trkpt><trkpt lat="45.28989286146341" lon="8.884659931362181"><ele>101.0</ele><time>2026-05-03T08:26:54Z</time></trkpt><trkpt lat="45.28985899900377" lon="8.884577460217143"><ele>101.0</ele><time>2026-05-03T08:26:55Z</time></trkpt><trkpt lat="45.28982720204796" lon="8.884500019054599"><ele>100.99999999999999</ele><time>2026-05-03T08:26:56Z</time></trkpt><trkpt lat="45.289793458424114" lon="8.88441783715783"><ele>101.0</ele><time>2026-05-03T08:26:58Z</time></trkpt><trkpt lat="45.289743718234675" lon="8.8843221780058"><ele>100.8</ele><time>2026-05-03T08:27:25Z</time></trkpt><trkpt lat="45.289626929736784" lon="8.884424441538549"><ele>100.6</ele><time>2026-05-03T08:27:26Z</time></trkpt><trkpt lat="45.28953024075376" lon="8.884523980144456"><ele>100.4</ele><time>2026-05-03T08:27:28Z</time></trkpt><trkpt lat="45.28947316274407" lon="8.884575492099904"><ele>100.2</ele><time>2026-05-03T08:27:29Z</time></trkpt><trkpt lat="45.28941373464713" lon="8.884625048633172"><ele>100.0</ele><time>2026-05-03T08:27:30Z</time></trkpt><trkpt lat="45.28933159401985" lon="8.884643394955813"><ele>100.00000000000001</ele><time>2026-05-03T08:27:32Z</time></trkpt><trkpt lat="45.28929665498108" lon="8.884490223760231"><ele>100.0</ele><time>2026-05-03T08:27:36Z</time></trkpt><trkpt lat="45.28928150978679" lon="8.88440021306185"><ele>100.0</ele><time>2026-05-03T08:27:39Z</time></trkpt><trkpt lat="45.28925357650386" lon="8.884237882002624"><ele>100.0</ele><time>2026-05-03T08:27:41Z</time></trkpt><trkpt lat="45.28923678728667" lon="8.884146603549016"><ele>100.00000000000001</ele><time>2026-05-03T08:27:42Z</time></trkpt><trkpt lat="45.28921669262882" lon="8.884040470821608"><ele>100.0</ele><time>2026-05-03T08:27:42.999Z</time></trkpt><trkpt lat="45.28919587674798" lon="8.883930528555801"><ele>99.83333333333334</ele><time>2026-05-03T08:27:43.999Z</time></trkpt><trkpt lat="45.289176949445114" lon="8.88383056120871"><ele>99.66666666666667</ele><time>2026-05-03T08:27:44.999Z</time></trkpt><trkpt lat="45.28915624861143" lon="8.88372122664466"><ele>99.5</ele><time>2026-05-03T08:27:45.999Z</time></trkpt><trkpt lat="45.289133632130614" lon="8.883601774460042"><ele>99.33333333333334</ele><time>2026-05-03T08:27:46.999Z</time></trkpt><trkpt lat="45.28910839879883" lon="8.883468500986375"><ele>99.16666666666667</ele><time>2026-05-03T08:27:47.999Z</time></trkpt><trkpt lat="45.28908210098392" lon="8.883329605232175"><ele>99.0</ele><time>2026-05-03T08:27:48.999Z</time></trkpt><trkpt lat="45.289055718787424" lon="8.883190263590787"><ele>98.80000000000001</ele><time>2026-05-03T08:27:49.999Z</time></trkpt><trkpt lat="45.289032202025275" lon="8.883066056623237"><ele>98.60000000000001</ele><time>2026-05-03T08:27:50.999Z</time></trkpt><trkpt lat="45.28901271365548" lon="8.882963820340814"><ele>98.4</ele><time>2026-05-03T08:27:51.999Z</time></trkpt><trkpt lat="45.288981768875715" lon="8.882803344643582"><ele>98.2</ele><time>2026-05-03T08:27:53.999Z</time></trkpt><trkpt lat="45.28895113346354" lon="8.882644473370041"><ele>98.0</ele><time>2026-05-03T08:27:55.999Z</time></trkpt><trkpt lat="45.288941101237626" lon="8.882552168746594"><ele>97.99999999999999</ele><time>2026-05-03T08:27:59.999Z</time></trkpt><trkpt lat="45.28896172799868" lon="8.882703720795254"><ele>98.0</ele><time>2026-05-03T08:28:07Z</time></trkpt><trkpt lat="45.28896222953764" lon="8.8827947399635"><ele>98.0</ele><time>2026-05-03T08:28:08Z</time></trkpt><trkpt lat="45.28897651450838" lon="8.882886895842327"><ele>98.0</ele><time>2026-05-03T08:28:09Z</time></trkpt><trkpt lat="45.288994134166536" lon="8.882993546802279"><ele>97.99999999999999</ele><time>2026-05-03T08:28:10Z</time></trkpt><trkpt lat="45.28901200786145" lon="8.883096721901012"><ele>98.0</ele><time>2026-05-03T08:28:11Z</time></trkpt><trkpt lat="45.289029891833756" lon="8.883191921596383"><ele>97.99999999999999</ele><time>2026-05-03T08:28:12Z</time></trkpt><trkpt lat="45.289050087694434" lon="8.883292385799953"><ele>98.0</ele><time>2026-05-03T08:28:13Z</time></trkpt><trkpt lat="45.28907043256815" lon="8.883398313744351"><ele>98.0</ele><time>2026-05-03T08:28:14Z</time></trkpt><trkpt lat="45.289090814977854" lon="8.883515988599415"><ele>98.0</ele><time>2026-05-03T08:28:15Z</time></trkpt><trkpt lat="45.28911087125786" lon="8.883637075013747"><ele>97.99999999999999</ele><time>2026-05-03T08:28:16Z</time></trkpt><trkpt lat="45.28913242474301" lon="8.88375925588036"><ele>98.0</ele><time>2026-05-03T08:28:17Z</time></trkpt><trkpt lat="45.28915328028886" lon="8.883875220743407"><ele>98.2</ele><time>2026-05-03T08:28:18Z</time></trkpt><trkpt lat="45.289172660808255" lon="8.883975675058128"><ele>98.4</ele><time>2026-05-03T08:28:19Z</time></trkpt><trkpt lat="45.28919046879411" lon="8.884070428510457"><ele>98.60000000000001</ele><time>2026-05-03T08:28:20Z</time></trkpt><trkpt lat="45.28922174652799" lon="8.884252024380427"><ele>98.80000000000001</ele><time>2026-05-03T08:28:22Z</time></trkpt><trkpt lat="45.28925818415355" lon="8.884394923422745"><ele>99.0</ele><time>2026-05-03T08:28:24Z</time></trkpt><trkpt lat="45.28927560391664" lon="8.884529317600414"><ele>99.16666666666667</ele><time>2026-05-03T08:28:26Z</time></trkpt><trkpt lat="45.289283339468966" lon="8.884628726539413"><ele>99.33333333333334</ele><time>2026-05-03T08:28:29Z</time></trkpt><trkpt lat="45.289319295695705" lon="8.884706598103488"><ele>99.5</ele><time>2026-05-03T08:28:34Z</time></trkpt><trkpt lat="45.28947319093673" lon="8.884657315065873"><ele>99.66666666666667</ele><time>2026-05-03T08:28:37Z</time></trkpt><trkpt lat="45.28953629935033" lon="8.884599356712663"><ele>99.83333333333334</ele><time>2026-05-03T08:28:38Z</time></trkpt><trkpt lat="45.28959923896816" lon="8.884542560946201"><ele>100.0</ele><time>2026-05-03T08:28:39Z</time></trkpt><trkpt lat="45.28967272648769" lon="8.884485275446215"><ele>100.00000000000001</ele><time>2026-05-03T08:28:40Z</time></trkpt><trkpt lat="45.28973498761169" lon="8.884435201348237"><ele>100.0</ele><time>2026-05-03T08:28:41Z</time></trkpt><trkpt lat="45.28978977882063" lon="8.88451995393775"><ele>100.0</ele><time>2026-05-03T08:28:44Z</time></trkpt><trkpt lat="45.28984420674798" lon="8.884680450177552"><ele>100.0</ele><time>2026-05-03T08:28:46Z</time></trkpt><trkpt lat="45.28988284401276" lon="8.884777115821377"><ele>100.00000000000001</ele><time>2026-05-03T08:28:47Z</time></trkpt><trkpt lat="45.28992421310609" lon="8.88486849959637"><ele>100.0</ele><time>2026-05-03T08:28:48Z</time></trkpt><trkpt lat="45.28996821873689" lon="8.884965687350983"><ele>100.2</ele><time>2026-05-03T08:28:49Z</time></trkpt><trkpt lat="45.29000944734903" lon="8.88506587880732"><ele>100.4</ele><time>2026-05-03T08:28:50Z</time></trkpt><trkpt lat="45.29005801438373" lon="8.885179399903937"><ele>100.6</ele><time>2026-05-03T08:28:51Z</time></trkpt><trkpt lat="45.29010828712085" lon="8.88528915658105"><ele>100.8</ele><time>2026-05-03T08:28:52Z</time></trkpt><trkpt lat="45.290155903178174" lon="8.885404060938434"><ele>101.0</ele><time>2026-05-03T08:28:53Z</time></trkpt><trkpt lat="45.29020315807102" lon="8.885513018934168"><ele>100.99999999999999</ele><time>2026-05-03T08:28:54Z</time></trkpt><trkpt lat="45.290241844345516" lon="8.885607059432674"><ele>101.0</ele><time>2026-05-03T08:28:55Z</time></trkpt><trkpt lat="45.29028154446379" lon="8.885692822222808"><ele>101.0</ele><time>2026-05-03T08:28:56Z</time></trkpt><trkpt lat="45.29033598013079" lon="8.88582582833029"><ele>101.0</ele><time>2026-05-03T08:28:58Z</time></trkpt><trkpt lat="45.2902545314407" lon="8.885944898320274"><ele>100.99999999999999</ele><time>2026-05-03T08:29:01Z</time></trkpt><trkpt lat="45.29019429839214" lon="8.885995721427836"><ele>101.0</ele><time>2026-05-03T08:29:02Z</time></trkpt><trkpt lat="45.290120681460124" lon="8.886053986929243"><ele>100.6</ele><time>2026-05-03T08:29:03Z</time></trkpt><trkpt lat="45.290040860539605" lon="8.886115821247666"><ele>100.19999999999999</ele><time>2026-05-03T08:29:04Z</time></trkpt><trkpt lat="45.289974938611316" lon="8.886159634305635"><ele>99.80000000000001</ele><time>2026-05-03T08:29:05Z</time></trkpt><trkpt lat="45.289897677483985" lon="8.886258700062125"><ele>99.4</ele><time>2026-05-03T08:29:07Z</time></trkpt><trkpt lat="45.28991791269859" lon="8.886472216006567"><ele>99.0</ele><time>2026-05-03T08:29:09Z</time></trkpt><trkpt lat="45.2899441222544" lon="8.88659702070632"><ele>98.4</ele><time>2026-05-03T08:29:10Z</time></trkpt><trkpt lat="45.289956630578" lon="8.88680516005921"><ele>97.80000000000001</ele><time>2026-05-03T08:29:12Z</time></trkpt><trkpt lat="45.28999516174293" lon="8.886921267925956"><ele>97.19999999999999</ele><time>2026-05-03T08:29:13Z</time></trkpt><trkpt lat="45.29002573242952" lon="8.887043723413546"><ele>96.6</ele><time>2026-05-03T08:29:14Z</time></trkpt><trkpt lat="45.29005306582865" lon="8.887173402892296"><ele>96.0</ele><time>2026-05-03T08:29:15Z</time></trkpt><trkpt lat="45.29007725410262" lon="8.887295032608655"><ele>96.0</ele><time>2026-05-03T08:29:16Z</time></trkpt><trkpt lat="45.29010771717071" lon="8.887396752010503"><ele>96.0</ele><time>2026-05-03T08:29:17Z</time></trkpt><trkpt lat="45.29012910083309" lon="8.887484303178615"><ele>96.0</ele><time>2026-05-03T08:29:18Z</time></trkpt><trkpt lat="45.29016036447302" lon="8.887573395723312"><ele>96.0</ele><time>2026-05-03T08:29:19Z</time></trkpt><trkpt lat="45.29019725361251" lon="8.88772877433922"><ele>96.0</ele><time>2026-05-03T08:29:21Z</time></trkpt><trkpt lat="45.29022909187518" lon="8.88787069230559"><ele>96.0</ele><time>2026-05-03T08:29:23Z</time></trkpt><trkpt lat="45.29025497363642" lon="8.887966780648535"><ele>96.0</ele><time>2026-05-03T08:29:24Z</time></trkpt><trkpt lat="45.29028730531865" lon="8.88807296576903"><ele>96.0</ele><time>2026-05-03T08:29:25Z</time></trkpt><trkpt lat="45.29031877374958" lon="8.888188863091658"><ele>96.0</ele><time>2026-05-03T08:29:26Z</time></trkpt><trkpt lat="45.29035649623447" lon="8.888320210996257"><ele>96.0</ele><time>2026-05-03T08:29:27Z</time></trkpt><trkpt lat="45.29039252590964" lon="8.888449980012213"><ele>96.0</ele><time>2026-05-03T08:29:28Z</time></trkpt><trkpt lat="45.29043059828159" lon="8.888586999045584"><ele>96.0</ele><time>2026-05-03T08:29:29Z</time></trkpt><trkpt lat="45.290471440919305" lon="8.88871898080771"><ele>96.0</ele><time>2026-05-03T08:29:30Z</time></trkpt><trkpt lat="45.29050762819487" lon="8.888837049604053"><ele>96.0</ele><time>2026-05-03T08:29:31Z</time></trkpt><trkpt lat="45.29054292252936" lon="8.888960958360462"><ele>96.0</ele><time>2026-05-03T08:29:32Z</time></trkpt><trkpt lat="45.290576808573114" lon="8.889090869025974"><ele>96.0</ele><time>2026-05-03T08:29:33Z</time></trkpt><trkpt lat="45.29061455190612" lon="8.889219682669742"><ele>96.0</ele><time>2026-05-03T08:29:34Z</time></trkpt><trkpt lat="45.2906518162415" lon="8.88935815719345"><ele>96.0</ele><time>2026-05-03T08:29:35Z</time></trkpt><trkpt lat="45.29069163316485" lon="8.889504637787745"><ele>96.0</ele><time>2026-05-03T08:29:36Z</time></trkpt><trkpt lat="45.29073382359732" lon="8.889658755793185"><ele>96.0</ele><time>2026-05-03T08:29:37Z</time></trkpt><trkpt lat="45.290776417852896" lon="8.889814527262763"><ele>96.0</ele><time>2026-05-03T08:29:38Z</time></trkpt><trkpt lat="45.290810593474546" lon="8.88994310319313"><ele>96.0</ele><time>2026-05-03T08:29:39Z</time></trkpt><trkpt lat="45.29084222908678" lon="8.890051598390672"><ele>96.0</ele><time>2026-05-03T08:29:40Z</time></trkpt><trkpt lat="45.290868675187056" lon="8.890143907467621"><ele>96.0</ele><time>2026-05-03T08:29:41Z</time></trkpt><trkpt lat="45.29089535103797" lon="8.890253088473939"><ele>96.0</ele><time>2026-05-03T08:29:42Z</time></trkpt><trkpt lat="45.290922933952" lon="8.890368138784636"><ele>96.0</ele><time>2026-05-03T08:29:43Z</time></trkpt><trkpt lat="45.2909524961235" lon="8.89048107495956"><ele>96.0</ele><time>2026-05-03T08:29:44Z</time></trkpt><trkpt lat="45.29098556672662" lon="8.890598392209123"><ele>95.6</ele><time>2026-05-03T08:29:45Z</time></trkpt><trkpt lat="45.29101059771175" lon="8.890716448556578"><ele>95.19999999999999</ele><time>2026-05-03T08:29:46Z</time></trkpt><trkpt lat="45.29104305646103" lon="8.890847011607548"><ele>94.80000000000001</ele><time>2026-05-03T08:29:47Z</time></trkpt><trkpt lat="45.291080683996924" lon="8.890971985686978"><ele>94.4</ele><time>2026-05-03T08:29:48Z</time></trkpt><trkpt lat="45.29111783652635" lon="8.891102349499286"><ele>94.0</ele><time>2026-05-03T08:29:49Z</time></trkpt><trkpt lat="45.291152957531885" lon="8.891240070382826"><ele>93.80000000000001</ele><time>2026-05-03T08:29:50Z</time></trkpt><trkpt lat="45.29118309226265" lon="8.891384522129517"><ele>93.60000000000001</ele><time>2026-05-03T08:29:51Z</time></trkpt><trkpt lat="45.29122113831911" lon="8.891531318180537"><ele>93.4</ele><time>2026-05-03T08:29:52Z</time></trkpt><trkpt lat="45.29125695622363" lon="8.891673864483854"><ele>93.2</ele><time>2026-05-03T08:29:53Z</time></trkpt><trkpt lat="45.29129872767488" lon="8.891829534394084"><ele>93.0</ele><time>2026-05-03T08:29:54Z</time></trkpt><trkpt lat="45.29133260678901" lon="8.89196514732604"><ele>93.2</ele><time>2026-05-03T08:29:55Z</time></trkpt><trkpt lat="45.29136680774859" lon="8.892102304807619"><ele>93.4</ele><time>2026-05-03T08:29:56Z</time></trkpt><trkpt lat="45.29140009187559" lon="8.892246900457135"><ele>93.60000000000001</ele><time>2026-05-03T08:29:57Z</time></trkpt><trkpt lat="45.291434931211775" lon="8.892379653854244"><ele>93.80000000000001</ele><time>2026-05-03T08:29:58Z</time></trkpt><trkpt lat="45.29147189421016" lon="8.892525155029459"><ele>94.0</ele><time>2026-05-03T08:29:59Z</time></trkpt><trkpt lat="45.29150826397005" lon="8.892667849297524"><ele>94.0</ele><time>2026-05-03T08:30:00Z</time></trkpt><trkpt lat="45.29154930788114" lon="8.892812062936379"><ele>94.0</ele><time>2026-05-03T08:30:01Z</time></trkpt><trkpt lat="45.29159779147445" lon="8.892942448133939"><ele>94.0</ele><time>2026-05-03T08:30:02Z</time></trkpt><trkpt lat="45.29166402693147" lon="8.893050791356012"><ele>94.0</ele><time>2026-05-03T08:30:03Z</time></trkpt><trkpt lat="45.291752033674896" lon="8.893151243154168"><ele>94.0</ele><time>2026-05-03T08:30:04Z</time></trkpt><trkpt lat="45.29184757690203" lon="8.893251163610904"><ele>94.0</ele><time>2026-05-03T08:30:05Z</time></trkpt><trkpt lat="45.29194891220445" lon="8.893353867256767"><ele>94.0</ele><time>2026-05-03T08:30:06Z</time></trkpt><trkpt lat="45.29203209131815" lon="8.8934409854109"><ele>94.0</ele><time>2026-05-03T08:30:07Z</time></trkpt><trkpt lat="45.29210928088812" lon="8.893525375501001"><ele>94.0</ele><time>2026-05-03T08:30:08Z</time></trkpt><trkpt lat="45.29218737629168" lon="8.893605097500465"><ele>94.0</ele><time>2026-05-03T08:30:09Z</time></trkpt><trkpt lat="45.29227119225165" lon="8.893681968724003"><ele>94.0</ele><time>2026-05-03T08:30:10Z</time></trkpt><trkpt lat="45.2923525588367" lon="8.893769083471195"><ele>94.0</ele><time>2026-05-03T08:30:11Z</time></trkpt><trkpt lat="45.29243301796825" lon="8.893847365057896"><ele>94.0</ele><time>2026-05-03T08:30:11.999Z</time></trkpt><trkpt lat="45.292509337760556" lon="8.893934514464027"><ele>94.0</ele><time>2026-05-03T08:30:13Z</time></trkpt><trkpt lat="45.2925880880698" lon="8.894012028462186"><ele>94.0</ele><time>2026-05-03T08:30:14Z</time></trkpt><trkpt lat="45.29266161045567" lon="8.894097080351075"><ele>94.0</ele><time>2026-05-03T08:30:15Z</time></trkpt><trkpt lat="45.292731004436085" lon="8.894168343116405"><ele>94.0</ele><time>2026-05-03T08:30:16Z</time></trkpt><trkpt lat="45.29279119007058" lon="8.894250903538769"><ele>94.0</ele><time>2026-05-03T08:30:17Z</time></trkpt><trkpt lat="45.292842982281144" lon="8.894339532771818"><ele>94.0</ele><time>2026-05-03T08:30:18Z</time></trkpt><trkpt lat="45.29289478151814" lon="8.894457002472247"><ele>94.0</ele><time>2026-05-03T08:30:19Z</time></trkpt><trkpt lat="45.29294077233309" lon="8.894588199474287"><ele>94.0</ele><time>2026-05-03T08:30:20Z</time></trkpt><trkpt lat="45.29298182097707" lon="8.894731663575104"><ele>94.0</ele><time>2026-05-03T08:30:21Z</time></trkpt><trkpt lat="45.29301994041406" lon="8.894887794786118"><ele>94.0</ele><time>2026-05-03T08:30:22Z</time></trkpt><trkpt lat="45.29306151888623" lon="8.8950473399689"><ele>94.0</ele><time>2026-05-03T08:30:23Z</time></trkpt><trkpt lat="45.29310473244718" lon="8.895194911479525"><ele>93.80000000000001</ele><time>2026-05-03T08:30:24Z</time></trkpt><trkpt lat="45.29315087941634" lon="8.895330449286332"><ele>93.60000000000001</ele><time>2026-05-03T08:30:25Z</time></trkpt><trkpt lat="45.293191945775135" lon="8.895468989510364"><ele>93.4</ele><time>2026-05-03T08:30:26Z</time></trkpt><trkpt lat="45.29323835728651" lon="8.895618946861564"><ele>93.2</ele><time>2026-05-03T08:30:27Z</time></trkpt><trkpt lat="45.293289160275485" lon="8.895770330574221"><ele>93.0</ele><time>2026-05-03T08:30:28Z</time></trkpt><trkpt lat="45.29333951011879" lon="8.895929343634643"><ele>92.75</ele><time>2026-05-03T08:30:29Z</time></trkpt><trkpt lat="45.29339363789597" lon="8.896091721803922"><ele>92.5</ele><time>2026-05-03T08:30:30Z</time></trkpt><trkpt lat="45.29345000196936" lon="8.896251588903668"><ele>92.25</ele><time>2026-05-03T08:30:31Z</time></trkpt><trkpt lat="45.29350034666987" lon="8.896399353778277"><ele>92.0</ele><time>2026-05-03T08:30:32Z</time></trkpt><trkpt lat="45.29354595378907" lon="8.896544730557872"><ele>92.0</ele><time>2026-05-03T08:30:33Z</time></trkpt><trkpt lat="45.29359453375852" lon="8.896693762383222"><ele>92.0</ele><time>2026-05-03T08:30:34Z</time></trkpt><trkpt lat="45.29365068186132" lon="8.896844656498628"><ele>92.0</ele><time>2026-05-03T08:30:35Z</time></trkpt><trkpt lat="45.29371278433158" lon="8.89699892584848"><ele>92.0</ele><time>2026-05-03T08:30:36Z</time></trkpt><trkpt lat="45.29377897973009" lon="8.89715340637688"><ele>92.0</ele><time>2026-05-03T08:30:37Z</time></trkpt><trkpt lat="45.29384102016454" lon="8.897307324136722"><ele>92.0</ele><time>2026-05-03T08:30:38Z</time></trkpt><trkpt lat="45.29390344278214" lon="8.897462409457008"><ele>92.0</ele><time>2026-05-03T08:30:39Z</time></trkpt><trkpt lat="45.29396178871679" lon="8.897614651228112"><ele>92.0</ele><time>2026-05-03T08:30:40Z</time></trkpt><trkpt lat="45.294006322053214" lon="8.897753604901538"><ele>91.19999999999999</ele><time>2026-05-03T08:30:41Z</time></trkpt><trkpt lat="45.29404495754583" lon="8.897884659554663"><ele>90.4</ele><time>2026-05-03T08:30:42Z</time></trkpt><trkpt lat="45.294083126494456" lon="8.898009235990715"><ele>89.6</ele><time>2026-05-03T08:30:43Z</time></trkpt><trkpt lat="45.294119012669434" lon="8.89812438714321"><ele>88.80000000000001</ele><time>2026-05-03T08:30:44Z</time></trkpt><trkpt lat="45.29415197212419" lon="8.898224524645256"><ele>88.0</ele><time>2026-05-03T08:30:45Z</time></trkpt><trkpt lat="45.29418441947119" lon="8.89834849763148"><ele>88.2</ele><time>2026-05-03T08:30:46Z</time></trkpt><trkpt lat="45.29421589045143" lon="8.898487315661692"><ele>88.4</ele><time>2026-05-03T08:30:47Z</time></trkpt><trkpt lat="45.294247123780664" lon="8.898635139717078"><ele>88.60000000000001</ele><time>2026-05-03T08:30:48Z</time></trkpt><trkpt lat="45.29426559874028" lon="8.89879202402687"><ele>88.80000000000001</ele><time>2026-05-03T08:30:49Z</time></trkpt><trkpt lat="45.29429423022088" lon="8.898936548707917"><ele>89.0</ele><time>2026-05-03T08:30:50Z</time></trkpt><trkpt lat="45.29430297293866" lon="8.899086508139458"><ele>89.0</ele><time>2026-05-03T08:30:51Z</time></trkpt><trkpt lat="45.29431984601561" lon="8.899226232752662"><ele>89.0</ele><time>2026-05-03T08:30:52Z</time></trkpt><trkpt lat="45.29434120740555" lon="8.899376633059052"><ele>89.0</ele><time>2026-05-03T08:30:53Z</time></trkpt><trkpt lat="45.294366542543145" lon="8.899533116042383"><ele>89.0</ele><time>2026-05-03T08:30:54Z</time></trkpt><trkpt lat="45.29439538968045" lon="8.899696132833565"><ele>89.0</ele><time>2026-05-03T08:30:55Z</time></trkpt><trkpt lat="45.29441830407974" lon="8.89986390608845"><ele>88.75</ele><time>2026-05-03T08:30:56Z</time></trkpt><trkpt lat="45.29443753340719" lon="8.900034415861759"><ele>88.5</ele><time>2026-05-03T08:30:57Z</time></trkpt><trkpt lat="45.29446252636241" lon="8.900208112285904"><ele>88.25</ele><time>2026-05-03T08:30:58Z</time></trkpt><trkpt lat="45.29449291630197" lon="8.90037698538564"><ele>88.0</ele><time>2026-05-03T08:30:59Z</time></trkpt><trkpt lat="45.29453056369203" lon="8.900534464193898"><ele>87.5</ele><time>2026-05-03T08:31:00Z</time></trkpt><trkpt lat="45.29458000802093" lon="8.900685866743975"><ele>87.0</ele><time>2026-05-03T08:31:01Z</time></trkpt><trkpt lat="45.29463631137795" lon="8.900824953959257"><ele>86.5</ele><time>2026-05-03T08:31:02Z</time></trkpt><trkpt lat="45.29469202995877" lon="8.900965771035844"><ele>86.0</ele><time>2026-05-03T08:31:03Z</time></trkpt><trkpt lat="45.294752098099636" lon="8.901094363495151"><ele>86.0</ele><time>2026-05-03T08:31:04Z</time></trkpt><trkpt lat="45.29482719571299" lon="8.901243253428365"><ele>86.0</ele><time>2026-05-03T08:31:05Z</time></trkpt><trkpt lat="45.294868992375406" lon="8.901369430057617"><ele>86.0</ele><time>2026-05-03T08:31:06Z</time></trkpt><trkpt lat="45.294918758931274" lon="8.901514879450852"><ele>86.0</ele><time>2026-05-03T08:31:07Z</time></trkpt><trkpt lat="45.294980395693685" lon="8.901643784813096"><ele>85.75</ele><time>2026-05-03T08:31:08Z</time></trkpt><trkpt lat="45.29504439638745" lon="8.901777808351216"><ele>85.5</ele><time>2026-05-03T08:31:09Z</time></trkpt><trkpt lat="45.29510371776207" lon="8.901917656861167"><ele>85.25</ele><time>2026-05-03T08:31:10Z</time></trkpt><trkpt lat="45.29515720921" lon="8.902064682172554"><ele>85.0</ele><time>2026-05-03T08:31:11Z</time></trkpt><trkpt lat="45.295212718513405" lon="8.902214418908857"><ele>85.0</ele><time>2026-05-03T08:31:12Z</time></trkpt><trkpt lat="45.295276042602154" lon="8.902355690953591"><ele>85.0</ele><time>2026-05-03T08:31:13Z</time></trkpt><trkpt lat="45.29533813279061" lon="8.902498192359166"><ele>85.0</ele><time>2026-05-03T08:31:14Z</time></trkpt><trkpt lat="45.29540387524214" lon="8.902641325630288"><ele>85.0</ele><time>2026-05-03T08:31:15Z</time></trkpt><trkpt lat="45.29546436038058" lon="8.90278013946416"><ele>85.0</ele><time>2026-05-03T08:31:16Z</time></trkpt><trkpt lat="45.29552191450569" lon="8.90291775413215"><ele>85.0</ele><time>2026-05-03T08:31:17Z</time></trkpt><trkpt lat="45.29558032688332" lon="8.903054725275313"><ele>85.0</ele><time>2026-05-03T08:31:18Z</time></trkpt><trkpt lat="45.295639051373456" lon="8.903185431984756"><ele>85.0</ele><time>2026-05-03T08:31:19Z</time></trkpt><trkpt lat="45.29569868298796" lon="8.903313436011183"><ele>85.0</ele><time>2026-05-03T08:31:20Z</time></trkpt><trkpt lat="45.29575207942603" lon="8.903448517131897"><ele>85.0</ele><time>2026-05-03T08:31:21Z</time></trkpt><trkpt lat="45.2957926557199" lon="8.90358335682719"><ele>85.0</ele><time>2026-05-03T08:31:22Z</time></trkpt><trkpt lat="45.29581664679075" lon="8.903727464623957"><ele>85.0</ele><time>2026-05-03T08:31:23Z</time></trkpt><trkpt lat="45.29583794194106" lon="8.9038907130369"><ele>85.0</ele><time>2026-05-03T08:31:24Z</time></trkpt><trkpt lat="45.29585066178765" lon="8.904048585679758"><ele>85.0</ele><time>2026-05-03T08:31:25Z</time></trkpt><trkpt lat="45.295876116323385" lon="8.904188780671804"><ele>84.5</ele><time>2026-05-03T08:31:26Z</time></trkpt><trkpt lat="45.29589429165109" lon="8.90434387461779"><ele>84.0</ele><time>2026-05-03T08:31:27Z</time></trkpt><trkpt lat="45.295922994424714" lon="8.904499075815217"><ele>83.5</ele><time>2026-05-03T08:31:28Z</time></trkpt><trkpt lat="45.2959466009749" lon="8.90466134130468"><ele>83.0</ele><time>2026-05-03T08:31:29Z</time></trkpt><trkpt lat="45.29597180685902" lon="8.904813973003996"><ele>83.0</ele><time>2026-05-03T08:31:30Z</time></trkpt><trkpt lat="45.29599364114993" lon="8.904960717194282"><ele>83.0</ele><time>2026-05-03T08:31:31Z</time></trkpt><trkpt lat="45.296018748769846" lon="8.905105408517782"><ele>83.0</ele><time>2026-05-03T08:31:32Z</time></trkpt><trkpt lat="45.296041306723225" lon="8.905255505589235"><ele>83.0</ele><time>2026-05-03T08:31:33Z</time></trkpt><trkpt lat="45.29606156267808" lon="8.905402464301488"><ele>83.0</ele><time>2026-05-03T08:31:34Z</time></trkpt><trkpt lat="45.296087602986816" lon="8.905554469052186"><ele>82.66666666666667</ele><time>2026-05-03T08:31:35Z</time></trkpt><trkpt lat="45.29611103653779" lon="8.905698661103933"><ele>82.33333333333334</ele><time>2026-05-03T08:31:36Z</time></trkpt><trkpt lat="45.29613136717115" lon="8.90583279102686"><ele>82.0</ele><time>2026-05-03T08:31:37Z</time></trkpt><trkpt lat="45.29614712664659" lon="8.905960178500317"><ele>81.66666666666667</ele><time>2026-05-03T08:31:38Z</time></trkpt><trkpt lat="45.29615372230166" lon="8.90607409552027"><ele>81.33333333333333</ele><time>2026-05-03T08:31:39Z</time></trkpt><trkpt lat="45.296139251466975" lon="8.906176219230304"><ele>81.0</ele><time>2026-05-03T08:31:40Z</time></trkpt><trkpt lat="45.296073248866726" lon="8.906251932203569"><ele>81.0</ele><time>2026-05-03T08:31:41Z</time></trkpt><trkpt lat="45.29598180796359" lon="8.906304565975704"><ele>81.0</ele><time>2026-05-03T08:31:42Z</time></trkpt><trkpt lat="45.29589055872239" lon="8.906418768110653"><ele>81.0</ele><time>2026-05-03T08:31:43Z</time></trkpt><trkpt lat="45.29579102284285" lon="8.906502759129253"><ele>81.0</ele><time>2026-05-03T08:31:44Z</time></trkpt><trkpt lat="45.29568409078618" lon="8.906601229909672"><ele>81.0</ele><time>2026-05-03T08:31:45Z</time></trkpt><trkpt lat="45.29558570633068" lon="8.906697082736628"><ele>81.0</ele><time>2026-05-03T08:31:46Z</time></trkpt><trkpt lat="45.29549781091846" lon="8.906777956579806"><ele>81.0</ele><time>2026-05-03T08:31:47Z</time></trkpt><trkpt lat="45.295410013644975" lon="8.90682805241001"><ele>81.0</ele><time>2026-05-03T08:31:48Z</time></trkpt><trkpt lat="45.29534071449352" lon="8.906899735321083"><ele>81.0</ele><time>2026-05-03T08:31:49Z</time></trkpt><trkpt lat="45.295268081257106" lon="8.906955167662176"><ele>81.0</ele><time>2026-05-03T08:31:50Z</time></trkpt><trkpt lat="45.295193385219925" lon="8.907015047043666"><ele>81.0</ele><time>2026-05-03T08:31:51Z</time></trkpt><trkpt lat="45.29515129928531" lon="8.907098205512217"><ele>81.0</ele><time>2026-05-03T08:31:52Z</time></trkpt><trkpt lat="45.29513383413542" lon="8.907194831125402"><ele>81.0</ele><time>2026-05-03T08:31:53Z</time></trkpt><trkpt lat="45.29516267509066" lon="8.907298420970973"><ele>81.0</ele><time>2026-05-03T08:31:53.999Z</time></trkpt><trkpt lat="45.295199809954376" lon="8.907402344629508"><ele>81.0</ele><time>2026-05-03T08:31:54.999Z</time></trkpt><trkpt lat="45.2952407684702" lon="8.907510571984133"><ele>80.83333333333333</ele><time>2026-05-03T08:31:55.999Z</time></trkpt><trkpt lat="45.29526601763392" lon="8.90762376451135"><ele>80.66666666666667</ele><time>2026-05-03T08:31:56.999Z</time></trkpt><trkpt lat="45.29528874637829" lon="8.907737789663877"><ele>80.5</ele><time>2026-05-03T08:31:57.999Z</time></trkpt><trkpt lat="45.29531006984058" lon="8.907855323691589"><ele>80.33333333333334</ele><time>2026-05-03T08:31:58.999Z</time></trkpt><trkpt lat="45.2953288313869" lon="8.907966333486293"><ele>80.16666666666667</ele><time>2026-05-03T08:31:59.999Z</time></trkpt><trkpt lat="45.295351962708125" lon="8.908076279999303"><ele>80.0</ele><time>2026-05-03T08:32:00.999Z</time></trkpt><trkpt lat="45.295373483793526" lon="8.908188457324973"><ele>80.0</ele><time>2026-05-03T08:32:01.999Z</time></trkpt><trkpt lat="45.29539605862504" lon="8.90829853342772"><ele>80.0</ele><time>2026-05-03T08:32:02.999Z</time></trkpt><trkpt lat="45.29541735645725" lon="8.90840890816953"><ele>80.0</ele><time>2026-05-03T08:32:03.999Z</time></trkpt><trkpt lat="45.295442812259274" lon="8.908515554209542"><ele>80.0</ele><time>2026-05-03T08:32:04.999Z</time></trkpt><trkpt lat="45.29546289728052" lon="8.908631010009731"><ele>80.0</ele><time>2026-05-03T08:32:05.999Z</time></trkpt><trkpt lat="45.29547969969768" lon="8.90874114717168"><ele>80.0</ele><time>2026-05-03T08:32:06.999Z</time></trkpt><trkpt lat="45.29549778651184" lon="8.908850995060245"><ele>80.0</ele><time>2026-05-03T08:32:07.999Z</time></trkpt><trkpt lat="45.295523722820654" lon="8.908966194099639"><ele>80.0</ele><time>2026-05-03T08:32:08.999Z</time></trkpt><trkpt lat="45.29554902710686" lon="8.909073963443522"><ele>80.0</ele><time>2026-05-03T08:32:09.999Z</time></trkpt><trkpt lat="45.295567613783575" lon="8.909173790240166"><ele>80.0</ele><time>2026-05-03T08:32:10.999Z</time></trkpt><trkpt lat="45.29559834261881" lon="8.90933771981504"><ele>80.0</ele><time>2026-05-03T08:32:12.999Z</time></trkpt><trkpt lat="45.29562528886401" lon="8.909424709937745"><ele>80.0</ele><time>2026-05-03T08:32:13.999Z</time></trkpt><trkpt lat="45.29564936762889" lon="8.909513441185805"><ele>80.0</ele><time>2026-05-03T08:32:14.999Z</time></trkpt><trkpt lat="45.295664707679684" lon="8.909603753214572"><ele>80.0</ele><time>2026-05-03T08:32:15.999Z</time></trkpt><trkpt lat="45.295691327141206" lon="8.909761152316419"><ele>80.0</ele><time>2026-05-03T08:32:17.999Z</time></trkpt><trkpt lat="45.2957234193859" lon="8.909906443972751"><ele>80.0</ele><time>2026-05-03T08:32:20Z</time></trkpt><trkpt lat="45.295763953388644" lon="8.910080503584323"><ele>80.0</ele><time>2026-05-03T08:32:22Z</time></trkpt><trkpt lat="45.29579067447656" lon="8.910190761732677"><ele>79.8</ele><time>2026-05-03T08:32:23Z</time></trkpt><trkpt lat="45.29581864071241" lon="8.910298492223587"><ele>79.6</ele><time>2026-05-03T08:32:24Z</time></trkpt><trkpt lat="45.29583817842178" lon="8.910389082693403"><ele>79.4</ele><time>2026-05-03T08:32:25Z</time></trkpt><trkpt lat="45.295840820559754" lon="8.91054743173124"><ele>79.2</ele><time>2026-05-03T08:32:27Z</time></trkpt><trkpt lat="45.295799484798174" lon="8.910697559789229"><ele>79.0</ele><time>2026-05-03T08:32:29Z</time></trkpt><trkpt lat="45.29574855698452" lon="8.910782589465112"><ele>79.0</ele><time>2026-05-03T08:32:30Z</time></trkpt><trkpt lat="45.29567307094276" lon="8.91087640061988"><ele>79.0</ele><time>2026-05-03T08:32:31Z</time></trkpt><trkpt lat="45.2955998816439" lon="8.910971600419032"><ele>79.0</ele><time>2026-05-03T08:32:32Z</time></trkpt><trkpt lat="45.29553581614735" lon="8.911066128633207"><ele>79.0</ele><time>2026-05-03T08:32:33Z</time></trkpt><trkpt lat="45.295480326500936" lon="8.911167274564166"><ele>79.0</ele><time>2026-05-03T08:32:34Z</time></trkpt><trkpt lat="45.295429986659094" lon="8.911278642893448"><ele>79.0</ele><time>2026-05-03T08:32:35Z</time></trkpt><trkpt lat="45.29538231934118" lon="8.91138746387047"><ele>79.0</ele><time>2026-05-03T08:32:36Z</time></trkpt><trkpt lat="45.2953382383916" lon="8.91148899001771"><ele>79.0</ele><time>2026-05-03T08:32:37Z</time></trkpt><trkpt lat="45.295289223248865" lon="8.911574755081494"><ele>79.0</ele><time>2026-05-03T08:32:38Z</time></trkpt><trkpt lat="45.29525145031896" lon="8.911659481714306"><ele>79.0</ele><time>2026-05-03T08:32:39Z</time></trkpt><trkpt lat="45.295205864654044" lon="8.911751717515894"><ele>79.0</ele><time>2026-05-03T08:32:40Z</time></trkpt><trkpt lat="45.29516082860309" lon="8.91183703618392"><ele>79.16666666666666</ele><time>2026-05-03T08:32:41Z</time></trkpt><trkpt lat="45.29510063220073" lon="8.91189994175063"><ele>79.33333333333333</ele><time>2026-05-03T08:32:42Z</time></trkpt><trkpt lat="45.29503834832246" lon="8.911975355282667"><ele>79.5</ele><time>2026-05-03T08:32:43Z</time></trkpt><trkpt lat="45.294978330975304" lon="8.912072855986047"><ele>79.66666666666667</ele><time>2026-05-03T08:32:44Z</time></trkpt><trkpt lat="45.29488715533173" lon="8.912118782934916"><ele>79.83333333333334</ele><time>2026-05-03T08:32:45Z</time></trkpt><trkpt lat="45.29479921793043" lon="8.91218347318284"><ele>80.0</ele><time>2026-05-03T08:32:46Z</time></trkpt><trkpt lat="45.294705903476796" lon="8.912240616882121"><ele>79.6</ele><time>2026-05-03T08:32:47Z</time></trkpt><trkpt lat="45.29460786548358" lon="8.912297343513183"><ele>79.2</ele><time>2026-05-03T08:32:48Z</time></trkpt><trkpt lat="45.2945072684592" lon="8.912348016144152"><ele>78.8</ele><time>2026-05-03T08:32:49Z</time></trkpt><trkpt lat="45.294408751822445" lon="8.912393346011338"><ele>78.4</ele><time>2026-05-03T08:32:50Z</time></trkpt><trkpt lat="45.29431758363894" lon="8.912455900036713"><ele>78.0</ele><time>2026-05-03T08:32:51Z</time></trkpt><trkpt lat="45.29422293568169" lon="8.912501973853143"><ele>78.0</ele><time>2026-05-03T08:32:52Z</time></trkpt><trkpt lat="45.29411196530845" lon="8.912554197443237"><ele>78.0</ele><time>2026-05-03T08:32:53Z</time></trkpt><trkpt lat="45.29402525623014" lon="8.912570399534692"><ele>78.0</ele><time>2026-05-03T08:32:54Z</time></trkpt><trkpt lat="45.29392781004126" lon="8.912607874747632"><ele>78.0</ele><time>2026-05-03T08:32:55Z</time></trkpt><trkpt lat="45.29383061162121" lon="8.912642614490997"><ele>78.0</ele><time>2026-05-03T08:32:56Z</time></trkpt><trkpt lat="45.29373314602082" lon="8.91267313720356"><ele>78.66666666666667</ele><time>2026-05-03T08:32:57Z</time></trkpt><trkpt lat="45.29363873188795" lon="8.912697585954126"><ele>79.33333333333333</ele><time>2026-05-03T08:32:58Z</time></trkpt><trkpt lat="45.29355238982674" lon="8.912707302368611"><ele>80.0</ele><time>2026-05-03T08:32:59Z</time></trkpt><trkpt lat="45.29346487843847" lon="8.91270280861612"><ele>80.66666666666666</ele><time>2026-05-03T08:33:00Z</time></trkpt><trkpt lat="45.29338039042727" lon="8.912697306328731"><ele>81.33333333333333</ele><time>2026-05-03T08:33:01Z</time></trkpt><trkpt lat="45.29329181896815" lon="8.912691290828667"><ele>82.0</ele><time>2026-05-03T08:33:02Z</time></trkpt><trkpt lat="45.29321424799204" lon="8.912706820626084"><ele>82.0</ele><time>2026-05-03T08:33:03Z</time></trkpt><trkpt lat="45.29314867646281" lon="8.912706859235788"><ele>82.0</ele><time>2026-05-03T08:33:04Z</time></trkpt><trkpt lat="45.293055588623666" lon="8.912748298131346"><ele>82.0</ele><time>2026-05-03T08:33:06Z</time></trkpt><trkpt lat="45.29303625386338" lon="8.912904348634484"><ele>82.0</ele><time>2026-05-03T08:33:08Z</time></trkpt><trkpt lat="45.29305211326939" lon="8.913024015235369"><ele>82.0</ele><time>2026-05-03T08:33:09Z</time></trkpt><trkpt lat="45.2930739696602" lon="8.913154502999411"><ele>82.0</ele><time>2026-05-03T08:33:10Z</time></trkpt><trkpt lat="45.29308866214508" lon="8.913286530174712"><ele>82.0</ele><time>2026-05-03T08:33:11Z</time></trkpt><trkpt lat="45.29311567612724" lon="8.913421359168568"><ele>82.0</ele><time>2026-05-03T08:33:12Z</time></trkpt><trkpt lat="45.29312752964061" lon="8.913567415582273"><ele>82.0</ele><time>2026-05-03T08:33:13Z</time></trkpt><trkpt lat="45.29313867081173" lon="8.913705443353829"><ele>82.0</ele><time>2026-05-03T08:33:14Z</time></trkpt><trkpt lat="45.293150996523224" lon="8.913834884255156"><ele>82.0</ele><time>2026-05-03T08:33:15Z</time></trkpt><trkpt lat="45.29316210906125" lon="8.913953243086068"><ele>82.0</ele><time>2026-05-03T08:33:16Z</time></trkpt><trkpt lat="45.29317811912093" lon="8.914080175299128"><ele>82.0</ele><time>2026-05-03T08:33:17Z</time></trkpt><trkpt lat="45.29318260029131" lon="8.914203509835916"><ele>82.0</ele><time>2026-05-03T08:33:18Z</time></trkpt><trkpt lat="45.29319786287286" lon="8.914329772460416"><ele>82.0</ele><time>2026-05-03T08:33:19Z</time></trkpt><trkpt lat="45.29319675944352" lon="8.914450623417297"><ele>82.0</ele><time>2026-05-03T08:33:20Z</time></trkpt><trkpt lat="45.29320656028941" lon="8.914554552385592"><ele>82.0</ele><time>2026-05-03T08:33:21Z</time></trkpt><trkpt lat="45.29323217293926" lon="8.914705257808716"><ele>82.0</ele><time>2026-05-03T08:33:23Z</time></trkpt><trkpt lat="45.293247133797976" lon="8.914823332577885"><ele>82.0</ele><time>2026-05-03T08:33:25Z</time></trkpt><trkpt lat="45.293232493770304" lon="8.914910895146159"><ele>82.0</ele><time>2026-05-03T08:33:35Z</time></trkpt><trkpt lat="45.29322603992789" lon="8.914792254762295"><ele>82.0</ele><time>2026-05-03T08:33:47Z</time></trkpt><trkpt lat="45.29321875325696" lon="8.914675834738961"><ele>82.0</ele><time>2026-05-03T08:33:49Z</time></trkpt><trkpt lat="45.29319536267532" lon="8.914518732439246"><ele>82.0</ele><time>2026-05-03T08:33:51Z</time></trkpt><trkpt lat="45.29318122528135" lon="8.914346041917792"><ele>82.0</ele><time>2026-05-03T08:33:53Z</time></trkpt><trkpt lat="45.29317415797281" lon="8.914254220806738"><ele>82.0</ele><time>2026-05-03T08:33:54Z</time></trkpt><trkpt lat="45.29316674188633" lon="8.914161951803049"><ele>82.0</ele><time>2026-05-03T08:33:55Z</time></trkpt><trkpt lat="45.293157929135425" lon="8.914067113207883"><ele>82.0</ele><time>2026-05-03T08:33:56Z</time></trkpt><trkpt lat="45.29314823464182" lon="8.91396582605077"><ele>82.0</ele><time>2026-05-03T08:33:57Z</time></trkpt><trkpt lat="45.293147828525754" lon="8.913868009158826"><ele>82.0</ele><time>2026-05-03T08:33:58Z</time></trkpt><trkpt lat="45.29313561065323" lon="8.913676133078722"><ele>82.0</ele><time>2026-05-03T08:33:59Z</time></trkpt><trkpt lat="45.29312515171943" lon="8.913563406450344"><ele>82.0</ele><time>2026-05-03T08:34:00Z</time></trkpt><trkpt lat="45.29311695045558" lon="8.913447138650506"><ele>82.0</ele><time>2026-05-03T08:34:01Z</time></trkpt><trkpt lat="45.29310651854463" lon="8.913336913272877"><ele>82.0</ele><time>2026-05-03T08:34:02Z</time></trkpt><trkpt lat="45.29309452966313" lon="8.91317646740442"><ele>82.0</ele><time>2026-05-03T08:34:04Z</time></trkpt><trkpt lat="45.29307736757016" lon="8.913015336760227"><ele>82.0</ele><time>2026-05-03T08:34:06Z</time></trkpt><trkpt lat="45.293046115732146" lon="8.912864960640341"><ele>82.0</ele><time>2026-05-03T08:34:08Z</time></trkpt><trkpt lat="45.29303657841141" lon="8.912770462416463"><ele>82.0</ele><time>2026-05-03T08:34:10Z</time></trkpt><trkpt lat="45.293233698638105" lon="8.912712464557911"><ele>82.0</ele><time>2026-05-03T08:34:14Z</time></trkpt><trkpt lat="45.29331436124966" lon="8.912723679928263"><ele>82.0</ele><time>2026-05-03T08:34:15Z</time></trkpt><trkpt lat="45.293385242428876" lon="8.912737706945586"><ele>82.0</ele><time>2026-05-03T08:34:16Z</time></trkpt><trkpt lat="45.29345659577013" lon="8.912743660394812"><ele>82.0</ele><time>2026-05-03T08:34:17Z</time></trkpt><trkpt lat="45.29353475066425" lon="8.912750509148518"><ele>82.0</ele><time>2026-05-03T08:34:18Z</time></trkpt><trkpt lat="45.29362013979899" lon="8.912746548450599"><ele>82.0</ele><time>2026-05-03T08:34:19Z</time></trkpt><trkpt lat="45.29370739415153" lon="8.912732385589159"><ele>82.0</ele><time>2026-05-03T08:34:20Z</time></trkpt><trkpt lat="45.29380427687003" lon="8.91270707918831"><ele>82.0</ele><time>2026-05-03T08:34:21Z</time></trkpt><trkpt lat="45.29391161346852" lon="8.912657510723696"><ele>82.0</ele><time>2026-05-03T08:34:22Z</time></trkpt><trkpt lat="45.29400100205519" lon="8.912618686458071"><ele>82.0</ele><time>2026-05-03T08:34:23Z</time></trkpt><trkpt lat="45.2940935785466" lon="8.912595201633522"><ele>82.0</ele><time>2026-05-03T08:34:24Z</time></trkpt><trkpt lat="45.294196114153856" lon="8.912545840289917"><ele>81.19999999999999</ele><time>2026-05-03T08:34:25Z</time></trkpt><trkpt lat="45.29429898729006" lon="8.91249694893897"><ele>80.39999999999999</ele><time>2026-05-03T08:34:26Z</time></trkpt><trkpt lat="45.294399346221915" lon="8.912444583044024"><ele>79.6</ele><time>2026-05-03T08:34:27Z</time></trkpt><trkpt lat="45.294500298701266" lon="8.912377394529285"><ele>78.8</ele><time>2026-05-03T08:34:28Z</time></trkpt><trkpt lat="45.29461050826317" lon="8.912331963151704"><ele>78.0</ele><time>2026-05-03T08:34:29Z</time></trkpt><trkpt lat="45.29469366655028" lon="8.912290406155941"><ele>78.33333333333333</ele><time>2026-05-03T08:34:30Z</time></trkpt><trkpt lat="45.294767600098176" lon="8.912244106637344"><ele>78.66666666666667</ele><time>2026-05-03T08:34:31Z</time></trkpt><trkpt lat="45.29483218898209" lon="8.912204174510522"><ele>79.0</ele><time>2026-05-03T08:34:32Z</time></trkpt><trkpt lat="45.29489708942713" lon="8.912156042829551"><ele>79.33333333333334</ele><time>2026-05-03T08:34:33Z</time></trkpt><trkpt lat="45.294951009453555" lon="8.912103847011117"><ele>79.66666666666667</ele><time>2026-05-03T08:34:34Z</time></trkpt><trkpt lat="45.29505899390751" lon="8.912012361234362"><ele>80.0</ele><time>2026-05-03T08:34:36Z</time></trkpt><trkpt lat="45.295107117997155" lon="8.911923407047478"><ele>80.0</ele><time>2026-05-03T08:34:37Z</time></trkpt><trkpt lat="45.295163859866186" lon="8.91188300388329"><ele>80.0</ele><time>2026-05-03T08:34:38Z</time></trkpt><trkpt lat="45.295214835803" lon="8.911809086503913"><ele>80.0</ele><time>2026-05-03T08:34:40Z</time></trkpt><trkpt lat="45.295255416939014" lon="8.911732585398584"><ele>80.0</ele><time>2026-05-03T08:34:44Z</time></trkpt><trkpt lat="45.295209179153765" lon="8.91181822838438"><ele>80.0</ele><time>2026-05-03T08:34:52Z</time></trkpt><trkpt lat="45.294984108716164" lon="8.911838767097965"><ele>80.0</ele><time>2026-05-03T08:34:53Z</time></trkpt><trkpt lat="45.294981072823944" lon="8.911965744437493"><ele>80.0</ele><time>2026-05-03T08:34:55Z</time></trkpt><trkpt lat="45.2949896821006" lon="8.912065554603098"><ele>80.0</ele><time>2026-05-03T08:34:57Z</time></trkpt><trkpt lat="45.29497950340646" lon="8.912192818451631"><ele>80.0</ele><time>2026-05-03T08:34:59Z</time></trkpt><trkpt lat="45.294981790890695" lon="8.912379693663484"><ele>80.0</ele><time>2026-05-03T08:35:01Z</time></trkpt><trkpt lat="45.29497607736145" lon="8.912479233224232"><ele>80.0</ele><time>2026-05-03T08:35:02Z</time></trkpt><trkpt lat="45.294978653630466" lon="8.912583339313441"><ele>80.0</ele><time>2026-05-03T08:35:03Z</time></trkpt><trkpt lat="45.29497987968866" lon="8.912691162173262"><ele>80.0</ele><time>2026-05-03T08:35:04Z</time></trkpt><trkpt lat="45.29497842369119" lon="8.912801450484967"><ele>80.0</ele><time>2026-05-03T08:35:05Z</time></trkpt><trkpt lat="45.294981827360004" lon="8.912918127107138"><ele>80.0</ele><time>2026-05-03T08:35:06Z</time></trkpt><trkpt lat="45.29498631357092" lon="8.913032939043086"><ele>80.0</ele><time>2026-05-03T08:35:07Z</time></trkpt><trkpt lat="45.29498981247543" lon="8.913160378354563"><ele>80.0</ele><time>2026-05-03T08:35:08Z</time></trkpt><trkpt lat="45.29499871697029" lon="8.913281097424345"><ele>80.0</ele><time>2026-05-03T08:35:09Z</time></trkpt><trkpt lat="45.29499968480894" lon="8.913391068239557"><ele>80.0</ele><time>2026-05-03T08:35:10Z</time></trkpt><trkpt lat="45.29500183064178" lon="8.913501010724392"><ele>80.0</ele><time>2026-05-03T08:35:11Z</time></trkpt><trkpt lat="45.29500226519867" lon="8.913603974625964"><ele>80.0</ele><time>2026-05-03T08:35:12Z</time></trkpt><trkpt lat="45.29500188633249" lon="8.91370573401119"><ele>80.0</ele><time>2026-05-03T08:35:13Z</time></trkpt><trkpt lat="45.295006742119064" lon="8.913802615565272"><ele>80.0</ele><time>2026-05-03T08:35:14Z</time></trkpt><trkpt lat="45.295010847255035" lon="8.913915939880983"><ele>80.0</ele><time>2026-05-03T08:35:15Z</time></trkpt><trkpt lat="45.29501178097865" lon="8.914017986255233"><ele>80.0</ele><time>2026-05-03T08:35:16Z</time></trkpt><trkpt lat="45.29501777150384" lon="8.914126234874082"><ele>80.0</ele><time>2026-05-03T08:35:17Z</time></trkpt><trkpt lat="45.29502333960344" lon="8.914234557047111"><ele>80.0</ele><time>2026-05-03T08:35:18Z</time></trkpt><trkpt lat="45.29504436088506" lon="8.914337046138396"><ele>80.0</ele><time>2026-05-03T08:35:19Z</time></trkpt><trkpt lat="45.29508014499159" lon="8.91443283046514"><ele>80.16666666666667</ele><time>2026-05-03T08:35:20Z</time></trkpt><trkpt lat="45.295129896111874" lon="8.914526205547954"><ele>80.33333333333334</ele><time>2026-05-03T08:35:21Z</time></trkpt><trkpt lat="45.29517198960708" lon="8.914610985882206"><ele>80.5</ele><time>2026-05-03T08:35:22Z</time></trkpt><trkpt lat="45.29521002142437" lon="8.91468356107495"><ele>80.66666666666667</ele><time>2026-05-03T08:35:23Z</time></trkpt><trkpt lat="45.29524724947904" lon="8.914763371695697"><ele>80.83333333333333</ele><time>2026-05-03T08:35:24Z</time></trkpt><trkpt lat="45.29528277457288" lon="8.914840584819803"><ele>81.0</ele><time>2026-05-03T08:35:25Z</time></trkpt><trkpt lat="45.29535523027349" lon="8.91498058153818"><ele>81.0</ele><time>2026-05-03T08:35:27Z</time></trkpt><trkpt lat="45.29543737888595" lon="8.915052958298144"><ele>81.0</ele><time>2026-05-03T08:35:29Z</time></trkpt><trkpt lat="45.29556296061939" lon="8.915055882732053"><ele>81.0</ele><time>2026-05-03T08:35:31Z</time></trkpt><trkpt lat="45.295642599086065" lon="8.915033362798294"><ele>81.0</ele><time>2026-05-03T08:35:32Z</time></trkpt><trkpt lat="45.29572378591239" lon="8.915002948696252"><ele>81.0</ele><time>2026-05-03T08:35:33Z</time></trkpt><trkpt lat="45.29579483038386" lon="8.914977838946053"><ele>80.66666666666667</ele><time>2026-05-03T08:35:34Z</time></trkpt><trkpt lat="45.29587465667303" lon="8.914951913791002"><ele>80.33333333333333</ele><time>2026-05-03T08:35:35Z</time></trkpt><trkpt lat="45.29595393060152" lon="8.914927847214708"><ele>80.0</ele><time>2026-05-03T08:35:36Z</time></trkpt><trkpt lat="45.2960243928339" lon="8.914901689209003"><ele>79.66666666666666</ele><time>2026-05-03T08:35:37Z</time></trkpt><trkpt lat="45.29609771444858" lon="8.914873071891506"><ele>79.33333333333333</ele><time>2026-05-03T08:35:38Z</time></trkpt><trkpt lat="45.29620724528398" lon="8.914850609245569"><ele>79.0</ele><time>2026-05-03T08:35:40Z</time></trkpt><trkpt lat="45.296276394175464" lon="8.914855958784297"><ele>79.0</ele><time>2026-05-03T08:35:42Z</time></trkpt><trkpt lat="45.296297039738164" lon="8.914955529506113"><ele>79.0</ele><time>2026-05-03T08:35:44Z</time></trkpt><trkpt lat="45.296253502248376" lon="8.915138208998423"><ele>79.0</ele><time>2026-05-03T08:35:46Z</time></trkpt><trkpt lat="45.29621749363356" lon="8.915253496888347"><ele>79.0</ele><time>2026-05-03T08:35:47Z</time></trkpt><trkpt lat="45.29618192325713" lon="8.915368946999225"><ele>79.0</ele><time>2026-05-03T08:35:48Z</time></trkpt><trkpt lat="45.296153697383104" lon="8.915454356048707"><ele>79.0</ele><time>2026-05-03T08:35:49Z</time></trkpt><trkpt lat="45.2961331056695" lon="8.915555247985251"><ele>79.0</ele><time>2026-05-03T08:35:50Z</time></trkpt><trkpt lat="45.29610321049168" lon="8.91566545042666"><ele>79.0</ele><time>2026-05-03T08:35:51Z</time></trkpt><trkpt lat="45.2960720842683" lon="8.915779541504302"><ele>79.0</ele><time>2026-05-03T08:35:52Z</time></trkpt><trkpt lat="45.296040873604895" lon="8.915895028785869"><ele>79.0</ele><time>2026-05-03T08:35:53Z</time></trkpt><trkpt lat="45.296010643877096" lon="8.916006581183554"><ele>79.0</ele><time>2026-05-03T08:35:54Z</time></trkpt><trkpt lat="45.29597325998357" lon="8.916107916326316"><ele>79.2</ele><time>2026-05-03T08:35:55Z</time></trkpt><trkpt lat="45.29594404060319" lon="8.916223573599963"><ele>79.4</ele><time>2026-05-03T08:35:56Z</time></trkpt><trkpt lat="45.29592023402296" lon="8.916329611229486"><ele>79.6</ele><time>2026-05-03T08:35:57Z</time></trkpt><trkpt lat="45.2958888546412" lon="8.916450315478766"><ele>79.8</ele><time>2026-05-03T08:35:58Z</time></trkpt><trkpt lat="45.295856395539055" lon="8.916578425649485"><ele>80.0</ele><time>2026-05-03T08:35:59Z</time></trkpt><trkpt lat="45.295820074061794" lon="8.9167109417163"><ele>79.4</ele><time>2026-05-03T08:36:00Z</time></trkpt><trkpt lat="45.29578028170283" lon="8.916846824102768"><ele>78.8</ele><time>2026-05-03T08:36:01Z</time></trkpt><trkpt lat="45.295741886758805" lon="8.916988186663861"><ele>78.2</ele><time>2026-05-03T08:36:02Z</time></trkpt><trkpt lat="45.29570677231002" lon="8.917125405657355"><ele>77.6</ele><time>2026-05-03T08:36:03Z</time></trkpt><trkpt lat="45.295677134648386" lon="8.917255965928387"><ele>77.0</ele><time>2026-05-03T08:36:04Z</time></trkpt><trkpt lat="45.29565009459933" lon="8.917387463016707"><ele>77.0</ele><time>2026-05-03T08:36:05Z</time></trkpt><trkpt lat="45.29562486771184" lon="8.91751404360564"><ele>77.0</ele><time>2026-05-03T08:36:06Z</time></trkpt><trkpt lat="45.29560634310959" lon="8.917647253076511"><ele>77.0</ele><time>2026-05-03T08:36:07Z</time></trkpt><trkpt lat="45.29558531468681" lon="8.917789365706676"><ele>77.0</ele><time>2026-05-03T08:36:08Z</time></trkpt><trkpt lat="45.29555725079952" lon="8.917934053814765"><ele>77.0</ele><time>2026-05-03T08:36:09Z</time></trkpt><trkpt lat="45.29553402084683" lon="8.918076567768546"><ele>77.2</ele><time>2026-05-03T08:36:10Z</time></trkpt><trkpt lat="45.295510476792956" lon="8.918226491966202"><ele>77.4</ele><time>2026-05-03T08:36:11Z</time></trkpt><trkpt lat="45.29548212054413" lon="8.918373256023658"><ele>77.6</ele><time>2026-05-03T08:36:12Z</time></trkpt><trkpt lat="45.295435365825156" lon="8.918507526401735"><ele>77.8</ele><time>2026-05-03T08:36:13Z</time></trkpt><trkpt lat="45.29541146150735" lon="8.918645301899595"><ele>78.0</ele><time>2026-05-03T08:36:14Z</time></trkpt><trkpt lat="45.29536781462092" lon="8.918760099882697"><ele>78.0</ele><time>2026-05-03T08:36:15Z</time></trkpt><trkpt lat="45.29530462445861" lon="8.918854260810846"><ele>78.0</ele><time>2026-05-03T08:36:16Z</time></trkpt><trkpt lat="45.29523466069024" lon="8.918943759688842"><ele>78.0</ele><time>2026-05-03T08:36:17Z</time></trkpt><trkpt lat="45.29516560455399" lon="8.919035036060066"><ele>78.0</ele><time>2026-05-03T08:36:18Z</time></trkpt><trkpt lat="45.29510359751664" lon="8.919124153074481"><ele>78.0</ele><time>2026-05-03T08:36:19Z</time></trkpt><trkpt lat="45.29504551959059" lon="8.919201373783066"><ele>78.0</ele><time>2026-05-03T08:36:20Z</time></trkpt><trkpt lat="45.29499061642526" lon="8.91926486196018"><ele>77.8</ele><time>2026-05-03T08:36:21Z</time></trkpt><trkpt lat="45.29491585185709" lon="8.919358893137897"><ele>77.6</ele><time>2026-05-03T08:36:23Z</time></trkpt><trkpt lat="45.29486012381389" lon="8.91941851008001"><ele>77.4</ele><time>2026-05-03T08:36:25Z</time></trkpt><trkpt lat="45.294774522148515" lon="8.919351929690494"><ele>77.2</ele><time>2026-05-03T08:36:27Z</time></trkpt><trkpt lat="45.294689142653446" lon="8.919310800796323"><ele>77.0</ele><time>2026-05-03T08:36:28Z</time></trkpt><trkpt lat="45.29459310959886" lon="8.919269632569309"><ele>77.0</ele><time>2026-05-03T08:36:29Z</time></trkpt><trkpt lat="45.29449963563307" lon="8.91923031490358"><ele>77.0</ele><time>2026-05-03T08:36:30Z</time></trkpt><trkpt lat="45.29441616701419" lon="8.919212942239541"><ele>77.0</ele><time>2026-05-03T08:36:31Z</time></trkpt><trkpt lat="45.29435815325622" lon="8.919169193570966"><ele>77.0</ele><time>2026-05-03T08:36:32Z</time></trkpt><trkpt lat="45.29427660279117" lon="8.919133042740778"><ele>77.0</ele><time>2026-05-03T08:36:33Z</time></trkpt><trkpt lat="45.29419231575947" lon="8.919094423634775"><ele>77.0</ele><time>2026-05-03T08:36:34Z</time></trkpt><trkpt lat="45.29412191676526" lon="8.919062129100109"><ele>77.0</ele><time>2026-05-03T08:36:35Z</time></trkpt><trkpt lat="45.29405097563265" lon="8.919029346611811"><ele>77.0</ele><time>2026-05-03T08:36:36Z</time></trkpt><trkpt lat="45.29396739094973" lon="8.91900606754658"><ele>77.0</ele><time>2026-05-03T08:36:37Z</time></trkpt><trkpt lat="45.293897384136976" lon="8.918980586646677"><ele>77.0</ele><time>2026-05-03T08:36:38Z</time></trkpt><trkpt lat="45.29384309078029" lon="8.918933281131189"><ele>77.0</ele><time>2026-05-03T08:36:39Z</time></trkpt><trkpt lat="45.293738609519984" lon="8.91890745444866"><ele>77.0</ele><time>2026-05-03T08:36:41Z</time></trkpt><trkpt lat="45.29364839679334" lon="8.918866768723039"><ele>77.0</ele><time>2026-05-03T08:36:43Z</time></trkpt><trkpt lat="45.293545842468255" lon="8.918802634852863"><ele>77.0</ele><time>2026-05-03T08:36:45Z</time></trkpt><trkpt lat="45.29348626166699" lon="8.91875766975699"><ele>77.0</ele><time>2026-05-03T08:36:48Z</time></trkpt><trkpt lat="45.29350477693934" lon="8.918667329215493"><ele>77.0</ele><time>2026-05-03T08:36:50Z</time></trkpt><trkpt lat="45.29351165967686" lon="8.918572535398962"><ele>77.0</ele><time>2026-05-03T08:36:51Z</time></trkpt><trkpt lat="45.2935166604018" lon="8.918472981204838"><ele>77.0</ele><time>2026-05-03T08:36:52Z</time></trkpt><trkpt lat="45.29352411861474" lon="8.918324504163172"><ele>77.5</ele><time>2026-05-03T08:36:54Z</time></trkpt><trkpt lat="45.29352923501738" lon="8.91822264757962"><ele>78.0</ele><time>2026-05-03T08:36:56Z</time></trkpt><trkpt lat="45.29351647059698" lon="8.918074980994719"><ele>78.5</ele><time>2026-05-03T08:36:58Z</time></trkpt><trkpt lat="45.29352598054659" lon="8.917920203707629"><ele>79.0</ele><time>2026-05-03T08:37:00Z</time></trkpt><trkpt lat="45.29353022498448" lon="8.91782300931312"><ele>79.5</ele><time>2026-05-03T08:37:01Z</time></trkpt><trkpt lat="45.29353388081241" lon="8.91771496148259"><ele>80.0</ele><time>2026-05-03T08:37:02Z</time></trkpt><trkpt lat="45.29353429653769" lon="8.917598122200213"><ele>79.83333333333334</ele><time>2026-05-03T08:37:03Z</time></trkpt><trkpt lat="45.29356448186975" lon="8.917491417090124"><ele>79.66666666666667</ele><time>2026-05-03T08:37:04Z</time></trkpt><trkpt lat="45.29353877620093" lon="8.917389292757152"><ele>79.5</ele><time>2026-05-03T08:37:06Z</time></trkpt><trkpt lat="45.29354721481827" lon="8.917225158477514"><ele>79.33333333333333</ele><time>2026-05-03T08:37:08Z</time></trkpt><trkpt lat="45.29354703281152" lon="8.917128409070692"><ele>79.16666666666666</ele><time>2026-05-03T08:37:09Z</time></trkpt><trkpt lat="45.29354766415086" lon="8.917036324145103"><ele>79.0</ele><time>2026-05-03T08:37:10Z</time></trkpt><trkpt lat="45.293553630083544" lon="8.916874843531652"><ele>79.16666666666666</ele><time>2026-05-03T08:37:12Z</time></trkpt><trkpt lat="45.29355574182292" lon="8.916714826505633"><ele>79.33333333333333</ele><time>2026-05-03T08:37:14Z</time></trkpt><trkpt lat="45.293553176864904" lon="8.916589236611745"><ele>79.5</ele><time>2026-05-03T08:37:16Z</time></trkpt><trkpt lat="45.293565830383564" lon="8.916484940492357"><ele>79.66666666666667</ele><time>2026-05-03T08:37:19Z</time></trkpt><trkpt lat="45.293516233253804" lon="8.916428304440492"><ele>79.83333333333334</ele><time>2026-05-03T08:37:22Z</time></trkpt><trkpt lat="45.29350265792187" lon="8.91651764836259"><ele>80.0</ele><time>2026-05-03T08:37:25Z</time></trkpt><trkpt lat="45.293540591014576" lon="8.91664452833282"><ele>79.83333333333334</ele><time>2026-05-03T08:37:35Z</time></trkpt><trkpt lat="45.29354567898964" lon="8.916772277782876"><ele>79.66666666666667</ele><time>2026-05-03T08:37:37Z</time></trkpt><trkpt lat="45.29354464286117" lon="8.916919750078307"><ele>79.5</ele><time>2026-05-03T08:37:39Z</time></trkpt><trkpt lat="45.293532124814206" lon="8.917036102309968"><ele>79.33333333333333</ele><time>2026-05-03T08:37:41Z</time></trkpt><trkpt lat="45.29352452822121" lon="8.917151703223693"><ele>79.16666666666666</ele><time>2026-05-03T08:37:43Z</time></trkpt><trkpt lat="45.293521857181716" lon="8.917247875035748"><ele>79.0</ele><time>2026-05-03T08:37:45Z</time></trkpt><trkpt lat="45.29351699961402" lon="8.91737540526556"><ele>79.0</ele><time>2026-05-03T08:37:47Z</time></trkpt><trkpt lat="45.29351551035202" lon="8.917529620422401"><ele>79.0</ele><time>2026-05-03T08:37:49Z</time></trkpt><trkpt lat="45.29351014924495" lon="8.917696703501838"><ele>79.0</ele><time>2026-05-03T08:37:51Z</time></trkpt><trkpt lat="45.29350702429221" lon="8.917822600428183"><ele>79.0</ele><time>2026-05-03T08:37:52Z</time></trkpt><trkpt lat="45.29350202104877" lon="8.91795395454049"><ele>79.0</ele><time>2026-05-03T08:37:53Z</time></trkpt><trkpt lat="45.29349524469434" lon="8.918106436376497"><ele>79.16666666666666</ele><time>2026-05-03T08:37:54Z</time></trkpt><trkpt lat="45.29348945767515" lon="8.918230615385935"><ele>79.33333333333333</ele><time>2026-05-03T08:37:55Z</time></trkpt><trkpt lat="45.29348486094712" lon="8.918330158846162"><ele>79.5</ele><time>2026-05-03T08:37:56Z</time></trkpt><trkpt lat="45.293475107087176" lon="8.918422256762845"><ele>79.66666666666667</ele><time>2026-05-03T08:37:57Z</time></trkpt><trkpt lat="45.293471971595956" lon="8.91852009796627"><ele>79.83333333333334</ele><time>2026-05-03T08:37:58Z</time></trkpt><trkpt lat="45.29346039606775" lon="8.918680541443571"><ele>80.0</ele><time>2026-05-03T08:38:00Z</time></trkpt><trkpt lat="45.2934638595979" lon="8.918793941294197"><ele>79.4</ele><time>2026-05-03T08:38:02Z</time></trkpt><trkpt lat="45.293532089487805" lon="8.918877119831587"><ele>78.8</ele><time>2026-05-03T08:38:04Z</time></trkpt><trkpt lat="45.2935952487722" lon="8.918904757865937"><ele>78.2</ele><time>2026-05-03T08:38:05Z</time></trkpt><trkpt lat="45.29368612655352" lon="8.918926690922433"><ele>77.6</ele><time>2026-05-03T08:38:06Z</time></trkpt><trkpt lat="45.29379395158301" lon="8.91896018671873"><ele>77.0</ele><time>2026-05-03T08:38:07Z</time></trkpt><trkpt lat="45.29389993219595" lon="8.91899476044255"><ele>77.0</ele><time>2026-05-03T08:38:08Z</time></trkpt><trkpt lat="45.29398619120579" lon="8.919032756074294"><ele>77.0</ele><time>2026-05-03T08:38:09Z</time></trkpt><trkpt lat="45.29406297715879" lon="8.919068566620739"><ele>77.0</ele><time>2026-05-03T08:38:10Z</time></trkpt><trkpt lat="45.29414827863396" lon="8.919107961639252"><ele>77.0</ele><time>2026-05-03T08:38:11Z</time></trkpt><trkpt lat="45.29424059148154" lon="8.919147965072106"><ele>77.0</ele><time>2026-05-03T08:38:12Z</time></trkpt><trkpt lat="45.294326420291846" lon="8.919186759974089"><ele>77.0</ele><time>2026-05-03T08:38:13Z</time></trkpt><trkpt lat="45.29441384143403" lon="8.919228900509614"><ele>77.0</ele><time>2026-05-03T08:38:14Z</time></trkpt><trkpt lat="45.29449830023436" lon="8.919257211172313"><ele>77.0</ele><time>2026-05-03T08:38:15Z</time></trkpt><trkpt lat="45.29456398105495" lon="8.919293162240733"><ele>77.0</ele><time>2026-05-03T08:38:16Z</time></trkpt><trkpt lat="45.29468116904017" lon="8.91935671937743"><ele>77.0</ele><time>2026-05-03T08:38:18Z</time></trkpt><trkpt lat="45.294780623867375" lon="8.91940792700999"><ele>77.0</ele><time>2026-05-03T08:38:20Z</time></trkpt><trkpt lat="45.29484809530322" lon="8.919458198132059"><ele>77.0</ele><time>2026-05-03T08:38:23Z</time></trkpt><trkpt lat="45.29479304128777" lon="8.919563129698513"><ele>77.0</ele><time>2026-05-03T08:38:25Z</time></trkpt><trkpt lat="45.29475237648516" lon="8.919631922661122"><ele>77.0</ele><time>2026-05-03T08:38:26Z</time></trkpt><trkpt lat="45.2947186719719" lon="8.919722385347788"><ele>77.0</ele><time>2026-05-03T08:38:27Z</time></trkpt><trkpt lat="45.294670108278204" lon="8.919811104289307"><ele>77.0</ele><time>2026-05-03T08:38:28Z</time></trkpt><trkpt lat="45.29460345207751" lon="8.919895512532312"><ele>77.0</ele><time>2026-05-03T08:38:29Z</time></trkpt><trkpt lat="45.29454828327458" lon="8.920000233886102"><ele>77.0</ele><time>2026-05-03T08:38:30Z</time></trkpt><trkpt lat="45.294510653178804" lon="8.920112913355041"><ele>77.0</ele><time>2026-05-03T08:38:31Z</time></trkpt><trkpt lat="45.29445074041967" lon="8.92021372709631"><ele>77.0</ele><time>2026-05-03T08:38:32Z</time></trkpt><trkpt lat="45.294399895032484" lon="8.920328303948667"><ele>77.0</ele><time>2026-05-03T08:38:33Z</time></trkpt><trkpt lat="45.294346435328656" lon="8.920443558558397"><ele>77.0</ele><time>2026-05-03T08:38:34Z</time></trkpt><trkpt lat="45.294296067605245" lon="8.920570181560485"><ele>77.0</ele><time>2026-05-03T08:38:35Z</time></trkpt><trkpt lat="45.294253495520636" lon="8.920690289117653"><ele>77.0</ele><time>2026-05-03T08:38:36Z</time></trkpt><trkpt lat="45.29422315406927" lon="8.920792336116076"><ele>77.0</ele><time>2026-05-03T08:38:37Z</time></trkpt><trkpt lat="45.294203634913046" lon="8.920940263792795"><ele>77.0</ele><time>2026-05-03T08:38:39Z</time></trkpt><trkpt lat="45.29421874389346" lon="8.9210884351579"><ele>77.0</ele><time>2026-05-03T08:38:41Z</time></trkpt><trkpt lat="45.294247516603605" lon="8.921250016010667"><ele>77.2</ele><time>2026-05-03T08:38:43Z</time></trkpt><trkpt lat="45.294271651460875" lon="8.921337953623256"><ele>77.4</ele><time>2026-05-03T08:38:44Z</time></trkpt><trkpt lat="45.2942925321729" lon="8.921429863387164"><ele>77.6</ele><time>2026-05-03T08:38:45Z</time></trkpt><trkpt lat="45.29433708412986" lon="8.92156866242395"><ele>77.8</ele><time>2026-05-03T08:38:47Z</time></trkpt><trkpt lat="45.29438713289856" lon="8.921712727727996"><ele>78.0</ele><time>2026-05-03T08:38:49Z</time></trkpt><trkpt lat="45.29443672618632" lon="8.921854047940645"><ele>78.66666666666667</ele><time>2026-05-03T08:38:51Z</time></trkpt><trkpt lat="45.294441028000826" lon="8.921972325005136"><ele>79.33333333333333</ele><time>2026-05-03T08:38:53Z</time></trkpt><trkpt lat="45.294406568258275" lon="8.922066577685111"><ele>80.0</ele><time>2026-05-03T08:38:55Z</time></trkpt><trkpt lat="45.294317762260796" lon="8.922059785246457"><ele>80.66666666666666</ele><time>2026-05-03T08:38:57Z</time></trkpt><trkpt lat="45.29421684096716" lon="8.922100799846435"><ele>81.33333333333333</ele><time>2026-05-03T08:38:59Z</time></trkpt><trkpt lat="45.2941470190422" lon="8.922097929541598"><ele>82.0</ele><time>2026-05-03T08:39:00Z</time></trkpt><trkpt lat="45.294036895434886" lon="8.92213522469559"><ele>82.0</ele><time>2026-05-03T08:39:02Z</time></trkpt><trkpt lat="45.293976169185136" lon="8.922159072013288"><ele>82.0</ele><time>2026-05-03T08:39:03Z</time></trkpt><trkpt lat="45.29391393285383" lon="8.922180867633227"><ele>82.0</ele><time>2026-05-03T08:39:04Z</time></trkpt><trkpt lat="45.293795674459425" lon="8.922219992746527"><ele>82.0</ele><time>2026-05-03T08:39:06Z</time></trkpt><trkpt lat="45.29372149905442" lon="8.92224688041952"><ele>82.0</ele><time>2026-05-03T08:39:07Z</time></trkpt><trkpt lat="45.293630512219664" lon="8.922269796486624"><ele>82.0</ele><time>2026-05-03T08:39:08Z</time></trkpt><trkpt lat="45.29354351549387" lon="8.922294866296744"><ele>81.5</ele><time>2026-05-03T08:39:09Z</time></trkpt><trkpt lat="45.29344688329599" lon="8.922320522418323"><ele>81.0</ele><time>2026-05-03T08:39:10Z</time></trkpt><trkpt lat="45.293373698698204" lon="8.92234550131856"><ele>80.5</ele><time>2026-05-03T08:39:11Z</time></trkpt><trkpt lat="45.29329861340293" lon="8.922370514746133"><ele>80.0</ele><time>2026-05-03T08:39:12Z</time></trkpt><trkpt lat="45.29321987207933" lon="8.922393654530484"><ele>79.5</ele><time>2026-05-03T08:39:13Z</time></trkpt><trkpt lat="45.293146282619155" lon="8.922417039313416"><ele>79.0</ele><time>2026-05-03T08:39:14Z</time></trkpt><trkpt lat="45.29307566509423" lon="8.92245522258393"><ele>79.0</ele><time>2026-05-03T08:39:15Z</time></trkpt><trkpt lat="45.29301286343575" lon="8.92251339177366"><ele>79.0</ele><time>2026-05-03T08:39:16Z</time></trkpt><trkpt lat="45.292935473575355" lon="8.922595857812176"><ele>79.0</ele><time>2026-05-03T08:39:17Z</time></trkpt><trkpt lat="45.29286648486974" lon="8.922699638819646"><ele>79.0</ele><time>2026-05-03T08:39:18Z</time></trkpt><trkpt lat="45.2928107356082" lon="8.922804748077622"><ele>79.0</ele><time>2026-05-03T08:39:19Z</time></trkpt><trkpt lat="45.29276571092044" lon="8.922889229657649"><ele>79.0</ele><time>2026-05-03T08:39:20Z</time></trkpt><trkpt lat="45.29269130413386" lon="8.923001060836087"><ele>79.0</ele><time>2026-05-03T08:39:22Z</time></trkpt><trkpt lat="45.29263897000264" lon="8.923070902383857"><ele>79.0</ele><time>2026-05-03T08:39:23Z</time></trkpt><trkpt lat="45.292589899340605" lon="8.923136789944417"><ele>79.0</ele><time>2026-05-03T08:39:24Z</time></trkpt><trkpt lat="45.292519653891326" lon="8.92320684618467"><ele>79.0</ele><time>2026-05-03T08:39:25Z</time></trkpt><trkpt lat="45.29245351133887" lon="8.923266525256114"><ele>79.0</ele><time>2026-05-03T08:39:26Z</time></trkpt><trkpt lat="45.2923841156454" lon="8.92332034997289"><ele>79.0</ele><time>2026-05-03T08:39:27Z</time></trkpt><trkpt lat="45.292316744456954" lon="8.923378347965995"><ele>79.0</ele><time>2026-05-03T08:39:28Z</time></trkpt><trkpt lat="45.29223903674908" lon="8.923442487084897"><ele>79.0</ele><time>2026-05-03T08:39:29Z</time></trkpt><trkpt lat="45.2921564400585" lon="8.923519654155651"><ele>79.0</ele><time>2026-05-03T08:39:30Z</time></trkpt><trkpt lat="45.29206934682082" lon="8.923587455973932"><ele>79.0</ele><time>2026-05-03T08:39:31Z</time></trkpt><trkpt lat="45.29197400311761" lon="8.923680551405957"><ele>79.0</ele><time>2026-05-03T08:39:32Z</time></trkpt><trkpt lat="45.291879537061604" lon="8.923765326422174"><ele>79.0</ele><time>2026-05-03T08:39:33Z</time></trkpt><trkpt lat="45.29179401660358" lon="8.923844861972794"><ele>79.0</ele><time>2026-05-03T08:39:34Z</time></trkpt><trkpt lat="45.29172652938281" lon="8.923914133979693"><ele>79.0</ele><time>2026-05-03T08:39:35Z</time></trkpt><trkpt lat="45.29164626739185" lon="8.923986608548978"><ele>79.0</ele><time>2026-05-03T08:39:36Z</time></trkpt><trkpt lat="45.291560305365934" lon="8.924055884704087"><ele>79.0</ele><time>2026-05-03T08:39:37Z</time></trkpt><trkpt lat="45.29146627660403" lon="8.924126186060855"><ele>78.60000000000001</ele><time>2026-05-03T08:39:38Z</time></trkpt><trkpt lat="45.29137231831438" lon="8.924192662358232"><ele>78.2</ele><time>2026-05-03T08:39:39Z</time></trkpt><trkpt lat="45.2912823286163" lon="8.924245189450037"><ele>77.80000000000001</ele><time>2026-05-03T08:39:40Z</time></trkpt><trkpt lat="45.29121223537294" lon="8.92428972419242"><ele>77.4</ele><time>2026-05-03T08:39:41Z</time></trkpt><trkpt lat="45.29106851258448" lon="8.924333149301523"><ele>77.0</ele><time>2026-05-03T08:39:43Z</time></trkpt><trkpt lat="45.29093341039946" lon="8.924374406646079"><ele>77.0</ele><time>2026-05-03T08:39:45Z</time></trkpt><trkpt lat="45.29085529967347" lon="8.924330986543527"><ele>77.0</ele><time>2026-05-03T08:39:46Z</time></trkpt><trkpt lat="45.290780043554314" lon="8.924301284365272"><ele>77.0</ele><time>2026-05-03T08:39:47Z</time></trkpt><trkpt lat="45.29065799421361" lon="8.924242226129154"><ele>77.0</ele><time>2026-05-03T08:39:49Z</time></trkpt><trkpt lat="45.290591917723646" lon="8.924133837433732"><ele>77.0</ele><time>2026-05-03T08:39:50Z</time></trkpt><trkpt lat="45.29051364211404" lon="8.924051993724014"><ele>77.0</ele><time>2026-05-03T08:39:51Z</time></trkpt><trkpt lat="45.29042536772949" lon="8.923984077013234"><ele>77.0</ele><time>2026-05-03T08:39:52Z</time></trkpt><trkpt lat="45.29034057115929" lon="8.923939716057852"><ele>77.0</ele><time>2026-05-03T08:39:53Z</time></trkpt><trkpt lat="45.29023761610169" lon="8.923937997945101"><ele>77.0</ele><time>2026-05-03T08:39:54Z</time></trkpt><trkpt lat="45.29013940394658" lon="8.923929650319527"><ele>77.0</ele><time>2026-05-03T08:39:55Z</time></trkpt><trkpt lat="45.29005261514026" lon="8.923920035732303"><ele>77.0</ele><time>2026-05-03T08:39:56Z</time></trkpt><trkpt lat="45.28996665343554" lon="8.923884191443348"><ele>77.0</ele><time>2026-05-03T08:39:57Z</time></trkpt><trkpt lat="45.289884814002384" lon="8.923816011837303"><ele>77.0</ele><time>2026-05-03T08:39:58Z</time></trkpt><trkpt lat="45.28978518160521" lon="8.923712452044153"><ele>77.0</ele><time>2026-05-03T08:39:59Z</time></trkpt><trkpt lat="45.289692468669756" lon="8.923614148217444"><ele>77.0</ele><time>2026-05-03T08:40:00Z</time></trkpt><trkpt lat="45.289590199401815" lon="8.923509092929457"><ele>76.6</ele><time>2026-05-03T08:40:01Z</time></trkpt><trkpt lat="45.28949151680542" lon="8.92340872033339"><ele>76.2</ele><time>2026-05-03T08:40:02Z</time></trkpt><trkpt lat="45.28941030090755" lon="8.923321772834704"><ele>75.8</ele><time>2026-05-03T08:40:03Z</time></trkpt><trkpt lat="45.28933290731706" lon="8.9232581262809"><ele>75.4</ele><time>2026-05-03T08:40:04Z</time></trkpt><trkpt lat="45.28929061429569" lon="8.923175869384764"><ele>75.0</ele><time>2026-05-03T08:40:05Z</time></trkpt><trkpt lat="45.289228990926894" lon="8.923117795915285"><ele>74.57142857142857</ele><time>2026-05-03T08:40:06Z</time></trkpt><trkpt lat="45.28918292936862" lon="8.923053615299235"><ele>74.14285714285714</ele><time>2026-05-03T08:40:07Z</time></trkpt><trkpt lat="45.289129753367625" lon="8.922975128943209"><ele>73.71428571428572</ele><time>2026-05-03T08:40:08Z</time></trkpt><trkpt lat="45.289095269877244" lon="8.922869532092603"><ele>73.28571428571428</ele><time>2026-05-03T08:40:09Z</time></trkpt><trkpt lat="45.28906573478277" lon="8.922785630235635"><ele>72.85714285714286</ele><time>2026-05-03T08:40:10Z</time></trkpt><trkpt lat="45.28903925307978" lon="8.922699668282368"><ele>72.42857142857143</ele><time>2026-05-03T08:40:11Z</time></trkpt><trkpt lat="45.28901612568644" lon="8.922591233487738"><ele>72.0</ele><time>2026-05-03T08:40:12Z</time></trkpt><trkpt lat="45.28898343378949" lon="8.922462723890991"><ele>72.0</ele><time>2026-05-03T08:40:13Z</time></trkpt><trkpt lat="45.28895606465913" lon="8.922368020192188"><ele>72.0</ele><time>2026-05-03T08:40:14Z</time></trkpt><trkpt lat="45.288911717963984" lon="8.922266853219249"><ele>72.0</ele><time>2026-05-03T08:40:15Z</time></trkpt><trkpt lat="45.288842993762785" lon="8.92216014040833"><ele>72.0</ele><time>2026-05-03T08:40:16Z</time></trkpt><trkpt lat="45.28875611231411" lon="8.922073571660816"><ele>72.0</ele><time>2026-05-03T08:40:17Z</time></trkpt><trkpt lat="45.288659539676964" lon="8.92199744810222"><ele>72.0</ele><time>2026-05-03T08:40:18Z</time></trkpt><trkpt lat="45.28855818679259" lon="8.92193443937272"><ele>72.0</ele><time>2026-05-03T08:40:19Z</time></trkpt><trkpt lat="45.28846570769834" lon="8.921895791719058"><ele>72.0</ele><time>2026-05-03T08:40:20Z</time></trkpt><trkpt lat="45.28836068936184" lon="8.921877662693914"><ele>72.0</ele><time>2026-05-03T08:40:21Z</time></trkpt><trkpt lat="45.288258983629724" lon="8.921869969517367"><ele>72.0</ele><time>2026-05-03T08:40:22Z</time></trkpt><trkpt lat="45.28799461220268" lon="8.921911778284082"><ele>72.5</ele><time>2026-05-03T08:40:24Z</time></trkpt><trkpt lat="45.287878030479305" lon="8.921964164761858"><ele>73.0</ele><time>2026-05-03T08:40:25Z</time></trkpt><trkpt lat="45.287766928106244" lon="8.921987120980857"><ele>73.5</ele><time>2026-05-03T08:40:26Z</time></trkpt><trkpt lat="45.287655192312535" lon="8.922035028357213"><ele>74.0</ele><time>2026-05-03T08:40:27Z</time></trkpt><trkpt lat="45.28755383328511" lon="8.922077197007946"><ele>74.0</ele><time>2026-05-03T08:40:28Z</time></trkpt><trkpt lat="45.28745056676475" lon="8.92212099402079"><ele>74.0</ele><time>2026-05-03T08:40:29Z</time></trkpt><trkpt lat="45.28733884194873" lon="8.922204632415793"><ele>74.0</ele><time>2026-05-03T08:40:30Z</time></trkpt><trkpt lat="45.287203867931375" lon="8.92226708296688"><ele>74.0</ele><time>2026-05-03T08:40:31Z</time></trkpt><trkpt lat="45.28709288859091" lon="8.922346113204469"><ele>73.8</ele><time>2026-05-03T08:40:32Z</time></trkpt><trkpt lat="45.2870097792907" lon="8.922430475880184"><ele>73.60000000000001</ele><time>2026-05-03T08:40:33Z</time></trkpt><trkpt lat="45.28693386999211" lon="8.922485039209022"><ele>73.4</ele><time>2026-05-03T08:40:34Z</time></trkpt><trkpt lat="45.28685517993124" lon="8.922540955722228"><ele>73.2</ele><time>2026-05-03T08:40:35Z</time></trkpt><trkpt lat="45.28678055659389" lon="8.922574368806925"><ele>73.0</ele><time>2026-05-03T08:40:36Z</time></trkpt><trkpt lat="45.2866397481722" lon="8.922604953971758"><ele>73.0</ele><time>2026-05-03T08:40:38Z</time></trkpt><trkpt lat="45.286552598789314" lon="8.922560647433267"><ele>73.0</ele><time>2026-05-03T08:40:39Z</time></trkpt><trkpt lat="45.286480205255664" lon="8.922505678220507"><ele>73.0</ele><time>2026-05-03T08:40:40Z</time></trkpt><trkpt lat="45.28639360806115" lon="8.92245406013887"><ele>73.0</ele><time>2026-05-03T08:40:41Z</time></trkpt><trkpt lat="45.286284387527395" lon="8.922396287204853"><ele>73.0</ele><time>2026-05-03T08:40:42Z</time></trkpt><trkpt lat="45.28619892008277" lon="8.922352436182967"><ele>73.33333333333333</ele><time>2026-05-03T08:40:43Z</time></trkpt><trkpt lat="45.286125738860825" lon="8.922315548272303"><ele>73.66666666666666</ele><time>2026-05-03T08:40:44Z</time></trkpt><trkpt lat="45.28605949610165" lon="8.922282157798875"><ele>74.0</ele><time>2026-05-03T08:40:45Z</time></trkpt><trkpt lat="45.28599725632224" lon="8.92225078509806"><ele>74.33333333333333</ele><time>2026-05-03T08:40:46Z</time></trkpt><trkpt lat="45.28592869916916" lon="8.922216228041336"><ele>74.66666666666667</ele><time>2026-05-03T08:40:47Z</time></trkpt><trkpt lat="45.285852267355665" lon="8.922177701643813"><ele>75.0</ele><time>2026-05-03T08:40:48Z</time></trkpt><trkpt lat="45.285758499725574" lon="8.922154427749502"><ele>75.0</ele><time>2026-05-03T08:40:49Z</time></trkpt><trkpt lat="45.2856869701843" lon="8.922094381573793"><ele>75.0</ele><time>2026-05-03T08:40:50Z</time></trkpt><trkpt lat="45.2856050728037" lon="8.922052619906799"><ele>75.0</ele><time>2026-05-03T08:40:51Z</time></trkpt><trkpt lat="45.28550855966523" lon="8.922026563989728"><ele>75.0</ele><time>2026-05-03T08:40:52Z</time></trkpt><trkpt lat="45.28542624162554" lon="8.921984668459785"><ele>75.0</ele><time>2026-05-03T08:40:53Z</time></trkpt><trkpt lat="45.28535419280341" lon="8.921947947011121"><ele>75.0</ele><time>2026-05-03T08:40:54Z</time></trkpt><trkpt lat="45.28528688373751" lon="8.921888764431646"><ele>75.0</ele><time>2026-05-03T08:40:55Z</time></trkpt><trkpt lat="45.28521797756042" lon="8.921869571474627"><ele>75.0</ele><time>2026-05-03T08:40:56Z</time></trkpt><trkpt lat="45.28509623372323" lon="8.921789492534236"><ele>75.0</ele><time>2026-05-03T08:40:58Z</time></trkpt><trkpt lat="45.28499614603612" lon="8.921734487298517"><ele>75.0</ele><time>2026-05-03T08:41:00Z</time></trkpt><trkpt lat="45.28493557163675" lon="8.921682332040376"><ele>75.0</ele><time>2026-05-03T08:41:02Z</time></trkpt><trkpt lat="45.284930289780554" lon="8.921558968109135"><ele>75.0</ele><time>2026-05-03T08:41:04Z</time></trkpt><trkpt lat="45.28492739341528" lon="8.921448064947198"><ele>75.0</ele><time>2026-05-03T08:41:05Z</time></trkpt><trkpt lat="45.28490244784324" lon="8.921317131024976"><ele>75.0</ele><time>2026-05-03T08:41:06Z</time></trkpt><trkpt lat="45.28489037483983" lon="8.92118745334745"><ele>75.0</ele><time>2026-05-03T08:41:07Z</time></trkpt><trkpt lat="45.28484400404402" lon="8.921057735463723"><ele>75.0</ele><time>2026-05-03T08:41:08Z</time></trkpt><trkpt lat="45.284789304602995" lon="8.920921246291318"><ele>75.5</ele><time>2026-05-03T08:41:09Z</time></trkpt><trkpt lat="45.284738077307956" lon="8.920780338042643"><ele>76.0</ele><time>2026-05-03T08:41:10Z</time></trkpt><trkpt lat="45.28468505181261" lon="8.920629515789638"><ele>76.5</ele><time>2026-05-03T08:41:11Z</time></trkpt><trkpt lat="45.28463055706877" lon="8.920473620742001"><ele>77.0</ele><time>2026-05-03T08:41:12Z</time></trkpt><trkpt lat="45.28459569503841" lon="8.9203292279394"><ele>77.0</ele><time>2026-05-03T08:41:13Z</time></trkpt><trkpt lat="45.28454152669273" lon="8.920201677594509"><ele>77.0</ele><time>2026-05-03T08:41:14Z</time></trkpt><trkpt lat="45.28449066978831" lon="8.920068865664721"><ele>77.0</ele><time>2026-05-03T08:41:15Z</time></trkpt><trkpt lat="45.28443999117082" lon="8.91992254068813"><ele>77.0</ele><time>2026-05-03T08:41:16Z</time></trkpt><trkpt lat="45.284394981887054" lon="8.919792857404211"><ele>77.0</ele><time>2026-05-03T08:41:17Z</time></trkpt><trkpt lat="45.28435671273864" lon="8.919681039660656"><ele>76.83333333333334</ele><time>2026-05-03T08:41:18Z</time></trkpt><trkpt lat="45.28433021873596" lon="8.919579275149916"><ele>76.66666666666667</ele><time>2026-05-03T08:41:19Z</time></trkpt><trkpt lat="45.28431486296957" lon="8.919467140545214"><ele>76.5</ele><time>2026-05-03T08:41:20Z</time></trkpt><trkpt lat="45.284318759007526" lon="8.91934313052251"><ele>76.33333333333333</ele><time>2026-05-03T08:41:21Z</time></trkpt><trkpt lat="45.28435737863829" lon="8.919219240346225"><ele>76.16666666666666</ele><time>2026-05-03T08:41:22Z</time></trkpt><trkpt lat="45.284369882563766" lon="8.919077510905131"><ele>76.0</ele><time>2026-05-03T08:41:23Z</time></trkpt><trkpt lat="45.28440334260112" lon="8.918936091999079"><ele>76.0</ele><time>2026-05-03T08:41:24Z</time></trkpt><trkpt lat="45.284432790133614" lon="8.918789824312261"><ele>76.0</ele><time>2026-05-03T08:41:25Z</time></trkpt><trkpt lat="45.284461105120606" lon="8.918662469015656"><ele>76.0</ele><time>2026-05-03T08:41:26Z</time></trkpt><trkpt lat="45.28448252247414" lon="8.918549908675924"><ele>76.0</ele><time>2026-05-03T08:41:27Z</time></trkpt><trkpt lat="45.28450623340622" lon="8.918450439489392"><ele>76.0</ele><time>2026-05-03T08:41:28Z</time></trkpt><trkpt lat="45.28452800678191" lon="8.918359487633634"><ele>76.0</ele><time>2026-05-03T08:41:29Z</time></trkpt><trkpt lat="45.28454586742486" lon="8.918273638219405"><ele>76.0</ele><time>2026-05-03T08:41:30Z</time></trkpt><trkpt lat="45.28458509931144" lon="8.918099300129269"><ele>76.0</ele><time>2026-05-03T08:41:32Z</time></trkpt><trkpt lat="45.2846050045224" lon="8.917991925656965"><ele>76.0</ele><time>2026-05-03T08:41:33Z</time></trkpt><trkpt lat="45.284636969112924" lon="8.917904060026538"><ele>76.0</ele><time>2026-05-03T08:41:34Z</time></trkpt><trkpt lat="45.2846543871722" lon="8.917816969691364"><ele>76.0</ele><time>2026-05-03T08:41:35Z</time></trkpt><trkpt lat="45.28467454949913" lon="8.917713424143031"><ele>76.0</ele><time>2026-05-03T08:41:36Z</time></trkpt><trkpt lat="45.284694729305755" lon="8.917585581731963"><ele>76.2</ele><time>2026-05-03T08:41:37Z</time></trkpt><trkpt lat="45.28469060471419" lon="8.917438881978079"><ele>76.39999999999999</ele><time>2026-05-03T08:41:38Z</time></trkpt><trkpt lat="45.284689260810445" lon="8.91729269306822"><ele>76.6</ele><time>2026-05-03T08:41:39Z</time></trkpt><trkpt lat="45.2846811212186" lon="8.917128857310814"><ele>76.8</ele><time>2026-05-03T08:41:40Z</time></trkpt><trkpt lat="45.28467548616831" lon="8.916959607120685"><ele>77.0</ele><time>2026-05-03T08:41:41Z</time></trkpt><trkpt lat="45.28465966617798" lon="8.916802795943148"><ele>77.16666666666667</ele><time>2026-05-03T08:41:42Z</time></trkpt><trkpt lat="45.28464927970048" lon="8.916670039289084"><ele>77.33333333333334</ele><time>2026-05-03T08:41:43Z</time></trkpt><trkpt lat="45.28464309174315" lon="8.916547445943415"><ele>77.5</ele><time>2026-05-03T08:41:44Z</time></trkpt><trkpt lat="45.284637886975275" lon="8.916436119691344"><ele>77.66666666666667</ele><time>2026-05-03T08:41:45Z</time></trkpt><trkpt lat="45.284631434449224" lon="8.916322702257261"><ele>77.83333333333333</ele><time>2026-05-03T08:41:46Z</time></trkpt><trkpt lat="45.28463155328039" lon="8.91620775168735"><ele>78.0</ele><time>2026-05-03T08:41:47Z</time></trkpt><trkpt lat="45.28462929608618" lon="8.916088590177702"><ele>78.0</ele><time>2026-05-03T08:41:48Z</time></trkpt><trkpt lat="45.28462473034624" lon="8.915947103760606"><ele>78.0</ele><time>2026-05-03T08:41:49Z</time></trkpt><trkpt lat="45.28461527132836" lon="8.915803350078379"><ele>78.0</ele><time>2026-05-03T08:41:50Z</time></trkpt><trkpt lat="45.284602838290716" lon="8.915653087315082"><ele>78.0</ele><time>2026-05-03T08:41:51Z</time></trkpt><trkpt lat="45.28459694863915" lon="8.915505773196623"><ele>78.0</ele><time>2026-05-03T08:41:52Z</time></trkpt><trkpt lat="45.2845916978928" lon="8.915381651590172"><ele>78.0</ele><time>2026-05-03T08:41:53Z</time></trkpt><trkpt lat="45.28459478459794" lon="8.915259461679348"><ele>78.0</ele><time>2026-05-03T08:41:54Z</time></trkpt><trkpt lat="45.284596692082076" lon="8.915130600422934"><ele>78.0</ele><time>2026-05-03T08:41:55Z</time></trkpt><trkpt lat="45.2845995464335" lon="8.91499075716005"><ele>78.0</ele><time>2026-05-03T08:41:56Z</time></trkpt><trkpt lat="45.28462121769241" lon="8.914846670484692"><ele>78.0</ele><time>2026-05-03T08:41:57Z</time></trkpt><trkpt lat="45.28467291084563" lon="8.914714929044097"><ele>77.75</ele><time>2026-05-03T08:41:58Z</time></trkpt><trkpt lat="45.28472089154754" lon="8.914578283725126"><ele>77.5</ele><time>2026-05-03T08:41:59Z</time></trkpt><trkpt lat="45.28476309971802" lon="8.914431921329646"><ele>77.25</ele><time>2026-05-03T08:42:00Z</time></trkpt><trkpt lat="45.28481918261204" lon="8.914286540677573"><ele>77.0</ele><time>2026-05-03T08:42:01Z</time></trkpt><trkpt lat="45.28487829068649" lon="8.914140265270559"><ele>76.8</ele><time>2026-05-03T08:42:02Z</time></trkpt><trkpt lat="45.28493462038395" lon="8.913995696379114"><ele>76.6</ele><time>2026-05-03T08:42:03Z</time></trkpt><trkpt lat="45.28498058870212" lon="8.913846187591487"><ele>76.39999999999999</ele><time>2026-05-03T08:42:04Z</time></trkpt><trkpt lat="45.28501802154265" lon="8.913704441835826"><ele>76.2</ele><time>2026-05-03T08:42:05Z</time></trkpt><trkpt lat="45.28505360595038" lon="8.9135562594297"><ele>76.0</ele><time>2026-05-03T08:42:06Z</time></trkpt><trkpt lat="45.28508752416629" lon="8.91339720631946"><ele>76.0</ele><time>2026-05-03T08:42:07Z</time></trkpt><trkpt lat="45.28510470274365" lon="8.91323181456767"><ele>76.0</ele><time>2026-05-03T08:42:08Z</time></trkpt><trkpt lat="45.285129866820625" lon="8.913058630510069"><ele>76.0</ele><time>2026-05-03T08:42:09Z</time></trkpt><trkpt lat="45.28515380311097" lon="8.912885908902915"><ele>76.0</ele><time>2026-05-03T08:42:10Z</time></trkpt><trkpt lat="45.28517438630163" lon="8.912705527156534"><ele>76.0</ele><time>2026-05-03T08:42:11Z</time></trkpt><trkpt lat="45.28519466922131" lon="8.912520188021052"><ele>76.0</ele><time>2026-05-03T08:42:12Z</time></trkpt><trkpt lat="45.2852190475575" lon="8.91233403268889"><ele>76.0</ele><time>2026-05-03T08:42:13Z</time></trkpt><trkpt lat="45.28523993038308" lon="8.91214347330745"><ele>76.0</ele><time>2026-05-03T08:42:14Z</time></trkpt><trkpt lat="45.28525204208972" lon="8.911962654701112"><ele>76.0</ele><time>2026-05-03T08:42:15Z</time></trkpt><trkpt lat="45.285267523241316" lon="8.911801343142377"><ele>76.0</ele><time>2026-05-03T08:42:16Z</time></trkpt><trkpt lat="45.285280188266974" lon="8.911653817833677"><ele>76.0</ele><time>2026-05-03T08:42:17Z</time></trkpt><trkpt lat="45.28529598025235" lon="8.911513528114025"><ele>76.0</ele><time>2026-05-03T08:42:18Z</time></trkpt><trkpt lat="45.285316235244785" lon="8.911384523028895"><ele>76.0</ele><time>2026-05-03T08:42:19Z</time></trkpt><trkpt lat="45.28534461972858" lon="8.911274793914778"><ele>76.14285714285714</ele><time>2026-05-03T08:42:20Z</time></trkpt><trkpt lat="45.28537506755519" lon="8.911176880789235"><ele>76.28571428571429</ele><time>2026-05-03T08:42:21Z</time></trkpt><trkpt lat="45.28540889436124" lon="8.91108871295621"><ele>76.42857142857143</ele><time>2026-05-03T08:42:22Z</time></trkpt><trkpt lat="45.285447188212956" lon="8.911001701772673"><ele>76.57142857142857</ele><time>2026-05-03T08:42:23Z</time></trkpt><trkpt lat="45.28549236797194" lon="8.910914729232564"><ele>76.71428571428572</ele><time>2026-05-03T08:42:24Z</time></trkpt><trkpt lat="45.28554181112103" lon="8.910839729726273"><ele>76.85714285714286</ele><time>2026-05-03T08:42:25Z</time></trkpt><trkpt lat="45.28558907759485" lon="8.9107780224634"><ele>77.0</ele><time>2026-05-03T08:42:26Z</time></trkpt><trkpt lat="45.28569163352332" lon="8.910664868402616"><ele>77.0</ele><time>2026-05-03T08:42:28Z</time></trkpt><trkpt lat="45.285747620085495" lon="8.910616339727676"><ele>77.0</ele><time>2026-05-03T08:42:29Z</time></trkpt><trkpt lat="45.28580632201926" lon="8.910564449827335"><ele>77.0</ele><time>2026-05-03T08:42:30Z</time></trkpt><trkpt lat="45.28587013372227" lon="8.910507215476223"><ele>77.0</ele><time>2026-05-03T08:42:31Z</time></trkpt><trkpt lat="45.28593305856734" lon="8.910449613467032"><ele>77.0</ele><time>2026-05-03T08:42:32Z</time></trkpt><trkpt lat="45.28599349522657" lon="8.9103895614912"><ele>77.0</ele><time>2026-05-03T08:42:33Z</time></trkpt><trkpt lat="45.28607988396089" lon="8.910289304072613"><ele>77.0</ele><time>2026-05-03T08:42:35Z</time></trkpt><trkpt lat="45.286147383078465" lon="8.910192588466348"><ele>77.0</ele><time>2026-05-03T08:42:37Z</time></trkpt><trkpt lat="45.28622137228992" lon="8.91004704326616"><ele>77.0</ele><time>2026-05-03T08:42:39Z</time></trkpt><trkpt lat="45.28627967167446" lon="8.909960757062773"><ele>77.0</ele><time>2026-05-03T08:42:40Z</time></trkpt><trkpt lat="45.28635224331735" lon="8.909877622388661"><ele>77.0</ele><time>2026-05-03T08:42:41Z</time></trkpt><trkpt lat="45.28641019567426" lon="8.909772384799629"><ele>77.0</ele><time>2026-05-03T08:42:42Z</time></trkpt><trkpt lat="45.28648284731169" lon="8.909687030373988"><ele>77.0</ele><time>2026-05-03T08:42:43Z</time></trkpt><trkpt lat="45.286560993372866" lon="8.909603266792177"><ele>77.0</ele><time>2026-05-03T08:42:44Z</time></trkpt><trkpt lat="45.28664031618189" lon="8.909512384216125"><ele>77.0</ele><time>2026-05-03T08:42:45Z</time></trkpt><trkpt lat="45.286711644799965" lon="8.909409759150751"><ele>77.0</ele><time>2026-05-03T08:42:46Z</time></trkpt><trkpt lat="45.28678444277239" lon="8.909288868565469"><ele>78.0</ele><time>2026-05-03T08:42:47Z</time></trkpt><trkpt lat="45.28684520260353" lon="8.909161403378208"><ele>79.0</ele><time>2026-05-03T08:42:48Z</time></trkpt><trkpt lat="45.28691331891492" lon="8.909018440767394"><ele>80.0</ele><time>2026-05-03T08:42:49Z</time></trkpt><trkpt lat="45.28698024170223" lon="8.90889131533352"><ele>81.0</ele><time>2026-05-03T08:42:50Z</time></trkpt><trkpt lat="45.28703993768046" lon="8.908750589114007"><ele>81.0</ele><time>2026-05-03T08:42:51Z</time></trkpt><trkpt lat="45.287101329717004" lon="8.908602323398961"><ele>81.0</ele><time>2026-05-03T08:42:52Z</time></trkpt><trkpt lat="45.287163758289886" lon="8.908445218107191"><ele>81.0</ele><time>2026-05-03T08:42:53Z</time></trkpt><trkpt lat="45.287213473746064" lon="8.908266013168062"><ele>81.0</ele><time>2026-05-03T08:42:54Z</time></trkpt><trkpt lat="45.28728127242927" lon="8.908074048049924"><ele>80.0</ele><time>2026-05-03T08:42:55Z</time></trkpt><trkpt lat="45.28734744465886" lon="8.907849995557102"><ele>79.0</ele><time>2026-05-03T08:42:56Z</time></trkpt><trkpt lat="45.28741198296118" lon="8.90760889485708"><ele>78.0</ele><time>2026-05-03T08:42:57Z</time></trkpt><trkpt lat="45.28746995867076" lon="8.907407418736614"><ele>78.0</ele><time>2026-05-03T08:42:58Z</time></trkpt><trkpt lat="45.28752074792703" lon="8.907232390522458"><ele>78.0</ele><time>2026-05-03T08:42:59Z</time></trkpt><trkpt lat="45.28757853466369" lon="8.907093291500315"><ele>78.0</ele><time>2026-05-03T08:43:00Z</time></trkpt><trkpt lat="45.28761908865105" lon="8.90695348859846"><ele>78.0</ele><time>2026-05-03T08:43:01Z</time></trkpt><trkpt lat="45.287659098019255" lon="8.906812825304822"><ele>78.5</ele><time>2026-05-03T08:43:02Z</time></trkpt><trkpt lat="45.28768910783943" lon="8.906651742720905"><ele>79.0</ele><time>2026-05-03T08:43:03Z</time></trkpt><trkpt lat="45.28773871265086" lon="8.906487153660644"><ele>79.5</ele><time>2026-05-03T08:43:04Z</time></trkpt><trkpt lat="45.28778560004982" lon="8.906314174260388"><ele>80.0</ele><time>2026-05-03T08:43:05Z</time></trkpt><trkpt lat="45.28784084830972" lon="8.906141110592092"><ele>80.0</ele><time>2026-05-03T08:43:06Z</time></trkpt><trkpt lat="45.28788899906615" lon="8.905955154260614"><ele>80.0</ele><time>2026-05-03T08:43:07Z</time></trkpt><trkpt lat="45.28794481256858" lon="8.905768356742785"><ele>80.0</ele><time>2026-05-03T08:43:08Z</time></trkpt><trkpt lat="45.28799559529281" lon="8.905590021982672"><ele>80.0</ele><time>2026-05-03T08:43:09Z</time></trkpt><trkpt lat="45.2880418927367" lon="8.905420263539757"><ele>80.0</ele><time>2026-05-03T08:43:10Z</time></trkpt><trkpt lat="45.2880912211957" lon="8.905258791370757"><ele>80.0</ele><time>2026-05-03T08:43:11Z</time></trkpt><trkpt lat="45.288138639948265" lon="8.905110472824218"><ele>80.0</ele><time>2026-05-03T08:43:12Z</time></trkpt><trkpt lat="45.288177731556885" lon="8.9049700708656"><ele>80.0</ele><time>2026-05-03T08:43:13Z</time></trkpt><trkpt lat="45.28821678011773" lon="8.904835490809209"><ele>80.0</ele><time>2026-05-03T08:43:14Z</time></trkpt><trkpt lat="45.28825701507675" lon="8.904716937325045"><ele>80.0</ele><time>2026-05-03T08:43:15Z</time></trkpt><trkpt lat="45.28827392155523" lon="8.904591320272512"><ele>80.0</ele><time>2026-05-03T08:43:16Z</time></trkpt><trkpt lat="45.28828893565701" lon="8.904464922538727"><ele>80.0</ele><time>2026-05-03T08:43:17Z</time></trkpt><trkpt lat="45.28828272356163" lon="8.904339146668223"><ele>80.0</ele><time>2026-05-03T08:43:18Z</time></trkpt><trkpt lat="45.28826123752148" lon="8.90417802620612"><ele>80.0</ele><time>2026-05-03T08:43:19Z</time></trkpt><trkpt lat="45.28816658005526" lon="8.904031778376817"><ele>81.0</ele><time>2026-05-03T08:43:20Z</time></trkpt><trkpt lat="45.28805364299423" lon="8.903873487777425"><ele>82.0</ele><time>2026-05-03T08:43:21Z</time></trkpt><trkpt lat="45.28791152577865" lon="8.903710136300912"><ele>83.0</ele><time>2026-05-03T08:43:22Z</time></trkpt><trkpt lat="45.287782622837966" lon="8.903522420677755"><ele>83.33333333333334</ele><time>2026-05-03T08:43:23Z</time></trkpt><trkpt lat="45.28765197554734" lon="8.903354835386104"><ele>83.66666666666667</ele><time>2026-05-03T08:43:24Z</time></trkpt><trkpt lat="45.28753408995427" lon="8.903203619599125"><ele>84.0</ele><time>2026-05-03T08:43:25Z</time></trkpt><trkpt lat="45.2874222448025" lon="8.903060152024016"><ele>84.0</ele><time>2026-05-03T08:43:26Z</time></trkpt><trkpt lat="45.28730286852521" lon="8.902907024363449"><ele>84.0</ele><time>2026-05-03T08:43:27Z</time></trkpt><trkpt lat="45.287181891646526" lon="8.902751843592664"><ele>84.0</ele><time>2026-05-03T08:43:28Z</time></trkpt><trkpt lat="45.28705836473711" lon="8.90259339132796"><ele>84.33333333333333</ele><time>2026-05-03T08:43:29Z</time></trkpt><trkpt lat="45.28693545318121" lon="8.902435728954735"><ele>84.66666666666666</ele><time>2026-05-03T08:43:30Z</time></trkpt><trkpt lat="45.286810158100145" lon="8.902275169034828"><ele>85.0</ele><time>2026-05-03T08:43:31Z</time></trkpt><trkpt lat="45.28668029098175" lon="8.902139729079988"><ele>85.0</ele><time>2026-05-03T08:43:32Z</time></trkpt><trkpt lat="45.286565627594904" lon="8.901994090679056"><ele>85.0</ele><time>2026-05-03T08:43:33Z</time></trkpt><trkpt lat="45.286457964741686" lon="8.901858418671422"><ele>85.0</ele><time>2026-05-03T08:43:34Z</time></trkpt><trkpt lat="45.28636734040517" lon="8.901711430171954"><ele>85.0</ele><time>2026-05-03T08:43:35Z</time></trkpt><trkpt lat="45.28626547322804" lon="8.901581746075323"><ele>85.75</ele><time>2026-05-03T08:43:36Z</time></trkpt><trkpt lat="45.28615616499848" lon="8.901469875522963"><ele>86.5</ele><time>2026-05-03T08:43:37Z</time></trkpt><trkpt lat="45.28606170025941" lon="8.901345319601615"><ele>87.25</ele><time>2026-05-03T08:43:38Z</time></trkpt><trkpt lat="45.28597593372641" lon="8.901207097513993"><ele>88.0</ele><time>2026-05-03T08:43:39Z</time></trkpt><trkpt lat="45.28588016058474" lon="8.901084246356278"><ele>88.0</ele><time>2026-05-03T08:43:40Z</time></trkpt><trkpt lat="45.28579235081025" lon="8.900974333491488"><ele>88.0</ele><time>2026-05-03T08:43:41Z</time></trkpt><trkpt lat="45.285717495340464" lon="8.900882218736786"><ele>88.0</ele><time>2026-05-03T08:43:42Z</time></trkpt><trkpt lat="45.285648666238224" lon="8.900805327948056"><ele>88.0</ele><time>2026-05-03T08:43:43Z</time></trkpt><trkpt lat="45.28557599620933" lon="8.900743601540185"><ele>88.0</ele><time>2026-05-03T08:43:44Z</time></trkpt><trkpt lat="45.28551386201683" lon="8.90068149217755"><ele>88.5</ele><time>2026-05-03T08:43:45Z</time></trkpt><trkpt lat="45.2854425772786" lon="8.900629532793843"><ele>89.0</ele><time>2026-05-03T08:43:46Z</time></trkpt><trkpt lat="45.285365067484285" lon="8.900575401430006"><ele>89.5</ele><time>2026-05-03T08:43:47Z</time></trkpt><trkpt lat="45.28529107500193" lon="8.900524619551334"><ele>90.0</ele><time>2026-05-03T08:43:48Z</time></trkpt><trkpt lat="45.28521950630712" lon="8.900441084217041"><ele>90.5</ele><time>2026-05-03T08:43:49Z</time></trkpt><trkpt lat="45.285129800601936" lon="8.900370048258917"><ele>91.0</ele><time>2026-05-03T08:43:50Z</time></trkpt><trkpt lat="45.28503581078216" lon="8.90029444128144"><ele>91.0</ele><time>2026-05-03T08:43:51Z</time></trkpt><trkpt lat="45.284931200559605" lon="8.900228893493674"><ele>91.0</ele><time>2026-05-03T08:43:52Z</time></trkpt><trkpt lat="45.28482969069116" lon="8.900129538865787"><ele>91.0</ele><time>2026-05-03T08:43:53Z</time></trkpt><trkpt lat="45.284721586866034" lon="8.900043335746192"><ele>91.0</ele><time>2026-05-03T08:43:54Z</time></trkpt><trkpt lat="45.28461175386748" lon="8.899952586816648"><ele>92.0</ele><time>2026-05-03T08:43:55Z</time></trkpt><trkpt lat="45.284502823681535" lon="8.899857668345815"><ele>93.0</ele><time>2026-05-03T08:43:56Z</time></trkpt><trkpt lat="45.28440087934917" lon="8.89976582669731"><ele>94.0</ele><time>2026-05-03T08:43:57Z</time></trkpt><trkpt lat="45.28431552363125" lon="8.899651829082025"><ele>95.0</ele><time>2026-05-03T08:43:58Z</time></trkpt><trkpt lat="45.284218893684645" lon="8.899573021689697"><ele>95.0</ele><time>2026-05-03T08:43:59Z</time></trkpt><trkpt lat="45.28412546943505" lon="8.899470048738403"><ele>95.0</ele><time>2026-05-03T08:44:00Z</time></trkpt><trkpt lat="45.28404085716396" lon="8.899361861691338"><ele>95.0</ele><time>2026-05-03T08:44:01Z</time></trkpt><trkpt lat="45.283955436811006" lon="8.899247514784035"><ele>95.0</ele><time>2026-05-03T08:44:02Z</time></trkpt><trkpt lat="45.28387479772038" lon="8.899132759312666"><ele>94.0</ele><time>2026-05-03T08:44:03Z</time></trkpt><trkpt lat="45.28379770364563" lon="8.899015742194894"><ele>93.0</ele><time>2026-05-03T08:44:04Z</time></trkpt><trkpt lat="45.28371670506056" lon="8.898900001849638"><ele>92.0</ele><time>2026-05-03T08:44:05Z</time></trkpt><trkpt lat="45.28363522673847" lon="8.898784957341919"><ele>91.0</ele><time>2026-05-03T08:44:06Z</time></trkpt><trkpt lat="45.28354262606366" lon="8.898688271019468"><ele>91.0</ele><time>2026-05-03T08:44:07Z</time></trkpt><trkpt lat="45.28344959800761" lon="8.898605342838778"><ele>91.0</ele><time>2026-05-03T08:44:08Z</time></trkpt><trkpt lat="45.283371553841334" lon="8.89852903262623"><ele>91.0</ele><time>2026-05-03T08:44:09Z</time></trkpt><trkpt lat="45.28330428280981" lon="8.898453614776875"><ele>91.0</ele><time>2026-05-03T08:44:10Z</time></trkpt><trkpt lat="45.283242721754355" lon="8.898388229313946"><ele>91.0</ele><time>2026-05-03T08:44:11Z</time></trkpt><trkpt lat="45.28316547561693" lon="8.898284218075611"><ele>91.0</ele><time>2026-05-03T08:44:13Z</time></trkpt><trkpt lat="45.28311551927979" lon="8.898211122637662"><ele>91.0</ele><time>2026-05-03T08:44:15Z</time></trkpt><trkpt lat="45.2829769459094" lon="8.89831341989674"><ele>91.0</ele><time>2026-05-03T08:44:18Z</time></trkpt><trkpt lat="45.28292359323965" lon="8.898385270607235"><ele>91.0</ele><time>2026-05-03T08:44:19Z</time></trkpt><trkpt lat="45.28283661928938" lon="8.898473688371453"><ele>91.0</ele><time>2026-05-03T08:44:21Z</time></trkpt><trkpt lat="45.28278631113234" lon="8.898564850067785"><ele>90.66666666666666</ele><time>2026-05-03T08:44:23Z</time></trkpt><trkpt lat="45.28272878602009" lon="8.898629808361756"><ele>90.33333333333333</ele><time>2026-05-03T08:44:25Z</time></trkpt><trkpt lat="45.28267829389888" lon="8.898695721061827"><ele>90.0</ele><time>2026-05-03T08:44:27Z</time></trkpt><trkpt lat="45.282619010411935" lon="8.898782971083776"><ele>89.66666666666667</ele><time>2026-05-03T08:44:29Z</time></trkpt><trkpt lat="45.2825661700517" lon="8.898873623417277"><ele>89.33333333333334</ele><time>2026-05-03T08:44:31Z</time></trkpt><trkpt lat="45.28253886306019" lon="8.899009904631471"><ele>89.0</ele><time>2026-05-03T08:44:33Z</time></trkpt><trkpt lat="45.28251284243736" lon="8.89916819059512"><ele>88.80000000000001</ele><time>2026-05-03T08:44:35Z</time></trkpt><trkpt lat="45.282493894638996" lon="8.89932567339979"><ele>88.60000000000001</ele><time>2026-05-03T08:44:37Z</time></trkpt><trkpt lat="45.282481952648794" lon="8.899460458412776"><ele>88.4</ele><time>2026-05-03T08:44:39Z</time></trkpt><trkpt lat="45.28247563422063" lon="8.899572274915771"><ele>88.2</ele><time>2026-05-03T08:44:41Z</time></trkpt><trkpt lat="45.282471618126316" lon="8.899688933437254"><ele>88.0</ele><time>2026-05-03T08:44:43Z</time></trkpt><trkpt lat="45.28247388253393" lon="8.899831416766228"><ele>88.0</ele><time>2026-05-03T08:44:45Z</time></trkpt><trkpt lat="45.28248101734113" lon="8.899975972845848"><ele>88.0</ele><time>2026-05-03T08:44:47Z</time></trkpt><trkpt lat="45.282504167349956" lon="8.900081326246337"><ele>88.0</ele><time>2026-05-03T08:44:49Z</time></trkpt><trkpt lat="45.28251778240137" lon="8.90025835708763"><ele>88.0</ele><time>2026-05-03T08:44:51Z</time></trkpt><trkpt lat="45.28255622486214" lon="8.900390869936137"><ele>88.0</ele><time>2026-05-03T08:44:53Z</time></trkpt><trkpt lat="45.28257115638707" lon="8.900541138429658"><ele>87.2</ele><time>2026-05-03T08:44:55Z</time></trkpt><trkpt lat="45.282576179162696" lon="8.900689430129358"><ele>86.4</ele><time>2026-05-03T08:44:57Z</time></trkpt><trkpt lat="45.28253044800127" lon="8.900799108969398"><ele>85.60000000000001</ele><time>2026-05-03T08:44:59Z</time></trkpt><trkpt lat="45.28249270846195" lon="8.900895019247042"><ele>84.80000000000001</ele><time>2026-05-03T08:45:01Z</time></trkpt><trkpt lat="45.28243192184986" lon="8.901028719247737"><ele>84.0</ele><time>2026-05-03T08:45:03Z</time></trkpt><trkpt lat="45.28238265262207" lon="8.901130934523797"><ele>83.6</ele><time>2026-05-03T08:45:05Z</time></trkpt><trkpt lat="45.28231672417872" lon="8.901257058870938"><ele>83.2</ele><time>2026-05-03T08:45:07Z</time></trkpt><trkpt lat="45.282251238151666" lon="8.90138084469953"><ele>82.8</ele><time>2026-05-03T08:45:09Z</time></trkpt><trkpt lat="45.28219088416495" lon="8.901494929659531"><ele>82.39999999999999</ele><time>2026-05-03T08:45:11Z</time></trkpt><trkpt lat="45.28213109399309" lon="8.901609577638416"><ele>82.0</ele><time>2026-05-03T08:45:13Z</time></trkpt><trkpt lat="45.28208141872465" lon="8.901730470683422"><ele>81.6</ele><time>2026-05-03T08:45:15Z</time></trkpt><trkpt lat="45.282028098353486" lon="8.901820448893424"><ele>81.19999999999999</ele><time>2026-05-03T08:45:17Z</time></trkpt><trkpt lat="45.281968788392334" lon="8.901893253790654"><ele>80.8</ele><time>2026-05-03T08:45:19Z</time></trkpt><trkpt lat="45.281843458258" lon="8.901892623593634"><ele>80.4</ele><time>2026-05-03T08:45:21Z</time></trkpt><trkpt lat="45.28175449420062" lon="8.901899187655419"><ele>80.0</ele><time>2026-05-03T08:45:22Z</time></trkpt><trkpt lat="45.28168067437013" lon="8.901909273236251"><ele>80.0</ele><time>2026-05-03T08:45:23Z</time></trkpt><trkpt lat="45.281601163736255" lon="8.901920991627472"><ele>80.0</ele><time>2026-05-03T08:45:24Z</time></trkpt><trkpt lat="45.28152291932555" lon="8.901935503969927"><ele>80.0</ele><time>2026-05-03T08:45:25Z</time></trkpt><trkpt lat="45.281451648998626" lon="8.901954389732"><ele>80.0</ele><time>2026-05-03T08:45:26Z</time></trkpt><trkpt lat="45.281372484172024" lon="8.901986207360341"><ele>80.0</ele><time>2026-05-03T08:45:27Z</time></trkpt><trkpt lat="45.28129441597942" lon="8.902019839269226"><ele>80.0</ele><time>2026-05-03T08:45:28Z</time></trkpt><trkpt lat="45.28121647931405" lon="8.90205341450969"><ele>79.4</ele><time>2026-05-03T08:45:29Z</time></trkpt><trkpt lat="45.28112994369344" lon="8.90209069418552"><ele>78.8</ele><time>2026-05-03T08:45:30Z</time></trkpt><trkpt lat="45.28106725591351" lon="8.902118539948447"><ele>78.2</ele><time>2026-05-03T08:45:31Z</time></trkpt><trkpt lat="45.28096737836846" lon="8.902164111250901"><ele>77.6</ele><time>2026-05-03T08:45:33Z</time></trkpt><trkpt lat="45.28087437772992" lon="8.902205920716018"><ele>77.0</ele><time>2026-05-03T08:45:35Z</time></trkpt><trkpt lat="45.280783760423574" lon="8.902261124679463"><ele>77.0</ele><time>2026-05-03T08:45:37Z</time></trkpt><trkpt lat="45.28066614729581" lon="8.902306708107076"><ele>77.0</ele><time>2026-05-03T08:45:39Z</time></trkpt><trkpt lat="45.28058995180611" lon="8.90233875365654"><ele>77.0</ele><time>2026-05-03T08:45:40Z</time></trkpt><trkpt lat="45.280503972946406" lon="8.902369668354854"><ele>77.0</ele><time>2026-05-03T08:45:41Z</time></trkpt><trkpt lat="45.280417219335234" lon="8.90240759352643"><ele>77.0</ele><time>2026-05-03T08:45:42Z</time></trkpt><trkpt lat="45.280319234750095" lon="8.902449475943964"><ele>76.83333333333334</ele><time>2026-05-03T08:45:43Z</time></trkpt><trkpt lat="45.28021601543193" lon="8.902491819616737"><ele>76.66666666666667</ele><time>2026-05-03T08:45:44Z</time></trkpt><trkpt lat="45.28013075736369" lon="8.902526135661997"><ele>76.5</ele><time>2026-05-03T08:45:45Z</time></trkpt><trkpt lat="45.2800673337507" lon="8.902549688142981"><ele>76.33333333333333</ele><time>2026-05-03T08:45:46Z</time></trkpt><trkpt lat="45.27996304050174" lon="8.90259640021043"><ele>76.16666666666666</ele><time>2026-05-03T08:45:48Z</time></trkpt><trkpt lat="45.27989432526219" lon="8.902618182284293"><ele>76.0</ele><time>2026-05-03T08:45:49Z</time></trkpt><trkpt lat="45.279811268255266" lon="8.902659400519266"><ele>76.33333333333333</ele><time>2026-05-03T08:45:50Z</time></trkpt><trkpt lat="45.279734410315704" lon="8.902683901538971"><ele>76.66666666666666</ele><time>2026-05-03T08:45:51Z</time></trkpt><trkpt lat="45.279657980359694" lon="8.902723519558709"><ele>77.0</ele><time>2026-05-03T08:45:52Z</time></trkpt><trkpt lat="45.279589819463595" lon="8.902744789372742"><ele>77.33333333333333</ele><time>2026-05-03T08:45:53Z</time></trkpt><trkpt lat="45.27949220311815" lon="8.90278506234982"><ele>77.66666666666667</ele><time>2026-05-03T08:45:55Z</time></trkpt><trkpt lat="45.27939688164343" lon="8.902829802518017"><ele>78.0</ele><time>2026-05-03T08:46:07Z</time></trkpt><trkpt lat="45.27932724474706" lon="8.902835529135633"><ele>78.0</ele><time>2026-05-03T08:46:08Z</time></trkpt><trkpt lat="45.2792525441991" lon="8.902864287999558"><ele>78.0</ele><time>2026-05-03T08:46:10Z</time></trkpt><trkpt lat="45.2791704074774" lon="8.902895909750645"><ele>78.0</ele><time>2026-05-03T08:46:12Z</time></trkpt><trkpt lat="45.27910447993894" lon="8.902921291126372"><ele>78.0</ele><time>2026-05-03T08:46:13Z</time></trkpt><trkpt lat="45.279023122588725" lon="8.902952352161073"><ele>78.0</ele><time>2026-05-03T08:46:14Z</time></trkpt><trkpt lat="45.278930703856446" lon="8.902987530208895"><ele>78.0</ele><time>2026-05-03T08:46:16Z</time></trkpt><trkpt lat="45.278819246784586" lon="8.903032388190837"><ele>77.8</ele><time>2026-05-03T08:46:18Z</time></trkpt><trkpt lat="45.27872313335759" lon="8.90307436892626"><ele>77.6</ele><time>2026-05-03T08:46:19Z</time></trkpt><trkpt lat="45.27862031724923" lon="8.90312169298409"><ele>77.4</ele><time>2026-05-03T08:46:20Z</time></trkpt><trkpt lat="45.278502439726196" lon="8.903186779704987"><ele>77.2</ele><time>2026-05-03T08:46:21Z</time></trkpt><trkpt lat="45.27841547638886" lon="8.903227664006502"><ele>77.0</ele><time>2026-05-03T08:46:22Z</time></trkpt><trkpt lat="45.2783099174535" lon="8.903275100631959"><ele>77.0</ele><time>2026-05-03T08:46:24Z</time></trkpt><trkpt lat="45.278241907552285" lon="8.903276315652674"><ele>77.0</ele><time>2026-05-03T08:46:25Z</time></trkpt><trkpt lat="45.27816316225388" lon="8.903309482161276"><ele>77.0</ele><time>2026-05-03T08:46:26Z</time></trkpt><trkpt lat="45.278086988613815" lon="8.903364722475436"><ele>77.0</ele><time>2026-05-03T08:46:27Z</time></trkpt><trkpt lat="45.277997078121054" lon="8.90339287693314"><ele>77.0</ele><time>2026-05-03T08:46:28Z</time></trkpt><trkpt lat="45.27791569391941" lon="8.903424473481842"><ele>77.0</ele><time>2026-05-03T08:46:29Z</time></trkpt><trkpt lat="45.277829719135774" lon="8.903460628955647"><ele>76.8</ele><time>2026-05-03T08:46:30Z</time></trkpt><trkpt lat="45.27773586560242" lon="8.90349281684836"><ele>76.6</ele><time>2026-05-03T08:46:31Z</time></trkpt><trkpt lat="45.27764544839901" lon="8.903523833571642"><ele>76.39999999999999</ele><time>2026-05-03T08:46:32Z</time></trkpt><trkpt lat="45.27754460333088" lon="8.903568987928967"><ele>76.2</ele><time>2026-05-03T08:46:33Z</time></trkpt><trkpt lat="45.27743643121434" lon="8.903603675992745"><ele>76.0</ele><time>2026-05-03T08:46:34Z</time></trkpt><trkpt lat="45.27732580709702" lon="8.903657306996411"><ele>76.2</ele><time>2026-05-03T08:46:35Z</time></trkpt><trkpt lat="45.27721892644557" lon="8.903692817912466"><ele>76.39999999999999</ele><time>2026-05-03T08:46:36Z</time></trkpt><trkpt lat="45.27712476820987" lon="8.903715318250574"><ele>76.6</ele><time>2026-05-03T08:46:37Z</time></trkpt><trkpt lat="45.277028820891374" lon="8.903753492081982"><ele>76.8</ele><time>2026-05-03T08:46:38Z</time></trkpt><trkpt lat="45.27692517735383" lon="8.903814141973607"><ele>77.0</ele><time>2026-05-03T08:46:39Z</time></trkpt><trkpt lat="45.27682568151177" lon="8.903857203446963"><ele>77.0</ele><time>2026-05-03T08:46:40Z</time></trkpt><trkpt lat="45.27673924177367" lon="8.903891845438281"><ele>77.0</ele><time>2026-05-03T08:46:41Z</time></trkpt><trkpt lat="45.2766638171704" lon="8.903927743179265"><ele>77.0</ele><time>2026-05-03T08:46:42Z</time></trkpt><trkpt lat="45.27657977978071" lon="8.903964780314443"><ele>77.0</ele><time>2026-05-03T08:46:43Z</time></trkpt><trkpt lat="45.27648834244166" lon="8.904003997687699"><ele>77.0</ele><time>2026-05-03T08:46:44Z</time></trkpt><trkpt lat="45.276401766361325" lon="8.904038787304897"><ele>77.0</ele><time>2026-05-03T08:46:45Z</time></trkpt><trkpt lat="45.27633383979564" lon="8.904069818337113"><ele>77.0</ele><time>2026-05-03T08:46:46Z</time></trkpt><trkpt lat="45.27623749297813" lon="8.90411080863132"><ele>77.0</ele><time>2026-05-03T08:46:48Z</time></trkpt><trkpt lat="45.27615338887384" lon="8.904138481446534"><ele>77.0</ele><time>2026-05-03T08:46:50Z</time></trkpt><trkpt lat="45.27608395621996" lon="8.904223288611307"><ele>77.0</ele><time>2026-05-03T08:46:52Z</time></trkpt><trkpt lat="45.27608979798481" lon="8.904337932117427"><ele>77.0</ele><time>2026-05-03T08:46:53Z</time></trkpt><trkpt lat="45.27613631497537" lon="8.904459960982082"><ele>77.0</ele><time>2026-05-03T08:46:54Z</time></trkpt><trkpt lat="45.27614531439047" lon="8.904644257205032"><ele>77.0</ele><time>2026-05-03T08:46:55Z</time></trkpt><trkpt lat="45.27616473578495" lon="8.904818991145685"><ele>77.0</ele><time>2026-05-03T08:46:56Z</time></trkpt><trkpt lat="45.27617892653308" lon="8.904959151194717"><ele>77.0</ele><time>2026-05-03T08:46:57Z</time></trkpt><trkpt lat="45.27620716866632" lon="8.90508475598302"><ele>77.0</ele><time>2026-05-03T08:46:58Z</time></trkpt><trkpt lat="45.276217970439404" lon="8.905198834017451"><ele>77.0</ele><time>2026-05-03T08:46:59Z</time></trkpt><trkpt lat="45.27623718545957" lon="8.905395735677418"><ele>77.0</ele><time>2026-05-03T08:47:01Z</time></trkpt><trkpt lat="45.27624398193834" lon="8.905503051820611"><ele>77.0</ele><time>2026-05-03T08:47:02Z</time></trkpt><trkpt lat="45.27625044828492" lon="8.905599059770905"><ele>77.0</ele><time>2026-05-03T08:47:03Z</time></trkpt><trkpt lat="45.276213583995634" lon="8.905721504972629"><ele>77.0</ele><time>2026-05-03T08:47:05Z</time></trkpt><trkpt lat="45.27607871797783" lon="8.905757209609659"><ele>77.0</ele><time>2026-05-03T08:47:07Z</time></trkpt><trkpt lat="45.2759778200659" lon="8.905795185960477"><ele>77.0</ele><time>2026-05-03T08:47:08Z</time></trkpt><trkpt lat="45.27587045583164" lon="8.905835954929842"><ele>77.0</ele><time>2026-05-03T08:47:09Z</time></trkpt><trkpt lat="45.275768206699375" lon="8.90589856498237"><ele>77.0</ele><time>2026-05-03T08:47:10Z</time></trkpt><trkpt lat="45.27566485412809" lon="8.90593907843294"><ele>77.0</ele><time>2026-05-03T08:47:11Z</time></trkpt><trkpt lat="45.27555499447333" lon="8.905969444367221"><ele>77.0</ele><time>2026-05-03T08:47:12Z</time></trkpt><trkpt lat="45.27546133145192" lon="8.906011696904153"><ele>77.0</ele><time>2026-05-03T08:47:13Z</time></trkpt><trkpt lat="45.27535865158869" lon="8.906045392554136"><ele>77.0</ele><time>2026-05-03T08:47:14Z</time></trkpt><trkpt lat="45.275254395403216" lon="8.906077733571475"><ele>77.0</ele><time>2026-05-03T08:47:15Z</time></trkpt><trkpt lat="45.275136549890924" lon="8.906124423272267"><ele>77.0</ele><time>2026-05-03T08:47:16Z</time></trkpt><trkpt lat="45.27502759772512" lon="8.906170599960278"><ele>77.0</ele><time>2026-05-03T08:47:17Z</time></trkpt><trkpt lat="45.27491794635025" lon="8.906207937585382"><ele>77.0</ele><time>2026-05-03T08:47:18Z</time></trkpt><trkpt lat="45.27481382745069" lon="8.90624218515853"><ele>77.0</ele><time>2026-05-03T08:47:19Z</time></trkpt><trkpt lat="45.274716385071" lon="8.906276167371347"><ele>77.0</ele><time>2026-05-03T08:47:20Z</time></trkpt><trkpt lat="45.27460692406543" lon="8.906319122268002"><ele>77.0</ele><time>2026-05-03T08:47:21Z</time></trkpt><trkpt lat="45.27449108912988" lon="8.906354631001832"><ele>76.8</ele><time>2026-05-03T08:47:22Z</time></trkpt><trkpt lat="45.274392721128116" lon="8.906396892204219"><ele>76.6</ele><time>2026-05-03T08:47:23Z</time></trkpt><trkpt lat="45.27428531150018" lon="8.906435716843866"><ele>76.39999999999999</ele><time>2026-05-03T08:47:24Z</time></trkpt><trkpt lat="45.274171286163" lon="8.906479140154936"><ele>76.2</ele><time>2026-05-03T08:47:25Z</time></trkpt><trkpt lat="45.274062153927524" lon="8.906517435842575"><ele>76.0</ele><time>2026-05-03T08:47:26Z</time></trkpt><trkpt lat="45.273937233693154" lon="8.906559027470658"><ele>76.0</ele><time>2026-05-03T08:47:27Z</time></trkpt><trkpt lat="45.27379712308576" lon="8.906596663212259"><ele>76.0</ele><time>2026-05-03T08:47:28Z</time></trkpt><trkpt lat="45.27368410542737" lon="8.906636191820475"><ele>76.0</ele><time>2026-05-03T08:47:29Z</time></trkpt><trkpt lat="45.27357417219168" lon="8.90668293399405"><ele>76.0</ele><time>2026-05-03T08:47:30Z</time></trkpt><trkpt lat="45.27345288864064" lon="8.90672099972597"><ele>76.0</ele><time>2026-05-03T08:47:31Z</time></trkpt><trkpt lat="45.273341896582906" lon="8.906763162009634"><ele>76.0</ele><time>2026-05-03T08:47:32Z</time></trkpt><trkpt lat="45.27324541260146" lon="8.90680213715632"><ele>76.0</ele><time>2026-05-03T08:47:33Z</time></trkpt><trkpt lat="45.27317019650717" lon="8.906831882338148"><ele>76.0</ele><time>2026-05-03T08:47:34Z</time></trkpt><trkpt lat="45.27310252202676" lon="8.906855369324157"><ele>76.0</ele><time>2026-05-03T08:47:35Z</time></trkpt><trkpt lat="45.27298770271492" lon="8.906897626956248"><ele>75.83333333333333</ele><time>2026-05-03T08:47:37Z</time></trkpt><trkpt lat="45.27292370125528" lon="8.906915660119866"><ele>75.66666666666666</ele><time>2026-05-03T08:47:38Z</time></trkpt><trkpt lat="45.272829393511145" lon="8.906942568709106"><ele>75.5</ele><time>2026-05-03T08:47:40Z</time></trkpt><trkpt lat="45.27276385874752" lon="8.906966930579266"><ele>75.33333333333333</ele><time>2026-05-03T08:47:42Z</time></trkpt><trkpt lat="45.2728026972583" lon="8.90710636019931"><ele>75.16666666666667</ele><time>2026-05-03T08:47:43Z</time></trkpt><trkpt lat="45.27284171097181" lon="8.907185142199614"><ele>75.0</ele><time>2026-05-03T08:47:44Z</time></trkpt><trkpt lat="45.27289030786824" lon="8.907321485391694"><ele>75.0</ele><time>2026-05-03T08:47:45Z</time></trkpt><trkpt lat="45.272958192814805" lon="8.907466017890698"><ele>75.0</ele><time>2026-05-03T08:47:46Z</time></trkpt><trkpt lat="45.27302865330869" lon="8.90761603457836"><ele>75.0</ele><time>2026-05-03T08:47:47Z</time></trkpt><trkpt lat="45.27309441609273" lon="8.907756049368347"><ele>75.0</ele><time>2026-05-03T08:47:48Z</time></trkpt><trkpt lat="45.27315525985487" lon="8.907880724485691"><ele>75.25</ele><time>2026-05-03T08:47:49Z</time></trkpt><trkpt lat="45.27323635175984" lon="8.907997179787658"><ele>75.5</ele><time>2026-05-03T08:47:50Z</time></trkpt><trkpt lat="45.27330793392153" lon="8.908123268081237"><ele>75.75</ele><time>2026-05-03T08:47:51Z</time></trkpt><trkpt lat="45.27336937775833" lon="8.908252886827746"><ele>76.0</ele><time>2026-05-03T08:47:52Z</time></trkpt><trkpt lat="45.27345410051637" lon="8.908367398848094"><ele>76.0</ele><time>2026-05-03T08:47:53Z</time></trkpt><trkpt lat="45.273525462809765" lon="8.908491580893937"><ele>76.0</ele><time>2026-05-03T08:47:54Z</time></trkpt><trkpt lat="45.27359563618636" lon="8.908604312648"><ele>76.0</ele><time>2026-05-03T08:47:55Z</time></trkpt><trkpt lat="45.273654126977455" lon="8.908710954221917"><ele>76.0</ele><time>2026-05-03T08:47:56Z</time></trkpt><trkpt lat="45.27371075806296" lon="8.908817422124681"><ele>76.0</ele><time>2026-05-03T08:47:57Z</time></trkpt><trkpt lat="45.273784190966836" lon="8.908952891470923"><ele>76.0</ele><time>2026-05-03T08:47:58Z</time></trkpt><trkpt lat="45.273855196180335" lon="8.909080940955324"><ele>76.0</ele><time>2026-05-03T08:47:59Z</time></trkpt><trkpt lat="45.27392595819708" lon="8.909216840236052"><ele>76.0</ele><time>2026-05-03T08:48:00Z</time></trkpt><trkpt lat="45.273994987604155" lon="8.909358283503087"><ele>76.0</ele><time>2026-05-03T08:48:01Z</time></trkpt><trkpt lat="45.274062413984154" lon="8.909494764290265"><ele>76.0</ele><time>2026-05-03T08:48:02Z</time></trkpt><trkpt lat="45.27412555178122" lon="8.909617468326243"><ele>76.0</ele><time>2026-05-03T08:48:03Z</time></trkpt><trkpt lat="45.2741938175975" lon="8.909749924261712"><ele>76.0</ele><time>2026-05-03T08:48:04Z</time></trkpt><trkpt lat="45.274265215359556" lon="8.909899410737669"><ele>76.0</ele><time>2026-05-03T08:48:05Z</time></trkpt><trkpt lat="45.27433741997925" lon="8.910047255140569"><ele>76.0</ele><time>2026-05-03T08:48:06Z</time></trkpt><trkpt lat="45.274408648400076" lon="8.910198246199483"><ele>76.0</ele><time>2026-05-03T08:48:07Z</time></trkpt><trkpt lat="45.27448342071791" lon="8.910349922290738"><ele>76.0</ele><time>2026-05-03T08:48:08Z</time></trkpt><trkpt lat="45.27456843074303" lon="8.910491181749848"><ele>76.0</ele><time>2026-05-03T08:48:09Z</time></trkpt><trkpt lat="45.274643279840554" lon="8.910647732327574"><ele>76.0</ele><time>2026-05-03T08:48:10Z</time></trkpt><trkpt lat="45.274720584205284" lon="8.910800063936607"><ele>76.0</ele><time>2026-05-03T08:48:11Z</time></trkpt><trkpt lat="45.27479961320693" lon="8.910956658702903"><ele>76.0</ele><time>2026-05-03T08:48:12Z</time></trkpt><trkpt lat="45.27488433722454" lon="8.911107863651953"><ele>76.0</ele><time>2026-05-03T08:48:13Z</time></trkpt><trkpt lat="45.2749527369212" lon="8.911254384477925"><ele>76.0</ele><time>2026-05-03T08:48:14Z</time></trkpt><trkpt lat="45.275019865719514" lon="8.911383823602836"><ele>76.0</ele><time>2026-05-03T08:48:15Z</time></trkpt><trkpt lat="45.27507873407231" lon="8.911504414882188"><ele>76.0</ele><time>2026-05-03T08:48:16Z</time></trkpt><trkpt lat="45.275138409384894" lon="8.91162055292451"><ele>76.0</ele><time>2026-05-03T08:48:17Z</time></trkpt><trkpt lat="45.27520503235621" lon="8.91174926015768"><ele>76.0</ele><time>2026-05-03T08:48:18Z</time></trkpt><trkpt lat="45.275259575983064" lon="8.911863869538603"><ele>76.16666666666666</ele><time>2026-05-03T08:48:19Z</time></trkpt><trkpt lat="45.275301066000935" lon="8.911959720113703"><ele>76.33333333333333</ele><time>2026-05-03T08:48:20Z</time></trkpt><trkpt lat="45.27530618000428" lon="8.91206802912607"><ele>76.5</ele><time>2026-05-03T08:48:21Z</time></trkpt><trkpt lat="45.275304038353944" lon="8.912162191995009"><ele>76.66666666666667</ele><time>2026-05-03T08:48:22Z</time></trkpt><trkpt lat="45.275272577881104" lon="8.912259456634112"><ele>76.83333333333334</ele><time>2026-05-03T08:48:23Z</time></trkpt><trkpt lat="45.275236729887695" lon="8.912380709010884"><ele>77.0</ele><time>2026-05-03T08:48:24Z</time></trkpt><trkpt lat="45.275187050300666" lon="8.91254808214204"><ele>76.75</ele><time>2026-05-03T08:48:25Z</time></trkpt><trkpt lat="45.27513587845458" lon="8.912714654415405"><ele>76.5</ele><time>2026-05-03T08:48:26Z</time></trkpt><trkpt lat="45.27508316401159" lon="8.912884595628988"><ele>76.25</ele><time>2026-05-03T08:48:27Z</time></trkpt><trkpt lat="45.275038022832774" lon="8.913030122089104"><ele>76.0</ele><time>2026-05-03T08:48:28Z</time></trkpt><trkpt lat="45.274990693053525" lon="8.913184135774106"><ele>76.0</ele><time>2026-05-03T08:48:29Z</time></trkpt><trkpt lat="45.274946498637966" lon="8.913333125318497"><ele>76.0</ele><time>2026-05-03T08:48:30Z</time></trkpt><trkpt lat="45.27489568171137" lon="8.913504441112146"><ele>76.0</ele><time>2026-05-03T08:48:31Z</time></trkpt><trkpt lat="45.27486092876238" lon="8.913673869341531"><ele>76.0</ele><time>2026-05-03T08:48:32Z</time></trkpt><trkpt lat="45.27482448384029" lon="8.913803287689326"><ele>76.0</ele><time>2026-05-03T08:48:33Z</time></trkpt><trkpt lat="45.27477589436399" lon="8.913908816006654"><ele>76.0</ele><time>2026-05-03T08:48:34Z</time></trkpt><trkpt lat="45.27474332448261" lon="8.914018803591267"><ele>76.0</ele><time>2026-05-03T08:48:35Z</time></trkpt><trkpt lat="45.27471869830104" lon="8.914104642569114"><ele>76.0</ele><time>2026-05-03T08:48:36Z</time></trkpt><trkpt lat="45.274698489945514" lon="8.914244837112088"><ele>76.0</ele><time>2026-05-03T08:48:38Z</time></trkpt><trkpt lat="45.27462085286741" lon="8.914337377635128"><ele>76.0</ele><time>2026-05-03T08:48:40Z</time></trkpt><trkpt lat="45.27455354316616" lon="8.9143649210606"><ele>76.25</ele><time>2026-05-03T08:48:41Z</time></trkpt><trkpt lat="45.27444279052603" lon="8.914361429304467"><ele>76.5</ele><time>2026-05-03T08:48:42Z</time></trkpt><trkpt lat="45.27434344364958" lon="8.914448715430238"><ele>76.75</ele><time>2026-05-03T08:48:43Z</time></trkpt><trkpt lat="45.27422232161993" lon="8.91449006424197"><ele>77.0</ele><time>2026-05-03T08:48:44Z</time></trkpt><trkpt lat="45.2741038064324" lon="8.914554575401011"><ele>77.0</ele><time>2026-05-03T08:48:45Z</time></trkpt><trkpt lat="45.27399997645206" lon="8.914614546624039"><ele>77.0</ele><time>2026-05-03T08:48:46Z</time></trkpt><trkpt lat="45.27389755731741" lon="8.914675679966386"><ele>77.0</ele><time>2026-05-03T08:48:47Z</time></trkpt><trkpt lat="45.27380844689877" lon="8.914728869386895"><ele>77.0</ele><time>2026-05-03T08:48:48Z</time></trkpt><trkpt lat="45.27370118219307" lon="8.91479289505719"><ele>77.0</ele><time>2026-05-03T08:48:49Z</time></trkpt><trkpt lat="45.273593703591814" lon="8.914856220603552"><ele>76.5</ele><time>2026-05-03T08:48:50Z</time></trkpt><trkpt lat="45.27348335535696" lon="8.914919827349465"><ele>76.0</ele><time>2026-05-03T08:48:51Z</time></trkpt><trkpt lat="45.27338193409692" lon="8.914978288324042"><ele>75.5</ele><time>2026-05-03T08:48:52Z</time></trkpt><trkpt lat="45.27326992556215" lon="8.91504390622905"><ele>75.0</ele><time>2026-05-03T08:48:53Z</time></trkpt><trkpt lat="45.27316527222279" lon="8.915108016568928"><ele>74.8</ele><time>2026-05-03T08:48:54Z</time></trkpt><trkpt lat="45.27305548043929" lon="8.915199934064182"><ele>74.6</ele><time>2026-05-03T08:48:55Z</time></trkpt><trkpt lat="45.272941205649026" lon="8.915244124652927"><ele>74.4</ele><time>2026-05-03T08:48:56Z</time></trkpt><trkpt lat="45.272847532597154" lon="8.915306907977286"><ele>74.2</ele><time>2026-05-03T08:48:57Z</time></trkpt><trkpt lat="45.27275966826127" lon="8.915361062373155"><ele>74.0</ele><time>2026-05-03T08:48:58Z</time></trkpt><trkpt lat="45.27267213407967" lon="8.915413640185728"><ele>74.0</ele><time>2026-05-03T08:48:59Z</time></trkpt><trkpt lat="45.27256994636132" lon="8.91542717796836"><ele>74.0</ele><time>2026-05-03T08:49:00Z</time></trkpt><trkpt lat="45.27248629462061" lon="8.915462532765945"><ele>74.0</ele><time>2026-05-03T08:49:01Z</time></trkpt><trkpt lat="45.2723970364578" lon="8.915537295019366"><ele>74.0</ele><time>2026-05-03T08:49:02Z</time></trkpt><trkpt lat="45.27230685770121" lon="8.915607906416138"><ele>74.0</ele><time>2026-05-03T08:49:03Z</time></trkpt><trkpt lat="45.27223199591081" lon="8.915665818607263"><ele>74.2</ele><time>2026-05-03T08:49:04Z</time></trkpt><trkpt lat="45.272163406246165" lon="8.915720200324829"><ele>74.4</ele><time>2026-05-03T08:49:05Z</time></trkpt><trkpt lat="45.272059248757024" lon="8.915784729125354"><ele>74.6</ele><time>2026-05-03T08:49:07Z</time></trkpt><trkpt lat="45.27203686840439" lon="8.915951876368537"><ele>74.8</ele><time>2026-05-03T08:49:09Z</time></trkpt><trkpt lat="45.27208240431859" lon="8.916073405844745"><ele>75.0</ele><time>2026-05-03T08:49:10Z</time></trkpt><trkpt lat="45.272117541134726" lon="8.916199359021691"><ele>75.16666666666667</ele><time>2026-05-03T08:49:11Z</time></trkpt><trkpt lat="45.2721251362878" lon="8.91634453336257"><ele>75.33333333333333</ele><time>2026-05-03T08:49:13Z</time></trkpt><trkpt lat="45.272049906638834" lon="8.916430705761297"><ele>75.5</ele><time>2026-05-03T08:49:15Z</time></trkpt><trkpt lat="45.2719533414547" lon="8.91642371042498"><ele>75.66666666666666</ele><time>2026-05-03T08:49:17Z</time></trkpt><trkpt lat="45.27188806676825" lon="8.916442205130359"><ele>75.83333333333333</ele><time>2026-05-03T08:49:18Z</time></trkpt><trkpt lat="45.27180710925438" lon="8.916468171224789"><ele>76.0</ele><time>2026-05-03T08:49:19Z</time></trkpt><trkpt lat="45.271681499539206" lon="8.916526095506505"><ele>76.0</ele><time>2026-05-03T08:49:20Z</time></trkpt><trkpt lat="45.27157458929331" lon="8.91660264989746"><ele>76.0</ele><time>2026-05-03T08:49:21Z</time></trkpt><trkpt lat="45.27148335406305" lon="8.91662839082718"><ele>76.0</ele><time>2026-05-03T08:49:22Z</time></trkpt><trkpt lat="45.27137984892662" lon="8.916632776595463"><ele>76.0</ele><time>2026-05-03T08:49:23Z</time></trkpt><trkpt lat="45.27128219251149" lon="8.916594339089906"><ele>76.0</ele><time>2026-05-03T08:49:24Z</time></trkpt><trkpt lat="45.271176616441096" lon="8.9165712271971"><ele>75.5</ele><time>2026-05-03T08:49:25Z</time></trkpt><trkpt lat="45.27106403285686" lon="8.916577334770713"><ele>75.0</ele><time>2026-05-03T08:49:26Z</time></trkpt><trkpt lat="45.27094127005421" lon="8.916615258107386"><ele>74.5</ele><time>2026-05-03T08:49:27Z</time></trkpt><trkpt lat="45.27079110115345" lon="8.916671233721804"><ele>74.0</ele><time>2026-05-03T08:49:28Z</time></trkpt><trkpt lat="45.27064362324094" lon="8.916731452738695"><ele>74.0</ele><time>2026-05-03T08:49:29Z</time></trkpt><trkpt lat="45.27052022450322" lon="8.916782041629961"><ele>74.0</ele><time>2026-05-03T08:49:30Z</time></trkpt><trkpt lat="45.27038439545525" lon="8.916841230575033"><ele>74.0</ele><time>2026-05-03T08:49:31Z</time></trkpt><trkpt lat="45.270248422633244" lon="8.916904318714623"><ele>74.0</ele><time>2026-05-03T08:49:32Z</time></trkpt><trkpt lat="45.270129233979176" lon="8.916959158836242"><ele>74.0</ele><time>2026-05-03T08:49:33Z</time></trkpt><trkpt lat="45.270007199676904" lon="8.917008669797198"><ele>74.0</ele><time>2026-05-03T08:49:34Z</time></trkpt><trkpt lat="45.26988134753514" lon="8.917057205811842"><ele>74.0</ele><time>2026-05-03T08:49:35Z</time></trkpt><trkpt lat="45.269754199233496" lon="8.917106241678642"><ele>74.0</ele><time>2026-05-03T08:49:36Z</time></trkpt><trkpt lat="45.26962658871715" lon="8.91715705678514"><ele>74.0</ele><time>2026-05-03T08:49:37Z</time></trkpt><trkpt lat="45.2695023036138" lon="8.91722887849274"><ele>74.0</ele><time>2026-05-03T08:49:38Z</time></trkpt><trkpt lat="45.26935295304428" lon="8.91726372258535"><ele>74.0</ele><time>2026-05-03T08:49:39Z</time></trkpt><trkpt lat="45.26921631114525" lon="8.917317136193047"><ele>74.0</ele><time>2026-05-03T08:49:40Z</time></trkpt><trkpt lat="45.26910249805581" lon="8.917365407707424"><ele>74.0</ele><time>2026-05-03T08:49:41Z</time></trkpt><trkpt lat="45.26899483008332" lon="8.917424189550596"><ele>74.0</ele><time>2026-05-03T08:49:42Z</time></trkpt><trkpt lat="45.2688768482609" lon="8.917472276673559"><ele>74.0</ele><time>2026-05-03T08:49:43Z</time></trkpt><trkpt lat="45.26875682696853" lon="8.917514055082448"><ele>74.0</ele><time>2026-05-03T08:49:44Z</time></trkpt><trkpt lat="45.268667725859856" lon="8.91754939064865"><ele>73.85714285714286</ele><time>2026-05-03T08:49:45Z</time></trkpt><trkpt lat="45.268592808899605" lon="8.917577549288008"><ele>73.71428571428571</ele><time>2026-05-03T08:49:46Z</time></trkpt><trkpt lat="45.268526713235325" lon="8.917603851472492"><ele>73.57142857142857</ele><time>2026-05-03T08:49:47Z</time></trkpt><trkpt lat="45.268453052564205" lon="8.917634325536811"><ele>73.42857142857143</ele><time>2026-05-03T08:49:48Z</time></trkpt><trkpt lat="45.26838486213967" lon="8.917654632685762"><ele>73.28571428571429</ele><time>2026-05-03T08:49:49Z</time></trkpt><trkpt lat="45.26831577063171" lon="8.917678380871076"><ele>73.14285714285714</ele><time>2026-05-03T08:49:50Z</time></trkpt><trkpt lat="45.2682469925606" lon="8.917711551869308"><ele>73.0</ele><time>2026-05-03T08:49:51Z</time></trkpt><trkpt lat="45.26816288129597" lon="8.91775135958424"><ele>73.5</ele><time>2026-05-03T08:49:52Z</time></trkpt><trkpt lat="45.268097241412256" lon="8.917776242734538"><ele>74.0</ele><time>2026-05-03T08:49:53Z</time></trkpt><trkpt lat="45.26801532415243" lon="8.91780462889142"><ele>74.5</ele><time>2026-05-03T08:49:54Z</time></trkpt><trkpt lat="45.267939983389695" lon="8.917839891004322"><ele>75.0</ele><time>2026-05-03T08:49:55Z</time></trkpt><trkpt lat="45.26785332784522" lon="8.917853406993201"><ele>75.5</ele><time>2026-05-03T08:49:56Z</time></trkpt><trkpt lat="45.267793411269146" lon="8.917898053225429"><ele>76.0</ele><time>2026-05-03T08:49:57Z</time></trkpt><trkpt lat="45.267727231807044" lon="8.917920223225448"><ele>76.0</ele><time>2026-05-03T08:49:58Z</time></trkpt><trkpt lat="45.2676664762073" lon="8.917944733367678"><ele>76.0</ele><time>2026-05-03T08:49:59Z</time></trkpt><trkpt lat="45.26759932616835" lon="8.917973213132399"><ele>76.0</ele><time>2026-05-03T08:50:00Z</time></trkpt><trkpt lat="45.26753129925812" lon="8.91799669775462"><ele>76.0</ele><time>2026-05-03T08:50:01Z</time></trkpt><trkpt lat="45.267446310068216" lon="8.918023717031808"><ele>76.0</ele><time>2026-05-03T08:50:02Z</time></trkpt><trkpt lat="45.2673695656263" lon="8.918047786069879"><ele>76.0</ele><time>2026-05-03T08:50:03Z</time></trkpt><trkpt lat="45.26729393300975" lon="8.918072253534506"><ele>76.0</ele><time>2026-05-03T08:50:04Z</time></trkpt><trkpt lat="45.267229736398875" lon="8.918085883347251"><ele>75.66666666666666</ele><time>2026-05-03T08:50:05Z</time></trkpt><trkpt lat="45.267115415093876" lon="8.91811239297723"><ele>75.33333333333333</ele><time>2026-05-03T08:50:07Z</time></trkpt><trkpt lat="45.26704589207368" lon="8.918110343092792"><ele>75.0</ele><time>2026-05-03T08:50:08Z</time></trkpt><trkpt lat="45.26698465434284" lon="8.918155610014809"><ele>74.66666666666667</ele><time>2026-05-03T08:50:09Z</time></trkpt><trkpt lat="45.266924714212394" lon="8.918186155019939"><ele>74.33333333333334</ele><time>2026-05-03T08:50:10Z</time></trkpt><trkpt lat="45.26683353792292" lon="8.918249372187313"><ele>74.0</ele><time>2026-05-03T08:50:12Z</time></trkpt><trkpt lat="45.26679039249992" lon="8.918400683206162"><ele>74.0</ele><time>2026-05-03T08:50:14Z</time></trkpt><trkpt lat="45.26677890881165" lon="8.918492902035652"><ele>74.0</ele><time>2026-05-03T08:50:15Z</time></trkpt><trkpt lat="45.26681252530824" lon="8.918662480735978"><ele>74.0</ele><time>2026-05-03T08:50:17Z</time></trkpt><trkpt lat="45.26679497834532" lon="8.918780545067754"><ele>74.0</ele><time>2026-05-03T08:50:19Z</time></trkpt><trkpt lat="45.26668629934467" lon="8.918822159071041"><ele>74.0</ele><time>2026-05-03T08:50:21Z</time></trkpt><trkpt lat="45.26660677884896" lon="8.918810515231188"><ele>74.0</ele><time>2026-05-03T08:50:22Z</time></trkpt><trkpt lat="45.26649999696277" lon="8.918813188661117"><ele>74.0</ele><time>2026-05-03T08:50:23Z</time></trkpt><trkpt lat="45.26638037162598" lon="8.918818857183307"><ele>74.0</ele><time>2026-05-03T08:50:24Z</time></trkpt><trkpt lat="45.266274128663255" lon="8.918826641511222"><ele>74.0</ele><time>2026-05-03T08:50:25Z</time></trkpt><trkpt lat="45.26617454738271" lon="8.918834655761245"><ele>74.0</ele><time>2026-05-03T08:50:26Z</time></trkpt><trkpt lat="45.26607601348297" lon="8.918842585720492"><ele>74.0</ele><time>2026-05-03T08:50:27Z</time></trkpt><trkpt lat="45.26597155704147" lon="8.918850992315674"><ele>74.0</ele><time>2026-05-03T08:50:28Z</time></trkpt><trkpt lat="45.26586020521181" lon="8.918859953852852"><ele>74.0</ele><time>2026-05-03T08:50:29Z</time></trkpt><trkpt lat="45.26575333690085" lon="8.918868554546718"><ele>74.0</ele><time>2026-05-03T08:50:30Z</time></trkpt><trkpt lat="45.26564546651918" lon="8.918877237925132"><ele>74.0</ele><time>2026-05-03T08:50:31Z</time></trkpt><trkpt lat="45.2655376813702" lon="8.91888591240393"><ele>74.0</ele><time>2026-05-03T08:50:32Z</time></trkpt><trkpt lat="45.265428588419496" lon="8.918892998973261"><ele>74.0</ele><time>2026-05-03T08:50:33Z</time></trkpt><trkpt lat="45.265328644031236" lon="8.91889822822865"><ele>74.0</ele><time>2026-05-03T08:50:34Z</time></trkpt><trkpt lat="45.265238589628" lon="8.918899088600847"><ele>74.0</ele><time>2026-05-03T08:50:35Z</time></trkpt><trkpt lat="45.26513708008663" lon="8.918914962690193"><ele>74.0</ele><time>2026-05-03T08:50:36Z</time></trkpt><trkpt lat="45.265048931169034" lon="8.918887849555956"><ele>74.0</ele><time>2026-05-03T08:50:37Z</time></trkpt><trkpt lat="45.26495319329141" lon="8.918823776714323"><ele>74.0</ele><time>2026-05-03T08:50:38Z</time></trkpt><trkpt lat="45.264840435768605" lon="8.918796189427423"><ele>74.0</ele><time>2026-05-03T08:50:39Z</time></trkpt><trkpt lat="45.26474835711189" lon="8.918734326599637"><ele>74.0</ele><time>2026-05-03T08:50:40Z</time></trkpt><trkpt lat="45.26466891939015" lon="8.918729073004986"><ele>74.0</ele><time>2026-05-03T08:50:41Z</time></trkpt><trkpt lat="45.26460854771325" lon="8.918688253267918"><ele>73.83333333333334</ele><time>2026-05-03T08:50:42Z</time></trkpt><trkpt lat="45.26453642310265" lon="8.918672564907935"><ele>73.66666666666667</ele><time>2026-05-03T08:50:43Z</time></trkpt><trkpt lat="45.26444791171389" lon="8.918679243506645"><ele>73.5</ele><time>2026-05-03T08:50:44Z</time></trkpt><trkpt lat="45.26438474584918" lon="8.918677951254583"><ele>73.33333333333333</ele><time>2026-05-03T08:50:45Z</time></trkpt><trkpt lat="45.26431298813311" lon="8.918690857844487"><ele>73.16666666666666</ele><time>2026-05-03T08:50:47Z</time></trkpt><trkpt lat="45.264238679684965" lon="8.9186948073716"><ele>73.0</ele><time>2026-05-03T08:50:51Z</time></trkpt><trkpt lat="45.26424679900996" lon="8.918882467346878"><ele>73.0</ele><time>2026-05-03T08:50:52Z</time></trkpt><trkpt lat="45.26428826652094" lon="8.919055286370503"><ele>73.0</ele><time>2026-05-03T08:50:53Z</time></trkpt><trkpt lat="45.2643356922053" lon="8.919187495278907"><ele>73.0</ele><time>2026-05-03T08:50:54Z</time></trkpt><trkpt lat="45.26437366775491" lon="8.919325369561914"><ele>73.0</ele><time>2026-05-03T08:50:55Z</time></trkpt><trkpt lat="45.26439919065321" lon="8.919472160995994"><ele>73.0</ele><time>2026-05-03T08:50:56Z</time></trkpt><trkpt lat="45.26443089389218" lon="8.919630969193092"><ele>73.0</ele><time>2026-05-03T08:50:57Z</time></trkpt><trkpt lat="45.264462999203246" lon="8.919787873604166"><ele>73.0</ele><time>2026-05-03T08:50:58Z</time></trkpt><trkpt lat="45.26449468557221" lon="8.919948712286608"><ele>73.0</ele><time>2026-05-03T08:50:59Z</time></trkpt><trkpt lat="45.264526767547316" lon="8.92012058104598"><ele>73.0</ele><time>2026-05-03T08:51:00Z</time></trkpt><trkpt lat="45.26456319695109" lon="8.920300146751256"><ele>73.0</ele><time>2026-05-03T08:51:01Z</time></trkpt><trkpt lat="45.26458253030672" lon="8.92048395739768"><ele>73.0</ele><time>2026-05-03T08:51:02Z</time></trkpt><trkpt lat="45.264617817704185" lon="8.920672205965227"><ele>73.0</ele><time>2026-05-03T08:51:03Z</time></trkpt><trkpt lat="45.264656608204355" lon="8.92085783603601"><ele>73.0</ele><time>2026-05-03T08:51:04Z</time></trkpt><trkpt lat="45.26469583853722" lon="8.921053529076048"><ele>73.0</ele><time>2026-05-03T08:51:05Z</time></trkpt><trkpt lat="45.26473060476232" lon="8.921236961197211"><ele>73.0</ele><time>2026-05-03T08:51:06Z</time></trkpt><trkpt lat="45.26476201426813" lon="8.921410798498682"><ele>73.0</ele><time>2026-05-03T08:51:07Z</time></trkpt><trkpt lat="45.26478988295952" lon="8.921591010737949"><ele>73.0</ele><time>2026-05-03T08:51:08Z</time></trkpt><trkpt lat="45.26481868043996" lon="8.921779369965874"><ele>73.25</ele><time>2026-05-03T08:51:09Z</time></trkpt><trkpt lat="45.264847267245436" lon="8.92196863176761"><ele>73.5</ele><time>2026-05-03T08:51:10Z</time></trkpt><trkpt lat="45.26487539177886" lon="8.922149035138304"><ele>73.75</ele><time>2026-05-03T08:51:11Z</time></trkpt><trkpt lat="45.264907004700355" lon="8.92232806691249"><ele>74.0</ele><time>2026-05-03T08:51:12Z</time></trkpt><trkpt lat="45.2649356615839" lon="8.922515426398368"><ele>74.25</ele><time>2026-05-03T08:51:13Z</time></trkpt><trkpt lat="45.26496253920169" lon="8.922710557484743"><ele>74.5</ele><time>2026-05-03T08:51:14Z</time></trkpt><trkpt lat="45.26498820262036" lon="8.922890471738029"><ele>74.75</ele><time>2026-05-03T08:51:15Z</time></trkpt><trkpt lat="45.26501243386396" lon="8.923057261657906"><ele>75.0</ele><time>2026-05-03T08:51:16Z</time></trkpt><trkpt lat="45.26501056791005" lon="8.923234793181146"><ele>75.5</ele><time>2026-05-03T08:51:17Z</time></trkpt><trkpt lat="45.26503618748942" lon="8.923418324252417"><ele>76.0</ele><time>2026-05-03T08:51:18Z</time></trkpt><trkpt lat="45.26504006464387" lon="8.923597309330917"><ele>76.5</ele><time>2026-05-03T08:51:19Z</time></trkpt><trkpt lat="45.26504349127091" lon="8.923762249433386"><ele>77.0</ele><time>2026-05-03T08:51:20Z</time></trkpt><trkpt lat="45.26504653009753" lon="8.923908674106404"><ele>77.0</ele><time>2026-05-03T08:51:21Z</time></trkpt><trkpt lat="45.2650437078154" lon="8.924056764818095"><ele>77.0</ele><time>2026-05-03T08:51:22Z</time></trkpt><trkpt lat="45.26504876722961" lon="8.924200803806285"><ele>77.0</ele><time>2026-05-03T08:51:23Z</time></trkpt><trkpt lat="45.26505233832999" lon="8.924300338412527"><ele>77.0</ele><time>2026-05-03T08:51:24Z</time></trkpt><trkpt lat="45.26507116648249" lon="8.924419397905002"><ele>77.0</ele><time>2026-05-03T08:51:25Z</time></trkpt><trkpt lat="45.26507030762049" lon="8.924532657205491"><ele>77.0</ele><time>2026-05-03T08:51:26Z</time></trkpt><trkpt lat="45.26507441831636" lon="8.924647613547927"><ele>77.0</ele><time>2026-05-03T08:51:27Z</time></trkpt><trkpt lat="45.265079316940394" lon="8.924773861028868"><ele>77.0</ele><time>2026-05-03T08:51:28Z</time></trkpt><trkpt lat="45.265064807234666" lon="8.92491107090499"><ele>77.0</ele><time>2026-05-03T08:51:29Z</time></trkpt><trkpt lat="45.26505751402723" lon="8.925039343480014"><ele>77.0</ele><time>2026-05-03T08:51:30Z</time></trkpt><trkpt lat="45.265047304588606" lon="8.925174505738873"><ele>77.0</ele><time>2026-05-03T08:51:31Z</time></trkpt><trkpt lat="45.26503679921397" lon="8.925300109462155"><ele>77.0</ele><time>2026-05-03T08:51:32Z</time></trkpt><trkpt lat="45.265033044228566" lon="8.925433710172795"><ele>77.0</ele><time>2026-05-03T08:51:33Z</time></trkpt><trkpt lat="45.26502687048199" lon="8.92557579776376"><ele>77.0</ele><time>2026-05-03T08:51:34Z</time></trkpt><trkpt lat="45.26501379655298" lon="8.925702642161188"><ele>77.0</ele><time>2026-05-03T08:51:35Z</time></trkpt><trkpt lat="45.265011331509626" lon="8.925826910732761"><ele>77.0</ele><time>2026-05-03T08:51:36Z</time></trkpt><trkpt lat="45.265025481708356" lon="8.925934650072001"><ele>77.0</ele><time>2026-05-03T08:51:37Z</time></trkpt><trkpt lat="45.26505501070836" lon="8.926057885792398"><ele>77.0</ele><time>2026-05-03T08:51:38Z</time></trkpt><trkpt lat="45.265094555681536" lon="8.926177370264952"><ele>77.0</ele><time>2026-05-03T08:51:39Z</time></trkpt><trkpt lat="45.265135636770275" lon="8.926307168440772"><ele>77.0</ele><time>2026-05-03T08:51:40Z</time></trkpt><trkpt lat="45.26517549043041" lon="8.92643677617561"><ele>77.0</ele><time>2026-05-03T08:51:41Z</time></trkpt><trkpt lat="45.26520404883289" lon="8.926546673836041"><ele>77.0</ele><time>2026-05-03T08:51:42Z</time></trkpt><trkpt lat="45.26523652681245" lon="8.926688720873218"><ele>76.66666666666667</ele><time>2026-05-03T08:51:44Z</time></trkpt><trkpt lat="45.26525363330681" lon="8.926822559470594"><ele>76.33333333333334</ele><time>2026-05-03T08:51:46Z</time></trkpt><trkpt lat="45.26522308651473" lon="8.926917661220884"><ele>76.0</ele><time>2026-05-03T08:51:47Z</time></trkpt><trkpt lat="45.26522526348049" lon="8.927029262801973"><ele>75.66666666666667</ele><time>2026-05-03T08:51:48Z</time></trkpt><trkpt lat="45.26520947400306" lon="8.92715171417416"><ele>75.33333333333333</ele><time>2026-05-03T08:51:49Z</time></trkpt><trkpt lat="45.265197056897556" lon="8.927283698293598"><ele>75.0</ele><time>2026-05-03T08:51:50Z</time></trkpt><trkpt lat="45.26518204094162" lon="8.927388332969945"><ele>75.0</ele><time>2026-05-03T08:51:51Z</time></trkpt><trkpt lat="45.26517245271118" lon="8.927521306611881"><ele>75.0</ele><time>2026-05-03T08:51:53Z</time></trkpt><trkpt lat="45.26518120651379" lon="8.927620688332443"><ele>75.0</ele><time>2026-05-03T08:51:55Z</time></trkpt><trkpt lat="45.2653340833334" lon="8.927626945280817"><ele>75.0</ele><time>2026-05-03T08:51:56Z</time></trkpt><trkpt lat="45.26545234664461" lon="8.927628172948058"><ele>75.0</ele><time>2026-05-03T08:51:57Z</time></trkpt><trkpt lat="45.26560200384166" lon="8.927603948710772"><ele>75.33333333333333</ele><time>2026-05-03T08:51:58Z</time></trkpt><trkpt lat="45.26575448436735" lon="8.927568538332542"><ele>75.66666666666666</ele><time>2026-05-03T08:51:59Z</time></trkpt><trkpt lat="45.26591709210179" lon="8.927496547606175"><ele>76.0</ele><time>2026-05-03T08:52:00Z</time></trkpt><trkpt lat="45.266072014411186" lon="8.92738374294438"><ele>76.0</ele><time>2026-05-03T08:52:01Z</time></trkpt><trkpt lat="45.2662053701299" lon="8.927240954322636"><ele>76.0</ele><time>2026-05-03T08:52:02Z</time></trkpt><trkpt lat="45.26631914633153" lon="8.927110068057502"><ele>76.0</ele><time>2026-05-03T08:52:03Z</time></trkpt><trkpt lat="45.2664284616352" lon="8.926995170017403"><ele>76.0</ele><time>2026-05-03T08:52:04Z</time></trkpt><trkpt lat="45.26653527197344" lon="8.92690008646824"><ele>76.0</ele><time>2026-05-03T08:52:05Z</time></trkpt><trkpt lat="45.26663871036206" lon="8.926827776348718"><ele>76.0</ele><time>2026-05-03T08:52:06Z</time></trkpt><trkpt lat="45.266756096170134" lon="8.926766453506845"><ele>76.0</ele><time>2026-05-03T08:52:07Z</time></trkpt><trkpt lat="45.266884288521524" lon="8.926719187405016"><ele>76.0</ele><time>2026-05-03T08:52:08Z</time></trkpt><trkpt lat="45.26701769426894" lon="8.926675344277804"><ele>76.0</ele><time>2026-05-03T08:52:09Z</time></trkpt><trkpt lat="45.267153436442705" lon="8.926639739452066"><ele>76.0</ele><time>2026-05-03T08:52:10Z</time></trkpt><trkpt lat="45.26729499820329" lon="8.926609762474351"><ele>76.0</ele><time>2026-05-03T08:52:11Z</time></trkpt><trkpt lat="45.267436038924934" lon="8.926590451812405"><ele>76.0</ele><time>2026-05-03T08:52:12Z</time></trkpt><trkpt lat="45.26757374655184" lon="8.9266031289113"><ele>76.0</ele><time>2026-05-03T08:52:13Z</time></trkpt><trkpt lat="45.26771118965607" lon="8.92663537870277"><ele>76.0</ele><time>2026-05-03T08:52:14Z</time></trkpt><trkpt lat="45.26784883538669" lon="8.926679426466215"><ele>76.0</ele><time>2026-05-03T08:52:15Z</time></trkpt><trkpt lat="45.267985542063684" lon="8.92672149383562"><ele>76.0</ele><time>2026-05-03T08:52:16Z</time></trkpt><trkpt lat="45.268120687129674" lon="8.926762163356928"><ele>76.0</ele><time>2026-05-03T08:52:17Z</time></trkpt><trkpt lat="45.26825461154523" lon="8.926801781463146"><ele>76.0</ele><time>2026-05-03T08:52:18Z</time></trkpt><trkpt lat="45.268395971489376" lon="8.926846120397375"><ele>76.0</ele><time>2026-05-03T08:52:19Z</time></trkpt><trkpt lat="45.26853944812894" lon="8.926896281554438"><ele>76.0</ele><time>2026-05-03T08:52:20Z</time></trkpt><trkpt lat="45.26868501346561" lon="8.926955132959945"><ele>76.0</ele><time>2026-05-03T08:52:21Z</time></trkpt><trkpt lat="45.26882770806146" lon="8.927032198411602"><ele>76.0</ele><time>2026-05-03T08:52:22Z</time></trkpt><trkpt lat="45.268961813071456" lon="8.927124095126882"><ele>76.0</ele><time>2026-05-03T08:52:23Z</time></trkpt><trkpt lat="45.2690925015748" lon="8.927232164236338"><ele>76.0</ele><time>2026-05-03T08:52:24Z</time></trkpt><trkpt lat="45.269213895412015" lon="8.927349216734173"><ele>76.0</ele><time>2026-05-03T08:52:25Z</time></trkpt><trkpt lat="45.26933559424976" lon="8.927461442408843"><ele>76.0</ele><time>2026-05-03T08:52:26Z</time></trkpt><trkpt lat="45.2694518905086" lon="8.927548329153835"><ele>76.0</ele><time>2026-05-03T08:52:27Z</time></trkpt><trkpt lat="45.2695540374617" lon="8.927616031564694"><ele>76.0</ele><time>2026-05-03T08:52:28Z</time></trkpt><trkpt lat="45.26963894023409" lon="8.927695640694735"><ele>76.0</ele><time>2026-05-03T08:52:29Z</time></trkpt><trkpt lat="45.26971736589351" lon="8.927807823927902"><ele>76.0</ele><time>2026-05-03T08:52:30Z</time></trkpt><trkpt lat="45.26978695258115" lon="8.927945417462956"><ele>76.0</ele><time>2026-05-03T08:52:31Z</time></trkpt><trkpt lat="45.26985645268378" lon="8.928101434141846"><ele>76.25</ele><time>2026-05-03T08:52:32Z</time></trkpt><trkpt lat="45.269927489665015" lon="8.928249743378885"><ele>76.5</ele><time>2026-05-03T08:52:33Z</time></trkpt><trkpt lat="45.26999979584124" lon="8.92840105272195"><ele>76.75</ele><time>2026-05-03T08:52:34Z</time></trkpt><trkpt lat="45.27007263504384" lon="8.928546554866974"><ele>77.0</ele><time>2026-05-03T08:52:35Z</time></trkpt><trkpt lat="45.270144181722806" lon="8.92867367003184"><ele>76.66666666666667</ele><time>2026-05-03T08:52:36Z</time></trkpt><trkpt lat="45.27020771375797" lon="8.928786905253311"><ele>76.33333333333334</ele><time>2026-05-03T08:52:37Z</time></trkpt><trkpt lat="45.27025012253362" lon="8.928890162235131"><ele>76.0</ele><time>2026-05-03T08:52:38Z</time></trkpt><trkpt lat="45.27029805257717" lon="8.92898274751403"><ele>75.66666666666667</ele><time>2026-05-03T08:52:39Z</time></trkpt><trkpt lat="45.270337683603714" lon="8.9290712242419"><ele>75.33333333333333</ele><time>2026-05-03T08:52:40Z</time></trkpt><trkpt lat="45.270352285116196" lon="8.929162645176229"><ele>75.0</ele><time>2026-05-03T08:52:41Z</time></trkpt><trkpt lat="45.27042640508013" lon="8.92927652982067"><ele>75.0</ele><time>2026-05-03T08:52:42Z</time></trkpt><trkpt lat="45.27048791034497" lon="8.929388667905638"><ele>75.0</ele><time>2026-05-03T08:52:43Z</time></trkpt><trkpt lat="45.27054102117832" lon="8.929496690066374"><ele>75.0</ele><time>2026-05-03T08:52:44Z</time></trkpt><trkpt lat="45.27058973505784" lon="8.929590139424834"><ele>75.0</ele><time>2026-05-03T08:52:45Z</time></trkpt><trkpt lat="45.27063692451661" lon="8.929683389039448"><ele>75.0</ele><time>2026-05-03T08:52:46Z</time></trkpt><trkpt lat="45.270678881682684" lon="8.929762539808975"><ele>75.0</ele><time>2026-05-03T08:52:47Z</time></trkpt><trkpt lat="45.27075285635262" lon="8.929924229879289"><ele>74.99999999999999</ele><time>2026-05-03T08:52:49Z</time></trkpt><trkpt lat="45.270807154372534" lon="8.929980038254143"><ele>75.0</ele><time>2026-05-03T08:52:50Z</time></trkpt><trkpt lat="45.270850358460414" lon="8.930064567080086"><ele>75.0</ele><time>2026-05-03T08:52:51Z</time></trkpt><trkpt lat="45.27090216565238" lon="8.930131853921724"><ele>75.0</ele><time>2026-05-03T08:52:52Z</time></trkpt><trkpt lat="45.2709544537583" lon="8.9301931868399"><ele>75.0</ele><time>2026-05-03T08:52:53Z</time></trkpt><trkpt lat="45.27101940228925" lon="8.930239812182439"><ele>74.99999999999999</ele><time>2026-05-03T08:52:54Z</time></trkpt><trkpt lat="45.27108300717884" lon="8.930287596029219"><ele>75.0</ele><time>2026-05-03T08:52:55Z</time></trkpt><trkpt lat="45.271146381995536" lon="8.93034412461031"><ele>75.14285714285714</ele><time>2026-05-03T08:52:56Z</time></trkpt><trkpt lat="45.27120264041595" lon="8.930404546334177"><ele>75.28571428571428</ele><time>2026-05-03T08:52:57Z</time></trkpt><trkpt lat="45.27126228018109" lon="8.93046110675659"><ele>75.42857142857142</ele><time>2026-05-03T08:52:58Z</time></trkpt><trkpt lat="45.27131151409289" lon="8.930527339265321"><ele>75.57142857142857</ele><time>2026-05-03T08:52:59Z</time></trkpt><trkpt lat="45.271355606405" lon="8.930602319253673"><ele>75.71428571428572</ele><time>2026-05-03T08:53:00Z</time></trkpt><trkpt lat="45.271383604096904" lon="8.930690622404075"><ele>75.85714285714285</ele><time>2026-05-03T08:53:01Z</time></trkpt><trkpt lat="45.271361793941686" lon="8.930794540419967"><ele>76.0</ele><time>2026-05-03T08:53:02Z</time></trkpt><trkpt lat="45.27135496531603" lon="8.930918030612851"><ele>76.2</ele><time>2026-05-03T08:53:03Z</time></trkpt><trkpt lat="45.27135887361082" lon="8.931029064756023"><ele>76.39999999999999</ele><time>2026-05-03T08:53:04Z</time></trkpt><trkpt lat="45.271334868664965" lon="8.931162816167342"><ele>76.6</ele><time>2026-05-03T08:53:05Z</time></trkpt><trkpt lat="45.271303705153535" lon="8.931308369287391"><ele>76.8</ele><time>2026-05-03T08:53:06Z</time></trkpt><trkpt lat="45.27127719817658" lon="8.931453762227898"><ele>77.0</ele><time>2026-05-03T08:53:07Z</time></trkpt><trkpt lat="45.27124824847727" lon="8.93159428954499"><ele>76.75</ele><time>2026-05-03T08:53:08Z</time></trkpt><trkpt lat="45.27121962706563" lon="8.931746226850079"><ele>76.5</ele><time>2026-05-03T08:53:09Z</time></trkpt><trkpt lat="45.27116337300939" lon="8.931889323907836"><ele>76.25</ele><time>2026-05-03T08:53:10Z</time></trkpt><trkpt lat="45.271117296376914" lon="8.932044526100453"><ele>76.0</ele><time>2026-05-03T08:53:11Z</time></trkpt><trkpt lat="45.27107016483792" lon="8.932198945354946"><ele>76.0</ele><time>2026-05-03T08:53:12Z</time></trkpt><trkpt lat="45.271031076080234" lon="8.932336973689601"><ele>76.0</ele><time>2026-05-03T08:53:13Z</time></trkpt><trkpt lat="45.270993866963465" lon="8.932474484919759"><ele>76.0</ele><time>2026-05-03T08:53:14Z</time></trkpt><trkpt lat="45.27096026108286" lon="8.932609407791425"><ele>76.0</ele><time>2026-05-03T08:53:15Z</time></trkpt><trkpt lat="45.27092851782058" lon="8.932749494822342"><ele>76.0</ele><time>2026-05-03T08:53:16Z</time></trkpt><trkpt lat="45.27090603996704" lon="8.932886525346392"><ele>75.39999999999999</ele><time>2026-05-03T08:53:17Z</time></trkpt><trkpt lat="45.27088371358595" lon="8.933021272443682"><ele>74.8</ele><time>2026-05-03T08:53:18Z</time></trkpt><trkpt lat="45.27086595465614" lon="8.933163282718507"><ele>74.19999999999999</ele><time>2026-05-03T08:53:19Z</time></trkpt><trkpt lat="45.27085644878937" lon="8.933307544734827"><ele>73.6</ele><time>2026-05-03T08:53:20Z</time></trkpt><trkpt lat="45.27085109085489" lon="8.93345752938719"><ele>73.0</ele><time>2026-05-03T08:53:21Z</time></trkpt><trkpt lat="45.27084474797456" lon="8.933613742905722"><ele>72.75</ele><time>2026-05-03T08:53:22Z</time></trkpt><trkpt lat="45.270838096515355" lon="8.93377231139094"><ele>72.5</ele><time>2026-05-03T08:53:23Z</time></trkpt><trkpt lat="45.27083225404327" lon="8.933932973059136"><ele>72.25</ele><time>2026-05-03T08:53:24Z</time></trkpt><trkpt lat="45.270827853784894" lon="8.934094422492414"><ele>72.0</ele><time>2026-05-03T08:53:25Z</time></trkpt><trkpt lat="45.270824754903295" lon="8.93425847610845"><ele>72.5</ele><time>2026-05-03T08:53:26Z</time></trkpt><trkpt lat="45.27081679553987" lon="8.934425704035343"><ele>73.0</ele><time>2026-05-03T08:53:27Z</time></trkpt><trkpt lat="45.27080726566906" lon="8.934589090329593"><ele>73.5</ele><time>2026-05-03T08:53:28Z</time></trkpt><trkpt lat="45.27080021309866" lon="8.934754846542038"><ele>74.0</ele><time>2026-05-03T08:53:29Z</time></trkpt><trkpt lat="45.27079155995562" lon="8.934906880920748"><ele>74.0</ele><time>2026-05-03T08:53:30Z</time></trkpt><trkpt lat="45.27078765104658" lon="8.935048126314708"><ele>74.0</ele><time>2026-05-03T08:53:31Z</time></trkpt><trkpt lat="45.270779012312005" lon="8.935186347169676"><ele>74.0</ele><time>2026-05-03T08:53:32Z</time></trkpt><trkpt lat="45.270746168147454" lon="8.935338311686696"><ele>74.0</ele><time>2026-05-03T08:53:33Z</time></trkpt><trkpt lat="45.270724071309466" lon="8.935487310184117"><ele>74.0</ele><time>2026-05-03T08:53:34Z</time></trkpt><trkpt lat="45.270697961872045" lon="8.935641777417072"><ele>74.2</ele><time>2026-05-03T08:53:35Z</time></trkpt><trkpt lat="45.270669376615714" lon="8.935801323099346"><ele>74.4</ele><time>2026-05-03T08:53:36Z</time></trkpt><trkpt lat="45.27064339734149" lon="8.935940036162394"><ele>74.6</ele><time>2026-05-03T08:53:37Z</time></trkpt><trkpt lat="45.27063453982749" lon="8.936070300379109"><ele>74.8</ele><time>2026-05-03T08:53:38Z</time></trkpt><trkpt lat="45.270609535171666" lon="8.936186508718885"><ele>75.0</ele><time>2026-05-03T08:53:39Z</time></trkpt><trkpt lat="45.27058137341257" lon="8.936317014032952"><ele>75.2</ele><time>2026-05-03T08:53:40Z</time></trkpt><trkpt lat="45.27055522177693" lon="8.93643920608358"><ele>75.4</ele><time>2026-05-03T08:53:41Z</time></trkpt><trkpt lat="45.270527049312015" lon="8.936569145727722"><ele>75.6</ele><time>2026-05-03T08:53:42Z</time></trkpt><trkpt lat="45.27050377521784" lon="8.936695159775196"><ele>75.8</ele><time>2026-05-03T08:53:43Z</time></trkpt><trkpt lat="45.27048104315261" lon="8.936825615743517"><ele>76.0</ele><time>2026-05-03T08:53:44Z</time></trkpt><trkpt lat="45.27044067459651" lon="8.936940461181706"><ele>76.0</ele><time>2026-05-03T08:53:45Z</time></trkpt><trkpt lat="45.270405828585275" lon="8.937062334670864"><ele>76.0</ele><time>2026-05-03T08:53:46Z</time></trkpt><trkpt lat="45.27036881633714" lon="8.937180723899608"><ele>76.0</ele><time>2026-05-03T08:53:47Z</time></trkpt><trkpt lat="45.27032521504948" lon="8.937301210281506"><ele>76.0</ele><time>2026-05-03T08:53:48Z</time></trkpt><trkpt lat="45.27027998826592" lon="8.937418762805361"><ele>76.0</ele><time>2026-05-03T08:53:49Z</time></trkpt><trkpt lat="45.27024053276122" lon="8.937540620570324"><ele>75.39999999999999</ele><time>2026-05-03T08:53:50Z</time></trkpt><trkpt lat="45.27018929946269" lon="8.937662210386165"><ele>74.8</ele><time>2026-05-03T08:53:51Z</time></trkpt><trkpt lat="45.27014005239032" lon="8.937784951656909"><ele>74.19999999999999</ele><time>2026-05-03T08:53:52Z</time></trkpt><trkpt lat="45.27008403143294" lon="8.93791231177466"><ele>73.6</ele><time>2026-05-03T08:53:53Z</time></trkpt><trkpt lat="45.270027789944045" lon="8.938036621581832"><ele>73.0</ele><time>2026-05-03T08:53:54Z</time></trkpt><trkpt lat="45.26995576154657" lon="8.938154984841566"><ele>73.0</ele><time>2026-05-03T08:53:55Z</time></trkpt><trkpt lat="45.269896869283265" lon="8.938284852175356"><ele>73.0</ele><time>2026-05-03T08:53:56Z</time></trkpt><trkpt lat="45.269839064472244" lon="8.938412321970874"><ele>73.0</ele><time>2026-05-03T08:53:57Z</time></trkpt><trkpt lat="45.269778350715875" lon="8.93854620612345"><ele>73.0</ele><time>2026-05-03T08:53:58Z</time></trkpt><trkpt lat="45.26973164024667" lon="8.938690999078029"><ele>73.0</ele><time>2026-05-03T08:53:59Z</time></trkpt><trkpt lat="45.26966915391892" lon="8.938818423752842"><ele>72.6</ele><time>2026-05-03T08:54:00Z</time></trkpt><trkpt lat="45.26961447526861" lon="8.938938433207106"><ele>72.19999999999999</ele><time>2026-05-03T08:54:01Z</time></trkpt><trkpt lat="45.26956047397589" lon="8.939074759689495"><ele>71.8</ele><time>2026-05-03T08:54:02Z</time></trkpt><trkpt lat="45.26950179227844" lon="8.939214168698316"><ele>71.39999999999999</ele><time>2026-05-03T08:54:03Z</time></trkpt><trkpt lat="45.2694467529017" lon="8.93935460363544"><ele>71.0</ele><time>2026-05-03T08:54:04Z</time></trkpt><trkpt lat="45.26940427011511" lon="8.939503037545803"><ele>71.0</ele><time>2026-05-03T08:54:05Z</time></trkpt><trkpt lat="45.269371773938765" lon="8.93965851649566"><ele>71.0</ele><time>2026-05-03T08:54:06Z</time></trkpt><trkpt lat="45.26935403100498" lon="8.93981168242063"><ele>71.0</ele><time>2026-05-03T08:54:07Z</time></trkpt><trkpt lat="45.26933701292319" lon="8.939966469033816"><ele>71.0</ele><time>2026-05-03T08:54:08Z</time></trkpt><trkpt lat="45.269322223221856" lon="8.940110377636051"><ele>71.0</ele><time>2026-05-03T08:54:09Z</time></trkpt><trkpt lat="45.26930397618181" lon="8.940242501750177"><ele>71.0</ele><time>2026-05-03T08:54:10Z</time></trkpt><trkpt lat="45.26926572849321" lon="8.940362093086398"><ele>71.0</ele><time>2026-05-03T08:54:11Z</time></trkpt><trkpt lat="45.269250680735574" lon="8.940496095104308"><ele>71.0</ele><time>2026-05-03T08:54:12Z</time></trkpt><trkpt lat="45.26922547324083" lon="8.940628096782591"><ele>71.0</ele><time>2026-05-03T08:54:13Z</time></trkpt><trkpt lat="45.26918564724699" lon="8.940765307461492"><ele>71.0</ele><time>2026-05-03T08:54:14Z</time></trkpt><trkpt lat="45.26918236769885" lon="8.940910911515717"><ele>71.2</ele><time>2026-05-03T08:54:15Z</time></trkpt><trkpt lat="45.269161160253674" lon="8.941056919588778"><ele>71.39999999999999</ele><time>2026-05-03T08:54:16Z</time></trkpt><trkpt lat="45.26914817005748" lon="8.941203081230707"><ele>71.6</ele><time>2026-05-03T08:54:17Z</time></trkpt><trkpt lat="45.269126751256294" lon="8.941353605016548"><ele>71.8</ele><time>2026-05-03T08:54:18Z</time></trkpt><trkpt lat="45.26910295193068" lon="8.941503704062502"><ele>72.0</ele><time>2026-05-03T08:54:19Z</time></trkpt><trkpt lat="45.26907637225127" lon="8.941654340463794"><ele>72.0</ele><time>2026-05-03T08:54:20Z</time></trkpt><trkpt lat="45.269049177678234" lon="8.941804016945886"><ele>72.0</ele><time>2026-05-03T08:54:21Z</time></trkpt><trkpt lat="45.26902173571471" lon="8.941955431376257"><ele>72.0</ele><time>2026-05-03T08:54:22Z</time></trkpt><trkpt lat="45.268997312553445" lon="8.942103269461429"><ele>72.0</ele><time>2026-05-03T08:54:23Z</time></trkpt><trkpt lat="45.268964372933766" lon="8.942254166381762"><ele>72.0</ele><time>2026-05-03T08:54:24Z</time></trkpt><trkpt lat="45.268939754230836" lon="8.942403105665125"><ele>72.6</ele><time>2026-05-03T08:54:25Z</time></trkpt><trkpt lat="45.26891025365351" lon="8.942556318948528"><ele>73.2</ele><time>2026-05-03T08:54:26Z</time></trkpt><trkpt lat="45.26888442534565" lon="8.942709118174522"><ele>73.8</ele><time>2026-05-03T08:54:27Z</time></trkpt><trkpt lat="45.26885469515146" lon="8.942854653223101"><ele>74.4</ele><time>2026-05-03T08:54:28Z</time></trkpt><trkpt lat="45.26883632904557" lon="8.942987899160885"><ele>75.0</ele><time>2026-05-03T08:54:29Z</time></trkpt><trkpt lat="45.26880984507826" lon="8.943113483664241"><ele>75.0</ele><time>2026-05-03T08:54:30Z</time></trkpt><trkpt lat="45.26880652349792" lon="8.94324963742536"><ele>75.0</ele><time>2026-05-03T08:54:31Z</time></trkpt><trkpt lat="45.26879975923795" lon="8.943385899551622"><ele>75.0</ele><time>2026-05-03T08:54:32Z</time></trkpt><trkpt lat="45.26880270532558" lon="8.943511771756704"><ele>75.0</ele><time>2026-05-03T08:54:33Z</time></trkpt><trkpt lat="45.26881847645407" lon="8.94363795763171"><ele>75.0</ele><time>2026-05-03T08:54:34Z</time></trkpt><trkpt lat="45.26884273027391" lon="8.943772937420597"><ele>74.83333333333333</ele><time>2026-05-03T08:54:35Z</time></trkpt><trkpt lat="45.26886627987096" lon="8.94390480920254"><ele>74.66666666666667</ele><time>2026-05-03T08:54:36Z</time></trkpt><trkpt lat="45.2688870966346" lon="8.944039322806171"><ele>74.5</ele><time>2026-05-03T08:54:37Z</time></trkpt><trkpt lat="45.26890317415052" lon="8.944161177930686"><ele>74.33333333333334</ele><time>2026-05-03T08:54:38Z</time></trkpt><trkpt lat="45.26891348301741" lon="8.944262115124276"><ele>74.16666666666667</ele><time>2026-05-03T08:54:39Z</time></trkpt><trkpt lat="45.26892793033504" lon="8.944349532237084"><ele>74.0</ele><time>2026-05-03T08:54:40Z</time></trkpt><trkpt lat="45.26893600651801" lon="8.944498422630602"><ele>73.5</ele><time>2026-05-03T08:54:42Z</time></trkpt><trkpt lat="45.26888850961114" lon="8.944632067541086"><ele>73.0</ele><time>2026-05-03T08:54:44Z</time></trkpt><trkpt lat="45.26884373453181" lon="8.944707866785288"><ele>72.5</ele><time>2026-05-03T08:54:45Z</time></trkpt><trkpt lat="45.26879853679291" lon="8.944794793647914"><ele>72.0</ele><time>2026-05-03T08:54:46Z</time></trkpt><trkpt lat="45.26874313340338" lon="8.944895811288234"><ele>71.5</ele><time>2026-05-03T08:54:47Z</time></trkpt><trkpt lat="45.26868154294242" lon="8.945006378709554"><ele>71.0</ele><time>2026-05-03T08:54:48Z</time></trkpt><trkpt lat="45.268623348671284" lon="8.945112130886669"><ele>70.8</ele><time>2026-05-03T08:54:49Z</time></trkpt><trkpt lat="45.268559786414095" lon="8.945228431535831"><ele>70.6</ele><time>2026-05-03T08:54:50Z</time></trkpt><trkpt lat="45.268504941571365" lon="8.945332019534915"><ele>70.4</ele><time>2026-05-03T08:54:51Z</time></trkpt><trkpt lat="45.2684551906315" lon="8.945463919033147"><ele>70.2</ele><time>2026-05-03T08:54:52Z</time></trkpt><trkpt lat="45.26838923006514" lon="8.945568344356397"><ele>70.0</ele><time>2026-05-03T08:54:53Z</time></trkpt><trkpt lat="45.268333096525" lon="8.945684988656659"><ele>70.0</ele><time>2026-05-03T08:54:54Z</time></trkpt><trkpt lat="45.268264741056434" lon="8.945790820777953"><ele>70.0</ele><time>2026-05-03T08:54:55Z</time></trkpt><trkpt lat="45.26820332705779" lon="8.945908126354327"><ele>70.0</ele><time>2026-05-03T08:54:56Z</time></trkpt><trkpt lat="45.268157623199166" lon="8.945995423915662"><ele>70.0</ele><time>2026-05-03T08:54:57Z</time></trkpt><trkpt lat="45.26809968739052" lon="8.94610414743012"><ele>70.0</ele><time>2026-05-03T08:54:58Z</time></trkpt><trkpt lat="45.26805057705808" lon="8.94619336689044"><ele>70.0</ele><time>2026-05-03T08:54:59Z</time></trkpt><trkpt lat="45.26799296893098" lon="8.946298024531993"><ele>70.0</ele><time>2026-05-03T08:55:00Z</time></trkpt><trkpt lat="45.26793861939557" lon="8.946396762231007"><ele>70.0</ele><time>2026-05-03T08:55:01Z</time></trkpt><trkpt lat="45.26789974046901" lon="8.946505509141543"><ele>70.0</ele><time>2026-05-03T08:55:02Z</time></trkpt><trkpt lat="45.267833448031304" lon="8.946587828767722"><ele>70.0</ele><time>2026-05-03T08:55:03Z</time></trkpt><trkpt lat="45.267787928698716" lon="8.946670524360226"><ele>70.0</ele><time>2026-05-03T08:55:04Z</time></trkpt><trkpt lat="45.26773155965283" lon="8.946794740859874"><ele>70.0</ele><time>2026-05-03T08:55:05Z</time></trkpt><trkpt lat="45.2676779193375" lon="8.946898476746911"><ele>70.0</ele><time>2026-05-03T08:55:06Z</time></trkpt><trkpt lat="45.267611100969894" lon="8.947022766059693"><ele>70.0</ele><time>2026-05-03T08:55:07Z</time></trkpt><trkpt lat="45.26754038266178" lon="8.947151848915952"><ele>70.0</ele><time>2026-05-03T08:55:08Z</time></trkpt><trkpt lat="45.267471593287226" lon="8.947277141720855"><ele>70.0</ele><time>2026-05-03T08:55:09Z</time></trkpt><trkpt lat="45.26740443878537" lon="8.947378092458848"><ele>70.0</ele><time>2026-05-03T08:55:10Z</time></trkpt><trkpt lat="45.26734066456" lon="8.947494019711504"><ele>70.0</ele><time>2026-05-03T08:55:11Z</time></trkpt><trkpt lat="45.2672725420016" lon="8.947614773924048"><ele>70.0</ele><time>2026-05-03T08:55:12Z</time></trkpt><trkpt lat="45.267195015255055" lon="8.947737097838454"><ele>70.0</ele><time>2026-05-03T08:55:13Z</time></trkpt><trkpt lat="45.267126668847965" lon="8.947865497419325"><ele>70.0</ele><time>2026-05-03T08:55:14Z</time></trkpt><trkpt lat="45.26704548046403" lon="8.947969168045868"><ele>70.0</ele><time>2026-05-03T08:55:15Z</time></trkpt><trkpt lat="45.266977333223586" lon="8.948061454260898"><ele>70.0</ele><time>2026-05-03T08:55:16Z</time></trkpt><trkpt lat="45.26691219699894" lon="8.948157787258125"><ele>70.0</ele><time>2026-05-03T08:55:17Z</time></trkpt><trkpt lat="45.266830427219595" lon="8.948267798874705"><ele>70.0</ele><time>2026-05-03T08:55:18Z</time></trkpt><trkpt lat="45.266765688052466" lon="8.948356294737307"><ele>70.0</ele><time>2026-05-03T08:55:19Z</time></trkpt><trkpt lat="45.26670605439562" lon="8.948440832910217"><ele>70.0</ele><time>2026-05-03T08:55:20Z</time></trkpt><trkpt lat="45.266653800360416" lon="8.948509573938315"><ele>70.0</ele><time>2026-05-03T08:55:21Z</time></trkpt><trkpt lat="45.26660446677137" lon="8.94858108715696"><ele>70.0</ele><time>2026-05-03T08:55:22Z</time></trkpt><trkpt lat="45.26655761225557" lon="8.94864342402993"><ele>70.0</ele><time>2026-05-03T08:55:23Z</time></trkpt><trkpt lat="45.266478686860815" lon="8.948759742761846"><ele>70.0</ele><time>2026-05-03T08:55:25Z</time></trkpt><trkpt lat="45.266429877333564" lon="8.948817400302305"><ele>70.0</ele><time>2026-05-03T08:55:26Z</time></trkpt><trkpt lat="45.266378608180524" lon="8.948887196986144"><ele>70.0</ele><time>2026-05-03T08:55:28Z</time></trkpt><trkpt lat="45.26632083440383" lon="8.948830060646218"><ele>70.0</ele><time>2026-05-03T08:55:31Z</time></trkpt><trkpt lat="45.26635916545656" lon="8.94874485746771"><ele>70.0</ele><time>2026-05-03T08:55:34Z</time></trkpt><trkpt lat="45.26644724656007" lon="8.948657710209929"><ele>70.0</ele><time>2026-05-03T08:55:36Z</time></trkpt><trkpt lat="45.26648026642111" lon="8.948572439389972"><ele>70.0</ele><time>2026-05-03T08:55:37Z</time></trkpt><trkpt lat="45.2664912587062" lon="8.948448663833304"><ele>70.0</ele><time>2026-05-03T08:55:38Z</time></trkpt><trkpt lat="45.266484999440756" lon="8.9482887212438"><ele>70.16666666666666</ele><time>2026-05-03T08:55:39Z</time></trkpt><trkpt lat="45.266471157035376" lon="8.948156316012499"><ele>70.33333333333333</ele><time>2026-05-03T08:55:40Z</time></trkpt><trkpt lat="45.26646528155676" lon="8.948058906801581"><ele>70.5</ele><time>2026-05-03T08:55:41Z</time></trkpt><trkpt lat="45.26645745612578" lon="8.947964636086178"><ele>70.66666666666667</ele><time>2026-05-03T08:55:42Z</time></trkpt><trkpt lat="45.26643812232648" lon="8.947872654573716"><ele>70.83333333333334</ele><time>2026-05-03T08:55:43Z</time></trkpt><trkpt lat="45.26642621099225" lon="8.947750700164718"><ele>71.0</ele><time>2026-05-03T08:55:44Z</time></trkpt><trkpt lat="45.26637838277487" lon="8.947623436117862"><ele>71.2</ele><time>2026-05-03T08:55:45Z</time></trkpt><trkpt lat="45.26632868317175" lon="8.947504464461174"><ele>71.39999999999999</ele><time>2026-05-03T08:55:46Z</time></trkpt><trkpt lat="45.266269599371064" lon="8.947358198784451"><ele>71.6</ele><time>2026-05-03T08:55:48Z</time></trkpt><trkpt lat="45.266210162386635" lon="8.94723011662346"><ele>71.8</ele><time>2026-05-03T08:55:50Z</time></trkpt><trkpt lat="45.26609104635081" lon="8.947176803411661"><ele>72.0</ele><time>2026-05-03T08:55:52Z</time></trkpt><trkpt lat="45.26600263660604" lon="8.947227426699135"><ele>72.0</ele><time>2026-05-03T08:55:53Z</time></trkpt><trkpt lat="45.2659014962188" lon="8.947242039636928"><ele>72.0</ele><time>2026-05-03T08:55:54Z</time></trkpt><trkpt lat="45.26583063815522" lon="8.947270563426347"><ele>72.0</ele><time>2026-05-03T08:55:55Z</time></trkpt><trkpt lat="45.26575210898159" lon="8.94734639169341"><ele>72.0</ele><time>2026-05-03T08:55:57Z</time></trkpt><trkpt lat="45.26571756337601" lon="8.94748602712385"><ele>72.0</ele><time>2026-05-03T08:55:59Z</time></trkpt><trkpt lat="45.26574063833229" lon="8.947609317835871"><ele>72.0</ele><time>2026-05-03T08:56:00Z</time></trkpt><trkpt lat="45.265737451842185" lon="8.9477088120359"><ele>72.0</ele><time>2026-05-03T08:56:01Z</time></trkpt><trkpt lat="45.26571749280554" lon="8.947805691870698"><ele>72.0</ele><time>2026-05-03T08:56:02Z</time></trkpt><trkpt lat="45.26566435895011" lon="8.947863244315297"><ele>72.0</ele><time>2026-05-03T08:56:03Z</time></trkpt><trkpt lat="45.26557906245581" lon="8.947842341616258"><ele>72.0</ele><time>2026-05-03T08:56:04Z</time></trkpt><trkpt lat="45.26548971151234" lon="8.947878382603003"><ele>72.0</ele><time>2026-05-03T08:56:05Z</time></trkpt><trkpt lat="45.265394567696525" lon="8.94793538852194"><ele>71.6</ele><time>2026-05-03T08:56:06Z</time></trkpt><trkpt lat="45.265297049814315" lon="8.948021290514069"><ele>71.2</ele><time>2026-05-03T08:56:07Z</time></trkpt><trkpt lat="45.26520332943374" lon="8.948104475101946"><ele>70.8</ele><time>2026-05-03T08:56:08Z</time></trkpt><trkpt lat="45.265106278217644" lon="8.94819026882225"><ele>70.4</ele><time>2026-05-03T08:56:09Z</time></trkpt><trkpt lat="45.26501523749794" lon="8.948264285928968"><ele>70.0</ele><time>2026-05-03T08:56:10Z</time></trkpt><trkpt lat="45.26492594425244" lon="8.948336882267089"><ele>70.0</ele><time>2026-05-03T08:56:11Z</time></trkpt><trkpt lat="45.26483410827901" lon="8.948411545938196"><ele>70.0</ele><time>2026-05-03T08:56:12Z</time></trkpt><trkpt lat="45.26475602142751" lon="8.948474208955618"><ele>70.0</ele><time>2026-05-03T08:56:13Z</time></trkpt><trkpt lat="45.26466051001036" lon="8.948550021425419"><ele>70.0</ele><time>2026-05-03T08:56:14Z</time></trkpt><trkpt lat="45.264560613862756" lon="8.948628357208326"><ele>70.0</ele><time>2026-05-03T08:56:15Z</time></trkpt><trkpt lat="45.26445563630354" lon="8.948710677763811"><ele>69.5</ele><time>2026-05-03T08:56:16Z</time></trkpt><trkpt lat="45.26434624282829" lon="8.948796461166806"><ele>69.0</ele><time>2026-05-03T08:56:17Z</time></trkpt><trkpt lat="45.26424012058076" lon="8.948879679343843"><ele>68.5</ele><time>2026-05-03T08:56:18Z</time></trkpt><trkpt lat="45.26413720190434" lon="8.948960385258001"><ele>68.0</ele><time>2026-05-03T08:56:19Z</time></trkpt><trkpt lat="45.26403737298047" lon="8.949038668411836"><ele>68.25</ele><time>2026-05-03T08:56:20Z</time></trkpt><trkpt lat="45.26393656052415" lon="8.949117722823459"><ele>68.5</ele><time>2026-05-03T08:56:21Z</time></trkpt><trkpt lat="45.263832071103" lon="8.949199660468587"><ele>68.75</ele><time>2026-05-03T08:56:22Z</time></trkpt><trkpt lat="45.26372463576281" lon="8.949283908412855"><ele>69.0</ele><time>2026-05-03T08:56:23Z</time></trkpt><trkpt lat="45.263621733683465" lon="8.949364601450617"><ele>69.0</ele><time>2026-05-03T08:56:24Z</time></trkpt><trkpt lat="45.26351887306486" lon="8.949445261910647"><ele>69.0</ele><time>2026-05-03T08:56:25Z</time></trkpt><trkpt lat="45.26340838346599" lon="8.949531052876024"><ele>69.0</ele><time>2026-05-03T08:56:26Z</time></trkpt><trkpt lat="45.26329725217697" lon="8.949617006625012"><ele>69.0</ele><time>2026-05-03T08:56:27Z</time></trkpt><trkpt lat="45.26318415800613" lon="8.949704478480195"><ele>69.25</ele><time>2026-05-03T08:56:28Z</time></trkpt><trkpt lat="45.26306375032976" lon="8.949797606942663"><ele>69.5</ele><time>2026-05-03T08:56:29Z</time></trkpt><trkpt lat="45.26294940158609" lon="8.949886049208057"><ele>69.75</ele><time>2026-05-03T08:56:30Z</time></trkpt><trkpt lat="45.26282585486345" lon="8.94998338244593"><ele>70.0</ele><time>2026-05-03T08:56:31Z</time></trkpt><trkpt lat="45.26268658253911" lon="8.950094295876763"><ele>70.0</ele><time>2026-05-03T08:56:32Z</time></trkpt><trkpt lat="45.26256880048762" lon="8.950188094914195"><ele>70.0</ele><time>2026-05-03T08:56:33Z</time></trkpt><trkpt lat="45.26247447556808" lon="8.950263213252402"><ele>70.0</ele><time>2026-05-03T08:56:34Z</time></trkpt><trkpt lat="45.26239399641566" lon="8.950327408428679"><ele>70.0</ele><time>2026-05-03T08:56:35Z</time></trkpt><trkpt lat="45.26231573934383" lon="8.9503899660646"><ele>70.0</ele><time>2026-05-03T08:56:36Z</time></trkpt><trkpt lat="45.26225116687154" lon="8.950441584441775"><ele>70.25</ele><time>2026-05-03T08:56:37Z</time></trkpt><trkpt lat="45.26216380473312" lon="8.950511420573916"><ele>70.5</ele><time>2026-05-03T08:56:38Z</time></trkpt><trkpt lat="45.26207012079055" lon="8.950585239077347"><ele>70.75</ele><time>2026-05-03T08:56:39Z</time></trkpt><trkpt lat="45.261965468274184" lon="8.950667162928747"><ele>71.0</ele><time>2026-05-03T08:56:40Z</time></trkpt><trkpt lat="45.26185572085605" lon="8.950753075358259"><ele>71.0</ele><time>2026-05-03T08:56:41Z</time></trkpt><trkpt lat="45.26174606027795" lon="8.950838920034085"><ele>71.0</ele><time>2026-05-03T08:56:42Z</time></trkpt><trkpt lat="45.26165195409415" lon="8.95091258807703"><ele>71.0</ele><time>2026-05-03T08:56:43Z</time></trkpt><trkpt lat="45.26156707569479" lon="8.95097903262479"><ele>71.0</ele><time>2026-05-03T08:56:44Z</time></trkpt><trkpt lat="45.26148536622768" lon="8.951042956978863"><ele>71.0</ele><time>2026-05-03T08:56:45Z</time></trkpt><trkpt lat="45.261403629700986" lon="8.951127828049987"><ele>70.6</ele><time>2026-05-03T08:56:46Z</time></trkpt><trkpt lat="45.261308794420465" lon="8.951176637066169"><ele>70.19999999999999</ele><time>2026-05-03T08:56:47Z</time></trkpt><trkpt lat="45.261209260554324" lon="8.951251954436792"><ele>69.80000000000001</ele><time>2026-05-03T08:56:48Z</time></trkpt><trkpt lat="45.26111237759053" lon="8.951329308335396"><ele>69.4</ele><time>2026-05-03T08:56:49Z</time></trkpt><trkpt lat="45.26101241796374" lon="8.951410210974688"><ele>69.0</ele><time>2026-05-03T08:56:50Z</time></trkpt><trkpt lat="45.26091001198129" lon="8.951492896915997"><ele>69.0</ele><time>2026-05-03T08:56:51Z</time></trkpt><trkpt lat="45.26081560919714" lon="8.951567816173199"><ele>69.0</ele><time>2026-05-03T08:56:52Z</time></trkpt><trkpt lat="45.26073231333537" lon="8.951631368426362"><ele>69.0</ele><time>2026-05-03T08:56:53Z</time></trkpt><trkpt lat="45.260655625943976" lon="8.951691556262153"><ele>69.0</ele><time>2026-05-03T08:56:54Z</time></trkpt><trkpt lat="45.26057750982083" lon="8.951767202283051"><ele>69.0</ele><time>2026-05-03T08:56:55Z</time></trkpt><trkpt lat="45.260521093944675" lon="8.951857155116883"><ele>69.0</ele><time>2026-05-03T08:56:56Z</time></trkpt><trkpt lat="45.26046479951705" lon="8.951930825922673"><ele>69.0</ele><time>2026-05-03T08:56:57Z</time></trkpt><trkpt lat="45.26038702428711" lon="8.951995944107606"><ele>69.0</ele><time>2026-05-03T08:56:58Z</time></trkpt><trkpt lat="45.260330516898506" lon="8.952063387436507"><ele>69.0</ele><time>2026-05-03T08:56:59Z</time></trkpt><trkpt lat="45.260234203483925" lon="8.952144551426596"><ele>69.0</ele><time>2026-05-03T08:57:01Z</time></trkpt><trkpt lat="45.26013156885236" lon="8.952153971412143"><ele>69.0</ele><time>2026-05-03T08:57:03Z</time></trkpt><trkpt lat="45.26007344383755" lon="8.952099881462848"><ele>69.0</ele><time>2026-05-03T08:57:04Z</time></trkpt><trkpt lat="45.260023326593924" lon="8.952017740796078"><ele>69.0</ele><time>2026-05-03T08:57:05Z</time></trkpt><trkpt lat="45.25994195683748" lon="8.951924905919986"><ele>69.0</ele><time>2026-05-03T08:57:06Z</time></trkpt><trkpt lat="45.25986102442774" lon="8.951824529381426"><ele>69.0</ele><time>2026-05-03T08:57:07Z</time></trkpt><trkpt lat="45.259772812407036" lon="8.951699618596926"><ele>69.4</ele><time>2026-05-03T08:57:08Z</time></trkpt><trkpt lat="45.259687499533634" lon="8.95157755682903"><ele>69.80000000000001</ele><time>2026-05-03T08:57:09Z</time></trkpt><trkpt lat="45.259613928904116" lon="8.95147229539423"><ele>70.19999999999999</ele><time>2026-05-03T08:57:10Z</time></trkpt><trkpt lat="45.259542655489675" lon="8.951370320752403"><ele>70.6</ele><time>2026-05-03T08:57:11Z</time></trkpt><trkpt lat="45.259464448990784" lon="8.951258426477166"><ele>71.0</ele><time>2026-05-03T08:57:12Z</time></trkpt><trkpt lat="45.25939069671223" lon="8.951150107003343"><ele>71.0</ele><time>2026-05-03T08:57:13Z</time></trkpt><trkpt lat="45.259321969761174" lon="8.951042989885368"><ele>71.0</ele><time>2026-05-03T08:57:14Z</time></trkpt><trkpt lat="45.2592670470164" lon="8.950956714869776"><ele>71.0</ele><time>2026-05-03T08:57:15Z</time></trkpt><trkpt lat="45.25921427108495" lon="8.95087381217981"><ele>71.0</ele><time>2026-05-03T08:57:16Z</time></trkpt><trkpt lat="45.25912657881886" lon="8.950773801077457"><ele>71.0</ele><time>2026-05-03T08:57:18Z</time></trkpt><trkpt lat="45.259055190749706" lon="8.950703936295294"><ele>70.8</ele><time>2026-05-03T08:57:21Z</time></trkpt><trkpt lat="45.258951397107516" lon="8.950771112836485"><ele>70.6</ele><time>2026-05-03T08:57:23Z</time></trkpt><trkpt lat="45.25888493513473" lon="8.950855833464658"><ele>70.4</ele><time>2026-05-03T08:57:24Z</time></trkpt><trkpt lat="45.25880775983734" lon="8.950963971251817"><ele>70.2</ele><time>2026-05-03T08:57:25Z</time></trkpt><trkpt lat="45.25873065149096" lon="8.951066627262168"><ele>70.0</ele><time>2026-05-03T08:57:26Z</time></trkpt><trkpt lat="45.2586633255469" lon="8.9511558999991"><ele>69.83333333333333</ele><time>2026-05-03T08:57:27Z</time></trkpt><trkpt lat="45.25860511045133" lon="8.951233092271059"><ele>69.66666666666666</ele><time>2026-05-03T08:57:28Z</time></trkpt><trkpt lat="45.25855829912065" lon="8.951295163069647"><ele>69.5</ele><time>2026-05-03T08:57:29Z</time></trkpt><trkpt lat="45.25850013360872" lon="8.951372289432845"><ele>69.33333333333333</ele><time>2026-05-03T08:57:30Z</time></trkpt><trkpt lat="45.258436469257774" lon="8.951456707021267"><ele>69.16666666666667</ele><time>2026-05-03T08:57:31Z</time></trkpt><trkpt lat="45.25836605710722" lon="8.95154600952616"><ele>69.0</ele><time>2026-05-03T08:57:32Z</time></trkpt><trkpt lat="45.25828809079817" lon="8.951636704654794"><ele>69.2</ele><time>2026-05-03T08:57:33Z</time></trkpt><trkpt lat="45.258207731898885" lon="8.951724135147304"><ele>69.4</ele><time>2026-05-03T08:57:34Z</time></trkpt><trkpt lat="45.258126487517785" lon="8.95180720857712"><ele>69.6</ele><time>2026-05-03T08:57:35Z</time></trkpt><trkpt lat="45.25806182676912" lon="8.95187220042144"><ele>69.8</ele><time>2026-05-03T08:57:36Z</time></trkpt><trkpt lat="45.257993431800436" lon="8.951940945674684"><ele>70.0</ele><time>2026-05-03T08:57:37Z</time></trkpt><trkpt lat="45.257907557174015" lon="8.95202726012564"><ele>70.66666666666666</ele><time>2026-05-03T08:57:38Z</time></trkpt><trkpt lat="45.2578193520665" lon="8.952115916963315"><ele>71.33333333333333</ele><time>2026-05-03T08:57:39Z</time></trkpt><trkpt lat="45.25773783522369" lon="8.952200835220108"><ele>72.0</ele><time>2026-05-03T08:57:40Z</time></trkpt><trkpt lat="45.2576643105563" lon="8.95227803111469"><ele>72.66666666666667</ele><time>2026-05-03T08:57:41Z</time></trkpt><trkpt lat="45.25760678967794" lon="8.952336233843814"><ele>73.33333333333334</ele><time>2026-05-03T08:57:42Z</time></trkpt><trkpt lat="45.257554453423374" lon="8.952388864449231"><ele>74.0</ele><time>2026-05-03T08:57:43Z</time></trkpt><trkpt lat="45.25746391839318" lon="8.952460138739827"><ele>74.0</ele><time>2026-05-03T08:57:45Z</time></trkpt><trkpt lat="45.257390490359064" lon="8.952478483762457"><ele>74.0</ele><time>2026-05-03T08:57:47Z</time></trkpt><trkpt lat="45.257336067432725" lon="8.952433300679042"><ele>74.0</ele><time>2026-05-03T08:57:48Z</time></trkpt><trkpt lat="45.257288181156426" lon="8.952356997341615"><ele>74.0</ele><time>2026-05-03T08:57:49Z</time></trkpt><trkpt lat="45.25726692339487" lon="8.952267612650653"><ele>74.0</ele><time>2026-05-03T08:57:50Z</time></trkpt><trkpt lat="45.257237814534314" lon="8.952143782064942"><ele>74.0</ele><time>2026-05-03T08:57:51Z</time></trkpt><trkpt lat="45.257211182521154" lon="8.95203027423813"><ele>74.5</ele><time>2026-05-03T08:57:52Z</time></trkpt><trkpt lat="45.25717043321808" lon="8.951934395054963"><ele>75.0</ele><time>2026-05-03T08:57:53Z</time></trkpt><trkpt lat="45.25711680600596" lon="8.951790830461826"><ele>75.5</ele><time>2026-05-03T08:57:55Z</time></trkpt><trkpt lat="45.25705902601566" lon="8.951652760805967"><ele>76.0</ele><time>2026-05-03T08:57:57Z</time></trkpt><trkpt lat="45.256997669262226" lon="8.951620655437342"><ele>76.5</ele><time>2026-05-03T08:57:58Z</time></trkpt><trkpt lat="45.256931591051085" lon="8.95160203005599"><ele>77.0</ele><time>2026-05-03T08:58:00Z</time></trkpt><trkpt lat="45.256844751433405" lon="8.951622467681402"><ele>77.0</ele><time>2026-05-03T08:58:02Z</time></trkpt><trkpt lat="45.256724005913604" lon="8.951691442447174"><ele>77.0</ele><time>2026-05-03T08:58:04Z</time></trkpt><trkpt lat="45.256635297452796" lon="8.951749522253694"><ele>77.0</ele><time>2026-05-03T08:58:06Z</time></trkpt><trkpt lat="45.25653181727202" lon="8.951822087344885"><ele>77.0</ele><time>2026-05-03T08:58:08Z</time></trkpt><trkpt lat="45.256465351170306" lon="8.951870862173022"><ele>77.0</ele><time>2026-05-03T08:58:09Z</time></trkpt><trkpt lat="45.256408585975436" lon="8.951912518290065"><ele>77.2</ele><time>2026-05-03T08:58:10Z</time></trkpt><trkpt lat="45.25630635963519" lon="8.951976181651562"><ele>77.4</ele><time>2026-05-03T08:58:12Z</time></trkpt><trkpt lat="45.256228872683224" lon="8.952007085802338"><ele>77.6</ele><time>2026-05-03T08:58:13Z</time></trkpt><trkpt lat="45.25615689729456" lon="8.9520652714669"><ele>77.8</ele><time>2026-05-03T08:58:14Z</time></trkpt><trkpt lat="45.256096853196176" lon="8.952107124690563"><ele>78.0</ele><time>2026-05-03T08:58:15Z</time></trkpt><trkpt lat="45.255989304531234" lon="8.952178826887707"><ele>78.0</ele><time>2026-05-03T08:58:17Z</time></trkpt><trkpt lat="45.25589123632833" lon="8.95224030046539"><ele>78.0</ele><time>2026-05-03T08:58:19Z</time></trkpt><trkpt lat="45.25582710266021" lon="8.952278433915643"><ele>78.0</ele><time>2026-05-03T08:58:20Z</time></trkpt><trkpt lat="45.25574301738207" lon="8.95231827518073"><ele>78.0</ele><time>2026-05-03T08:58:21Z</time></trkpt><trkpt lat="45.25563116027121" lon="8.952352167167108"><ele>78.0</ele><time>2026-05-03T08:58:23Z</time></trkpt><trkpt lat="45.25556411050761" lon="8.95238485734184"><ele>77.0</ele><time>2026-05-03T08:58:25Z</time></trkpt><trkpt lat="45.25545791185495" lon="8.952390949362849"><ele>76.0</ele><time>2026-05-03T08:58:28Z</time></trkpt><trkpt lat="45.2553439632094" lon="8.952148853754398"><ele>75.0</ele><time>2026-05-03T08:58:30Z</time></trkpt><trkpt lat="45.25527549215196" lon="8.951991421332746"><ele>74.0</ele><time>2026-05-03T08:58:31Z</time></trkpt><trkpt lat="45.25520948824868" lon="8.951845173574856"><ele>74.0</ele><time>2026-05-03T08:58:32Z</time></trkpt><trkpt lat="45.25515727192247" lon="8.951720761585795"><ele>74.0</ele><time>2026-05-03T08:58:33Z</time></trkpt><trkpt lat="45.255119601038885" lon="8.951632046727228"><ele>74.0</ele><time>2026-05-03T08:58:34Z</time></trkpt><trkpt lat="45.25508068392363" lon="8.951550114011075"><ele>74.0</ele><time>2026-05-03T08:58:35Z</time></trkpt><trkpt lat="45.255038167548385" lon="8.951456179891995"><ele>74.0</ele><time>2026-05-03T08:58:36Z</time></trkpt><trkpt lat="45.25499136043712" lon="8.951351911108013"><ele>74.0</ele><time>2026-05-03T08:58:37Z</time></trkpt><trkpt lat="45.25493556240889" lon="8.951249424792978"><ele>74.0</ele><time>2026-05-03T08:58:38Z</time></trkpt><trkpt lat="45.254897177021995" lon="8.951168329941137"><ele>74.0</ele><time>2026-05-03T08:58:39Z</time></trkpt><trkpt lat="45.25483857805121" lon="8.951120421940752"><ele>74.0</ele><time>2026-05-03T08:58:40Z</time></trkpt><trkpt lat="45.25477552920099" lon="8.951067020505938"><ele>74.0</ele><time>2026-05-03T08:58:41Z</time></trkpt><trkpt lat="45.25468536822965" lon="8.951014360403683"><ele>74.0</ele><time>2026-05-03T08:58:42Z</time></trkpt><trkpt lat="45.25459573599661" lon="8.950958088158853"><ele>74.0</ele><time>2026-05-03T08:58:43Z</time></trkpt><trkpt lat="45.254520660572325" lon="8.950901768362082"><ele>73.60000000000001</ele><time>2026-05-03T08:58:44Z</time></trkpt><trkpt lat="45.25445441586194" lon="8.950862272589944"><ele>73.2</ele><time>2026-05-03T08:58:45Z</time></trkpt><trkpt lat="45.254385056605635" lon="8.950820657076461"><ele>72.80000000000001</ele><time>2026-05-03T08:58:46Z</time></trkpt><trkpt lat="45.254297129242154" lon="8.950788572096263"><ele>72.4</ele><time>2026-05-03T08:58:47Z</time></trkpt><trkpt lat="45.25421326225248" lon="8.950716499977473"><ele>72.0</ele><time>2026-05-03T08:58:48Z</time></trkpt><trkpt lat="45.25410430425213" lon="8.950654859766223"><ele>72.0</ele><time>2026-05-03T08:58:49Z</time></trkpt><trkpt lat="45.25400488241221" lon="8.950589750032643"><ele>72.0</ele><time>2026-05-03T08:58:50Z</time></trkpt><trkpt lat="45.25389917718101" lon="8.950525801118562"><ele>72.0</ele><time>2026-05-03T08:58:51Z</time></trkpt><trkpt lat="45.2537935131333" lon="8.95045791214868"><ele>72.0</ele><time>2026-05-03T08:58:52Z</time></trkpt><trkpt lat="45.25368673780278" lon="8.950397345935782"><ele>71.6</ele><time>2026-05-03T08:58:53Z</time></trkpt><trkpt lat="45.25358183782547" lon="8.950327321921863"><ele>71.2</ele><time>2026-05-03T08:58:54Z</time></trkpt><trkpt lat="45.25348138027418" lon="8.950260115798761"><ele>70.8</ele><time>2026-05-03T08:58:55Z</time></trkpt><trkpt lat="45.253392620844664" lon="8.95020350261901"><ele>70.4</ele><time>2026-05-03T08:58:56Z</time></trkpt><trkpt lat="45.25331732021448" lon="8.950154197161773"><ele>70.0</ele><time>2026-05-03T08:58:57Z</time></trkpt><trkpt lat="45.253231160791145" lon="8.95009348783079"><ele>70.0</ele><time>2026-05-03T08:58:58Z</time></trkpt><trkpt lat="45.25316047161885" lon="8.950041913811571"><ele>70.0</ele><time>2026-05-03T08:58:59Z</time></trkpt><trkpt lat="45.25309273170719" lon="8.949983917070767"><ele>70.0</ele><time>2026-05-03T08:59:00Z</time></trkpt><trkpt lat="45.253020205183866" lon="8.949912270069175"><ele>70.0</ele><time>2026-05-03T08:59:01Z</time></trkpt><trkpt lat="45.25293371128736" lon="8.949812176942878"><ele>70.0</ele><time>2026-05-03T08:59:02Z</time></trkpt><trkpt lat="45.25279878764217" lon="8.949602629331327"><ele>70.2</ele><time>2026-05-03T08:59:04Z</time></trkpt><trkpt lat="45.25273105854189" lon="8.949472523158873"><ele>70.4</ele><time>2026-05-03T08:59:05Z</time></trkpt><trkpt lat="45.25267073034758" lon="8.94934054853866"><ele>70.6</ele><time>2026-05-03T08:59:06Z</time></trkpt><trkpt lat="45.252605075956176" lon="8.949211791229816"><ele>70.8</ele><time>2026-05-03T08:59:07Z</time></trkpt><trkpt lat="45.252553454704646" lon="8.94911093712293"><ele>71.0</ele><time>2026-05-03T08:59:08Z</time></trkpt><trkpt lat="45.252506230562965" lon="8.949007175646104"><ele>71.0</ele><time>2026-05-03T08:59:09Z</time></trkpt><trkpt lat="45.25246012339586" lon="8.94888772111636"><ele>71.0</ele><time>2026-05-03T08:59:10Z</time></trkpt><trkpt lat="45.25240514997775" lon="8.948753319613106"><ele>71.0</ele><time>2026-05-03T08:59:11Z</time></trkpt><trkpt lat="45.25234344286478" lon="8.948611250343136"><ele>71.0</ele><time>2026-05-03T08:59:12Z</time></trkpt><trkpt lat="45.25228350328866" lon="8.948478186430615"><ele>71.0</ele><time>2026-05-03T08:59:13Z</time></trkpt><trkpt lat="45.25222384032917" lon="8.948373605474913"><ele>71.16666666666667</ele><time>2026-05-03T08:59:14Z</time></trkpt><trkpt lat="45.252181527341136" lon="8.94829327998132"><ele>71.33333333333334</ele><time>2026-05-03T08:59:15Z</time></trkpt><trkpt lat="45.25214815637147" lon="8.948208408805222"><ele>71.5</ele><time>2026-05-03T08:59:16Z</time></trkpt><trkpt lat="45.25210132191019" lon="8.9481163724825"><ele>71.66666666666667</ele><time>2026-05-03T08:59:17Z</time></trkpt><trkpt lat="45.25204486678954" lon="8.948007502286902"><ele>71.83333333333333</ele><time>2026-05-03T08:59:18Z</time></trkpt><trkpt lat="45.25199025866131" lon="8.947877788403517"><ele>72.0</ele><time>2026-05-03T08:59:19Z</time></trkpt><trkpt lat="45.25192264434785" lon="8.947746060076295"><ele>72.0</ele><time>2026-05-03T08:59:20Z</time></trkpt><trkpt lat="45.25185335536678" lon="8.947610695048091"><ele>72.0</ele><time>2026-05-03T08:59:21Z</time></trkpt><trkpt lat="45.251787960855246" lon="8.947472389076763"><ele>72.0</ele><time>2026-05-03T08:59:22Z</time></trkpt><trkpt lat="45.25171288596538" lon="8.947332703420972"><ele>72.0</ele><time>2026-05-03T08:59:23Z</time></trkpt><trkpt lat="45.25164940456824" lon="8.94719345473689"><ele>72.2</ele><time>2026-05-03T08:59:24Z</time></trkpt><trkpt lat="45.25158480643258" lon="8.947070620478543"><ele>72.4</ele><time>2026-05-03T08:59:25Z</time></trkpt><trkpt lat="45.2515287041067" lon="8.946941811279366"><ele>72.6</ele><time>2026-05-03T08:59:26Z</time></trkpt><trkpt lat="45.251457337610205" lon="8.946812218088297"><ele>72.8</ele><time>2026-05-03T08:59:27Z</time></trkpt><trkpt lat="45.2513885770039" lon="8.946674664724057"><ele>73.0</ele><time>2026-05-03T08:59:28Z</time></trkpt><trkpt lat="45.25131473806738" lon="8.946541114901482"><ele>72.4</ele><time>2026-05-03T08:59:29Z</time></trkpt><trkpt lat="45.2512608767336" lon="8.946392262886139"><ele>71.8</ele><time>2026-05-03T08:59:30Z</time></trkpt><trkpt lat="45.25117375958281" lon="8.946257216960406"><ele>71.2</ele><time>2026-05-03T08:59:31Z</time></trkpt><trkpt lat="45.251121058977525" lon="8.946132555248981"><ele>70.6</ele><time>2026-05-03T08:59:32Z</time></trkpt><trkpt lat="45.25106936346728" lon="8.946028512649454"><ele>70.0</ele><time>2026-05-03T08:59:33Z</time></trkpt><trkpt lat="45.251015332323256" lon="8.945917577119767"><ele>70.5</ele><time>2026-05-03T08:59:34Z</time></trkpt><trkpt lat="45.250942803820685" lon="8.94578437314129"><ele>71.0</ele><time>2026-05-03T08:59:35Z</time></trkpt><trkpt lat="45.25089332212799" lon="8.945666062345365"><ele>71.5</ele><time>2026-05-03T08:59:36Z</time></trkpt><trkpt lat="45.25082361504111" lon="8.945535609894074"><ele>72.0</ele><time>2026-05-03T08:59:38Z</time></trkpt><trkpt lat="45.250752021298496" lon="8.945378991626404"><ele>72.0</ele><time>2026-05-03T08:59:40Z</time></trkpt><trkpt lat="45.25070014556049" lon="8.945279997892866"><ele>72.0</ele><time>2026-05-03T08:59:41Z</time></trkpt><trkpt lat="45.250642186726246" lon="8.945171139744387"><ele>72.0</ele><time>2026-05-03T08:59:42Z</time></trkpt><trkpt lat="45.25058211656436" lon="8.945049891173445"><ele>72.0</ele><time>2026-05-03T08:59:43Z</time></trkpt><trkpt lat="45.25052421590759" lon="8.944919663102258"><ele>72.0</ele><time>2026-05-03T08:59:44Z</time></trkpt><trkpt lat="45.25046288133437" lon="8.94478618978489"><ele>72.0</ele><time>2026-05-03T08:59:45Z</time></trkpt><trkpt lat="45.250411314590615" lon="8.944662217830096"><ele>72.0</ele><time>2026-05-03T08:59:46Z</time></trkpt><trkpt lat="45.250370107599835" lon="8.944523351114151"><ele>72.0</ele><time>2026-05-03T08:59:47Z</time></trkpt><trkpt lat="45.25034269591816" lon="8.9443780271001"><ele>72.0</ele><time>2026-05-03T08:59:48Z</time></trkpt><trkpt lat="45.25032531343434" lon="8.944243258032664"><ele>72.0</ele><time>2026-05-03T08:59:49Z</time></trkpt><trkpt lat="45.2503206596134" lon="8.944121206755092"><ele>72.00000000000001</ele><time>2026-05-03T08:59:50Z</time></trkpt><trkpt lat="45.250330062162455" lon="8.944010865913832"><ele>72.0</ele><time>2026-05-03T08:59:51Z</time></trkpt><trkpt lat="45.25034945867045" lon="8.943913041839153"><ele>72.0</ele><time>2026-05-03T08:59:52Z</time></trkpt><trkpt lat="45.25037546276647" lon="8.943829939999787"><ele>72.0</ele><time>2026-05-03T08:59:53Z</time></trkpt><trkpt lat="45.250406440252604" lon="8.94374049963592"><ele>72.0</ele><time>2026-05-03T08:59:54Z</time></trkpt><trkpt lat="45.250436287449034" lon="8.943654174493272"><ele>72.00000000000001</ele><time>2026-05-03T08:59:55Z</time></trkpt><trkpt lat="45.25046288773745" lon="8.943546886212799"><ele>72.0</ele><time>2026-05-03T08:59:56Z</time></trkpt><trkpt lat="45.25049196598838" lon="8.943416154030182"><ele>72.0</ele><time>2026-05-03T08:59:57Z</time></trkpt><trkpt lat="45.25052908630957" lon="8.943268564987942"><ele>72.0</ele><time>2026-05-03T08:59:58Z</time></trkpt><trkpt lat="45.250561678789715" lon="8.943143983205152"><ele>72.0</ele><time>2026-05-03T08:59:59Z</time></trkpt><trkpt lat="45.25059505443116" lon="8.943045688145405"><ele>72.0</ele><time>2026-05-03T09:00:00Z</time></trkpt><trkpt lat="45.25061941467302" lon="8.94296099192488"><ele>72.0</ele><time>2026-05-03T09:00:01Z</time></trkpt><trkpt lat="45.2506499212244" lon="8.94277475550659"><ele>72.0</ele><time>2026-05-03T09:00:03Z</time></trkpt><trkpt lat="45.25066278777358" lon="8.942671774101177"><ele>72.0</ele><time>2026-05-03T09:00:04Z</time></trkpt><trkpt lat="45.25071011414411" lon="8.94257646791476"><ele>72.0</ele><time>2026-05-03T09:00:05Z</time></trkpt><trkpt lat="45.25074025667385" lon="8.942483086731716"><ele>72.0</ele><time>2026-05-03T09:00:06Z</time></trkpt><trkpt lat="45.25076510398345" lon="8.9423853727442"><ele>72.0</ele><time>2026-05-03T09:00:07Z</time></trkpt><trkpt lat="45.25079346226093" lon="8.942291830707887"><ele>72.0</ele><time>2026-05-03T09:00:08Z</time></trkpt><trkpt lat="45.25082688995515" lon="8.94218225466514"><ele>72.0</ele><time>2026-05-03T09:00:09Z</time></trkpt><trkpt lat="45.25086745848444" lon="8.942061083644594"><ele>72.0</ele><time>2026-05-03T09:00:10Z</time></trkpt><trkpt lat="45.250912553728334" lon="8.941932941983573"><ele>72.0</ele><time>2026-05-03T09:00:11Z</time></trkpt><trkpt lat="45.2509544641769" lon="8.941809776050494"><ele>72.0</ele><time>2026-05-03T09:00:12Z</time></trkpt><trkpt lat="45.250989145621226" lon="8.941681091079811"><ele>72.0</ele><time>2026-05-03T09:00:13Z</time></trkpt><trkpt lat="45.25102377207637" lon="8.941528810710812"><ele>72.0</ele><time>2026-05-03T09:00:14Z</time></trkpt><trkpt lat="45.251062109422115" lon="8.94136591636562"><ele>72.0</ele><time>2026-05-03T09:00:15Z</time></trkpt><trkpt lat="45.2511041727695" lon="8.941203603045349"><ele>72.0</ele><time>2026-05-03T09:00:16Z</time></trkpt><trkpt lat="45.25115508536597" lon="8.941041581004125"><ele>72.0</ele><time>2026-05-03T09:00:17Z</time></trkpt><trkpt lat="45.25120901164366" lon="8.940874414289672"><ele>72.0</ele><time>2026-05-03T09:00:18Z</time></trkpt><trkpt lat="45.25126238170478" lon="8.94070858937104"><ele>72.0</ele><time>2026-05-03T09:00:19Z</time></trkpt><trkpt lat="45.251312648186925" lon="8.94055486424002"><ele>72.0</ele><time>2026-05-03T09:00:20Z</time></trkpt><trkpt lat="45.251359984081354" lon="8.940418857929895"><ele>72.0</ele><time>2026-05-03T09:00:21Z</time></trkpt><trkpt lat="45.251403253368224" lon="8.940300787768797"><ele>72.0</ele><time>2026-05-03T09:00:22Z</time></trkpt><trkpt lat="45.251441961266686" lon="8.940191820243594"><ele>72.0</ele><time>2026-05-03T09:00:23Z</time></trkpt><trkpt lat="45.2514657563917" lon="8.940070174630234"><ele>72.0</ele><time>2026-05-03T09:00:24Z</time></trkpt><trkpt lat="45.25146674154577" lon="8.939923591935061"><ele>72.0</ele><time>2026-05-03T09:00:25Z</time></trkpt><trkpt lat="45.25144488209703" lon="8.939763885104577"><ele>72.0</ele><time>2026-05-03T09:00:26Z</time></trkpt><trkpt lat="45.2514199721295" lon="8.939612191175113"><ele>72.0</ele><time>2026-05-03T09:00:27Z</time></trkpt><trkpt lat="45.251394322658534" lon="8.939445742885184"><ele>72.0</ele><time>2026-05-03T09:00:28Z</time></trkpt><trkpt lat="45.25137797096768" lon="8.939268376217942"><ele>72.0</ele><time>2026-05-03T09:00:29Z</time></trkpt><trkpt lat="45.25136603645584" lon="8.939089948353242"><ele>72.0</ele><time>2026-05-03T09:00:30Z</time></trkpt><trkpt lat="45.251357002931805" lon="8.938908893127243"><ele>72.0</ele><time>2026-05-03T09:00:31Z</time></trkpt><trkpt lat="45.25134723860424" lon="8.938746516162931"><ele>72.2</ele><time>2026-05-03T09:00:32Z</time></trkpt><trkpt lat="45.251330720376075" lon="8.93860032195429"><ele>72.4</ele><time>2026-05-03T09:00:33Z</time></trkpt><trkpt lat="45.2513037320594" lon="8.93845480256252"><ele>72.6</ele><time>2026-05-03T09:00:34Z</time></trkpt><trkpt lat="45.251261655212765" lon="8.938318096929438"><ele>72.8</ele><time>2026-05-03T09:00:35Z</time></trkpt><trkpt lat="45.2512379025528" lon="8.938196933618674"><ele>73.0</ele><time>2026-05-03T09:00:36Z</time></trkpt><trkpt lat="45.25122686048768" lon="8.938071306985414"><ele>72.83333333333333</ele><time>2026-05-03T09:00:37Z</time></trkpt><trkpt lat="45.251241283593444" lon="8.937955222266194"><ele>72.66666666666666</ele><time>2026-05-03T09:00:38Z</time></trkpt><trkpt lat="45.251275320030494" lon="8.937846345374178"><ele>72.5</ele><time>2026-05-03T09:00:39Z</time></trkpt><trkpt lat="45.25132318690646" lon="8.937739389900775"><ele>72.33333333333333</ele><time>2026-05-03T09:00:40Z</time></trkpt><trkpt lat="45.251375421246024" lon="8.937649875242103"><ele>72.16666666666667</ele><time>2026-05-03T09:00:41Z</time></trkpt><trkpt lat="45.25142225996202" lon="8.937579835976102"><ele>72.0</ele><time>2026-05-03T09:00:42Z</time></trkpt><trkpt lat="45.251469608576926" lon="8.937472682556628"><ele>72.0</ele><time>2026-05-03T09:00:44Z</time></trkpt><trkpt lat="45.25145850913062" lon="8.937351204803862"><ele>72.0</ele><time>2026-05-03T09:00:46Z</time></trkpt><trkpt lat="45.25140415947017" lon="8.937297832541148"><ele>72.0</ele><time>2026-05-03T09:00:47Z</time></trkpt><trkpt lat="45.25130815133681" lon="8.937243183879955"><ele>72.0</ele><time>2026-05-03T09:00:49Z</time></trkpt><trkpt lat="45.251188010063" lon="8.937178826163828"><ele>72.0</ele><time>2026-05-03T09:00:51Z</time></trkpt><trkpt lat="45.25107244661595" lon="8.9371346182026"><ele>72.0</ele><time>2026-05-03T09:00:53Z</time></trkpt><trkpt lat="45.25095975251209" lon="8.93710227612329"><ele>72.0</ele><time>2026-05-03T09:00:55Z</time></trkpt><trkpt lat="45.25089192972878" lon="8.937083882513944"><ele>72.0</ele><time>2026-05-03T09:00:56Z</time></trkpt><trkpt lat="45.25081947202199" lon="8.9370642319112"><ele>72.0</ele><time>2026-05-03T09:00:57Z</time></trkpt><trkpt lat="45.25074237477346" lon="8.937040760014852"><ele>72.0</ele><time>2026-05-03T09:00:58Z</time></trkpt><trkpt lat="45.25066327735853" lon="8.937015537070947"><ele>72.0</ele><time>2026-05-03T09:00:59Z</time></trkpt><trkpt lat="45.25057397136848" lon="8.936984880188843"><ele>72.0</ele><time>2026-05-03T09:01:00Z</time></trkpt><trkpt lat="45.25047686253392" lon="8.936973034374569"><ele>72.0</ele><time>2026-05-03T09:01:01Z</time></trkpt><trkpt lat="45.25039344099548" lon="8.936933436119826"><ele>72.0</ele><time>2026-05-03T09:01:02Z</time></trkpt><trkpt lat="45.25030416628497" lon="8.936881452325592"><ele>72.0</ele><time>2026-05-03T09:01:03Z</time></trkpt><trkpt lat="45.250206096946826" lon="8.936843358041289"><ele>72.0</ele><time>2026-05-03T09:01:04Z</time></trkpt><trkpt lat="45.25009702670552" lon="8.936804072708156"><ele>72.0</ele><time>2026-05-03T09:01:05Z</time></trkpt><trkpt lat="45.24998933069186" lon="8.936766846692176"><ele>72.0</ele><time>2026-05-03T09:01:06Z</time></trkpt><trkpt lat="45.249871720422156" lon="8.936749793820237"><ele>72.0</ele><time>2026-05-03T09:01:07Z</time></trkpt><trkpt lat="45.2497625054524" lon="8.936707070663104"><ele>72.0</ele><time>2026-05-03T09:01:08Z</time></trkpt><trkpt lat="45.24965282161792" lon="8.936666366800871"><ele>72.2</ele><time>2026-05-03T09:01:09Z</time></trkpt><trkpt lat="45.249542710666184" lon="8.936635785474866"><ele>72.4</ele><time>2026-05-03T09:01:10Z</time></trkpt><trkpt lat="45.24944036258351" lon="8.9365944418209"><ele>72.6</ele><time>2026-05-03T09:01:11Z</time></trkpt><trkpt lat="45.24934721251402" lon="8.936571402260254"><ele>72.8</ele><time>2026-05-03T09:01:12Z</time></trkpt><trkpt lat="45.249252164674886" lon="8.936513743796388"><ele>73.0</ele><time>2026-05-03T09:01:13Z</time></trkpt><trkpt lat="45.24915429221421" lon="8.936478324859442"><ele>73.0</ele><time>2026-05-03T09:01:14Z</time></trkpt><trkpt lat="45.24906382606501" lon="8.936444894687655"><ele>73.0</ele><time>2026-05-03T09:01:15Z</time></trkpt><trkpt lat="45.24898154799381" lon="8.936413525476308"><ele>73.0</ele><time>2026-05-03T09:01:16Z</time></trkpt><trkpt lat="45.24890873240087" lon="8.936385763915814"><ele>73.0</ele><time>2026-05-03T09:01:17Z</time></trkpt><trkpt lat="45.24883614672557" lon="8.93635809001495"><ele>73.0</ele><time>2026-05-03T09:01:18Z</time></trkpt><trkpt lat="45.24875620745855" lon="8.936343807073534"><ele>73.0</ele><time>2026-05-03T09:01:19Z</time></trkpt><trkpt lat="45.24868565371859" lon="8.936267066213045"><ele>72.83333333333333</ele><time>2026-05-03T09:01:20Z</time></trkpt><trkpt lat="45.24860039889392" lon="8.936224631539453"><ele>72.66666666666666</ele><time>2026-05-03T09:01:21Z</time></trkpt><trkpt lat="45.248508926109785" lon="8.936187719371803"><ele>72.5</ele><time>2026-05-03T09:01:22Z</time></trkpt><trkpt lat="45.24842028389505" lon="8.936179260038838"><ele>72.33333333333333</ele><time>2026-05-03T09:01:23Z</time></trkpt><trkpt lat="45.24833832337766" lon="8.936127997291852"><ele>72.16666666666667</ele><time>2026-05-03T09:01:24Z</time></trkpt><trkpt lat="45.24825579441593" lon="8.936100055837306"><ele>72.0</ele><time>2026-05-03T09:01:25Z</time></trkpt><trkpt lat="45.24816734568737" lon="8.936070110150649"><ele>71.8</ele><time>2026-05-03T09:01:26Z</time></trkpt><trkpt lat="45.248074872470724" lon="8.936038801914586"><ele>71.6</ele><time>2026-05-03T09:01:27Z</time></trkpt><trkpt lat="45.24797846411547" lon="8.936006161374488"><ele>71.39999999999999</ele><time>2026-05-03T09:01:28Z</time></trkpt><trkpt lat="45.247886320364785" lon="8.93597578217258"><ele>71.2</ele><time>2026-05-03T09:01:29Z</time></trkpt><trkpt lat="45.24778683463183" lon="8.93594352721876"><ele>71.0</ele><time>2026-05-03T09:01:30Z</time></trkpt><trkpt lat="45.24768804618996" lon="8.935911498336543"><ele>71.0</ele><time>2026-05-03T09:01:31Z</time></trkpt><trkpt lat="45.24758408323721" lon="8.935901748107106"><ele>71.0</ele><time>2026-05-03T09:01:32Z</time></trkpt><trkpt lat="45.24749168558992" lon="8.93584783491407"><ele>71.0</ele><time>2026-05-03T09:01:33Z</time></trkpt><trkpt lat="45.24739020974985" lon="8.935814934732274"><ele>71.0</ele><time>2026-05-03T09:01:34Z</time></trkpt><trkpt lat="45.24728664986505" lon="8.935796921207194"><ele>71.0</ele><time>2026-05-03T09:01:35Z</time></trkpt><trkpt lat="45.24718676668412" lon="8.93576138657772"><ele>71.39999999999999</ele><time>2026-05-03T09:01:36Z</time></trkpt><trkpt lat="45.24708564280401" lon="8.935731716838015"><ele>71.8</ele><time>2026-05-03T09:01:37Z</time></trkpt><trkpt lat="45.24698312881244" lon="8.935693027442497"><ele>72.19999999999999</ele><time>2026-05-03T09:01:38Z</time></trkpt><trkpt lat="45.24688663282316" lon="8.93565748723626"><ele>72.6</ele><time>2026-05-03T09:01:39Z</time></trkpt><trkpt lat="45.24678618514356" lon="8.935626622079441"><ele>73.0</ele><time>2026-05-03T09:01:40Z</time></trkpt><trkpt lat="45.24668730711024" lon="8.935596084696677"><ele>73.0</ele><time>2026-05-03T09:01:41Z</time></trkpt><trkpt lat="45.24660464430849" lon="8.93554974087134"><ele>73.0</ele><time>2026-05-03T09:01:42Z</time></trkpt><trkpt lat="45.246533543601906" lon="8.935526758826278"><ele>73.0</ele><time>2026-05-03T09:01:43Z</time></trkpt><trkpt lat="45.246470088601136" lon="8.935530661425751"><ele>73.0</ele><time>2026-05-03T09:01:44Z</time></trkpt><trkpt lat="45.2463761594994" lon="8.935499867404046"><ele>73.0</ele><time>2026-05-03T09:01:46Z</time></trkpt><trkpt lat="45.246299985310166" lon="8.935466797037252"><ele>73.0</ele><time>2026-05-03T09:01:49Z</time></trkpt><trkpt lat="45.24623950582442" lon="8.935417771984843"><ele>73.0</ele><time>2026-05-03T09:01:51Z</time></trkpt><trkpt lat="45.24618583141927" lon="8.935306968083392"><ele>73.0</ele><time>2026-05-03T09:01:53Z</time></trkpt><trkpt lat="45.24613616803584" lon="8.935146508442568"><ele>73.0</ele><time>2026-05-03T09:01:55Z</time></trkpt><trkpt lat="45.24611086162014" lon="8.935049476303508"><ele>73.0</ele><time>2026-05-03T09:01:56Z</time></trkpt><trkpt lat="45.246090185704965" lon="8.93494298384601"><ele>73.0</ele><time>2026-05-03T09:01:57Z</time></trkpt><trkpt lat="45.246067843494416" lon="8.934838170470131"><ele>73.0</ele><time>2026-05-03T09:01:58Z</time></trkpt><trkpt lat="45.24604426007312" lon="8.934722050792375"><ele>73.0</ele><time>2026-05-03T09:01:59Z</time></trkpt><trkpt lat="45.24601430429587" lon="8.934591614418967"><ele>73.0</ele><time>2026-05-03T09:02:00Z</time></trkpt><trkpt lat="45.24598314683707" lon="8.934449470862447"><ele>73.0</ele><time>2026-05-03T09:02:01Z</time></trkpt><trkpt lat="45.24595570242325" lon="8.934313999995666"><ele>73.0</ele><time>2026-05-03T09:02:02Z</time></trkpt><trkpt lat="45.24592875755709" lon="8.9341860675809"><ele>73.0</ele><time>2026-05-03T09:02:03Z</time></trkpt><trkpt lat="45.24589919597345" lon="8.934053375073926"><ele>73.0</ele><time>2026-05-03T09:02:04Z</time></trkpt><trkpt lat="45.24586765427072" lon="8.933914070165459"><ele>73.0</ele><time>2026-05-03T09:02:05Z</time></trkpt><trkpt lat="45.245832604066756" lon="8.933775203550644"><ele>73.0</ele><time>2026-05-03T09:02:06Z</time></trkpt><trkpt lat="45.245787966420046" lon="8.933638575095133"><ele>73.0</ele><time>2026-05-03T09:02:07Z</time></trkpt><trkpt lat="45.24573012361415" lon="8.933515358922756"><ele>73.0</ele><time>2026-05-03T09:02:08Z</time></trkpt><trkpt lat="45.24566644805734" lon="8.933398119696072"><ele>73.8</ele><time>2026-05-03T09:02:09Z</time></trkpt><trkpt lat="45.2456005338582" lon="8.933281346598063"><ele>74.6</ele><time>2026-05-03T09:02:10Z</time></trkpt><trkpt lat="45.245526694527065" lon="8.93317098509504"><ele>75.4</ele><time>2026-05-03T09:02:11Z</time></trkpt><trkpt lat="45.24545192347827" lon="8.933061726249269"><ele>76.2</ele><time>2026-05-03T09:02:12Z</time></trkpt><trkpt lat="45.245377498057785" lon="8.932957347699245"><ele>77.0</ele><time>2026-05-03T09:02:13Z</time></trkpt><trkpt lat="45.24531426355707" lon="8.932873899479848"><ele>77.0</ele><time>2026-05-03T09:02:14Z</time></trkpt><trkpt lat="45.245256991169015" lon="8.932800425846562"><ele>77.0</ele><time>2026-05-03T09:02:15Z</time></trkpt><trkpt lat="45.24520994107299" lon="8.932726800069927"><ele>77.0</ele><time>2026-05-03T09:02:16Z</time></trkpt><trkpt lat="45.24512376024271" lon="8.932604102558637"><ele>77.0</ele><time>2026-05-03T09:02:18Z</time></trkpt><trkpt lat="45.2450663820164" lon="8.932501015560753"><ele>77.0</ele><time>2026-05-03T09:02:20Z</time></trkpt><trkpt lat="45.244892750078854" lon="8.932550606222845"><ele>77.25</ele><time>2026-05-03T09:02:23Z</time></trkpt><trkpt lat="45.24479240307652" lon="8.93262688104352"><ele>77.5</ele><time>2026-05-03T09:02:24Z</time></trkpt><trkpt lat="45.24469094476806" lon="8.932680373436835"><ele>77.75</ele><time>2026-05-03T09:02:25Z</time></trkpt><trkpt lat="45.24458780768456" lon="8.9327555832746"><ele>78.0</ele><time>2026-05-03T09:02:26Z</time></trkpt><trkpt lat="45.24447755063879" lon="8.932833024927412"><ele>78.0</ele><time>2026-05-03T09:02:27Z</time></trkpt><trkpt lat="45.24437115964702" lon="8.932905345902677"><ele>78.0</ele><time>2026-05-03T09:02:28Z</time></trkpt><trkpt lat="45.244257197424766" lon="8.932978549781112"><ele>78.0</ele><time>2026-05-03T09:02:29Z</time></trkpt><trkpt lat="45.24412836176135" lon="8.9330267614724"><ele>78.0</ele><time>2026-05-03T09:02:30Z</time></trkpt><trkpt lat="45.24401165991757" lon="8.933097433619867"><ele>77.5</ele><time>2026-05-03T09:02:31Z</time></trkpt><trkpt lat="45.24389792027752" lon="8.933172009995557"><ele>77.0</ele><time>2026-05-03T09:02:32Z</time></trkpt><trkpt lat="45.24378540518974" lon="8.933246763995626"><ele>76.5</ele><time>2026-05-03T09:02:33Z</time></trkpt><trkpt lat="45.24367779999291" lon="8.933326268983164"><ele>76.0</ele><time>2026-05-03T09:02:34Z</time></trkpt><trkpt lat="45.24357244811856" lon="8.933434505592757"><ele>76.0</ele><time>2026-05-03T09:02:35Z</time></trkpt><trkpt lat="45.24345629152595" lon="8.93351722674436"><ele>76.0</ele><time>2026-05-03T09:02:36Z</time></trkpt><trkpt lat="45.24335219862283" lon="8.933610720225913"><ele>76.0</ele><time>2026-05-03T09:02:37Z</time></trkpt><trkpt lat="45.24326046469069" lon="8.93368431460479"><ele>76.0</ele><time>2026-05-03T09:02:38Z</time></trkpt><trkpt lat="45.24317888048472" lon="8.933759531256207"><ele>76.0</ele><time>2026-05-03T09:02:39Z</time></trkpt><trkpt lat="45.2431157711851" lon="8.933815049281467"><ele>76.0</ele><time>2026-05-03T09:02:40Z</time></trkpt><trkpt lat="45.243027198477414" lon="8.93389998340356"><ele>76.0</ele><time>2026-05-03T09:02:42Z</time></trkpt><trkpt lat="45.24294269902287" lon="8.933909428691807"><ele>76.0</ele><time>2026-05-03T09:02:45Z</time></trkpt><trkpt lat="45.2428793120805" lon="8.933817219074912"><ele>76.0</ele><time>2026-05-03T09:02:47Z</time></trkpt><trkpt lat="45.242831519554585" lon="8.933723085373115"><ele>76.0</ele><time>2026-05-03T09:02:48Z</time></trkpt><trkpt lat="45.242783605133475" lon="8.933628397373749"><ele>76.0</ele><time>2026-05-03T09:02:49Z</time></trkpt><trkpt lat="45.24273432654179" lon="8.9335394105292"><ele>76.0</ele><time>2026-05-03T09:02:50Z</time></trkpt><trkpt lat="45.24268635341021" lon="8.933444806509213"><ele>76.0</ele><time>2026-05-03T09:02:51Z</time></trkpt><trkpt lat="45.24263196538345" lon="8.933349569154261"><ele>76.0</ele><time>2026-05-03T09:02:52Z</time></trkpt><trkpt lat="45.24258240133533" lon="8.9332807367809"><ele>76.0</ele><time>2026-05-03T09:02:53Z</time></trkpt><trkpt lat="45.24252547125555" lon="8.933192957014914"><ele>76.0</ele><time>2026-05-03T09:02:54Z</time></trkpt><trkpt lat="45.24247646015317" lon="8.933089675810454"><ele>76.0</ele><time>2026-05-03T09:02:55Z</time></trkpt><trkpt lat="45.242429362043296" lon="8.93299956234958"><ele>76.0</ele><time>2026-05-03T09:02:56Z</time></trkpt><trkpt lat="45.242369484388455" lon="8.932909840558288"><ele>76.0</ele><time>2026-05-03T09:02:57Z</time></trkpt><trkpt lat="45.24229628871321" lon="8.932810306184741"><ele>76.0</ele><time>2026-05-03T09:02:58Z</time></trkpt><trkpt lat="45.24223055049949" lon="8.93271587555608"><ele>76.0</ele><time>2026-05-03T09:02:59Z</time></trkpt><trkpt lat="45.242165454610586" lon="8.932612254150722"><ele>76.0</ele><time>2026-05-03T09:03:00Z</time></trkpt><trkpt lat="45.24212530714815" lon="8.932528643853072"><ele>76.0</ele><time>2026-05-03T09:03:01Z</time></trkpt><trkpt lat="45.24204379525474" lon="8.932410061847659"><ele>76.0</ele><time>2026-05-03T09:03:02Z</time></trkpt><trkpt lat="45.24199036706363" lon="8.93232470698475"><ele>76.0</ele><time>2026-05-03T09:03:03Z</time></trkpt><trkpt lat="45.24193492241715" lon="8.932241208470836"><ele>76.0</ele><time>2026-05-03T09:03:04Z</time></trkpt><trkpt lat="45.24188883143747" lon="8.932172157061098"><ele>76.0</ele><time>2026-05-03T09:03:05Z</time></trkpt><trkpt lat="45.241838208491274" lon="8.932102738934335"><ele>76.0</ele><time>2026-05-03T09:03:06Z</time></trkpt><trkpt lat="45.241796223116665" lon="8.932021771628627"><ele>76.0</ele><time>2026-05-03T09:03:07Z</time></trkpt><trkpt lat="45.24175003306677" lon="8.931944857805357"><ele>76.0</ele><time>2026-05-03T09:03:08Z</time></trkpt><trkpt lat="45.24164388215756" lon="8.931808961195008"><ele>76.0</ele><time>2026-05-03T09:03:10Z</time></trkpt><trkpt lat="45.24158733030856" lon="8.931729113861435"><ele>76.0</ele><time>2026-05-03T09:03:11Z</time></trkpt><trkpt lat="45.24152919179473" lon="8.931658913896504"><ele>76.0</ele><time>2026-05-03T09:03:12Z</time></trkpt><trkpt lat="45.24143170922339" lon="8.931527355183782"><ele>76.5</ele><time>2026-05-03T09:03:14Z</time></trkpt><trkpt lat="45.24138377330088" lon="8.931453782921634"><ele>77.0</ele><time>2026-05-03T09:03:15Z</time></trkpt><trkpt lat="45.241325488085636" lon="8.931380945607295"><ele>77.5</ele><time>2026-05-03T09:03:16Z</time></trkpt><trkpt lat="45.241268590177775" lon="8.931299043296352"><ele>78.0</ele><time>2026-05-03T09:03:17Z</time></trkpt><trkpt lat="45.241213539538705" lon="8.931225351299865"><ele>78.5</ele><time>2026-05-03T09:03:18Z</time></trkpt><trkpt lat="45.2411603361228" lon="8.931150353528356"><ele>79.0</ele><time>2026-05-03T09:03:19Z</time></trkpt><trkpt lat="45.24110382502705" lon="8.931079698958136"><ele>79.00000000000001</ele><time>2026-05-03T09:03:20Z</time></trkpt><trkpt lat="45.2410520418228" lon="8.931010316607143"><ele>79.0</ele><time>2026-05-03T09:03:21Z</time></trkpt><trkpt lat="45.24099494765499" lon="8.9309454193289"><ele>79.0</ele><time>2026-05-03T09:03:22Z</time></trkpt><trkpt lat="45.24094209796128" lon="8.930885535528617"><ele>79.0</ele><time>2026-05-03T09:03:23Z</time></trkpt><trkpt lat="45.24088547698558" lon="8.930825541542582"><ele>79.0</ele><time>2026-05-03T09:03:24Z</time></trkpt><trkpt lat="45.24083492369209" lon="8.930759204476896"><ele>79.00000000000001</ele><time>2026-05-03T09:03:25Z</time></trkpt><trkpt lat="45.2407813915536" lon="8.930701940303365"><ele>79.0</ele><time>2026-05-03T09:03:26Z</time></trkpt><trkpt lat="45.2407038365014" lon="8.930599166774618"><ele>79.16666666666666</ele><time>2026-05-03T09:03:28Z</time></trkpt><trkpt lat="45.2406423052982" lon="8.930500396825778"><ele>79.33333333333333</ele><time>2026-05-03T09:03:30Z</time></trkpt><trkpt lat="45.2405932955911" lon="8.93043558691869"><ele>79.5</ele><time>2026-05-03T09:03:50Z</time></trkpt><trkpt lat="45.24053484972654" lon="8.930357788936167"><ele>79.66666666666667</ele><time>2026-05-03T09:03:54Z</time></trkpt><trkpt lat="45.24046415163267" lon="8.93027244146516"><ele>79.83333333333334</ele><time>2026-05-03T09:03:56Z</time></trkpt><trkpt lat="45.240375355602566" lon="8.930164988317363"><ele>80.0</ele><time>2026-05-03T09:03:58Z</time></trkpt><trkpt lat="45.240321032881056" lon="8.930096306360142"><ele>80.83333333333334</ele><time>2026-05-03T09:03:59Z</time></trkpt><trkpt lat="45.240265354476335" lon="8.930024745609547"><ele>81.66666666666667</ele><time>2026-05-03T09:04:00Z</time></trkpt><trkpt lat="45.24018744460115" lon="8.929931723037754"><ele>82.5</ele><time>2026-05-03T09:04:02Z</time></trkpt><trkpt lat="45.24011390043712" lon="8.929860702843582"><ele>83.33333333333333</ele><time>2026-05-03T09:04:04Z</time></trkpt><trkpt lat="45.240044808969344" lon="8.92981843967391"><ele>84.16666666666666</ele><time>2026-05-03T09:04:07Z</time></trkpt><trkpt lat="45.23998010039804" lon="8.92980390241631"><ele>85.0</ele><time>2026-05-03T09:04:10Z</time></trkpt><trkpt lat="45.23991062149571" lon="8.929755289444024"><ele>85.0</ele><time>2026-05-03T09:04:14Z</time></trkpt><trkpt lat="45.23982884652449" lon="8.929680267890392"><ele>85.0</ele><time>2026-05-03T09:04:17Z</time></trkpt><trkpt lat="45.239782501383225" lon="8.929599616965453"><ele>85.0</ele><time>2026-05-03T09:04:22Z</time></trkpt><trkpt lat="45.239700599992545" lon="8.929520901964963"><ele>85.0</ele><time>2026-05-03T09:04:24Z</time></trkpt><trkpt lat="45.239647828432574" lon="8.929427799836008"><ele>85.0</ele><time>2026-05-03T09:04:26Z</time></trkpt><trkpt lat="45.2395975339241" lon="8.92933728646444"><ele>85.0</ele><time>2026-05-03T09:04:28Z</time></trkpt><trkpt lat="45.23955669685599" lon="8.929269034952695"><ele>86.71428571428572</ele><time>2026-05-03T09:05:46Z</time></trkpt><trkpt lat="45.239490002266585" lon="8.929172467234833"><ele>88.42857142857142</ele><time>2026-05-03T09:05:49Z</time></trkpt><trkpt lat="45.23943707535035" lon="8.929107680439436"><ele>90.14285714285714</ele><time>2026-05-03T09:05:51Z</time></trkpt><trkpt lat="45.23937838666076" lon="8.929064785907402"><ele>91.85714285714286</ele><time>2026-05-03T09:05:54Z</time></trkpt><trkpt lat="45.239320354641734" lon="8.92901321617895"><ele>93.57142857142858</ele><time>2026-05-03T09:05:57Z</time></trkpt><trkpt lat="45.23926289273287" lon="8.928964432413768"><ele>95.28571428571428</ele><time>2026-05-03T09:05:59Z</time></trkpt><trkpt lat="45.23920257060227" lon="8.928924029004897"><ele>97.0</ele><time>2026-05-03T09:06:01Z</time></trkpt><trkpt lat="45.239130721453" lon="8.928855837870266"><ele>97.00000000000001</ele><time>2026-05-03T09:06:03Z</time></trkpt><trkpt lat="45.23907266796564" lon="8.928800561280017"><ele>97.0</ele><time>2026-05-03T09:06:05Z</time></trkpt><trkpt lat="45.23901522610665" lon="8.928748855580736"><ele>97.0</ele><time>2026-05-03T09:06:08Z</time></trkpt><trkpt lat="45.23894683058327" lon="8.928712903653254"><ele>97.0</ele><time>2026-05-03T09:06:13Z</time></trkpt><trkpt lat="45.238889227259456" lon="8.928595315499864"><ele>97.00000000000001</ele><time>2026-05-03T09:07:03Z</time></trkpt><trkpt lat="45.238859282138684" lon="8.928502931576922"><ele>97.0</ele><time>2026-05-03T09:07:05Z</time></trkpt><trkpt lat="45.238786142787" lon="8.928412087738419"><ele>97.39999999999999</ele><time>2026-05-03T09:07:08Z</time></trkpt><trkpt lat="45.238718148094975" lon="8.928283353211462"><ele>97.8</ele><time>2026-05-03T09:07:10Z</time></trkpt><trkpt lat="45.23867992240591" lon="8.92820333093458"><ele>98.2</ele><time>2026-05-03T09:07:11Z</time></trkpt><trkpt lat="45.23860808407862" lon="8.928083634139645"><ele>98.6</ele><time>2026-05-03T09:07:13Z</time></trkpt><trkpt lat="45.23852548146958" lon="8.927927933710478"><ele>99.0</ele><time>2026-05-03T09:07:15Z</time></trkpt><trkpt lat="45.23848049746969" lon="8.927848945154242"><ele>99.0</ele><time>2026-05-03T09:07:16Z</time></trkpt><trkpt lat="45.23842844359557" lon="8.92777327057895"><ele>99.0</ele><time>2026-05-03T09:07:17Z</time></trkpt><trkpt lat="45.238350278159125" lon="8.927670440364883"><ele>99.0</ele><time>2026-05-03T09:07:19Z</time></trkpt><trkpt lat="45.23827585893795" lon="8.927578479258422"><ele>99.0</ele><time>2026-05-03T09:07:21Z</time></trkpt><trkpt lat="45.23818368077725" lon="8.927460536487915"><ele>99.0</ele><time>2026-05-03T09:07:23Z</time></trkpt><trkpt lat="45.23810600758241" lon="8.92737638548219"><ele>98.16666666666667</ele><time>2026-05-03T09:07:25Z</time></trkpt><trkpt lat="45.23802827779751" lon="8.927345574223274"><ele>97.33333333333333</ele><time>2026-05-03T09:07:27Z</time></trkpt><trkpt lat="45.23795052551837" lon="8.927343457772423"><ele>96.5</ele><time>2026-05-03T09:07:29Z</time></trkpt><trkpt lat="45.2378859825372" lon="8.927301156741242"><ele>95.66666666666666</ele><time>2026-05-03T09:07:32Z</time></trkpt><trkpt lat="45.237842172719176" lon="8.92721385944316"><ele>94.83333333333333</ele><time>2026-05-03T09:08:00Z</time></trkpt><trkpt lat="45.23779880932351" lon="8.927141736218795"><ele>94.0</ele><time>2026-05-03T09:08:01Z</time></trkpt><trkpt lat="45.23774806420601" lon="8.927057559399186"><ele>94.0</ele><time>2026-05-03T09:08:02Z</time></trkpt><trkpt lat="45.237703881067326" lon="8.926981959400177"><ele>94.0</ele><time>2026-05-03T09:08:03Z</time></trkpt><trkpt lat="45.23765546091967" lon="8.92689839115026"><ele>94.0</ele><time>2026-05-03T09:08:04Z</time></trkpt><trkpt lat="45.23759611540383" lon="8.926801703133687"><ele>94.0</ele><time>2026-05-03T09:08:05Z</time></trkpt><trkpt lat="45.2375380441195" lon="8.926702556452764"><ele>94.0</ele><time>2026-05-03T09:08:06Z</time></trkpt><trkpt lat="45.23748296261589" lon="8.926610054383488"><ele>94.0</ele><time>2026-05-03T09:08:07Z</time></trkpt><trkpt lat="45.237429454129725" lon="8.9265275428234"><ele>94.16666666666666</ele><time>2026-05-03T09:08:08Z</time></trkpt><trkpt lat="45.237371944478014" lon="8.92643256090965"><ele>94.33333333333333</ele><time>2026-05-03T09:08:09Z</time></trkpt><trkpt lat="45.23731101827945" lon="8.926327014307756"><ele>94.5</ele><time>2026-05-03T09:08:10Z</time></trkpt><trkpt lat="45.23725053957277" lon="8.926220608777884"><ele>94.66666666666667</ele><time>2026-05-03T09:08:11Z</time></trkpt><trkpt lat="45.237194464519305" lon="8.926124880833079"><ele>94.83333333333334</ele><time>2026-05-03T09:08:12Z</time></trkpt><trkpt lat="45.23714210672977" lon="8.926037530676737"><ele>95.0</ele><time>2026-05-03T09:08:13Z</time></trkpt><trkpt lat="45.2370804372002" lon="8.925943368939885"><ele>95.0</ele><time>2026-05-03T09:08:14Z</time></trkpt><trkpt lat="45.23702313191429" lon="8.925852915928324"><ele>95.0</ele><time>2026-05-03T09:08:15Z</time></trkpt><trkpt lat="45.23696576853997" lon="8.925757412427034"><ele>95.0</ele><time>2026-05-03T09:08:16Z</time></trkpt><trkpt lat="45.23690433662639" lon="8.925655151048712"><ele>95.0</ele><time>2026-05-03T09:08:17Z</time></trkpt><trkpt lat="45.236840604053036" lon="8.925556245340239"><ele>95.0</ele><time>2026-05-03T09:08:18Z</time></trkpt><trkpt lat="45.23677231607865" lon="8.925446637587406"><ele>95.0</ele><time>2026-05-03T09:08:19Z</time></trkpt><trkpt lat="45.23670915320191" lon="8.925340398227544"><ele>95.0</ele><time>2026-05-03T09:08:20Z</time></trkpt><trkpt lat="45.23665312939827" lon="8.92524320070965"><ele>95.0</ele><time>2026-05-03T09:08:21Z</time></trkpt><trkpt lat="45.236605917856664" lon="8.925161598080523"><ele>95.0</ele><time>2026-05-03T09:08:22Z</time></trkpt><trkpt lat="45.23655917750016" lon="8.92508086133564"><ele>95.0</ele><time>2026-05-03T09:08:23Z</time></trkpt><trkpt lat="45.23652057805844" lon="8.92500093853752"><ele>95.0</ele><time>2026-05-03T09:08:24Z</time></trkpt><trkpt lat="45.236471349870115" lon="8.92491380785174"><ele>94.83333333333334</ele><time>2026-05-03T09:08:25Z</time></trkpt><trkpt lat="45.23641982050909" lon="8.924818597066551"><ele>94.66666666666667</ele><time>2026-05-03T09:08:26Z</time></trkpt><trkpt lat="45.236364396858" lon="8.92471473067192"><ele>94.5</ele><time>2026-05-03T09:08:27Z</time></trkpt><trkpt lat="45.23631530802386" lon="8.924614584014257"><ele>94.33333333333333</ele><time>2026-05-03T09:08:28Z</time></trkpt><trkpt lat="45.23627361304958" lon="8.92452488254867"><ele>94.16666666666666</ele><time>2026-05-03T09:08:29Z</time></trkpt><trkpt lat="45.23623573551192" lon="8.92444474767485"><ele>94.0</ele><time>2026-05-03T09:08:30Z</time></trkpt><trkpt lat="45.23620128019428" lon="8.924362094824946"><ele>94.0</ele><time>2026-05-03T09:08:31Z</time></trkpt><trkpt lat="45.23616697845585" lon="8.924283377445146"><ele>94.0</ele><time>2026-05-03T09:08:32Z</time></trkpt><trkpt lat="45.236121798483865" lon="8.924181790277272"><ele>94.0</ele><time>2026-05-03T09:08:33Z</time></trkpt><trkpt lat="45.23607584093154" lon="8.924075436752034"><ele>94.0</ele><time>2026-05-03T09:08:34Z</time></trkpt><trkpt lat="45.236029482975376" lon="8.923967698792122"><ele>94.0</ele><time>2026-05-03T09:08:35Z</time></trkpt><trkpt lat="45.23598856243593" lon="8.923864106367779"><ele>94.0</ele><time>2026-05-03T09:08:36Z</time></trkpt><trkpt lat="45.23595002109623" lon="8.923769214525436"><ele>94.4</ele><time>2026-05-03T09:08:37Z</time></trkpt><trkpt lat="45.23591184481404" lon="8.92366153938441"><ele>94.80000000000001</ele><time>2026-05-03T09:08:38Z</time></trkpt><trkpt lat="45.235859386264394" lon="8.923531469364528"><ele>95.19999999999999</ele><time>2026-05-03T09:08:39Z</time></trkpt><trkpt lat="45.23581771192832" lon="8.923424682211298"><ele>95.6</ele><time>2026-05-03T09:08:40Z</time></trkpt><trkpt lat="45.23577262761578" lon="8.923301150252232"><ele>96.0</ele><time>2026-05-03T09:08:41Z</time></trkpt><trkpt lat="45.23572808246208" lon="8.923168300901217"><ele>96.0</ele><time>2026-05-03T09:08:42Z</time></trkpt><trkpt lat="45.23568980593677" lon="8.923050170545746"><ele>96.0</ele><time>2026-05-03T09:08:43Z</time></trkpt><trkpt lat="45.23564903793867" lon="8.922941883144818"><ele>96.0</ele><time>2026-05-03T09:08:44Z</time></trkpt><trkpt lat="45.235612414990364" lon="8.922825884258781"><ele>96.0</ele><time>2026-05-03T09:08:45Z</time></trkpt><trkpt lat="45.235569999363676" lon="8.922702674942517"><ele>96.0</ele><time>2026-05-03T09:08:46Z</time></trkpt><trkpt lat="45.23551967966568" lon="8.92256392522948"><ele>96.0</ele><time>2026-05-03T09:08:47Z</time></trkpt><trkpt lat="45.235472403196944" lon="8.922433350116245"><ele>96.0</ele><time>2026-05-03T09:08:48Z</time></trkpt><trkpt lat="45.235425495196324" lon="8.922305551912169"><ele>96.0</ele><time>2026-05-03T09:08:49Z</time></trkpt><trkpt lat="45.235374270030896" lon="8.922163785202642"><ele>96.0</ele><time>2026-05-03T09:08:50Z</time></trkpt><trkpt lat="45.235332671546246" lon="8.922031016307962"><ele>96.0</ele><time>2026-05-03T09:08:51Z</time></trkpt><trkpt lat="45.235286503538795" lon="8.92190034837212"><ele>96.0</ele><time>2026-05-03T09:08:52Z</time></trkpt><trkpt lat="45.23523426717844" lon="8.921769208731416"><ele>96.0</ele><time>2026-05-03T09:08:53Z</time></trkpt><trkpt lat="45.2352008806839" lon="8.921656030790233"><ele>96.0</ele><time>2026-05-03T09:08:54Z</time></trkpt><trkpt lat="45.235155658668496" lon="8.921530151153485"><ele>96.0</ele><time>2026-05-03T09:08:55Z</time></trkpt><trkpt lat="45.23511585474519" lon="8.921415983868137"><ele>96.0</ele><time>2026-05-03T09:08:56Z</time></trkpt><trkpt lat="45.23507191497106" lon="8.921295548972237"><ele>96.0</ele><time>2026-05-03T09:08:57Z</time></trkpt><trkpt lat="45.235024930505936" lon="8.921181883840456"><ele>96.0</ele><time>2026-05-03T09:08:58Z</time></trkpt><trkpt lat="45.23497133425215" lon="8.921064844838392"><ele>96.0</ele><time>2026-05-03T09:08:59Z</time></trkpt><trkpt lat="45.23491171314886" lon="8.920949978524824"><ele>96.0</ele><time>2026-05-03T09:09:00Z</time></trkpt><trkpt lat="45.23484459993947" lon="8.920829812116523"><ele>96.0</ele><time>2026-05-03T09:09:01Z</time></trkpt><trkpt lat="45.2347761237402" lon="8.920707314719992"><ele>96.19999999999999</ele><time>2026-05-03T09:09:02Z</time></trkpt><trkpt lat="45.234713842887466" lon="8.92059373565593"><ele>96.39999999999999</ele><time>2026-05-03T09:09:03Z</time></trkpt><trkpt lat="45.234651047493735" lon="8.920467657772772"><ele>96.6</ele><time>2026-05-03T09:09:04Z</time></trkpt><trkpt lat="45.23458889356325" lon="8.920344817714888"><ele>96.8</ele><time>2026-05-03T09:09:05Z</time></trkpt><trkpt lat="45.234529102444526" lon="8.92022884505491"><ele>97.0</ele><time>2026-05-03T09:09:06Z</time></trkpt><trkpt lat="45.23447142623152" lon="8.920114087632484"><ele>97.0</ele><time>2026-05-03T09:09:07Z</time></trkpt><trkpt lat="45.23441069711263" lon="8.919998297317333"><ele>97.0</ele><time>2026-05-03T09:09:08Z</time></trkpt><trkpt lat="45.23435597743588" lon="8.919888512066324"><ele>97.0</ele><time>2026-05-03T09:09:09Z</time></trkpt><trkpt lat="45.23429054274795" lon="8.919780831410943"><ele>97.0</ele><time>2026-05-03T09:09:10Z</time></trkpt><trkpt lat="45.234222468766355" lon="8.919655573833213"><ele>97.0</ele><time>2026-05-03T09:09:11Z</time></trkpt><trkpt lat="45.234172586295934" lon="8.919546432164237"><ele>97.0</ele><time>2026-05-03T09:09:12Z</time></trkpt><trkpt lat="45.23410912179808" lon="8.919433002722847"><ele>97.0</ele><time>2026-05-03T09:09:13Z</time></trkpt><trkpt lat="45.23404589620483" lon="8.919310832338148"><ele>97.0</ele><time>2026-05-03T09:09:14Z</time></trkpt><trkpt lat="45.233993431164556" lon="8.919190803113326"><ele>97.0</ele><time>2026-05-03T09:09:15Z</time></trkpt><trkpt lat="45.23393999666556" lon="8.919072223017272"><ele>97.0</ele><time>2026-05-03T09:09:16Z</time></trkpt><trkpt lat="45.23387520796787" lon="8.918943216891543"><ele>97.00000000000001</ele><time>2026-05-03T09:09:17Z</time></trkpt><trkpt lat="45.233819131709296" lon="8.918828266604729"><ele>97.0</ele><time>2026-05-03T09:09:18Z</time></trkpt><trkpt lat="45.233770477848466" lon="8.91873124213116"><ele>97.0</ele><time>2026-05-03T09:09:19Z</time></trkpt><trkpt lat="45.23372725884302" lon="8.918645317360795"><ele>97.0</ele><time>2026-05-03T09:09:20Z</time></trkpt><trkpt lat="45.23368089092493" lon="8.918550108608613"><ele>97.00000000000001</ele><time>2026-05-03T09:09:21Z</time></trkpt><trkpt lat="45.23363423706047" lon="8.918453284436708"><ele>97.0</ele><time>2026-05-03T09:09:22Z</time></trkpt><trkpt lat="45.23359523376206" lon="8.918373005547396"><ele>97.00000000000001</ele><time>2026-05-03T09:09:23Z</time></trkpt><trkpt lat="45.233539747744146" lon="8.918247494302113"><ele>97.0</ele><time>2026-05-03T09:09:25Z</time></trkpt><trkpt lat="45.233477897923" lon="8.918159400922143"><ele>97.0</ele><time>2026-05-03T09:09:57Z</time></trkpt><trkpt lat="45.233413748070156" lon="8.918168108346833"><ele>97.0</ele><time>2026-05-03T09:09:58Z</time></trkpt><trkpt lat="45.233348086261806" lon="8.918211260048032"><ele>97.00000000000001</ele><time>2026-05-03T09:09:59Z</time></trkpt><trkpt lat="45.23327011870791" lon="8.918259925016478"><ele>97.0</ele><time>2026-05-03T09:10:00Z</time></trkpt><trkpt lat="45.233190110097055" lon="8.918308005775282"><ele>96.83333333333334</ele><time>2026-05-03T09:10:01Z</time></trkpt><trkpt lat="45.233108468254976" lon="8.918355658946176"><ele>96.66666666666667</ele><time>2026-05-03T09:10:02Z</time></trkpt><trkpt lat="45.23303034871053" lon="8.918402618443338"><ele>96.5</ele><time>2026-05-03T09:10:03Z</time></trkpt><trkpt lat="45.23295733611903" lon="8.918449640077524"><ele>96.33333333333334</ele><time>2026-05-03T09:10:04Z</time></trkpt><trkpt lat="45.2328923196642" lon="8.918487091341492"><ele>96.16666666666667</ele><time>2026-05-03T09:10:05Z</time></trkpt><trkpt lat="45.23282216225882" lon="8.918531308720304"><ele>96.0</ele><time>2026-05-03T09:10:06Z</time></trkpt><trkpt lat="45.23273942424569" lon="8.918583938486618"><ele>96.0</ele><time>2026-05-03T09:10:07Z</time></trkpt><trkpt lat="45.23265546399399" lon="8.918653695949589"><ele>96.0</ele><time>2026-05-03T09:10:08Z</time></trkpt><trkpt lat="45.23255211617328" lon="8.918618558953556"><ele>96.0</ele><time>2026-05-03T09:10:09Z</time></trkpt><trkpt lat="45.23245967587129" lon="8.918578671427342"><ele>96.0</ele><time>2026-05-03T09:10:10Z</time></trkpt><trkpt lat="45.23237756343162" lon="8.91849584600849"><ele>96.0</ele><time>2026-05-03T09:10:11Z</time></trkpt><trkpt lat="45.232297022039674" lon="8.918393874903499"><ele>96.4</ele><time>2026-05-03T09:10:12Z</time></trkpt><trkpt lat="45.232221323439774" lon="8.918278232660436"><ele>96.8</ele><time>2026-05-03T09:10:13Z</time></trkpt><trkpt lat="45.23214812128388" lon="8.918159342177377"><ele>97.2</ele><time>2026-05-03T09:10:14Z</time></trkpt><trkpt lat="45.232081629157115" lon="8.918043457125806"><ele>97.60000000000001</ele><time>2026-05-03T09:10:15Z</time></trkpt><trkpt lat="45.23201638948992" lon="8.917926189011226"><ele>98.0</ele><time>2026-05-03T09:10:16Z</time></trkpt><trkpt lat="45.231947207806634" lon="8.917798503624633"><ele>98.0</ele><time>2026-05-03T09:10:17Z</time></trkpt><trkpt lat="45.231878784641644" lon="8.917681695173075"><ele>98.0</ele><time>2026-05-03T09:10:18Z</time></trkpt><trkpt lat="45.231807134695536" lon="8.917568676405345"><ele>98.0</ele><time>2026-05-03T09:10:19Z</time></trkpt><trkpt lat="45.231733323654" lon="8.917462123828528"><ele>98.0</ele><time>2026-05-03T09:10:20Z</time></trkpt><trkpt lat="45.23165006009696" lon="8.91736308511882"><ele>98.0</ele><time>2026-05-03T09:10:21Z</time></trkpt><trkpt lat="45.23156155306826" lon="8.91727677090992"><ele>97.99999999999999</ele><time>2026-05-03T09:10:22Z</time></trkpt><trkpt lat="45.23147456585604" lon="8.917195679115105"><ele>98.0</ele><time>2026-05-03T09:10:23Z</time></trkpt><trkpt lat="45.23139428158807" lon="8.917126225967637"><ele>98.0</ele><time>2026-05-03T09:10:24Z</time></trkpt><trkpt lat="45.231323624120755" lon="8.917071064338314"><ele>98.0</ele><time>2026-05-03T09:10:25Z</time></trkpt><trkpt lat="45.23126041694411" lon="8.917019488030995"><ele>97.99999999999999</ele><time>2026-05-03T09:10:26Z</time></trkpt><trkpt lat="45.23119449385207" lon="8.916950979681058"><ele>98.0</ele><time>2026-05-03T09:10:28Z</time></trkpt><trkpt lat="45.231223439023424" lon="8.916825992056454"><ele>97.83333333333333</ele><time>2026-05-03T09:10:29Z</time></trkpt><trkpt lat="45.231306990262304" lon="8.916707982781462"><ele>97.66666666666666</ele><time>2026-05-03T09:10:31Z</time></trkpt><trkpt lat="45.231366261478165" lon="8.916649551204419"><ele>97.5</ele><time>2026-05-03T09:10:32Z</time></trkpt><trkpt lat="45.2314313294657" lon="8.91658956877046"><ele>97.33333333333334</ele><time>2026-05-03T09:10:33Z</time></trkpt><trkpt lat="45.23150107187141" lon="8.916521088316188"><ele>97.16666666666667</ele><time>2026-05-03T09:10:34Z</time></trkpt><trkpt lat="45.23157850303563" lon="8.916438583654926"><ele>97.0</ele><time>2026-05-03T09:10:35Z</time></trkpt><trkpt lat="45.23165820334763" lon="8.916354299445807"><ele>97.0</ele><time>2026-05-03T09:10:36Z</time></trkpt><trkpt lat="45.23173956763134" lon="8.916257199664619"><ele>97.0</ele><time>2026-05-03T09:10:37Z</time></trkpt><trkpt lat="45.231824516806654" lon="8.91615142268284"><ele>97.0</ele><time>2026-05-03T09:10:38Z</time></trkpt><trkpt lat="45.23191018939629" lon="8.916051215666187"><ele>97.0</ele><time>2026-05-03T09:10:39Z</time></trkpt><trkpt lat="45.23199061169813" lon="8.915954054402562"><ele>97.0</ele><time>2026-05-03T09:10:40Z</time></trkpt><trkpt lat="45.23207286194544" lon="8.915854322901263"><ele>97.0</ele><time>2026-05-03T09:10:41Z</time></trkpt><trkpt lat="45.23215880819781" lon="8.915748167580265"><ele>97.0</ele><time>2026-05-03T09:10:42Z</time></trkpt><trkpt lat="45.23224242776963" lon="8.915651115950462"><ele>97.0</ele><time>2026-05-03T09:10:43Z</time></trkpt><trkpt lat="45.2323163265564" lon="8.915567730490052"><ele>97.0</ele><time>2026-05-03T09:10:44Z</time></trkpt><trkpt lat="45.23237779960778" lon="8.915496605371754"><ele>97.0</ele><time>2026-05-03T09:10:45Z</time></trkpt><trkpt lat="45.23246466156224" lon="8.915399700999844"><ele>97.0</ele><time>2026-05-03T09:10:47Z</time></trkpt><trkpt lat="45.23252039728832" lon="8.915328769499046"><ele>97.0</ele><time>2026-05-03T09:10:49Z</time></trkpt><trkpt lat="45.23244934689142" lon="8.915177264639714"><ele>97.0</ele><time>2026-05-03T09:10:53Z</time></trkpt><trkpt lat="45.232382901797344" lon="8.915091523401603"><ele>97.0</ele><time>2026-05-03T09:10:55Z</time></trkpt><trkpt lat="45.23230306999868" lon="8.915139747031963"><ele>97.0</ele><time>2026-05-03T09:10:57Z</time></trkpt><trkpt lat="45.2322082885833" lon="8.915284692180435"><ele>96.83333333333334</ele><time>2026-05-03T09:10:59Z</time></trkpt><trkpt lat="45.23215150349031" lon="8.915356276125557"><ele>96.66666666666667</ele><time>2026-05-03T09:11:00Z</time></trkpt><trkpt lat="45.23209459016368" lon="8.915425690759456"><ele>96.5</ele><time>2026-05-03T09:11:01Z</time></trkpt><trkpt lat="45.232041107710415" lon="8.915491803912735"><ele>96.33333333333334</ele><time>2026-05-03T09:11:02Z</time></trkpt><trkpt lat="45.2319724782242" lon="8.915580855749038"><ele>96.16666666666667</ele><time>2026-05-03T09:11:03Z</time></trkpt><trkpt lat="45.23190743386255" lon="8.915657396756261"><ele>96.0</ele><time>2026-05-03T09:11:04Z</time></trkpt><trkpt lat="45.23182964975271" lon="8.915747810292563"><ele>95.99999999999999</ele><time>2026-05-03T09:11:05Z</time></trkpt><trkpt lat="45.23177302989372" lon="8.915814942293041"><ele>96.0</ele><time>2026-05-03T09:11:06Z</time></trkpt><trkpt lat="45.23171818911749" lon="8.915884251398671"><ele>96.0</ele><time>2026-05-03T09:11:07Z</time></trkpt><trkpt lat="45.23166869113252" lon="8.915941621947619"><ele>96.0</ele><time>2026-05-03T09:11:08Z</time></trkpt><trkpt lat="45.23161580436149" lon="8.915999252042411"><ele>96.0</ele><time>2026-05-03T09:11:09Z</time></trkpt><trkpt lat="45.23155929094505" lon="8.916061214595016"><ele>95.99999999999999</ele><time>2026-05-03T09:11:10Z</time></trkpt><trkpt lat="45.23149228925898" lon="8.916110052099254"><ele>96.0</ele><time>2026-05-03T09:11:11Z</time></trkpt><trkpt lat="45.23142569523104" lon="8.91613154897496"><ele>96.0</ele><time>2026-05-03T09:11:12Z</time></trkpt><trkpt lat="45.231352206403535" lon="8.916147160594797"><ele>96.0</ele><time>2026-05-03T09:11:13Z</time></trkpt><trkpt lat="45.231267983600254" lon="8.916162860995279"><ele>96.0</ele><time>2026-05-03T09:11:14Z</time></trkpt><trkpt lat="45.23117455717768" lon="8.91617296926102"><ele>96.0</ele><time>2026-05-03T09:11:15Z</time></trkpt><trkpt lat="45.231081022077774" lon="8.916177043517362"><ele>96.0</ele><time>2026-05-03T09:11:16Z</time></trkpt><trkpt lat="45.2309878885496" lon="8.916186474075387"><ele>96.0</ele><time>2026-05-03T09:11:17Z</time></trkpt><trkpt lat="45.23089057681986" lon="8.916189792297672"><ele>96.0</ele><time>2026-05-03T09:11:18Z</time></trkpt><trkpt lat="45.23079127373912" lon="8.916200316914793"><ele>96.0</ele><time>2026-05-03T09:11:19Z</time></trkpt><trkpt lat="45.23071141130768" lon="8.916204440673011"><ele>96.0</ele><time>2026-05-03T09:11:20Z</time></trkpt><trkpt lat="45.230644059175496" lon="8.916210920971695"><ele>96.0</ele><time>2026-05-03T09:11:21Z</time></trkpt><trkpt lat="45.23051903757895" lon="8.916218323053533"><ele>96.0</ele><time>2026-05-03T09:11:23Z</time></trkpt><trkpt lat="45.23044199753985" lon="8.916220555187211"><ele>96.0</ele><time>2026-05-03T09:11:24Z</time></trkpt><trkpt lat="45.23035347568363" lon="8.916228282472217"><ele>96.0</ele><time>2026-05-03T09:11:25Z</time></trkpt><trkpt lat="45.23026491229843" lon="8.916226816929639"><ele>96.0</ele><time>2026-05-03T09:11:26Z</time></trkpt><trkpt lat="45.23017423094196" lon="8.916224306253707"><ele>96.0</ele><time>2026-05-03T09:11:27Z</time></trkpt><trkpt lat="45.23007614072066" lon="8.916210450037859"><ele>96.0</ele><time>2026-05-03T09:11:28Z</time></trkpt><trkpt lat="45.230002851329694" lon="8.916202794198147"><ele>96.0</ele><time>2026-05-03T09:11:29Z</time></trkpt><trkpt lat="45.229893235144424" lon="8.916197477780598"><ele>96.0</ele><time>2026-05-03T09:11:30Z</time></trkpt><trkpt lat="45.22980412962381" lon="8.916196211367744"><ele>96.0</ele><time>2026-05-03T09:11:31Z</time></trkpt><trkpt lat="45.22973495517347" lon="8.916190108578231"><ele>96.0</ele><time>2026-05-03T09:11:32Z</time></trkpt><trkpt lat="45.229659369777046" lon="8.91618630397571"><ele>96.0</ele><time>2026-05-03T09:11:33Z</time></trkpt><trkpt lat="45.2295808364813" lon="8.91618512272862"><ele>96.0</ele><time>2026-05-03T09:11:34Z</time></trkpt><trkpt lat="45.22948307665414" lon="8.916182413210109"><ele>96.0</ele><time>2026-05-03T09:11:35Z</time></trkpt><trkpt lat="45.22940248800001" lon="8.916160460752963"><ele>96.0</ele><time>2026-05-03T09:11:36Z</time></trkpt><trkpt lat="45.22931477616701" lon="8.916157532675651"><ele>96.0</ele><time>2026-05-03T09:11:37Z</time></trkpt><trkpt lat="45.229233654120655" lon="8.916158514367327"><ele>96.0</ele><time>2026-05-03T09:11:38Z</time></trkpt><trkpt lat="45.229156845913295" lon="8.91615278732514"><ele>96.0</ele><time>2026-05-03T09:11:39Z</time></trkpt><trkpt lat="45.22907247124084" lon="8.916155339018797"><ele>96.0</ele><time>2026-05-03T09:11:40Z</time></trkpt><trkpt lat="45.2289782497765" lon="8.916165011371364"><ele>96.0</ele><time>2026-05-03T09:11:41Z</time></trkpt><trkpt lat="45.22889753666809" lon="8.91616515630608"><ele>96.16666666666667</ele><time>2026-05-03T09:11:42Z</time></trkpt><trkpt lat="45.22882868355545" lon="8.91616501301802"><ele>96.33333333333334</ele><time>2026-05-03T09:11:43Z</time></trkpt><trkpt lat="45.228755267064784" lon="8.916152437913556"><ele>96.5</ele><time>2026-05-03T09:11:44Z</time></trkpt><trkpt lat="45.22866153863601" lon="8.916173542409323"><ele>96.66666666666667</ele><time>2026-05-03T09:11:46Z</time></trkpt><trkpt lat="45.22857823223998" lon="8.91616209350242"><ele>96.83333333333334</ele><time>2026-05-03T09:11:49Z</time></trkpt><trkpt lat="45.2285506809218" lon="8.916053467834788"><ele>97.0</ele><time>2026-05-03T09:11:51Z</time></trkpt><trkpt lat="45.2285500824729" lon="8.915954173195551"><ele>97.0</ele><time>2026-05-03T09:11:52Z</time></trkpt><trkpt lat="45.228558804662995" lon="8.915846171059496"><ele>97.0</ele><time>2026-05-03T09:11:53Z</time></trkpt><trkpt lat="45.228544454131125" lon="8.915497838901949"><ele>97.0</ele><time>2026-05-03T09:11:56Z</time></trkpt><trkpt lat="45.22853875404513" lon="8.91536957657475"><ele>97.0</ele><time>2026-05-03T09:11:57Z</time></trkpt><trkpt lat="45.228536810878566" lon="8.91523568875608"><ele>97.00000000000001</ele><time>2026-05-03T09:11:58Z</time></trkpt><trkpt lat="45.22853425981569" lon="8.915098112693293"><ele>97.0</ele><time>2026-05-03T09:11:59Z</time></trkpt><trkpt lat="45.228531969930856" lon="8.914978866528033"><ele>97.0</ele><time>2026-05-03T09:12:00Z</time></trkpt><trkpt lat="45.228529571362735" lon="8.914877238709108"><ele>97.0</ele><time>2026-05-03T09:12:01Z</time></trkpt><trkpt lat="45.22852499491153" lon="8.914778752818018"><ele>97.00000000000001</ele><time>2026-05-03T09:12:02Z</time></trkpt><trkpt lat="45.228520097118555" lon="8.914677651970438"><ele>97.0</ele><time>2026-05-03T09:12:03Z</time></trkpt><trkpt lat="45.22852043185483" lon="8.914540381067173"><ele>96.66666666666667</ele><time>2026-05-03T09:12:04Z</time></trkpt><trkpt lat="45.22851674133124" lon="8.914411902315042"><ele>96.33333333333334</ele><time>2026-05-03T09:12:05Z</time></trkpt><trkpt lat="45.22851242855945" lon="8.914277118002174"><ele>96.0</ele><time>2026-05-03T09:12:06Z</time></trkpt><trkpt lat="45.22851480358123" lon="8.914145408417978"><ele>95.66666666666667</ele><time>2026-05-03T09:12:07Z</time></trkpt><trkpt lat="45.22851427486866" lon="8.91402714941891"><ele>95.33333333333334</ele><time>2026-05-03T09:12:08Z</time></trkpt><trkpt lat="45.228513828371895" lon="8.913914371727152"><ele>95.0</ele><time>2026-05-03T09:12:09Z</time></trkpt><trkpt lat="45.22851141109219" lon="8.913783958858591"><ele>95.0</ele><time>2026-05-03T09:12:10Z</time></trkpt><trkpt lat="45.22850994725523" lon="8.913645772464962"><ele>95.0</ele><time>2026-05-03T09:12:11Z</time></trkpt><trkpt lat="45.228508396116574" lon="8.913511968185405"><ele>95.0</ele><time>2026-05-03T09:12:12Z</time></trkpt><trkpt lat="45.22850749516041" lon="8.913385477030664"><ele>95.0</ele><time>2026-05-03T09:12:13Z</time></trkpt><trkpt lat="45.22850702241817" lon="8.913268099790036"><ele>95.0</ele><time>2026-05-03T09:12:14Z</time></trkpt><trkpt lat="45.228504434325615" lon="8.913160824794156"><ele>95.0</ele><time>2026-05-03T09:12:15Z</time></trkpt><trkpt lat="45.228503873223126" lon="8.913051144603095"><ele>95.0</ele><time>2026-05-03T09:12:16Z</time></trkpt><trkpt lat="45.22850291834801" lon="8.912929482340944"><ele>95.0</ele><time>2026-05-03T09:12:17Z</time></trkpt><trkpt lat="45.22850411377637" lon="8.912821673557815"><ele>95.0</ele><time>2026-05-03T09:12:18Z</time></trkpt><trkpt lat="45.22850377456206" lon="8.912700758829702"><ele>95.0</ele><time>2026-05-03T09:12:19Z</time></trkpt><trkpt lat="45.228501876131695" lon="8.912577798525213"><ele>95.0</ele><time>2026-05-03T09:12:20Z</time></trkpt><trkpt lat="45.22850264897991" lon="8.912472639997505"><ele>95.0</ele><time>2026-05-03T09:12:21Z</time></trkpt><trkpt lat="45.22850085175011" lon="8.912378951633466"><ele>94.83333333333334</ele><time>2026-05-03T09:12:22Z</time></trkpt><trkpt lat="45.22849961635898" lon="8.91227761638288"><ele>94.66666666666667</ele><time>2026-05-03T09:12:23Z</time></trkpt><trkpt lat="45.228498831541174" lon="8.912173445048694"><ele>94.5</ele><time>2026-05-03T09:12:24Z</time></trkpt><trkpt lat="45.22849598476115" lon="8.912059924806353"><ele>94.33333333333333</ele><time>2026-05-03T09:12:25Z</time></trkpt><trkpt lat="45.22849513813145" lon="8.911948423789019"><ele>94.16666666666666</ele><time>2026-05-03T09:12:26Z</time></trkpt><trkpt lat="45.228494109097" lon="8.911846010013715"><ele>94.0</ele><time>2026-05-03T09:12:27Z</time></trkpt><trkpt lat="45.22849278739943" lon="8.911734724539397"><ele>94.28571428571428</ele><time>2026-05-03T09:12:28Z</time></trkpt><trkpt lat="45.2284912036002" lon="8.911634530413414"><ele>94.57142857142857</ele><time>2026-05-03T09:12:29Z</time></trkpt><trkpt lat="45.228486137893555" lon="8.911524505474024"><ele>94.85714285714286</ele><time>2026-05-03T09:12:30Z</time></trkpt><trkpt lat="45.22847708686056" lon="8.91143029782911"><ele>95.14285714285714</ele><time>2026-05-03T09:12:31Z</time></trkpt><trkpt lat="45.22846309647865" lon="8.911319332133932"><ele>95.42857142857143</ele><time>2026-05-03T09:12:32Z</time></trkpt><trkpt lat="45.228457421594726" lon="8.91121561782802"><ele>95.71428571428571</ele><time>2026-05-03T09:12:33Z</time></trkpt><trkpt lat="45.22845937287082" lon="8.91111959677282"><ele>96.0</ele><time>2026-05-03T09:12:34Z</time></trkpt><trkpt lat="45.228459884412636" lon="8.911019993821137"><ele>96.0</ele><time>2026-05-03T09:12:35Z</time></trkpt><trkpt lat="45.22845801713718" lon="8.910907669465006"><ele>96.0</ele><time>2026-05-03T09:12:36Z</time></trkpt><trkpt lat="45.228459150371215" lon="8.910797972767867"><ele>96.0</ele><time>2026-05-03T09:12:37Z</time></trkpt><trkpt lat="45.22846415203595" lon="8.91067984978292"><ele>96.0</ele><time>2026-05-03T09:12:38Z</time></trkpt><trkpt lat="45.2284671820276" lon="8.910580022776008"><ele>96.0</ele><time>2026-05-03T09:12:39Z</time></trkpt><trkpt lat="45.22847147827805" lon="8.910444575623394"><ele>96.0</ele><time>2026-05-03T09:12:40Z</time></trkpt><trkpt lat="45.2284818408318" lon="8.9103378324421"><ele>96.0</ele><time>2026-05-03T09:12:41Z</time></trkpt><trkpt lat="45.228486821301644" lon="8.910227858412037"><ele>96.0</ele><time>2026-05-03T09:12:42Z</time></trkpt><trkpt lat="45.228491451830266" lon="8.910120271613396"><ele>96.0</ele><time>2026-05-03T09:12:43Z</time></trkpt><trkpt lat="45.22849796260604" lon="8.91000917805249"><ele>96.0</ele><time>2026-05-03T09:12:44Z</time></trkpt><trkpt lat="45.228504953377524" lon="8.909881426617353"><ele>96.0</ele><time>2026-05-03T09:12:45Z</time></trkpt><trkpt lat="45.22851128751469" lon="8.909771685662482"><ele>96.0</ele><time>2026-05-03T09:12:46Z</time></trkpt><trkpt lat="45.22851508974396" lon="8.909665868495399"><ele>96.0</ele><time>2026-05-03T09:12:47Z</time></trkpt><trkpt lat="45.228526014049244" lon="8.909510414273967"><ele>96.0</ele><time>2026-05-03T09:12:48Z</time></trkpt><trkpt lat="45.22853204059054" lon="8.909397010542708"><ele>96.0</ele><time>2026-05-03T09:12:49Z</time></trkpt><trkpt lat="45.22853810561183" lon="8.909246263684363"><ele>96.0</ele><time>2026-05-03T09:12:50Z</time></trkpt><trkpt lat="45.228548864814265" lon="8.909082891365989"><ele>96.0</ele><time>2026-05-03T09:12:51Z</time></trkpt><trkpt lat="45.22855995493962" lon="8.908911013993558"><ele>96.0</ele><time>2026-05-03T09:12:52Z</time></trkpt><trkpt lat="45.22856931743298" lon="8.908744438159959"><ele>96.0</ele><time>2026-05-03T09:12:53Z</time></trkpt><trkpt lat="45.22857748535496" lon="8.908601180849454"><ele>96.0</ele><time>2026-05-03T09:12:54Z</time></trkpt><trkpt lat="45.228583851541735" lon="8.908462311433691"><ele>96.0</ele><time>2026-05-03T09:12:55Z</time></trkpt><trkpt lat="45.228591629578204" lon="8.90832254488728"><ele>96.0</ele><time>2026-05-03T09:12:56Z</time></trkpt><trkpt lat="45.228596364741854" lon="8.908209920517704"><ele>96.0</ele><time>2026-05-03T09:12:57Z</time></trkpt><trkpt lat="45.22860195267985" lon="8.908073687886729"><ele>96.0</ele><time>2026-05-03T09:12:58Z</time></trkpt><trkpt lat="45.22860637116739" lon="8.907945925831338"><ele>96.0</ele><time>2026-05-03T09:12:59Z</time></trkpt><trkpt lat="45.2286129400927" lon="8.907820478526576"><ele>96.0</ele><time>2026-05-03T09:13:00Z</time></trkpt><trkpt lat="45.2286173054101" lon="8.907713259191853"><ele>96.0</ele><time>2026-05-03T09:13:01Z</time></trkpt><trkpt lat="45.22862484882428" lon="8.907595425586159"><ele>96.0</ele><time>2026-05-03T09:13:02Z</time></trkpt><trkpt lat="45.228629145757694" lon="8.907471387067108"><ele>96.0</ele><time>2026-05-03T09:13:03Z</time></trkpt><trkpt lat="45.228636195639666" lon="8.907342679058733"><ele>96.0</ele><time>2026-05-03T09:13:04Z</time></trkpt><trkpt lat="45.228641339150144" lon="8.907216531180733"><ele>96.0</ele><time>2026-05-03T09:13:05Z</time></trkpt><trkpt lat="45.22864882224421" lon="8.90708506241473"><ele>96.0</ele><time>2026-05-03T09:13:06Z</time></trkpt><trkpt lat="45.2286548659972" lon="8.90694289259642"><ele>96.0</ele><time>2026-05-03T09:13:07Z</time></trkpt><trkpt lat="45.2286585423501" lon="8.90680172255776"><ele>96.0</ele><time>2026-05-03T09:13:08Z</time></trkpt><trkpt lat="45.228666425581714" lon="8.906681763260945"><ele>96.0</ele><time>2026-05-03T09:13:09Z</time></trkpt><trkpt lat="45.228670397349234" lon="8.906543668219934"><ele>96.0</ele><time>2026-05-03T09:13:10Z</time></trkpt><trkpt lat="45.22867600557203" lon="8.906417739611413"><ele>96.0</ele><time>2026-05-03T09:13:11Z</time></trkpt><trkpt lat="45.22867882010283" lon="8.906220894282157"><ele>96.0</ele><time>2026-05-03T09:13:13Z</time></trkpt><trkpt lat="45.228684363903994" lon="8.90606451665858"><ele>96.0</ele><time>2026-05-03T09:13:15Z</time></trkpt><trkpt lat="45.228694977774616" lon="8.905965198199162"><ele>96.0</ele><time>2026-05-03T09:13:17Z</time></trkpt><trkpt lat="45.22866147715788" lon="8.905870303452758"><ele>96.0</ele><time>2026-05-03T09:13:20Z</time></trkpt><trkpt lat="45.22861624278059" lon="8.905799274609606"><ele>96.0</ele><time>2026-05-03T09:13:21Z</time></trkpt><trkpt lat="45.22853132440989" lon="8.905739570007846"><ele>96.0</ele><time>2026-05-03T09:13:22Z</time></trkpt><trkpt lat="45.22846191698585" lon="8.905677390929394"><ele>96.0</ele><time>2026-05-03T09:13:23Z</time></trkpt><trkpt lat="45.22837971552456" lon="8.905599978142952"><ele>96.19999999999999</ele><time>2026-05-03T09:13:24Z</time></trkpt><trkpt lat="45.22829444465035" lon="8.905517743700571"><ele>96.39999999999999</ele><time>2026-05-03T09:13:25Z</time></trkpt><trkpt lat="45.22820687926111" lon="8.905430570085706"><ele>96.6</ele><time>2026-05-03T09:13:26Z</time></trkpt><trkpt lat="45.22811685388314" lon="8.905334624046189"><ele>96.8</ele><time>2026-05-03T09:13:27Z</time></trkpt><trkpt lat="45.22802140109296" lon="8.905247297117805"><ele>97.0</ele><time>2026-05-03T09:13:28Z</time></trkpt><trkpt lat="45.22793552749257" lon="8.905156981673805"><ele>96.8</ele><time>2026-05-03T09:13:29Z</time></trkpt><trkpt lat="45.227850908928694" lon="8.905069219923183"><ele>96.6</ele><time>2026-05-03T09:13:30Z</time></trkpt><trkpt lat="45.22777928758901" lon="8.904998369603284"><ele>96.39999999999999</ele><time>2026-05-03T09:13:31Z</time></trkpt><trkpt lat="45.22770452556421" lon="8.904926719155851"><ele>96.19999999999999</ele><time>2026-05-03T09:13:32Z</time></trkpt><trkpt lat="45.22763826731745" lon="8.904852327937865"><ele>96.0</ele><time>2026-05-03T09:13:33Z</time></trkpt><trkpt lat="45.227561088678534" lon="8.904772007325645"><ele>96.0</ele><time>2026-05-03T09:13:34Z</time></trkpt><trkpt lat="45.227481635059725" lon="8.904695425143368"><ele>96.0</ele><time>2026-05-03T09:13:35Z</time></trkpt><trkpt lat="45.227397977858594" lon="8.904603823653225"><ele>96.0</ele><time>2026-05-03T09:13:36Z</time></trkpt><trkpt lat="45.2273180732697" lon="8.904523970960295"><ele>96.0</ele><time>2026-05-03T09:13:37Z</time></trkpt><trkpt lat="45.22722448816608" lon="8.904460643554838"><ele>96.0</ele><time>2026-05-03T09:13:38Z</time></trkpt><trkpt lat="45.227124004368115" lon="8.904404322132814"><ele>96.0</ele><time>2026-05-03T09:13:39Z</time></trkpt><trkpt lat="45.22702785326769" lon="8.904330398475956"><ele>96.0</ele><time>2026-05-03T09:13:40Z</time></trkpt><trkpt lat="45.22693084514291" lon="8.904275811019648"><ele>96.0</ele><time>2026-05-03T09:13:41Z</time></trkpt><trkpt lat="45.22682280389614" lon="8.904214578756632"><ele>96.0</ele><time>2026-05-03T09:13:42Z</time></trkpt><trkpt lat="45.22672205420114" lon="8.90415513843411"><ele>96.0</ele><time>2026-05-03T09:13:43Z</time></trkpt><trkpt lat="45.226620569676825" lon="8.904098804462084"><ele>96.0</ele><time>2026-05-03T09:13:44Z</time></trkpt><trkpt lat="45.22651589859516" lon="8.904037639116906"><ele>96.0</ele><time>2026-05-03T09:13:45Z</time></trkpt><trkpt lat="45.226420217613196" lon="8.903969628804536"><ele>96.0</ele><time>2026-05-03T09:13:46Z</time></trkpt><trkpt lat="45.22631788494027" lon="8.903913682517212"><ele>96.0</ele><time>2026-05-03T09:13:47Z</time></trkpt><trkpt lat="45.22622654075775" lon="8.903855672320013"><ele>96.0</ele><time>2026-05-03T09:13:48Z</time></trkpt><trkpt lat="45.226130923189466" lon="8.903786980242126"><ele>96.6</ele><time>2026-05-03T09:13:49Z</time></trkpt><trkpt lat="45.22602977952449" lon="8.90372855079417"><ele>97.19999999999999</ele><time>2026-05-03T09:13:50Z</time></trkpt><trkpt lat="45.22594142538326" lon="8.903668388505618"><ele>97.80000000000001</ele><time>2026-05-03T09:13:51Z</time></trkpt><trkpt lat="45.22585428018993" lon="8.903612975922622"><ele>98.4</ele><time>2026-05-03T09:13:52Z</time></trkpt><trkpt lat="45.22575706846786" lon="8.903553366148602"><ele>99.0</ele><time>2026-05-03T09:13:53Z</time></trkpt><trkpt lat="45.22567789964603" lon="8.903491711915365"><ele>98.66666666666667</ele><time>2026-05-03T09:13:54Z</time></trkpt><trkpt lat="45.22559521809805" lon="8.903446645690694"><ele>98.33333333333334</ele><time>2026-05-03T09:13:55Z</time></trkpt><trkpt lat="45.22553730657693" lon="8.903404225184305"><ele>98.0</ele><time>2026-05-03T09:13:56Z</time></trkpt><trkpt lat="45.225477837615855" lon="8.903362114596135"><ele>97.66666666666667</ele><time>2026-05-03T09:13:57Z</time></trkpt><trkpt lat="45.22539146963342" lon="8.903289148836995"><ele>97.33333333333334</ele><time>2026-05-03T09:13:59Z</time></trkpt><trkpt lat="45.22535836913164" lon="8.903195134657713"><ele>97.0</ele><time>2026-05-03T09:14:01Z</time></trkpt><trkpt lat="45.22536573107411" lon="8.903009318253256"><ele>97.0</ele><time>2026-05-03T09:14:03Z</time></trkpt><trkpt lat="45.22538574081564" lon="8.902870767055187"><ele>97.0</ele><time>2026-05-03T09:14:04Z</time></trkpt><trkpt lat="45.22539430355586" lon="8.902735598395141"><ele>97.0</ele><time>2026-05-03T09:14:05Z</time></trkpt><trkpt lat="45.22540353836876" lon="8.902597736901713"><ele>97.0</ele><time>2026-05-03T09:14:06Z</time></trkpt><trkpt lat="45.2254047793997" lon="8.902481699357063"><ele>97.0</ele><time>2026-05-03T09:14:07Z</time></trkpt><trkpt lat="45.22541167387993" lon="8.902367666271907"><ele>97.0</ele><time>2026-05-03T09:14:08Z</time></trkpt><trkpt lat="45.22542049212218" lon="8.90223451381519"><ele>97.0</ele><time>2026-05-03T09:14:09Z</time></trkpt><trkpt lat="45.225429403298655" lon="8.902088625652917"><ele>97.0</ele><time>2026-05-03T09:14:10Z</time></trkpt><trkpt lat="45.22543845385165" lon="8.901940878606913"><ele>97.0</ele><time>2026-05-03T09:14:11Z</time></trkpt><trkpt lat="45.225447679710896" lon="8.901819884375346"><ele>97.0</ele><time>2026-05-03T09:14:12Z</time></trkpt><trkpt lat="45.22545398244176" lon="8.901693771616307"><ele>97.0</ele><time>2026-05-03T09:14:13Z</time></trkpt><trkpt lat="45.22546046118051" lon="8.901566093914754"><ele>97.0</ele><time>2026-05-03T09:14:14Z</time></trkpt><trkpt lat="45.22546997960933" lon="8.90141793852023"><ele>97.0</ele><time>2026-05-03T09:14:15Z</time></trkpt><trkpt lat="45.22547974441021" lon="8.901271620181493"><ele>97.0</ele><time>2026-05-03T09:14:16Z</time></trkpt><trkpt lat="45.225487483728834" lon="8.901145761808785"><ele>97.0</ele><time>2026-05-03T09:14:17Z</time></trkpt><trkpt lat="45.2254941728805" lon="8.901036790651837"><ele>96.6</ele><time>2026-05-03T09:14:18Z</time></trkpt><trkpt lat="45.22550592157268" lon="8.900846058098049"><ele>96.19999999999999</ele><time>2026-05-03T09:14:20Z</time></trkpt><trkpt lat="45.22551353607635" lon="8.900723549181118"><ele>95.8</ele><time>2026-05-03T09:14:21Z</time></trkpt><trkpt lat="45.22552506413346" lon="8.900574400981395"><ele>95.4</ele><time>2026-05-03T09:14:22Z</time></trkpt><trkpt lat="45.22553334118161" lon="8.900421848334478"><ele>95.0</ele><time>2026-05-03T09:14:23Z</time></trkpt><trkpt lat="45.225542154527524" lon="8.900266589003687"><ele>95.0</ele><time>2026-05-03T09:14:24Z</time></trkpt><trkpt lat="45.22555165434696" lon="8.900137463846239"><ele>95.0</ele><time>2026-05-03T09:14:25Z</time></trkpt><trkpt lat="45.22556243379894" lon="8.900003363877932"><ele>95.0</ele><time>2026-05-03T09:14:26Z</time></trkpt><trkpt lat="45.22557092067882" lon="8.899851286059713"><ele>95.0</ele><time>2026-05-03T09:14:27Z</time></trkpt><trkpt lat="45.22557244744766" lon="8.899693247346253"><ele>95.0</ele><time>2026-05-03T09:14:28Z</time></trkpt><trkpt lat="45.225568650339476" lon="8.899521913283575"><ele>95.0</ele><time>2026-05-03T09:14:29Z</time></trkpt><trkpt lat="45.22556192556081" lon="8.899368530346267"><ele>95.0</ele><time>2026-05-03T09:14:30Z</time></trkpt><trkpt lat="45.22555980520202" lon="8.899211139463343"><ele>95.0</ele><time>2026-05-03T09:14:31Z</time></trkpt><trkpt lat="45.22555051683418" lon="8.899057234734535"><ele>95.0</ele><time>2026-05-03T09:14:32Z</time></trkpt><trkpt lat="45.225537111744615" lon="8.898885279682519"><ele>95.2</ele><time>2026-05-03T09:14:33Z</time></trkpt><trkpt lat="45.22552487924435" lon="8.89870247676472"><ele>95.4</ele><time>2026-05-03T09:14:34Z</time></trkpt><trkpt lat="45.22551317389917" lon="8.898551891921798"><ele>95.6</ele><time>2026-05-03T09:14:35Z</time></trkpt><trkpt lat="45.225502646944435" lon="8.898407834422915"><ele>95.8</ele><time>2026-05-03T09:14:36Z</time></trkpt><trkpt lat="45.225493952896144" lon="8.898255446159942"><ele>96.0</ele><time>2026-05-03T09:14:37Z</time></trkpt><trkpt lat="45.22548190894735" lon="8.898108989347946"><ele>96.0</ele><time>2026-05-03T09:14:38Z</time></trkpt><trkpt lat="45.225470132593486" lon="8.897958309700863"><ele>96.0</ele><time>2026-05-03T09:14:39Z</time></trkpt><trkpt lat="45.225456333439624" lon="8.897803294772016"><ele>96.0</ele><time>2026-05-03T09:14:40Z</time></trkpt><trkpt lat="45.22544706553919" lon="8.897656084700955"><ele>96.0</ele><time>2026-05-03T09:14:41Z</time></trkpt><trkpt lat="45.22543802923323" lon="8.897541874501268"><ele>96.0</ele><time>2026-05-03T09:14:42Z</time></trkpt><trkpt lat="45.225430601491915" lon="8.897443238046279"><ele>96.0</ele><time>2026-05-03T09:14:43Z</time></trkpt><trkpt lat="45.225425276586094" lon="8.897278860310973"><ele>96.0</ele><time>2026-05-03T09:14:45Z</time></trkpt><trkpt lat="45.22542030580841" lon="8.897174812363257"><ele>96.0</ele><time>2026-05-03T09:14:47Z</time></trkpt><trkpt lat="45.22540229176318" lon="8.897054523352994"><ele>96.0</ele><time>2026-05-03T09:14:50Z</time></trkpt><trkpt lat="45.22534039914729" lon="8.896900443492827"><ele>96.0</ele><time>2026-05-03T09:14:52Z</time></trkpt><trkpt lat="45.225356283429974" lon="8.89674939829586"><ele>96.0</ele><time>2026-05-03T09:14:53Z</time></trkpt><trkpt lat="45.225336842407" lon="8.896615815616391"><ele>96.0</ele><time>2026-05-03T09:14:54Z</time></trkpt><trkpt lat="45.225316572465644" lon="8.896473708009095"><ele>96.0</ele><time>2026-05-03T09:14:55Z</time></trkpt><trkpt lat="45.22529740654509" lon="8.896319912158908"><ele>96.0</ele><time>2026-05-03T09:14:56Z</time></trkpt><trkpt lat="45.22528048492617" lon="8.896186988411882"><ele>96.0</ele><time>2026-05-03T09:14:57Z</time></trkpt><trkpt lat="45.225266734492685" lon="8.896068473273617"><ele>96.0</ele><time>2026-05-03T09:14:58Z</time></trkpt><trkpt lat="45.22525066209874" lon="8.895938626910254"><ele>96.0</ele><time>2026-05-03T09:14:59Z</time></trkpt><trkpt lat="45.22523763834525" lon="8.89579923053223"><ele>96.0</ele><time>2026-05-03T09:15:00Z</time></trkpt><trkpt lat="45.22522274597237" lon="8.895680300663999"><ele>96.0</ele><time>2026-05-03T09:15:01Z</time></trkpt><trkpt lat="45.22520531791626" lon="8.89552607407641"><ele>96.0</ele><time>2026-05-03T09:15:02Z</time></trkpt><trkpt lat="45.22518939039297" lon="8.895399763763846"><ele>96.0</ele><time>2026-05-03T09:15:03Z</time></trkpt><trkpt lat="45.22517094938468" lon="8.89523797827803"><ele>96.0</ele><time>2026-05-03T09:15:04Z</time></trkpt><trkpt lat="45.22516228731286" lon="8.895105349717827"><ele>96.0</ele><time>2026-05-03T09:15:05Z</time></trkpt><trkpt lat="45.225151900005045" lon="8.89499616741795"><ele>96.0</ele><time>2026-05-03T09:15:06Z</time></trkpt><trkpt lat="45.22513786725804" lon="8.894878630891473"><ele>96.0</ele><time>2026-05-03T09:15:07Z</time></trkpt><trkpt lat="45.22512325328383" lon="8.894753315846373"><ele>96.0</ele><time>2026-05-03T09:15:08Z</time></trkpt><trkpt lat="45.22511055721817" lon="8.894612033091141"><ele>96.0</ele><time>2026-05-03T09:15:09Z</time></trkpt><trkpt lat="45.22509569056757" lon="8.894467061569598"><ele>96.0</ele><time>2026-05-03T09:15:10Z</time></trkpt><trkpt lat="45.22508340274032" lon="8.894340746649632"><ele>96.0</ele><time>2026-05-03T09:15:11Z</time></trkpt><trkpt lat="45.22506857947763" lon="8.894213099316056"><ele>96.0</ele><time>2026-05-03T09:15:12Z</time></trkpt><trkpt lat="45.225057528081486" lon="8.894102462776038"><ele>96.0</ele><time>2026-05-03T09:15:13Z</time></trkpt><trkpt lat="45.22504410207007" lon="8.893985784963581"><ele>96.0</ele><time>2026-05-03T09:15:14Z</time></trkpt><trkpt lat="45.22503518497402" lon="8.8938708983216"><ele>96.0</ele><time>2026-05-03T09:15:15Z</time></trkpt><trkpt lat="45.22502372612418" lon="8.893755211941102"><ele>96.0</ele><time>2026-05-03T09:15:16Z</time></trkpt><trkpt lat="45.225016289524625" lon="8.89364898635707"><ele>96.0</ele><time>2026-05-03T09:15:17Z</time></trkpt><trkpt lat="45.22500486923554" lon="8.893535038911738"><ele>96.0</ele><time>2026-05-03T09:15:18Z</time></trkpt><trkpt lat="45.224990163295644" lon="8.893401864015967"><ele>95.83333333333333</ele><time>2026-05-03T09:15:19Z</time></trkpt><trkpt lat="45.224981609313254" lon="8.893288625108328"><ele>95.66666666666667</ele><time>2026-05-03T09:15:20Z</time></trkpt><trkpt lat="45.22497107755958" lon="8.893181545223085"><ele>95.5</ele><time>2026-05-03T09:15:21Z</time></trkpt><trkpt lat="45.22496313773671" lon="8.893073790515333"><ele>95.33333333333334</ele><time>2026-05-03T09:15:22Z</time></trkpt><trkpt lat="45.22495924688179" lon="8.892967900228415"><ele>95.16666666666667</ele><time>2026-05-03T09:15:23Z</time></trkpt><trkpt lat="45.22495044659307" lon="8.892869909208013"><ele>95.0</ele><time>2026-05-03T09:15:24Z</time></trkpt><trkpt lat="45.22491539551696" lon="8.892712255849982"><ele>95.16666666666667</ele><time>2026-05-03T09:15:26Z</time></trkpt><trkpt lat="45.224890001529396" lon="8.892557308535238"><ele>95.33333333333334</ele><time>2026-05-03T09:15:28Z</time></trkpt><trkpt lat="45.2248996197724" lon="8.892459949218095"><ele>95.5</ele><time>2026-05-03T09:15:29Z</time></trkpt><trkpt lat="45.224931315717214" lon="8.892372440932933"><ele>95.66666666666667</ele><time>2026-05-03T09:15:30Z</time></trkpt><trkpt lat="45.224981383341515" lon="8.892270779073684"><ele>95.83333333333333</ele><time>2026-05-03T09:15:31Z</time></trkpt><trkpt lat="45.22505300716386" lon="8.892159400317484"><ele>96.0</ele><time>2026-05-03T09:15:32Z</time></trkpt><trkpt lat="45.22511624909825" lon="8.89205845864571"><ele>96.0</ele><time>2026-05-03T09:15:33Z</time></trkpt><trkpt lat="45.2251667166222" lon="8.891980932890112"><ele>96.0</ele><time>2026-05-03T09:15:34Z</time></trkpt><trkpt lat="45.22522756030117" lon="8.891889708655063"><ele>96.0</ele><time>2026-05-03T09:15:35Z</time></trkpt><trkpt lat="45.22528655944149" lon="8.891791081636013"><ele>96.0</ele><time>2026-05-03T09:15:36Z</time></trkpt><trkpt lat="45.22535852366556" lon="8.891683091624305"><ele>96.0</ele><time>2026-05-03T09:15:37Z</time></trkpt><trkpt lat="45.22541867243852" lon="8.89159132663495"><ele>96.0</ele><time>2026-05-03T09:15:38Z</time></trkpt><trkpt lat="45.22550010087603" lon="8.891458186353848"><ele>96.0</ele><time>2026-05-03T09:15:40Z</time></trkpt><trkpt lat="45.22555158015414" lon="8.891382176875503"><ele>96.0</ele><time>2026-05-03T09:15:41Z</time></trkpt><trkpt lat="45.2255980221419" lon="8.89130734563577"><ele>96.0</ele><time>2026-05-03T09:15:42Z</time></trkpt><trkpt lat="45.2256522536997" lon="8.891222412415047"><ele>96.0</ele><time>2026-05-03T09:15:43Z</time></trkpt><trkpt lat="45.22569827164287" lon="8.891160907193537"><ele>96.0</ele><time>2026-05-03T09:15:44Z</time></trkpt><trkpt lat="45.22574269939833" lon="8.891063865136884"><ele>96.0</ele><time>2026-05-03T09:15:46Z</time></trkpt><trkpt lat="45.22571146526557" lon="8.890949251367484"><ele>95.66666666666667</ele><time>2026-05-03T09:15:48Z</time></trkpt><trkpt lat="45.225660442931265" lon="8.890878401597092"><ele>95.33333333333333</ele><time>2026-05-03T09:15:49Z</time></trkpt><trkpt lat="45.22558284769861" lon="8.890789246029874"><ele>95.0</ele><time>2026-05-03T09:15:50Z</time></trkpt><trkpt lat="45.22551279778839" lon="8.89072073441757"><ele>94.66666666666666</ele><time>2026-05-03T09:15:51Z</time></trkpt><trkpt lat="45.22543274594823" lon="8.890641669904838"><ele>94.33333333333333</ele><time>2026-05-03T09:15:52Z</time></trkpt><trkpt lat="45.22536310454007" lon="8.89056510326522"><ele>94.0</ele><time>2026-05-03T09:15:53Z</time></trkpt><trkpt lat="45.22529506671663" lon="8.890483882559169"><ele>94.0</ele><time>2026-05-03T09:15:54Z</time></trkpt><trkpt lat="45.22523034784306" lon="8.890401858846575"><ele>94.0</ele><time>2026-05-03T09:15:55Z</time></trkpt><trkpt lat="45.22517359253288" lon="8.890327607840595"><ele>94.0</ele><time>2026-05-03T09:15:56Z</time></trkpt><trkpt lat="45.22511414693223" lon="8.890258436113466"><ele>94.0</ele><time>2026-05-03T09:15:57Z</time></trkpt><trkpt lat="45.22506226922887" lon="8.89020629236915"><ele>94.0</ele><time>2026-05-03T09:15:58Z</time></trkpt><trkpt lat="45.22500750236399" lon="8.89014885008818"><ele>94.0</ele><time>2026-05-03T09:15:59Z</time></trkpt><trkpt lat="45.2249564775081" lon="8.89008982438118"><ele>94.0</ele><time>2026-05-03T09:16:00Z</time></trkpt><trkpt lat="45.22490698186743" lon="8.889990418361009"><ele>94.0</ele><time>2026-05-03T09:16:02Z</time></trkpt><trkpt lat="45.224831775623144" lon="8.88999240131203"><ele>94.0</ele><time>2026-05-03T09:16:14Z</time></trkpt><trkpt lat="45.22475713621318" lon="8.890085268507535"><ele>94.0</ele><time>2026-05-03T09:16:17Z</time></trkpt><trkpt lat="45.224659899590534" lon="8.890184233032242"><ele>94.0</ele><time>2026-05-03T09:16:19Z</time></trkpt><trkpt lat="45.224570384580495" lon="8.890266307358006"><ele>94.0</ele><time>2026-05-03T09:16:21Z</time></trkpt><trkpt lat="45.2244916218448" lon="8.890345144211574"><ele>94.0</ele><time>2026-05-03T09:16:23Z</time></trkpt><trkpt lat="45.22441209170936" lon="8.890422865756722"><ele>94.0</ele><time>2026-05-03T09:16:25Z</time></trkpt><trkpt lat="45.2243450874502" lon="8.890491320785767"><ele>94.0</ele><time>2026-05-03T09:16:27Z</time></trkpt><trkpt lat="45.224251402834916" lon="8.890579249489093"><ele>94.0</ele><time>2026-05-03T09:16:29Z</time></trkpt><trkpt lat="45.22414670655444" lon="8.890680499649598"><ele>94.0</ele><time>2026-05-03T09:16:31Z</time></trkpt><trkpt lat="45.22404488889361" lon="8.890785418854982"><ele>94.2</ele><time>2026-05-03T09:16:33Z</time></trkpt><trkpt lat="45.22394437514781" lon="8.89088354999205"><ele>94.4</ele><time>2026-05-03T09:16:35Z</time></trkpt><trkpt lat="45.223862787087" lon="8.890970558898921"><ele>94.6</ele><time>2026-05-03T09:16:37Z</time></trkpt><trkpt lat="45.223785183323635" lon="8.891036483844719"><ele>94.8</ele><time>2026-05-03T09:16:39Z</time></trkpt><trkpt lat="45.22371487395843" lon="8.891122597918212"><ele>95.0</ele><time>2026-05-03T09:16:41Z</time></trkpt><trkpt lat="45.22361950438645" lon="8.891205402921068"><ele>95.0</ele><time>2026-05-03T09:16:43Z</time></trkpt><trkpt lat="45.2235246165845" lon="8.89130947957357"><ele>95.0</ele><time>2026-05-03T09:16:45Z</time></trkpt><trkpt lat="45.223420575782136" lon="8.891412134998788"><ele>95.0</ele><time>2026-05-03T09:16:47Z</time></trkpt><trkpt lat="45.22332081808651" lon="8.891500659461652"><ele>95.0</ele><time>2026-05-03T09:16:49Z</time></trkpt><trkpt lat="45.223259928308465" lon="8.891553550309695"><ele>95.0</ele><time>2026-05-03T09:16:50Z</time></trkpt><trkpt lat="45.22315208091219" lon="8.891635598802132"><ele>95.4</ele><time>2026-05-03T09:16:52Z</time></trkpt><trkpt lat="45.223030994989806" lon="8.891696023603522"><ele>95.8</ele><time>2026-05-03T09:16:54Z</time></trkpt><trkpt lat="45.22297040953803" lon="8.891720397045223"><ele>96.19999999999999</ele><time>2026-05-03T09:16:55Z</time></trkpt><trkpt lat="45.22290173724198" lon="8.89173847307612"><ele>96.6</ele><time>2026-05-03T09:16:56Z</time></trkpt><trkpt lat="45.22282413874692" lon="8.891752421844336"><ele>97.0</ele><time>2026-05-03T09:16:57Z</time></trkpt><trkpt lat="45.22269832693372" lon="8.891753643648741"><ele>97.0</ele><time>2026-05-03T09:16:59Z</time></trkpt><trkpt lat="45.2226342502442" lon="8.891747505144881"><ele>97.0</ele><time>2026-05-03T09:17:00Z</time></trkpt><trkpt lat="45.222561529662016" lon="8.89174190383247"><ele>97.0</ele><time>2026-05-03T09:17:01Z</time></trkpt><trkpt lat="45.22248483444591" lon="8.891738228066675"><ele>97.0</ele><time>2026-05-03T09:17:02Z</time></trkpt><trkpt lat="45.22240947448797" lon="8.891737302068828"><ele>97.0</ele><time>2026-05-03T09:17:03Z</time></trkpt><trkpt lat="45.22233058744915" lon="8.891735483350429"><ele>97.0</ele><time>2026-05-03T09:17:04Z</time></trkpt><trkpt lat="45.22225774256983" lon="8.89173267007639"><ele>97.0</ele><time>2026-05-03T09:17:05Z</time></trkpt><trkpt lat="45.22218734414989" lon="8.891730079911586"><ele>96.85714285714285</ele><time>2026-05-03T09:17:06Z</time></trkpt><trkpt lat="45.2221179713236" lon="8.89172371836311"><ele>96.71428571428572</ele><time>2026-05-03T09:17:07Z</time></trkpt><trkpt lat="45.22203991156055" lon="8.891723256938528"><ele>96.57142857142857</ele><time>2026-05-03T09:17:08Z</time></trkpt><trkpt lat="45.2219721326114" lon="8.891720376831097"><ele>96.42857142857142</ele><time>2026-05-03T09:17:09Z</time></trkpt><trkpt lat="45.22189934389726" lon="8.891716333204768"><ele>96.28571428571428</ele><time>2026-05-03T09:17:10Z</time></trkpt><trkpt lat="45.22183285428673" lon="8.891715410813035"><ele>96.14285714285714</ele><time>2026-05-03T09:17:11Z</time></trkpt><trkpt lat="45.22175496291482" lon="8.891714002703885"><ele>96.0</ele><time>2026-05-03T09:17:12Z</time></trkpt><trkpt lat="45.22168077957514" lon="8.891712121588768"><ele>96.0</ele><time>2026-05-03T09:17:13Z</time></trkpt><trkpt lat="45.22161198658097" lon="8.891708956627491"><ele>96.0</ele><time>2026-05-03T09:17:14Z</time></trkpt><trkpt lat="45.22153758442219" lon="8.89170601136299"><ele>96.0</ele><time>2026-05-03T09:17:15Z</time></trkpt><trkpt lat="45.2214661910266" lon="8.891703380150838"><ele>96.0</ele><time>2026-05-03T09:17:16Z</time></trkpt><trkpt lat="45.221389792128" lon="8.891699420105796"><ele>96.0</ele><time>2026-05-03T09:17:17Z</time></trkpt><trkpt lat="45.221311866474366" lon="8.891696623821867"><ele>96.0</ele><time>2026-05-03T09:17:18Z</time></trkpt><trkpt lat="45.2212282465523" lon="8.891693809843566"><ele>95.83333333333333</ele><time>2026-05-03T09:17:19Z</time></trkpt><trkpt lat="45.221147431266985" lon="8.891689323661044"><ele>95.66666666666667</ele><time>2026-05-03T09:17:20Z</time></trkpt><trkpt lat="45.22106706810792" lon="8.891684765210918"><ele>95.5</ele><time>2026-05-03T09:17:21Z</time></trkpt><trkpt lat="45.2209783273689" lon="8.891684244654131"><ele>95.33333333333334</ele><time>2026-05-03T09:17:22Z</time></trkpt><trkpt lat="45.22089396886733" lon="8.891680588417945"><ele>95.16666666666667</ele><time>2026-05-03T09:17:23Z</time></trkpt><trkpt lat="45.22081526849739" lon="8.891679676810238"><ele>95.0</ele><time>2026-05-03T09:17:24Z</time></trkpt><trkpt lat="45.22074534681713" lon="8.891676739238735"><ele>95.4</ele><time>2026-05-03T09:17:25Z</time></trkpt><trkpt lat="45.22060386365277" lon="8.891672451634342"><ele>95.8</ele><time>2026-05-03T09:17:27Z</time></trkpt><trkpt lat="45.22052197624059" lon="8.891668338902946"><ele>96.19999999999999</ele><time>2026-05-03T09:17:28Z</time></trkpt><trkpt lat="45.22044417381023" lon="8.891663681083504"><ele>96.6</ele><time>2026-05-03T09:17:29Z</time></trkpt><trkpt lat="45.22036666572076" lon="8.891662030006355"><ele>97.0</ele><time>2026-05-03T09:17:30Z</time></trkpt><trkpt lat="45.22027714196706" lon="8.89165592756664"><ele>97.00000000000001</ele><time>2026-05-03T09:17:31Z</time></trkpt><trkpt lat="45.22020171772577" lon="8.891654044461987"><ele>97.0</ele><time>2026-05-03T09:17:32Z</time></trkpt><trkpt lat="45.22012414381274" lon="8.891653816882798"><ele>97.0</ele><time>2026-05-03T09:17:33Z</time></trkpt><trkpt lat="45.220038715894916" lon="8.89165053410043"><ele>97.0</ele><time>2026-05-03T09:17:34Z</time></trkpt><trkpt lat="45.21995452683596" lon="8.891646535524433"><ele>97.00000000000001</ele><time>2026-05-03T09:17:35Z</time></trkpt><trkpt lat="45.21987077307715" lon="8.89164401491799"><ele>97.0</ele><time>2026-05-03T09:17:36Z</time></trkpt><trkpt lat="45.219788276852725" lon="8.891635159844082"><ele>96.85714285714285</ele><time>2026-05-03T09:17:37Z</time></trkpt><trkpt lat="45.21971475771065" lon="8.891636699129426"><ele>96.71428571428572</ele><time>2026-05-03T09:17:38Z</time></trkpt><trkpt lat="45.219643110204764" lon="8.89163851110379"><ele>96.57142857142857</ele><time>2026-05-03T09:17:39Z</time></trkpt><trkpt lat="45.2195806374171" lon="8.891615188609013"><ele>96.42857142857142</ele><time>2026-05-03T09:17:40Z</time></trkpt><trkpt lat="45.219508697604326" lon="8.891607594500558"><ele>96.28571428571428</ele><time>2026-05-03T09:17:41Z</time></trkpt><trkpt lat="45.21943031039107" lon="8.89161204958974"><ele>96.14285714285714</ele><time>2026-05-03T09:17:42Z</time></trkpt><trkpt lat="45.21935546247391" lon="8.891610700108572"><ele>96.0</ele><time>2026-05-03T09:17:43Z</time></trkpt><trkpt lat="45.21928332003166" lon="8.89160628399782"><ele>95.99999999999999</ele><time>2026-05-03T09:17:44Z</time></trkpt><trkpt lat="45.219212709584426" lon="8.891603051694425"><ele>96.0</ele><time>2026-05-03T09:17:45Z</time></trkpt><trkpt lat="45.219143714961085" lon="8.891612915009189"><ele>96.0</ele><time>2026-05-03T09:17:46Z</time></trkpt><trkpt lat="45.21907413981955" lon="8.89162612455648"><ele>96.0</ele><time>2026-05-03T09:17:47Z</time></trkpt><trkpt lat="45.21900605244254" lon="8.891650856504295"><ele>96.0</ele><time>2026-05-03T09:17:48Z</time></trkpt><trkpt lat="45.218936228088694" lon="8.891681524174535"><ele>95.99999999999999</ele><time>2026-05-03T09:17:49Z</time></trkpt><trkpt lat="45.218861591050306" lon="8.891710119575496"><ele>96.0</ele><time>2026-05-03T09:17:50Z</time></trkpt><trkpt lat="45.21878553980608" lon="8.891736375278937"><ele>96.16666666666667</ele><time>2026-05-03T09:17:51Z</time></trkpt><trkpt lat="45.218708734960515" lon="8.891766065806461"><ele>96.33333333333334</ele><time>2026-05-03T09:17:52Z</time></trkpt><trkpt lat="45.21863516988632" lon="8.891793830273905"><ele>96.5</ele><time>2026-05-03T09:17:53Z</time></trkpt><trkpt lat="45.21855587586814" lon="8.8918291620839"><ele>96.66666666666667</ele><time>2026-05-03T09:17:54Z</time></trkpt><trkpt lat="45.21847431637185" lon="8.891855555422705"><ele>96.83333333333334</ele><time>2026-05-03T09:17:55Z</time></trkpt><trkpt lat="45.218392502239425" lon="8.89187794775795"><ele>97.0</ele><time>2026-05-03T09:17:56Z</time></trkpt><trkpt lat="45.21830222465884" lon="8.891920263304435"><ele>97.00000000000001</ele><time>2026-05-03T09:17:57Z</time></trkpt><trkpt lat="45.2182292005817" lon="8.891933211754834"><ele>97.0</ele><time>2026-05-03T09:17:58Z</time></trkpt><trkpt lat="45.21816372600724" lon="8.891967057409248"><ele>97.0</ele><time>2026-05-03T09:17:59Z</time></trkpt><trkpt lat="45.21809037681724" lon="8.891997934322308"><ele>97.0</ele><time>2026-05-03T09:18:00Z</time></trkpt><trkpt lat="45.21801988983004" lon="8.892017436749686"><ele>97.00000000000001</ele><time>2026-05-03T09:18:01Z</time></trkpt><trkpt lat="45.21794611513022" lon="8.892046523842295"><ele>97.0</ele><time>2026-05-03T09:18:02Z</time></trkpt><trkpt lat="45.217836768607306" lon="8.892083968416427"><ele>97.00000000000001</ele><time>2026-05-03T09:18:04Z</time></trkpt><trkpt lat="45.21778185743829" lon="8.892028851303014"><ele>97.0</ele><time>2026-05-03T09:18:08Z</time></trkpt><trkpt lat="45.2177578833708" lon="8.891944145763256"><ele>97.0</ele><time>2026-05-03T09:18:09Z</time></trkpt><trkpt lat="45.21776383483134" lon="8.891815428958445"><ele>97.0</ele><time>2026-05-03T09:18:10Z</time></trkpt><trkpt lat="45.21773881088681" lon="8.891692878281757"><ele>97.00000000000001</ele><time>2026-05-03T09:18:11Z</time></trkpt><trkpt lat="45.21771187645983" lon="8.891564668230195"><ele>97.0</ele><time>2026-05-03T09:18:12Z</time></trkpt><trkpt lat="45.217687110000284" lon="8.891446777889465"><ele>97.33333333333334</ele><time>2026-05-03T09:18:13Z</time></trkpt><trkpt lat="45.21766077223427" lon="8.89132140799466"><ele>97.66666666666667</ele><time>2026-05-03T09:18:14Z</time></trkpt><trkpt lat="45.217621848780006" lon="8.891217664311357"><ele>98.0</ele><time>2026-05-03T09:18:15Z</time></trkpt><trkpt lat="45.21761298842257" lon="8.891089836638113"><ele>98.33333333333334</ele><time>2026-05-03T09:18:16Z</time></trkpt><trkpt lat="45.21759276043772" lon="8.890992141504885"><ele>98.66666666666667</ele><time>2026-05-03T09:18:17Z</time></trkpt><trkpt lat="45.21757061500142" lon="8.890892751582573"><ele>99.0</ele><time>2026-05-03T09:18:18Z</time></trkpt><trkpt lat="45.21754505979144" lon="8.890793346848811"><ele>99.33333333333333</ele><time>2026-05-03T09:18:19Z</time></trkpt><trkpt lat="45.21752262831354" lon="8.890708415112657"><ele>99.66666666666666</ele><time>2026-05-03T09:18:20Z</time></trkpt><trkpt lat="45.21749431259946" lon="8.890610876833222"><ele>100.0</ele><time>2026-05-03T09:18:21Z</time></trkpt><trkpt lat="45.21746027992052" lon="8.890511119539829"><ele>100.33333333333333</ele><time>2026-05-03T09:18:22Z</time></trkpt><trkpt lat="45.21741587986144" lon="8.890416479737937"><ele>100.66666666666666</ele><time>2026-05-03T09:18:23Z</time></trkpt><trkpt lat="45.217370549223205" lon="8.890335708056346"><ele>101.0</ele><time>2026-05-03T09:18:24Z</time></trkpt><trkpt lat="45.21731211754186" lon="8.890246159632548"><ele>101.16666666666666</ele><time>2026-05-03T09:18:25Z</time></trkpt><trkpt lat="45.21725261077605" lon="8.890160715921198"><ele>101.33333333333333</ele><time>2026-05-03T09:18:26Z</time></trkpt><trkpt lat="45.21719323172811" lon="8.890082709162558"><ele>101.5</ele><time>2026-05-03T09:18:27Z</time></trkpt><trkpt lat="45.21712680248184" lon="8.889994496411765"><ele>101.66666666666666</ele><time>2026-05-03T09:18:28Z</time></trkpt><trkpt lat="45.21705345448807" lon="8.889897929700613"><ele>101.83333333333333</ele><time>2026-05-03T09:18:29Z</time></trkpt><trkpt lat="45.21699192764622" lon="8.889819490823985"><ele>102.0</ele><time>2026-05-03T09:18:30Z</time></trkpt><trkpt lat="45.21692504727402" lon="8.88976115699561"><ele>102.0</ele><time>2026-05-03T09:18:31Z</time></trkpt><trkpt lat="45.216857023710254" lon="8.889660989886401"><ele>102.0</ele><time>2026-05-03T09:18:32Z</time></trkpt><trkpt lat="45.21678816467878" lon="8.889564940154369"><ele>102.0</ele><time>2026-05-03T09:18:33Z</time></trkpt><trkpt lat="45.21671596401472" lon="8.889466555749957"><ele>102.0</ele><time>2026-05-03T09:18:34Z</time></trkpt><trkpt lat="45.21665570824281" lon="8.889390443059503"><ele>102.0</ele><time>2026-05-03T09:18:35Z</time></trkpt><trkpt lat="45.21659148270109" lon="8.889306363508782"><ele>102.0</ele><time>2026-05-03T09:18:36Z</time></trkpt><trkpt lat="45.216534982933744" lon="8.889231167361922"><ele>102.0</ele><time>2026-05-03T09:18:37Z</time></trkpt><trkpt lat="45.21643355446492" lon="8.889145906895452"><ele>102.0</ele><time>2026-05-03T09:18:38Z</time></trkpt><trkpt lat="45.216340252442265" lon="8.889048524737097"><ele>102.0</ele><time>2026-05-03T09:18:39Z</time></trkpt><trkpt lat="45.21626180979993" lon="8.888964916169437"><ele>102.0</ele><time>2026-05-03T09:18:40Z</time></trkpt><trkpt lat="45.21620291503684" lon="8.888873230945743"><ele>102.33333333333333</ele><time>2026-05-03T09:18:41Z</time></trkpt><trkpt lat="45.216136308534345" lon="8.888832504336472"><ele>102.66666666666666</ele><time>2026-05-03T09:18:42Z</time></trkpt><trkpt lat="45.216066220945514" lon="8.888762327806097"><ele>103.0</ele><time>2026-05-03T09:18:43Z</time></trkpt><trkpt lat="45.21598992577834" lon="8.888673126622095"><ele>103.33333333333333</ele><time>2026-05-03T09:18:44Z</time></trkpt><trkpt lat="45.21591689779454" lon="8.888611599886428"><ele>103.66666666666666</ele><time>2026-05-03T09:18:45Z</time></trkpt><trkpt lat="45.215836549259244" lon="8.88852331758902"><ele>104.0</ele><time>2026-05-03T09:18:46Z</time></trkpt><trkpt lat="45.21575291626031" lon="8.888440711298822"><ele>103.2</ele><time>2026-05-03T09:18:47Z</time></trkpt><trkpt lat="45.21566910598591" lon="8.888336844718104"><ele>102.4</ele><time>2026-05-03T09:18:48Z</time></trkpt><trkpt lat="45.215596866214156" lon="8.888238980115872"><ele>101.6</ele><time>2026-05-03T09:18:49Z</time></trkpt><trkpt lat="45.21552909932063" lon="8.888137823947313"><ele>100.8</ele><time>2026-05-03T09:18:50Z</time></trkpt><trkpt lat="45.21546208659097" lon="8.888032202411203"><ele>100.0</ele><time>2026-05-03T09:18:51Z</time></trkpt><trkpt lat="45.21539591627651" lon="8.88791476854662"><ele>99.6</ele><time>2026-05-03T09:18:52Z</time></trkpt><trkpt lat="45.21533690200688" lon="8.887793849411764"><ele>99.2</ele><time>2026-05-03T09:18:53Z</time></trkpt><trkpt lat="45.21528232641599" lon="8.887689645579435"><ele>98.80000000000001</ele><time>2026-05-03T09:18:54Z</time></trkpt><trkpt lat="45.21522914157813" lon="8.8875807010865"><ele>98.4</ele><time>2026-05-03T09:18:55Z</time></trkpt><trkpt lat="45.215172673825435" lon="8.887474668990466"><ele>98.0</ele><time>2026-05-03T09:18:56Z</time></trkpt><trkpt lat="45.215114624716776" lon="8.88737549557328"><ele>98.0</ele><time>2026-05-03T09:18:57Z</time></trkpt><trkpt lat="45.21505873693469" lon="8.887282242092315"><ele>98.0</ele><time>2026-05-03T09:18:58Z</time></trkpt><trkpt lat="45.21499123744122" lon="8.887187566773635"><ele>98.0</ele><time>2026-05-03T09:18:59Z</time></trkpt><trkpt lat="45.21491828950552" lon="8.887102352328773"><ele>98.0</ele><time>2026-05-03T09:19:00Z</time></trkpt><trkpt lat="45.214855116944754" lon="8.887043214176936"><ele>98.0</ele><time>2026-05-03T09:19:01Z</time></trkpt><trkpt lat="45.21475373139072" lon="8.886953618862746"><ele>97.5</ele><time>2026-05-03T09:19:03Z</time></trkpt><trkpt lat="45.21467171630594" lon="8.886823094610083"><ele>97.0</ele><time>2026-05-03T09:19:05Z</time></trkpt><trkpt lat="45.214655418611336" lon="8.886686487165676"><ele>96.5</ele><time>2026-05-03T09:19:06Z</time></trkpt><trkpt lat="45.21460680782683" lon="8.8865245775246"><ele>96.0</ele><time>2026-05-03T09:19:07Z</time></trkpt><trkpt lat="45.2145546230845" lon="8.886354283508057"><ele>96.0</ele><time>2026-05-03T09:19:08Z</time></trkpt><trkpt lat="45.21448940384626" lon="8.886203842312895"><ele>96.0</ele><time>2026-05-03T09:19:09Z</time></trkpt><trkpt lat="45.214446584125504" lon="8.886059256583714"><ele>96.0</ele><time>2026-05-03T09:19:10Z</time></trkpt><trkpt lat="45.2144050188448" lon="8.885916850099917"><ele>96.0</ele><time>2026-05-03T09:19:11Z</time></trkpt><trkpt lat="45.2143664244223" lon="8.885759623365178"><ele>96.0</ele><time>2026-05-03T09:19:12Z</time></trkpt><trkpt lat="45.21431699776605" lon="8.885608375636968"><ele>96.0</ele><time>2026-05-03T09:19:13Z</time></trkpt><trkpt lat="45.21427464835568" lon="8.8854787845717"><ele>96.0</ele><time>2026-05-03T09:19:14Z</time></trkpt><trkpt lat="45.21423406305754" lon="8.885358795910388"><ele>96.0</ele><time>2026-05-03T09:19:15Z</time></trkpt><trkpt lat="45.21419457940399" lon="8.885240608331399"><ele>96.0</ele><time>2026-05-03T09:19:16Z</time></trkpt><trkpt lat="45.21413588788609" lon="8.8851173963291"><ele>95.8</ele><time>2026-05-03T09:19:17Z</time></trkpt><trkpt lat="45.21409519199989" lon="8.88497536713277"><ele>95.6</ele><time>2026-05-03T09:19:18Z</time></trkpt><trkpt lat="45.21404359191302" lon="8.884829842212428"><ele>95.4</ele><time>2026-05-03T09:19:19Z</time></trkpt><trkpt lat="45.21399686012872" lon="8.884687305810441"><ele>95.2</ele><time>2026-05-03T09:19:20Z</time></trkpt><trkpt lat="45.21394841390641" lon="8.884546311555782"><ele>95.0</ele><time>2026-05-03T09:19:21Z</time></trkpt><trkpt lat="45.213901032978185" lon="8.884408026535294"><ele>95.0</ele><time>2026-05-03T09:19:22Z</time></trkpt><trkpt lat="45.21385582170898" lon="8.884266391205896"><ele>95.0</ele><time>2026-05-03T09:19:23Z</time></trkpt><trkpt lat="45.21381560153047" lon="8.884121566982511"><ele>95.0</ele><time>2026-05-03T09:19:24Z</time></trkpt><trkpt lat="45.21376263514254" lon="8.88397844216605"><ele>95.0</ele><time>2026-05-03T09:19:25Z</time></trkpt><trkpt lat="45.21371584532834" lon="8.883836294323935"><ele>95.0</ele><time>2026-05-03T09:19:26Z</time></trkpt><trkpt lat="45.213668374190526" lon="8.883689728846136"><ele>94.8</ele><time>2026-05-03T09:19:27Z</time></trkpt><trkpt lat="45.213623697753846" lon="8.883548818963058"><ele>94.6</ele><time>2026-05-03T09:19:28Z</time></trkpt><trkpt lat="45.21357622685482" lon="8.883407822520972"><ele>94.4</ele><time>2026-05-03T09:19:29Z</time></trkpt><trkpt lat="45.21352916508606" lon="8.883264877604786"><ele>94.2</ele><time>2026-05-03T09:19:30Z</time></trkpt><trkpt lat="45.2134791865636" lon="8.883116666080943"><ele>94.0</ele><time>2026-05-03T09:19:31Z</time></trkpt><trkpt lat="45.2134324882372" lon="8.882986068872793"><ele>94.0</ele><time>2026-05-03T09:19:32Z</time></trkpt><trkpt lat="45.21338151891336" lon="8.882852368846306"><ele>94.0</ele><time>2026-05-03T09:19:33Z</time></trkpt><trkpt lat="45.21333656674518" lon="8.88271998201645"><ele>94.0</ele><time>2026-05-03T09:19:34Z</time></trkpt><trkpt lat="45.21329786512601" lon="8.882599235577098"><ele>94.0</ele><time>2026-05-03T09:19:35Z</time></trkpt><trkpt lat="45.213263395896476" lon="8.882486581439293"><ele>94.0</ele><time>2026-05-03T09:19:36Z</time></trkpt><trkpt lat="45.213200979528516" lon="8.882353254792905"><ele>94.25</ele><time>2026-05-03T09:19:38Z</time></trkpt><trkpt lat="45.213139207236544" lon="8.882227281154893"><ele>94.5</ele><time>2026-05-03T09:19:39Z</time></trkpt><trkpt lat="45.21306823798319" lon="8.882097532064433"><ele>94.75</ele><time>2026-05-03T09:19:40Z</time></trkpt><trkpt lat="45.21298982248132" lon="8.881961121097493"><ele>95.0</ele><time>2026-05-03T09:19:41Z</time></trkpt><trkpt lat="45.212912413774404" lon="8.88181625458399"><ele>94.6</ele><time>2026-05-03T09:19:42Z</time></trkpt><trkpt lat="45.21284447476022" lon="8.88169115455782"><ele>94.2</ele><time>2026-05-03T09:19:43Z</time></trkpt><trkpt lat="45.21279027481919" lon="8.88157849077429"><ele>93.80000000000001</ele><time>2026-05-03T09:19:44Z</time></trkpt><trkpt lat="45.21272869468671" lon="8.881480390686884"><ele>93.4</ele><time>2026-05-03T09:19:45Z</time></trkpt><trkpt lat="45.21267510907095" lon="8.881376491715558"><ele>93.0</ele><time>2026-05-03T09:19:46Z</time></trkpt><trkpt lat="45.2126035482527" lon="8.88126698298063"><ele>93.0</ele><time>2026-05-03T09:19:47Z</time></trkpt><trkpt lat="45.21253657754314" lon="8.881154669729874"><ele>93.0</ele><time>2026-05-03T09:19:48Z</time></trkpt><trkpt lat="45.21248733436728" lon="8.88106420046561"><ele>93.0</ele><time>2026-05-03T09:19:49Z</time></trkpt><trkpt lat="45.21242974425371" lon="8.880967847129694"><ele>93.0</ele><time>2026-05-03T09:19:50Z</time></trkpt><trkpt lat="45.21237608653266" lon="8.88086651350419"><ele>93.0</ele><time>2026-05-03T09:19:51Z</time></trkpt><trkpt lat="45.21233155070778" lon="8.88077323679288"><ele>93.0</ele><time>2026-05-03T09:19:52Z</time></trkpt><trkpt lat="45.21229396306694" lon="8.880664171576491"><ele>93.25</ele><time>2026-05-03T09:19:53Z</time></trkpt><trkpt lat="45.21225527843752" lon="8.880537136350437"><ele>93.5</ele><time>2026-05-03T09:19:54Z</time></trkpt><trkpt lat="45.21220955664232" lon="8.880364969693389"><ele>93.75</ele><time>2026-05-03T09:19:55Z</time></trkpt><trkpt lat="45.21216026214612" lon="8.880163908679474"><ele>94.0</ele><time>2026-05-03T09:19:56Z</time></trkpt><trkpt lat="45.21212099243426" lon="8.879982509411175"><ele>94.0</ele><time>2026-05-03T09:19:57Z</time></trkpt><trkpt lat="45.21208660319234" lon="8.879829335018883"><ele>94.0</ele><time>2026-05-03T09:19:58Z</time></trkpt><trkpt lat="45.21206051156854" lon="8.879701922931146"><ele>94.0</ele><time>2026-05-03T09:19:59Z</time></trkpt><trkpt lat="45.21203279463116" lon="8.87957798492317"><ele>94.0</ele><time>2026-05-03T09:20:00Z</time></trkpt><trkpt lat="45.212005738395376" lon="8.879474878896321"><ele>94.0</ele><time>2026-05-03T09:20:01Z</time></trkpt><trkpt lat="45.211978780689954" lon="8.87937850438478"><ele>94.0</ele><time>2026-05-03T09:20:02Z</time></trkpt><trkpt lat="45.21196185682787" lon="8.87928507288335"><ele>93.6</ele><time>2026-05-03T09:20:03Z</time></trkpt><trkpt lat="45.21196209109111" lon="8.87918276866238"><ele>93.2</ele><time>2026-05-03T09:20:04Z</time></trkpt><trkpt lat="45.21196474603009" lon="8.879061926432605"><ele>92.8</ele><time>2026-05-03T09:20:05Z</time></trkpt><trkpt lat="45.21185134257713" lon="8.87891083365483"><ele>92.39999999999999</ele><time>2026-05-03T09:20:06Z</time></trkpt><trkpt lat="45.211793318864885" lon="8.878768679989916"><ele>92.0</ele><time>2026-05-03T09:20:07Z</time></trkpt><trkpt lat="45.211740774531954" lon="8.878631837460999"><ele>92.0</ele><time>2026-05-03T09:20:08Z</time></trkpt><trkpt lat="45.21168436587641" lon="8.878484411056384"><ele>92.0</ele><time>2026-05-03T09:20:09Z</time></trkpt><trkpt lat="45.21161942636363" lon="8.878327342725848"><ele>92.0</ele><time>2026-05-03T09:20:10Z</time></trkpt><trkpt lat="45.211541691156995" lon="8.878170548497826"><ele>92.0</ele><time>2026-05-03T09:20:11Z</time></trkpt><trkpt lat="45.21145042211194" lon="8.87801623646306"><ele>92.33333333333334</ele><time>2026-05-03T09:20:12Z</time></trkpt><trkpt lat="45.21135265646693" lon="8.877877221665512"><ele>92.66666666666667</ele><time>2026-05-03T09:20:13Z</time></trkpt><trkpt lat="45.21123027876323" lon="8.87773367174507"><ele>93.0</ele><time>2026-05-03T09:20:14Z</time></trkpt><trkpt lat="45.211106772554245" lon="8.87760319528206"><ele>93.0</ele><time>2026-05-03T09:20:15Z</time></trkpt><trkpt lat="45.21098496833481" lon="8.877476758242807"><ele>93.0</ele><time>2026-05-03T09:20:16Z</time></trkpt><trkpt lat="45.21086707976777" lon="8.877352720751185"><ele>93.0</ele><time>2026-05-03T09:20:17Z</time></trkpt><trkpt lat="45.210755845977175" lon="8.877234606135584"><ele>93.0</ele><time>2026-05-03T09:20:18Z</time></trkpt><trkpt lat="45.210654024903256" lon="8.877124690236679"><ele>93.0</ele><time>2026-05-03T09:20:19Z</time></trkpt><trkpt lat="45.2105613008517" lon="8.877009695300126"><ele>93.0</ele><time>2026-05-03T09:20:20Z</time></trkpt><trkpt lat="45.21046060815747" lon="8.876916598880502"><ele>93.0</ele><time>2026-05-03T09:20:21Z</time></trkpt><trkpt lat="45.21037018244872" lon="8.87682312262346"><ele>93.0</ele><time>2026-05-03T09:20:22Z</time></trkpt><trkpt lat="45.21027685936101" lon="8.876720286650286"><ele>93.25</ele><time>2026-05-03T09:20:23Z</time></trkpt><trkpt lat="45.21018986453383" lon="8.87661993331553"><ele>93.5</ele><time>2026-05-03T09:20:24Z</time></trkpt><trkpt lat="45.21010181456304" lon="8.876522068480478"><ele>93.75</ele><time>2026-05-03T09:20:25Z</time></trkpt><trkpt lat="45.210008512255044" lon="8.876417443698125"><ele>94.0</ele><time>2026-05-03T09:20:26Z</time></trkpt><trkpt lat="45.20991024383442" lon="8.876317144002334"><ele>94.2</ele><time>2026-05-03T09:20:27Z</time></trkpt><trkpt lat="45.20981750203634" lon="8.876206464875157"><ele>94.4</ele><time>2026-05-03T09:20:28Z</time></trkpt><trkpt lat="45.20971619715414" lon="8.876114166434773"><ele>94.6</ele><time>2026-05-03T09:20:29Z</time></trkpt><trkpt lat="45.2096290825933" lon="8.876022121367898"><ele>94.8</ele><time>2026-05-03T09:20:30Z</time></trkpt><trkpt lat="45.20955378346829" lon="8.875934590054875"><ele>95.0</ele><time>2026-05-03T09:20:31Z</time></trkpt><trkpt lat="45.209491034064555" lon="8.875862739163926"><ele>95.0</ele><time>2026-05-03T09:20:32Z</time></trkpt><trkpt lat="45.209432936926994" lon="8.875797724112612"><ele>95.0</ele><time>2026-05-03T09:20:33Z</time></trkpt><trkpt lat="45.209383265579525" lon="8.875725059050115"><ele>95.0</ele><time>2026-05-03T09:20:35Z</time></trkpt><trkpt lat="45.2093364974175" lon="8.875632565659219"><ele>95.0</ele><time>2026-05-03T09:20:38Z</time></trkpt><trkpt lat="45.20940866207751" lon="8.875501654524436"><ele>95.0</ele><time>2026-05-03T09:20:39Z</time></trkpt><trkpt lat="45.209435771555675" lon="8.875386093930397"><ele>95.0</ele><time>2026-05-03T09:20:40Z</time></trkpt><trkpt lat="45.20947911745662" lon="8.875261240865349"><ele>95.0</ele><time>2026-05-03T09:20:41Z</time></trkpt><trkpt lat="45.20951786037381" lon="8.875133850174025"><ele>95.0</ele><time>2026-05-03T09:20:42Z</time></trkpt><trkpt lat="45.20955286976823" lon="8.875007943201489"><ele>95.0</ele><time>2026-05-03T09:20:43Z</time></trkpt><trkpt lat="45.20959668972582" lon="8.874867571799086"><ele>95.0</ele><time>2026-05-03T09:20:44Z</time></trkpt><trkpt lat="45.20964018520562" lon="8.874715902139084"><ele>95.0</ele><time>2026-05-03T09:20:45Z</time></trkpt><trkpt lat="45.20968140071211" lon="8.874583903904337"><ele>95.0</ele><time>2026-05-03T09:20:46Z</time></trkpt><trkpt lat="45.20971867142007" lon="8.874455035833465"><ele>95.0</ele><time>2026-05-03T09:20:47Z</time></trkpt><trkpt lat="45.20975850553079" lon="8.874327473875905"><ele>95.0</ele><time>2026-05-03T09:20:48Z</time></trkpt><trkpt lat="45.2098004817497" lon="8.874195829220236"><ele>95.0</ele><time>2026-05-03T09:20:49Z</time></trkpt><trkpt lat="45.209838668696506" lon="8.87406130396077"><ele>95.0</ele><time>2026-05-03T09:20:50Z</time></trkpt><trkpt lat="45.20988025168967" lon="8.873940951696648"><ele>95.16666666666667</ele><time>2026-05-03T09:20:51Z</time></trkpt><trkpt lat="45.209909589386555" lon="8.873819751684843"><ele>95.33333333333334</ele><time>2026-05-03T09:20:52Z</time></trkpt><trkpt lat="45.20993849638906" lon="8.873710083900939"><ele>95.5</ele><time>2026-05-03T09:20:53Z</time></trkpt><trkpt lat="45.209969709988286" lon="8.873603694476374"><ele>95.66666666666667</ele><time>2026-05-03T09:20:54Z</time></trkpt><trkpt lat="45.210001449363794" lon="8.873510993542734"><ele>95.83333333333333</ele><time>2026-05-03T09:20:55Z</time></trkpt><trkpt lat="45.21003096258672" lon="8.873415262962315"><ele>96.0</ele><time>2026-05-03T09:20:56Z</time></trkpt><trkpt lat="45.21006811389938" lon="8.873294122465179"><ele>96.0</ele><time>2026-05-03T09:20:57Z</time></trkpt><trkpt lat="45.210111375439304" lon="8.873163123086048"><ele>96.0</ele><time>2026-05-03T09:20:58Z</time></trkpt><trkpt lat="45.2101519705946" lon="8.873029056839869"><ele>96.0</ele><time>2026-05-03T09:20:59Z</time></trkpt><trkpt lat="45.21018787391203" lon="8.872895270447755"><ele>96.0</ele><time>2026-05-03T09:21:00Z</time></trkpt><trkpt lat="45.2102216253204" lon="8.87277965362288"><ele>96.0</ele><time>2026-05-03T09:21:01Z</time></trkpt><trkpt lat="45.21025756436878" lon="8.872661291986644"><ele>96.0</ele><time>2026-05-03T09:21:02Z</time></trkpt><trkpt lat="45.210303620174436" lon="8.872531064504463"><ele>96.0</ele><time>2026-05-03T09:21:03Z</time></trkpt><trkpt lat="45.21037361782269" lon="8.87243061604302"><ele>96.0</ele><time>2026-05-03T09:21:04Z</time></trkpt><trkpt lat="45.21044714397173" lon="8.872325618376559"><ele>96.0</ele><time>2026-05-03T09:21:05Z</time></trkpt><trkpt lat="45.210520055816055" lon="8.872204967212253"><ele>96.0</ele><time>2026-05-03T09:21:06Z</time></trkpt><trkpt lat="45.2105783560945" lon="8.872105151447835"><ele>96.0</ele><time>2026-05-03T09:21:07Z</time></trkpt><trkpt lat="45.21063532513444" lon="8.872007640472614"><ele>96.0</ele><time>2026-05-03T09:21:08Z</time></trkpt><trkpt lat="45.21069681131249" lon="8.871930402782427"><ele>96.0</ele><time>2026-05-03T09:21:09Z</time></trkpt><trkpt lat="45.210754676742994" lon="8.871844814750022"><ele>96.0</ele><time>2026-05-03T09:21:10Z</time></trkpt><trkpt lat="45.21080751615393" lon="8.871763643702613"><ele>96.0</ele><time>2026-05-03T09:21:11Z</time></trkpt><trkpt lat="45.21087574300873" lon="8.871656889521207"><ele>96.0</ele><time>2026-05-03T09:21:12Z</time></trkpt><trkpt lat="45.21095031318875" lon="8.87154871558185"><ele>95.8</ele><time>2026-05-03T09:21:13Z</time></trkpt><trkpt lat="45.21102272433752" lon="8.87143673100645"><ele>95.6</ele><time>2026-05-03T09:21:14Z</time></trkpt><trkpt lat="45.21108834246274" lon="8.871301981096472"><ele>95.4</ele><time>2026-05-03T09:21:15Z</time></trkpt><trkpt lat="45.211160521666166" lon="8.871191028585033"><ele>95.2</ele><time>2026-05-03T09:21:16Z</time></trkpt><trkpt lat="45.211198351293554" lon="8.871068104689787"><ele>95.0</ele><time>2026-05-03T09:21:17Z</time></trkpt><trkpt lat="45.21124559066045" lon="8.870932121798727"><ele>95.0</ele><time>2026-05-03T09:21:18Z</time></trkpt><trkpt lat="45.21128059546004" lon="8.870802986197658"><ele>95.0</ele><time>2026-05-03T09:21:19Z</time></trkpt><trkpt lat="45.21131815595785" lon="8.870685121368941"><ele>95.0</ele><time>2026-05-03T09:21:20Z</time></trkpt><trkpt lat="45.21135463731908" lon="8.87056522400925"><ele>95.0</ele><time>2026-05-03T09:21:21Z</time></trkpt><trkpt lat="45.21140126668693" lon="8.870441696274103"><ele>95.0</ele><time>2026-05-03T09:21:22Z</time></trkpt><trkpt lat="45.211423584852675" lon="8.870309846584375"><ele>95.0</ele><time>2026-05-03T09:21:23Z</time></trkpt><trkpt lat="45.2114694359317" lon="8.870175176279215"><ele>95.0</ele><time>2026-05-03T09:21:24Z</time></trkpt><trkpt lat="45.211517202488686" lon="8.87004105617224"><ele>95.0</ele><time>2026-05-03T09:21:25Z</time></trkpt><trkpt lat="45.21156308001354" lon="8.869916397373222"><ele>95.0</ele><time>2026-05-03T09:21:26Z</time></trkpt><trkpt lat="45.211595977590804" lon="8.869797427223327"><ele>95.0</ele><time>2026-05-03T09:21:27Z</time></trkpt><trkpt lat="45.21163389862941" lon="8.869669606442553"><ele>95.2</ele><time>2026-05-03T09:21:28Z</time></trkpt><trkpt lat="45.21167882907676" lon="8.869540973707398"><ele>95.4</ele><time>2026-05-03T09:21:29Z</time></trkpt><trkpt lat="45.211725994100966" lon="8.869405090806675"><ele>95.6</ele><time>2026-05-03T09:21:30Z</time></trkpt><trkpt lat="45.211772623082" lon="8.86927088498526"><ele>95.8</ele><time>2026-05-03T09:21:31Z</time></trkpt><trkpt lat="45.21181405306285" lon="8.869154503241711"><ele>96.0</ele><time>2026-05-03T09:21:32Z</time></trkpt><trkpt lat="45.21184053702102" lon="8.86904629013051"><ele>96.0</ele><time>2026-05-03T09:21:33Z</time></trkpt><trkpt lat="45.21188073568615" lon="8.868928072508687"><ele>96.0</ele><time>2026-05-03T09:21:34Z</time></trkpt><trkpt lat="45.211922771991084" lon="8.868800714923248"><ele>96.0</ele><time>2026-05-03T09:21:35Z</time></trkpt><trkpt lat="45.21197031893838" lon="8.868669114668798"><ele>96.0</ele><time>2026-05-03T09:21:36Z</time></trkpt><trkpt lat="45.21201687258685" lon="8.868529956196518"><ele>96.0</ele><time>2026-05-03T09:21:37Z</time></trkpt><trkpt lat="45.21206426490753" lon="8.86838787030308"><ele>96.0</ele><time>2026-05-03T09:21:38Z</time></trkpt><trkpt lat="45.212116124596434" lon="8.868238097165763"><ele>96.0</ele><time>2026-05-03T09:21:39Z</time></trkpt><trkpt lat="45.21216614556735" lon="8.868084689421046"><ele>96.0</ele><time>2026-05-03T09:21:40Z</time></trkpt><trkpt lat="45.212218386200526" lon="8.867928599013498"><ele>96.0</ele><time>2026-05-03T09:21:41Z</time></trkpt><trkpt lat="45.21227183584896" lon="8.867764676075387"><ele>95.75</ele><time>2026-05-03T09:21:42Z</time></trkpt><trkpt lat="45.2123295700371" lon="8.867594477648296"><ele>95.5</ele><time>2026-05-03T09:21:43Z</time></trkpt><trkpt lat="45.212385838734384" lon="8.867422591389083"><ele>95.25</ele><time>2026-05-03T09:21:44Z</time></trkpt><trkpt lat="45.21244985677818" lon="8.867272827424403"><ele>95.0</ele><time>2026-05-03T09:21:45Z</time></trkpt><trkpt lat="45.21248547390336" lon="8.867144818965086"><ele>95.0</ele><time>2026-05-03T09:21:46Z</time></trkpt><trkpt lat="45.21252670770703" lon="8.867043169344536"><ele>95.0</ele><time>2026-05-03T09:21:47Z</time></trkpt><trkpt lat="45.212567427045876" lon="8.866941487493296"><ele>95.0</ele><time>2026-05-03T09:21:48Z</time></trkpt><trkpt lat="45.21259430626138" lon="8.866838595714643"><ele>95.0</ele><time>2026-05-03T09:21:49Z</time></trkpt><trkpt lat="45.212628090584325" lon="8.866734519998655"><ele>95.0</ele><time>2026-05-03T09:21:50Z</time></trkpt><trkpt lat="45.2126587049139" lon="8.866632743005002"><ele>95.0</ele><time>2026-05-03T09:21:51Z</time></trkpt><trkpt lat="45.21271342402977" lon="8.866478850921172"><ele>95.0</ele><time>2026-05-03T09:21:53Z</time></trkpt><trkpt lat="45.21275406478005" lon="8.866356371176025"><ele>95.0</ele><time>2026-05-03T09:21:55Z</time></trkpt><trkpt lat="45.21279132843476" lon="8.866247930540997"><ele>95.0</ele><time>2026-05-03T09:21:57Z</time></trkpt><trkpt lat="45.212839179643105" lon="8.866108919425997"><ele>95.0</ele><time>2026-05-03T09:21:59Z</time></trkpt><trkpt lat="45.21288944248837" lon="8.865965085823937"><ele>95.0</ele><time>2026-05-03T09:22:01Z</time></trkpt><trkpt lat="45.212916416934576" lon="8.86587178068536"><ele>95.0</ele><time>2026-05-03T09:22:23Z</time></trkpt><trkpt lat="45.21287743713922" lon="8.865989190407136"><ele>95.0</ele><time>2026-05-03T09:22:27Z</time></trkpt><trkpt lat="45.212838375598466" lon="8.86609392332116"><ele>95.0</ele><time>2026-05-03T09:22:28Z</time></trkpt><trkpt lat="45.212805589124656" lon="8.866201414589348"><ele>95.0</ele><time>2026-05-03T09:22:29Z</time></trkpt><trkpt lat="45.21274719879211" lon="8.866279988974961"><ele>95.0</ele><time>2026-05-03T09:22:30Z</time></trkpt><trkpt lat="45.21269594856327" lon="8.866418085465263"><ele>95.0</ele><time>2026-05-03T09:22:32Z</time></trkpt><trkpt lat="45.21270523448554" lon="8.86651038921197"><ele>95.0</ele><time>2026-05-03T09:22:34Z</time></trkpt><trkpt lat="45.21265875871707" lon="8.866628196856398"><ele>95.0</ele><time>2026-05-03T09:22:39Z</time></trkpt><trkpt lat="45.21260754446927" lon="8.866706095212193"><ele>95.0</ele><time>2026-05-03T09:22:40Z</time></trkpt><trkpt lat="45.21256112861703" lon="8.866807361622813"><ele>95.0</ele><time>2026-05-03T09:22:41Z</time></trkpt><trkpt lat="45.21252174393956" lon="8.866924129046165"><ele>95.0</ele><time>2026-05-03T09:22:42Z</time></trkpt><trkpt lat="45.21249490276001" lon="8.867019091662655"><ele>95.0</ele><time>2026-05-03T09:22:43Z</time></trkpt><trkpt lat="45.21245823948334" lon="8.867155534704521"><ele>95.0</ele><time>2026-05-03T09:22:45Z</time></trkpt><trkpt lat="45.21250120271299" lon="8.867238130502889"><ele>95.0</ele><time>2026-05-03T09:22:47Z</time></trkpt><trkpt lat="45.21261430007417" lon="8.867233391695649"><ele>95.0</ele><time>2026-05-03T09:22:49Z</time></trkpt><trkpt lat="45.212688879742046" lon="8.86723126214096"><ele>95.0</ele><time>2026-05-03T09:22:50Z</time></trkpt><trkpt lat="45.21276198390898" lon="8.867217027783616"><ele>95.0</ele><time>2026-05-03T09:22:51Z</time></trkpt><trkpt lat="45.21283713743054" lon="8.867204292355424"><ele>95.0</ele><time>2026-05-03T09:22:52Z</time></trkpt><trkpt lat="45.21291020625599" lon="8.867193266204037"><ele>95.0</ele><time>2026-05-03T09:22:53Z</time></trkpt><trkpt lat="45.21299813721675" lon="8.867179997342207"><ele>95.0</ele><time>2026-05-03T09:22:54Z</time></trkpt><trkpt lat="45.21308401639342" lon="8.867172643694227"><ele>95.0</ele><time>2026-05-03T09:22:55Z</time></trkpt><trkpt lat="45.21317870610447" lon="8.867163862760675"><ele>95.0</ele><time>2026-05-03T09:22:56Z</time></trkpt><trkpt lat="45.213266776795294" lon="8.867162621651158"><ele>95.0</ele><time>2026-05-03T09:22:57Z</time></trkpt><trkpt lat="45.21334663519826" lon="8.867161553608883"><ele>95.0</ele><time>2026-05-03T09:22:58Z</time></trkpt><trkpt lat="45.21343114144967" lon="8.867162197603122"><ele>95.0</ele><time>2026-05-03T09:22:59Z</time></trkpt><trkpt lat="45.21355138123937" lon="8.867143150589685"><ele>95.0</ele><time>2026-05-03T09:23:01Z</time></trkpt><trkpt lat="45.213649486875894" lon="8.867141420008318"><ele>95.0</ele><time>2026-05-03T09:23:03Z</time></trkpt><trkpt lat="45.2137706138806" lon="8.867141886307138"><ele>95.0</ele><time>2026-05-03T09:23:05Z</time></trkpt><trkpt lat="45.213834633991205" lon="8.867152186463796"><ele>95.0</ele><time>2026-05-03T09:23:06Z</time></trkpt><trkpt lat="45.21390524335762" lon="8.867151538213339"><ele>95.0</ele><time>2026-05-03T09:23:07Z</time></trkpt><trkpt lat="45.21398246820909" lon="8.867149507597066"><ele>95.0</ele><time>2026-05-03T09:23:08Z</time></trkpt><trkpt lat="45.214057104118176" lon="8.867146253851526"><ele>95.0</ele><time>2026-05-03T09:23:09Z</time></trkpt><trkpt lat="45.21413232890911" lon="8.867137527114712"><ele>95.0</ele><time>2026-05-03T09:23:10Z</time></trkpt><trkpt lat="45.21420952407486" lon="8.867132359815317"><ele>95.0</ele><time>2026-05-03T09:23:11Z</time></trkpt><trkpt lat="45.21429504458013" lon="8.867123782093584"><ele>95.0</ele><time>2026-05-03T09:23:12Z</time></trkpt><trkpt lat="45.214374627664384" lon="8.867117213051046"><ele>94.83333333333334</ele><time>2026-05-03T09:23:13Z</time></trkpt><trkpt lat="45.21445651805517" lon="8.867105744866436"><ele>94.66666666666667</ele><time>2026-05-03T09:23:14Z</time></trkpt><trkpt lat="45.21454641339702" lon="8.867089538958341"><ele>94.5</ele><time>2026-05-03T09:23:15Z</time></trkpt><trkpt lat="45.21462591710334" lon="8.867077046149806"><ele>94.33333333333333</ele><time>2026-05-03T09:23:16Z</time></trkpt><trkpt lat="45.21470015186328" lon="8.867061044783886"><ele>94.16666666666666</ele><time>2026-05-03T09:23:17Z</time></trkpt><trkpt lat="45.21477139658649" lon="8.867050921396062"><ele>94.0</ele><time>2026-05-03T09:23:18Z</time></trkpt><trkpt lat="45.21483956715341" lon="8.867036843698726"><ele>93.83333333333333</ele><time>2026-05-03T09:23:19Z</time></trkpt><trkpt lat="45.214919468713504" lon="8.867019055897499"><ele>93.66666666666666</ele><time>2026-05-03T09:23:20Z</time></trkpt><trkpt lat="45.215002043674446" lon="8.867002252571181"><ele>93.5</ele><time>2026-05-03T09:23:21Z</time></trkpt><trkpt lat="45.215080338904684" lon="8.866988535244385"><ele>93.33333333333333</ele><time>2026-05-03T09:23:22Z</time></trkpt><trkpt lat="45.215161957558195" lon="8.866999315689636"><ele>93.16666666666667</ele><time>2026-05-03T09:23:23Z</time></trkpt><trkpt lat="45.21524092459998" lon="8.866993026445046"><ele>93.0</ele><time>2026-05-03T09:23:24Z</time></trkpt><trkpt lat="45.215328705082754" lon="8.866990950464267"><ele>93.0</ele><time>2026-05-03T09:23:25Z</time></trkpt><trkpt lat="45.21541929852539" lon="8.866988673439947"><ele>93.0</ele><time>2026-05-03T09:23:26Z</time></trkpt><trkpt lat="45.21549763489237" lon="8.867015944757497"><ele>93.0</ele><time>2026-05-03T09:23:27Z</time></trkpt><trkpt lat="45.215584104180124" lon="8.86701575155338"><ele>93.0</ele><time>2026-05-03T09:23:28Z</time></trkpt><trkpt lat="45.21567998888478" lon="8.867059012066091"><ele>93.0</ele><time>2026-05-03T09:23:29Z</time></trkpt><trkpt lat="45.215766411419885" lon="8.867062815875876"><ele>93.0</ele><time>2026-05-03T09:23:30Z</time></trkpt><trkpt lat="45.21584766834167" lon="8.86708806755901"><ele>93.33333333333333</ele><time>2026-05-03T09:23:31Z</time></trkpt><trkpt lat="45.215926184568055" lon="8.867106580881968"><ele>93.66666666666667</ele><time>2026-05-03T09:23:32Z</time></trkpt><trkpt lat="45.21601393268702" lon="8.867129360613974"><ele>94.0</ele><time>2026-05-03T09:23:33Z</time></trkpt><trkpt lat="45.21610644689438" lon="8.867156111580867"><ele>94.33333333333334</ele><time>2026-05-03T09:23:34Z</time></trkpt><trkpt lat="45.21619559575582" lon="8.867176040016753"><ele>94.66666666666667</ele><time>2026-05-03T09:23:35Z</time></trkpt><trkpt lat="45.21627281938736" lon="8.867193499469828"><ele>95.0</ele><time>2026-05-03T09:23:36Z</time></trkpt><trkpt lat="45.216348572131146" lon="8.867218612654879"><ele>95.0</ele><time>2026-05-03T09:23:37Z</time></trkpt><trkpt lat="45.21642691346049" lon="8.867243414818928"><ele>95.0</ele><time>2026-05-03T09:23:38Z</time></trkpt><trkpt lat="45.21650642761492" lon="8.86726256669845"><ele>95.0</ele><time>2026-05-03T09:23:39Z</time></trkpt><trkpt lat="45.21658363079089" lon="8.86728496944909"><ele>95.0</ele><time>2026-05-03T09:23:40Z</time></trkpt><trkpt lat="45.21666171784934" lon="8.867295005504028"><ele>95.0</ele><time>2026-05-03T09:23:41Z</time></trkpt><trkpt lat="45.21674070605923" lon="8.867299230437892"><ele>95.0</ele><time>2026-05-03T09:23:42Z</time></trkpt><trkpt lat="45.21682240682769" lon="8.86730051268467"><ele>96.0</ele><time>2026-05-03T09:23:43Z</time></trkpt><trkpt lat="45.21690147647024" lon="8.867293648653149"><ele>97.0</ele><time>2026-05-03T09:23:44Z</time></trkpt><trkpt lat="45.216977206363126" lon="8.867281738449105"><ele>98.0</ele><time>2026-05-03T09:23:45Z</time></trkpt><trkpt lat="45.2170535816977" lon="8.86726668022485"><ele>99.0</ele><time>2026-05-03T09:23:46Z</time></trkpt><trkpt lat="45.21712161212506" lon="8.86724857410882"><ele>99.99999999999999</ele><time>2026-05-03T09:23:47Z</time></trkpt><trkpt lat="45.21719733414927" lon="8.86723142853936"><ele>101.0</ele><time>2026-05-03T09:23:48Z</time></trkpt><trkpt lat="45.21727438910331" lon="8.867207501711526"><ele>100.19999999999999</ele><time>2026-05-03T09:23:49Z</time></trkpt><trkpt lat="45.21736245006635" lon="8.867169129525267"><ele>99.39999999999999</ele><time>2026-05-03T09:23:50Z</time></trkpt><trkpt lat="45.21746013370194" lon="8.867126373640497"><ele>98.6</ele><time>2026-05-03T09:23:51Z</time></trkpt><trkpt lat="45.217543759539055" lon="8.867082637669485"><ele>97.8</ele><time>2026-05-03T09:23:52Z</time></trkpt><trkpt lat="45.217647373063606" lon="8.867033179922027"><ele>97.0</ele><time>2026-05-03T09:23:53Z</time></trkpt><trkpt lat="45.21774459700939" lon="8.866985925508096"><ele>97.0</ele><time>2026-05-03T09:23:54Z</time></trkpt><trkpt lat="45.21783943349479" lon="8.866942526334563"><ele>97.0</ele><time>2026-05-03T09:23:55Z</time></trkpt><trkpt lat="45.21794913833233" lon="8.866922065113556"><ele>97.0</ele><time>2026-05-03T09:23:56Z</time></trkpt><trkpt lat="45.21807334049555" lon="8.866860841004472"><ele>97.0</ele><time>2026-05-03T09:23:57Z</time></trkpt><trkpt lat="45.218206329162996" lon="8.866845592876228"><ele>96.5</ele><time>2026-05-03T09:23:58Z</time></trkpt><trkpt lat="45.21835592794508" lon="8.866785325416439"><ele>96.0</ele><time>2026-05-03T09:23:59Z</time></trkpt><trkpt lat="45.21848371982846" lon="8.866752846588453"><ele>95.5</ele><time>2026-05-03T09:24:00Z</time></trkpt><trkpt lat="45.218596668065075" lon="8.86672493603381"><ele>95.0</ele><time>2026-05-03T09:24:01Z</time></trkpt><trkpt lat="45.21870860917261" lon="8.866692180579562"><ele>95.0</ele><time>2026-05-03T09:24:02Z</time></trkpt><trkpt lat="45.21882187184181" lon="8.866652489485542"><ele>95.0</ele><time>2026-05-03T09:24:03Z</time></trkpt><trkpt lat="45.21893114020374" lon="8.866599695111193"><ele>95.0</ele><time>2026-05-03T09:24:04Z</time></trkpt><trkpt lat="45.21905378016642" lon="8.866525777021053"><ele>95.0</ele><time>2026-05-03T09:24:05Z</time></trkpt><trkpt lat="45.219187427683714" lon="8.866426275461745"><ele>94.75</ele><time>2026-05-03T09:24:06Z</time></trkpt><trkpt lat="45.21931180755068" lon="8.866322740545844"><ele>94.5</ele><time>2026-05-03T09:24:07Z</time></trkpt><trkpt lat="45.2194229230787" lon="8.866271954448209"><ele>94.25</ele><time>2026-05-03T09:24:08Z</time></trkpt><trkpt lat="45.21951379337185" lon="8.866188255857397"><ele>94.0</ele><time>2026-05-03T09:24:09Z</time></trkpt><trkpt lat="45.21960258177779" lon="8.866143699180366"><ele>94.0</ele><time>2026-05-03T09:24:10Z</time></trkpt><trkpt lat="45.219714246744935" lon="8.86609850114431"><ele>94.0</ele><time>2026-05-03T09:24:11Z</time></trkpt><trkpt lat="45.21981905950397" lon="8.866032115809274"><ele>94.0</ele><time>2026-05-03T09:24:12Z</time></trkpt><trkpt lat="45.21994519177135" lon="8.865987304891073"><ele>94.0</ele><time>2026-05-03T09:24:13Z</time></trkpt><trkpt lat="45.22007036812419" lon="8.865949788812648"><ele>93.75</ele><time>2026-05-03T09:24:14Z</time></trkpt><trkpt lat="45.22019954872293" lon="8.8659428184274"><ele>93.5</ele><time>2026-05-03T09:24:15Z</time></trkpt><trkpt lat="45.220325004943774" lon="8.86592744516937"><ele>93.25</ele><time>2026-05-03T09:24:16Z</time></trkpt><trkpt lat="45.22045365983915" lon="8.865897708156668"><ele>93.0</ele><time>2026-05-03T09:24:17Z</time></trkpt><trkpt lat="45.22058545688334" lon="8.865876523651808"><ele>93.25</ele><time>2026-05-03T09:24:18Z</time></trkpt><trkpt lat="45.22070551832482" lon="8.865873678887313"><ele>93.5</ele><time>2026-05-03T09:24:19Z</time></trkpt><trkpt lat="45.220836242970734" lon="8.865858058928108"><ele>93.75</ele><time>2026-05-03T09:24:20Z</time></trkpt><trkpt lat="45.22095354519253" lon="8.865850159170549"><ele>94.0</ele><time>2026-05-03T09:24:21Z</time></trkpt><trkpt lat="45.22107116782043" lon="8.865851861223078"><ele>94.0</ele><time>2026-05-03T09:24:22Z</time></trkpt><trkpt lat="45.221196739434355" lon="8.86583955895942"><ele>94.0</ele><time>2026-05-03T09:24:23Z</time></trkpt><trkpt lat="45.22132640751202" lon="8.865842648542829"><ele>94.0</ele><time>2026-05-03T09:24:24Z</time></trkpt><trkpt lat="45.22145459021412" lon="8.86584845408743"><ele>94.0</ele><time>2026-05-03T09:24:25Z</time></trkpt><trkpt lat="45.22157069344284" lon="8.8658487535673"><ele>94.2</ele><time>2026-05-03T09:24:26Z</time></trkpt><trkpt lat="45.22168762557014" lon="8.86585586072892"><ele>94.4</ele><time>2026-05-03T09:24:27Z</time></trkpt><trkpt lat="45.221797168516815" lon="8.865886487123623"><ele>94.6</ele><time>2026-05-03T09:24:28Z</time></trkpt><trkpt lat="45.22190167724784" lon="8.86587875225728"><ele>94.8</ele><time>2026-05-03T09:24:29Z</time></trkpt><trkpt lat="45.2219983604229" lon="8.865883457283662"><ele>95.0</ele><time>2026-05-03T09:24:30Z</time></trkpt><trkpt lat="45.22208272039919" lon="8.865908277520703"><ele>95.0</ele><time>2026-05-03T09:24:31Z</time></trkpt><trkpt lat="45.222149362011805" lon="8.865892221723426"><ele>95.0</ele><time>2026-05-03T09:24:32Z</time></trkpt><trkpt lat="45.22222564766631" lon="8.865898853630794"><ele>95.0</ele><time>2026-05-03T09:24:33Z</time></trkpt><trkpt lat="45.222314151134135" lon="8.865905095010723"><ele>95.0</ele><time>2026-05-03T09:24:34Z</time></trkpt><trkpt lat="45.22244542526325" lon="8.865907751976597"><ele>95.0</ele><time>2026-05-03T09:24:35Z</time></trkpt><trkpt lat="45.22255146042601" lon="8.865894391034479"><ele>95.0</ele><time>2026-05-03T09:24:36Z</time></trkpt><trkpt lat="45.222638001259455" lon="8.865897343098748"><ele>95.0</ele><time>2026-05-03T09:24:37Z</time></trkpt><trkpt lat="45.22275794480706" lon="8.865865662094377"><ele>95.0</ele><time>2026-05-03T09:24:39Z</time></trkpt><trkpt lat="45.22282578983491" lon="8.865849490863338"><ele>95.0</ele><time>2026-05-03T09:24:41Z</time></trkpt><trkpt lat="45.22288358794506" lon="8.865804674075653"><ele>95.0</ele><time>2026-05-03T09:24:46Z</time></trkpt><trkpt lat="45.22281646860448" lon="8.865645938777906"><ele>95.0</ele><time>2026-05-03T09:24:47Z</time></trkpt><trkpt lat="45.222729459945874" lon="8.865509130990437"><ele>95.0</ele><time>2026-05-03T09:24:48Z</time></trkpt><trkpt lat="45.22261026994653" lon="8.86535598780614"><ele>95.0</ele><time>2026-05-03T09:24:49Z</time></trkpt><trkpt lat="45.22246140266258" lon="8.865179769515668"><ele>95.33333333333334</ele><time>2026-05-03T09:24:50Z</time></trkpt><trkpt lat="45.22230024713202" lon="8.864975562002005"><ele>95.66666666666667</ele><time>2026-05-03T09:24:51Z</time></trkpt><trkpt lat="45.22213714347511" lon="8.864760037613278"><ele>96.0</ele><time>2026-05-03T09:24:52Z</time></trkpt><trkpt lat="45.221954223082896" lon="8.864527441043766"><ele>96.0</ele><time>2026-05-03T09:24:53Z</time></trkpt><trkpt lat="45.221773158762055" lon="8.864287765207509"><ele>96.0</ele><time>2026-05-03T09:24:54Z</time></trkpt><trkpt lat="45.22159845141808" lon="8.864055868520095"><ele>95.33333333333333</ele><time>2026-05-03T09:24:55Z</time></trkpt><trkpt lat="45.221438919872796" lon="8.86384801594993"><ele>94.66666666666666</ele><time>2026-05-03T09:24:56Z</time></trkpt><trkpt lat="45.221281979154874" lon="8.86365270795376"><ele>94.0</ele><time>2026-05-03T09:24:57Z</time></trkpt><trkpt lat="45.22112487823005" lon="8.86345552539197"><ele>94.33333333333333</ele><time>2026-05-03T09:24:58Z</time></trkpt><trkpt lat="45.220970198254925" lon="8.863263703454336"><ele>94.66666666666667</ele><time>2026-05-03T09:24:59Z</time></trkpt><trkpt lat="45.220820049663025" lon="8.863070705261748"><ele>95.0</ele><time>2026-05-03T09:25:00Z</time></trkpt><trkpt lat="45.220669842302044" lon="8.862879253661827"><ele>95.0</ele><time>2026-05-03T09:25:01Z</time></trkpt><trkpt lat="45.22052358587569" lon="8.862688367954068"><ele>95.0</ele><time>2026-05-03T09:25:02Z</time></trkpt><trkpt lat="45.220375110277914" lon="8.862519613976243"><ele>95.0</ele><time>2026-05-03T09:25:03Z</time></trkpt><trkpt lat="45.220232172208235" lon="8.862326117920675"><ele>94.66666666666667</ele><time>2026-05-03T09:25:04Z</time></trkpt><trkpt lat="45.22008633422563" lon="8.86214125975231"><ele>94.33333333333333</ele><time>2026-05-03T09:25:05Z</time></trkpt><trkpt lat="45.2199398699277" lon="8.861953944491827"><ele>94.0</ele><time>2026-05-03T09:25:06Z</time></trkpt><trkpt lat="45.21979575678441" lon="8.861766848354575"><ele>94.0</ele><time>2026-05-03T09:25:07Z</time></trkpt><trkpt lat="45.2196523759267" lon="8.861578302270738"><ele>94.0</ele><time>2026-05-03T09:25:08Z</time></trkpt><trkpt lat="45.21950938754881" lon="8.861393313416762"><ele>94.0</ele><time>2026-05-03T09:25:09Z</time></trkpt><trkpt lat="45.21936584880236" lon="8.86120385643098"><ele>94.0</ele><time>2026-05-03T09:25:10Z</time></trkpt><trkpt lat="45.219222643529854" lon="8.861016499310896"><ele>94.0</ele><time>2026-05-03T09:25:11Z</time></trkpt><trkpt lat="45.21908174597063" lon="8.860833433273166"><ele>94.0</ele><time>2026-05-03T09:25:12Z</time></trkpt><trkpt lat="45.2189370230365" lon="8.860663568863163"><ele>94.0</ele><time>2026-05-03T09:25:13Z</time></trkpt><trkpt lat="45.218808185896165" lon="8.860484138400512"><ele>94.0</ele><time>2026-05-03T09:25:14Z</time></trkpt><trkpt lat="45.21867750731236" lon="8.860306646872875"><ele>94.0</ele><time>2026-05-03T09:25:15Z</time></trkpt><trkpt lat="45.218542912265555" lon="8.860133258424721"><ele>94.0</ele><time>2026-05-03T09:25:16Z</time></trkpt><trkpt lat="45.218415941027835" lon="8.85996384643125"><ele>94.0</ele><time>2026-05-03T09:25:17Z</time></trkpt><trkpt lat="45.21828431901035" lon="8.859803595561043"><ele>94.0</ele><time>2026-05-03T09:25:18Z</time></trkpt><trkpt lat="45.21815302809719" lon="8.859637966005568"><ele>94.0</ele><time>2026-05-03T09:25:19Z</time></trkpt><trkpt lat="45.21802711926162" lon="8.859468284389497"><ele>94.0</ele><time>2026-05-03T09:25:20Z</time></trkpt><trkpt lat="45.21790299341821" lon="8.859295791717223"><ele>94.0</ele><time>2026-05-03T09:25:21Z</time></trkpt><trkpt lat="45.2177775415204" lon="8.859131464499733"><ele>94.0</ele><time>2026-05-03T09:25:22Z</time></trkpt><trkpt lat="45.21765019687153" lon="8.858972978429424"><ele>94.0</ele><time>2026-05-03T09:25:23Z</time></trkpt><trkpt lat="45.21752038919919" lon="8.858804503354492"><ele>94.0</ele><time>2026-05-03T09:25:24Z</time></trkpt><trkpt lat="45.21739364604735" lon="8.858641439293203"><ele>94.0</ele><time>2026-05-03T09:25:25Z</time></trkpt><trkpt lat="45.21726450962739" lon="8.858475194012444"><ele>94.0</ele><time>2026-05-03T09:25:26Z</time></trkpt><trkpt lat="45.21713471704479" lon="8.858302331816619"><ele>94.0</ele><time>2026-05-03T09:25:27Z</time></trkpt><trkpt lat="45.217004716505635" lon="8.858130608476953"><ele>94.66666666666666</ele><time>2026-05-03T09:25:28Z</time></trkpt><trkpt lat="45.21687658884384" lon="8.857961474764663"><ele>95.33333333333333</ele><time>2026-05-03T09:25:29Z</time></trkpt><trkpt lat="45.216758509515515" lon="8.857803543548041"><ele>96.0</ele><time>2026-05-03T09:25:30Z</time></trkpt><trkpt lat="45.21666306195554" lon="8.857676734531397"><ele>96.0</ele><time>2026-05-03T09:25:31Z</time></trkpt><trkpt lat="45.2165910063176" lon="8.857576301331768"><ele>96.0</ele><time>2026-05-03T09:25:32Z</time></trkpt><trkpt lat="45.216533434503745" lon="8.85749167225398"><ele>96.0</ele><time>2026-05-03T09:25:33Z</time></trkpt><trkpt lat="45.21648829738728" lon="8.857416393119852"><ele>96.0</ele><time>2026-05-03T09:25:34Z</time></trkpt><trkpt lat="45.2164595842135" lon="8.85732243983932"><ele>96.0</ele><time>2026-05-03T09:25:35Z</time></trkpt><trkpt lat="45.216425804599744" lon="8.857184112964791"><ele>96.0</ele><time>2026-05-03T09:25:36Z</time></trkpt><trkpt lat="45.216405562995895" lon="8.857031106515196"><ele>96.0</ele><time>2026-05-03T09:25:37Z</time></trkpt><trkpt lat="45.21639535869594" lon="8.856876000044522"><ele>96.0</ele><time>2026-05-03T09:25:38Z</time></trkpt><trkpt lat="45.21640189397844" lon="8.85669048727957"><ele>96.0</ele><time>2026-05-03T09:25:39Z</time></trkpt><trkpt lat="45.21642301699086" lon="8.856499461029346"><ele>96.0</ele><time>2026-05-03T09:25:40Z</time></trkpt><trkpt lat="45.21646134218302" lon="8.856306720029243"><ele>95.75</ele><time>2026-05-03T09:25:41Z</time></trkpt><trkpt lat="45.21650130818045" lon="8.856116834071928"><ele>95.5</ele><time>2026-05-03T09:25:42Z</time></trkpt><trkpt lat="45.21654034923513" lon="8.855922876366455"><ele>95.25</ele><time>2026-05-03T09:25:43Z</time></trkpt><trkpt lat="45.21657820139934" lon="8.85571913606844"><ele>95.0</ele><time>2026-05-03T09:25:44Z</time></trkpt><trkpt lat="45.21661675686471" lon="8.855506965889681"><ele>94.66666666666667</ele><time>2026-05-03T09:25:45Z</time></trkpt><trkpt lat="45.216656819738766" lon="8.855290805916972"><ele>94.33333333333333</ele><time>2026-05-03T09:25:46Z</time></trkpt><trkpt lat="45.21669779893682" lon="8.855068870730944"><ele>94.0</ele><time>2026-05-03T09:25:47Z</time></trkpt><trkpt lat="45.21674384296392" lon="8.85485641259663"><ele>94.0</ele><time>2026-05-03T09:25:48Z</time></trkpt><trkpt lat="45.2167863734189" lon="8.854635553611693"><ele>94.0</ele><time>2026-05-03T09:25:49Z</time></trkpt><trkpt lat="45.21682560974927" lon="8.854431357844623"><ele>94.0</ele><time>2026-05-03T09:25:50Z</time></trkpt><trkpt lat="45.216859887838595" lon="8.854238807573232"><ele>94.0</ele><time>2026-05-03T09:25:51Z</time></trkpt><trkpt lat="45.21690114379426" lon="8.854069488058723"><ele>94.0</ele><time>2026-05-03T09:25:52Z</time></trkpt><trkpt lat="45.21690855086591" lon="8.853905854021393"><ele>94.0</ele><time>2026-05-03T09:25:53Z</time></trkpt><trkpt lat="45.21699811838813" lon="8.85375544079798"><ele>94.0</ele><time>2026-05-03T09:25:54Z</time></trkpt><trkpt lat="45.217061570852984" lon="8.853577729392372"><ele>94.0</ele><time>2026-05-03T09:25:55Z</time></trkpt><trkpt lat="45.21712784973764" lon="8.853378608076305"><ele>94.0</ele><time>2026-05-03T09:25:56Z</time></trkpt><trkpt lat="45.2171942111129" lon="8.853167788582335"><ele>94.0</ele><time>2026-05-03T09:25:57Z</time></trkpt><trkpt lat="45.217266716832505" lon="8.852945236576328"><ele>94.33333333333333</ele><time>2026-05-03T09:25:58Z</time></trkpt><trkpt lat="45.217343464009865" lon="8.852716713096488"><ele>94.66666666666667</ele><time>2026-05-03T09:25:59Z</time></trkpt><trkpt lat="45.217422918677684" lon="8.852478946203659"><ele>95.0</ele><time>2026-05-03T09:26:00Z</time></trkpt><trkpt lat="45.21750075998311" lon="8.852236868939212"><ele>95.33333333333334</ele><time>2026-05-03T09:26:01Z</time></trkpt><trkpt lat="45.217584689439605" lon="8.851989928025745"><ele>95.66666666666667</ele><time>2026-05-03T09:26:02Z</time></trkpt><trkpt lat="45.21766911229002" lon="8.851732735246587"><ele>96.0</ele><time>2026-05-03T09:26:03Z</time></trkpt><trkpt lat="45.21773856864851" lon="8.85151750238077"><ele>96.0</ele><time>2026-05-03T09:26:04Z</time></trkpt><trkpt lat="45.2178109087904" lon="8.851306563854594"><ele>96.0</ele><time>2026-05-03T09:26:05Z</time></trkpt><trkpt lat="45.217876343811675" lon="8.851104527662168"><ele>96.0</ele><time>2026-05-03T09:26:06Z</time></trkpt><trkpt lat="45.21794279364007" lon="8.850906748174673"><ele>96.33333333333334</ele><time>2026-05-03T09:26:07Z</time></trkpt><trkpt lat="45.218011570197866" lon="8.85069822913288"><ele>96.66666666666667</ele><time>2026-05-03T09:26:08Z</time></trkpt><trkpt lat="45.21808294356312" lon="8.850496474795845"><ele>97.0</ele><time>2026-05-03T09:26:09Z</time></trkpt><trkpt lat="45.218154178772934" lon="8.85029165964573"><ele>97.33333333333334</ele><time>2026-05-03T09:26:10Z</time></trkpt><trkpt lat="45.218226280225075" lon="8.850081093308695"><ele>97.66666666666666</ele><time>2026-05-03T09:26:11Z</time></trkpt><trkpt lat="45.218292030971085" lon="8.849879943384206"><ele>98.0</ele><time>2026-05-03T09:26:12Z</time></trkpt><trkpt lat="45.21836056497743" lon="8.84967098777702"><ele>98.0</ele><time>2026-05-03T09:26:13Z</time></trkpt><trkpt lat="45.218430562108566" lon="8.849455931712727"><ele>98.0</ele><time>2026-05-03T09:26:14Z</time></trkpt><trkpt lat="45.218502245566164" lon="8.84924348643114"><ele>98.0</ele><time>2026-05-03T09:26:15Z</time></trkpt><trkpt lat="45.218643773754565" lon="8.848819872174987"><ele>98.33333333333333</ele><time>2026-05-03T09:26:17Z</time></trkpt><trkpt lat="45.21871293744114" lon="8.848602457939075"><ele>98.66666666666666</ele><time>2026-05-03T09:26:18Z</time></trkpt><trkpt lat="45.21878616341163" lon="8.848384444731806"><ele>99.0</ele><time>2026-05-03T09:26:19Z</time></trkpt><trkpt lat="45.21885980725976" lon="8.848170609833124"><ele>98.33333333333334</ele><time>2026-05-03T09:26:20Z</time></trkpt><trkpt lat="45.21893331822124" lon="8.84794918211996"><ele>97.66666666666667</ele><time>2026-05-03T09:26:21Z</time></trkpt><trkpt lat="45.21900597611746" lon="8.84773166174564"><ele>97.0</ele><time>2026-05-03T09:26:22Z</time></trkpt><trkpt lat="45.21907150288408" lon="8.847530622293228"><ele>97.0</ele><time>2026-05-03T09:26:23Z</time></trkpt><trkpt lat="45.21915031488039" lon="8.847289976351641"><ele>97.0</ele><time>2026-05-03T09:26:24Z</time></trkpt><trkpt lat="45.219226341286" lon="8.847072504456907"><ele>97.0</ele><time>2026-05-03T09:26:25Z</time></trkpt><trkpt lat="45.21929886678633" lon="8.846848741319565"><ele>97.33333333333334</ele><time>2026-05-03T09:26:26Z</time></trkpt><trkpt lat="45.21937548924194" lon="8.846630402478219"><ele>97.66666666666666</ele><time>2026-05-03T09:26:27Z</time></trkpt><trkpt lat="45.219440769547795" lon="8.846429207867532"><ele>98.0</ele><time>2026-05-03T09:26:28Z</time></trkpt><trkpt lat="45.21950161210972" lon="8.846242300497053"><ele>98.0</ele><time>2026-05-03T09:26:29Z</time></trkpt><trkpt lat="45.2195554305191" lon="8.846067915796166"><ele>98.0</ele><time>2026-05-03T09:26:30Z</time></trkpt><trkpt lat="45.21960863765083" lon="8.845905825717358"><ele>98.0</ele><time>2026-05-03T09:26:31Z</time></trkpt><trkpt lat="45.219658289825084" lon="8.845754461054922"><ele>98.0</ele><time>2026-05-03T09:26:32Z</time></trkpt><trkpt lat="45.21971043479634" lon="8.845604189823773"><ele>98.0</ele><time>2026-05-03T09:26:33Z</time></trkpt><trkpt lat="45.21976987459055" lon="8.845436074891266"><ele>98.0</ele><time>2026-05-03T09:26:34Z</time></trkpt><trkpt lat="45.21983247975129" lon="8.845252246909542"><ele>98.0</ele><time>2026-05-03T09:26:35Z</time></trkpt><trkpt lat="45.21989488623393" lon="8.845065641263279"><ele>98.0</ele><time>2026-05-03T09:26:36Z</time></trkpt><trkpt lat="45.21996111622274" lon="8.844866389739092"><ele>98.33333333333333</ele><time>2026-05-03T09:26:37Z</time></trkpt><trkpt lat="45.22002828853625" lon="8.844662883853399"><ele>98.66666666666666</ele><time>2026-05-03T09:26:38Z</time></trkpt><trkpt lat="45.220096893588334" lon="8.84445413147416"><ele>99.0</ele><time>2026-05-03T09:26:39Z</time></trkpt><trkpt lat="45.22016424979138" lon="8.844230892321121"><ele>99.0</ele><time>2026-05-03T09:26:40Z</time></trkpt><trkpt lat="45.2202466758696" lon="8.844006884541791"><ele>99.0</ele><time>2026-05-03T09:26:41Z</time></trkpt><trkpt lat="45.220306216888616" lon="8.843767960246385"><ele>99.0</ele><time>2026-05-03T09:26:42Z</time></trkpt><trkpt lat="45.22038821233932" lon="8.843547858172467"><ele>99.0</ele><time>2026-05-03T09:26:43Z</time></trkpt><trkpt lat="45.2204642380916" lon="8.843318256190413"><ele>99.0</ele><time>2026-05-03T09:26:44Z</time></trkpt><trkpt lat="45.22054642620718" lon="8.843087262632261"><ele>99.0</ele><time>2026-05-03T09:26:45Z</time></trkpt><trkpt lat="45.22062211658974" lon="8.84287533912614"><ele>99.0</ele><time>2026-05-03T09:26:46Z</time></trkpt><trkpt lat="45.22069189241494" lon="8.842676216967988"><ele>99.0</ele><time>2026-05-03T09:26:47Z</time></trkpt><trkpt lat="45.22076063970544" lon="8.842470952617298"><ele>99.0</ele><time>2026-05-03T09:26:48Z</time></trkpt><trkpt lat="45.22083270966057" lon="8.842262284560924"><ele>98.75</ele><time>2026-05-03T09:26:49Z</time></trkpt><trkpt lat="45.22090061462476" lon="8.842062762196873"><ele>98.5</ele><time>2026-05-03T09:26:50Z</time></trkpt><trkpt lat="45.220962459967595" lon="8.841882335096363"><ele>98.25</ele><time>2026-05-03T09:26:51Z</time></trkpt><trkpt lat="45.22101908403904" lon="8.841712299769142"><ele>98.0</ele><time>2026-05-03T09:26:52Z</time></trkpt><trkpt lat="45.22107145693875" lon="8.84155306797719"><ele>98.0</ele><time>2026-05-03T09:26:53Z</time></trkpt><trkpt lat="45.22111962069782" lon="8.84141449880857"><ele>98.0</ele><time>2026-05-03T09:26:54Z</time></trkpt><trkpt lat="45.221163954648695" lon="8.841283226088303"><ele>98.0</ele><time>2026-05-03T09:26:55Z</time></trkpt><trkpt lat="45.22120143742278" lon="8.841181859370387"><ele>98.0</ele><time>2026-05-03T09:26:56Z</time></trkpt><trkpt lat="45.22123415159832" lon="8.84110042929194"><ele>98.0</ele><time>2026-05-03T09:26:57Z</time></trkpt><trkpt lat="45.221278446352194" lon="8.841001210860481"><ele>98.0</ele><time>2026-05-03T09:26:59Z</time></trkpt></trkseg></trk></gpx>